<?xml version="1.0" encoding="UTF-8"?>
<gpx
  version="1.0"
  creator="GPSBabel - http://www.gpsbabel.org"
  xmlns:xsi="http://www.w3.org/2001/XMLSchema-instance"
  xmlns="http://www.topografix.com/GPX/1/0"
  xsi:schemaLocation="http://www.topografix.com/GPX/1/1 http://www.topografix.com/GPX/1/1/gpx.xsd">
<time>2012-04-03T12:28:18Z</time>
<bounds minlat="39.657813000" minlon="-0.371553000" maxlat="39.717029000" maxlon="-0.313939000"/>
<trk>
  <name>2012-03-10-01</name>
<trkseg>
<trkpt lat="39.714799000" lon="-0.350420000">
  <ele>119.300000</ele>
  <time>2012-03-10T06:19:56Z</time>
  <sat>10</sat>
</trkpt>
<trkpt lat="39.714773000" lon="-0.350455000">
  <ele>115.700000</ele>
  <time>2012-03-10T06:21:28Z</time>
  <sat>8</sat>
</trkpt>
<trkpt lat="39.714773000" lon="-0.350429000">
  <ele>115.600000</ele>
  <time>2012-03-10T06:21:29Z</time>
  <sat>8</sat>
</trkpt>
<trkpt lat="39.714792000" lon="-0.349547000">
  <ele>115.000000</ele>
  <time>2012-03-10T06:21:53Z</time>
  <sat>9</sat>
</trkpt>
<trkpt lat="39.714773000" lon="-0.349518000">
  <ele>114.800000</ele>
  <time>2012-03-10T06:21:54Z</time>
  <sat>9</sat>
</trkpt>
<trkpt lat="39.714718000" lon="-0.349486000">
  <ele>114.000000</ele>
  <time>2012-03-10T06:21:56Z</time>
  <sat>9</sat>
</trkpt>
<trkpt lat="39.714647000" lon="-0.349489000">
  <ele>114.900000</ele>
  <time>2012-03-10T06:21:58Z</time>
  <sat>9</sat>
</trkpt>
<trkpt lat="39.714478000" lon="-0.349498000">
  <ele>113.500000</ele>
  <time>2012-03-10T06:22:03Z</time>
  <sat>8</sat>
</trkpt>
<trkpt lat="39.714050000" lon="-0.349480000">
  <ele>114.000000</ele>
  <time>2012-03-10T06:22:14Z</time>
  <sat>10</sat>
</trkpt>
<trkpt lat="39.714011000" lon="-0.349440000">
  <ele>113.300000</ele>
  <time>2012-03-10T06:22:15Z</time>
  <sat>10</sat>
</trkpt>
<trkpt lat="39.713968000" lon="-0.349419000">
  <ele>113.100000</ele>
  <time>2012-03-10T06:22:16Z</time>
  <sat>10</sat>
</trkpt>
<trkpt lat="39.713929000" lon="-0.349396000">
  <ele>113.500000</ele>
  <time>2012-03-10T06:22:17Z</time>
  <sat>10</sat>
</trkpt>
<trkpt lat="39.713727000" lon="-0.349256000">
  <ele>113.600000</ele>
  <time>2012-03-10T06:22:22Z</time>
  <sat>10</sat>
</trkpt>
<trkpt lat="39.713234000" lon="-0.348909000">
  <ele>117.000000</ele>
  <time>2012-03-10T06:22:33Z</time>
  <sat>10</sat>
</trkpt>
<trkpt lat="39.713165000" lon="-0.348886000">
  <ele>118.000000</ele>
  <time>2012-03-10T06:22:34Z</time>
  <sat>10</sat>
</trkpt>
<trkpt lat="39.712860000" lon="-0.348775000">
  <ele>117.500000</ele>
  <time>2012-03-10T06:22:40Z</time>
  <sat>8</sat>
</trkpt>
<trkpt lat="39.712826000" lon="-0.348755000">
  <ele>116.900000</ele>
  <time>2012-03-10T06:22:41Z</time>
  <sat>8</sat>
</trkpt>
<trkpt lat="39.712464000" lon="-0.348542000">
  <ele>119.100000</ele>
  <time>2012-03-10T06:22:49Z</time>
  <sat>9</sat>
</trkpt>
<trkpt lat="39.712410000" lon="-0.348555000">
  <ele>118.400000</ele>
  <time>2012-03-10T06:22:50Z</time>
  <sat>9</sat>
</trkpt>
<trkpt lat="39.712378000" lon="-0.348619000">
  <ele>116.600000</ele>
  <time>2012-03-10T06:22:51Z</time>
  <sat>9</sat>
</trkpt>
<trkpt lat="39.712341000" lon="-0.348670000">
  <ele>116.000000</ele>
  <time>2012-03-10T06:22:52Z</time>
  <sat>9</sat>
</trkpt>
<trkpt lat="39.712193000" lon="-0.348848000">
  <ele>116.500000</ele>
  <time>2012-03-10T06:22:56Z</time>
  <sat>10</sat>
</trkpt>
<trkpt lat="39.712149000" lon="-0.348860000">
  <ele>117.400000</ele>
  <time>2012-03-10T06:22:57Z</time>
  <sat>10</sat>
</trkpt>
<trkpt lat="39.712082000" lon="-0.348864000">
  <ele>117.300000</ele>
  <time>2012-03-10T06:22:58Z</time>
  <sat>10</sat>
</trkpt>
<trkpt lat="39.712038000" lon="-0.348849000">
  <ele>117.300000</ele>
  <time>2012-03-10T06:22:59Z</time>
  <sat>10</sat>
</trkpt>
<trkpt lat="39.711868000" lon="-0.348725000">
  <ele>117.800000</ele>
  <time>2012-03-10T06:23:03Z</time>
  <sat>10</sat>
</trkpt>
<trkpt lat="39.711713000" lon="-0.348569000">
  <ele>120.000000</ele>
  <time>2012-03-10T06:23:07Z</time>
  <sat>10</sat>
</trkpt>
<trkpt lat="39.711642000" lon="-0.348488000">
  <ele>120.800000</ele>
  <time>2012-03-10T06:23:09Z</time>
  <sat>10</sat>
</trkpt>
<trkpt lat="39.711258000" lon="-0.348051000">
  <ele>118.500000</ele>
  <time>2012-03-10T06:23:19Z</time>
  <sat>10</sat>
</trkpt>
<trkpt lat="39.711190000" lon="-0.348057000">
  <ele>117.600000</ele>
  <time>2012-03-10T06:23:20Z</time>
  <sat>10</sat>
</trkpt>
<trkpt lat="39.710930000" lon="-0.348048000">
  <ele>115.500000</ele>
  <time>2012-03-10T06:23:24Z</time>
  <sat>8</sat>
</trkpt>
<trkpt lat="39.709914000" lon="-0.348113000">
  <ele>112.000000</ele>
  <time>2012-03-10T06:23:41Z</time>
  <sat>7</sat>
</trkpt>
<trkpt lat="39.709862000" lon="-0.348136000">
  <ele>111.000000</ele>
  <time>2012-03-10T06:23:42Z</time>
  <sat>8</sat>
</trkpt>
<trkpt lat="39.709742000" lon="-0.348187000">
  <ele>110.600000</ele>
  <time>2012-03-10T06:23:45Z</time>
  <sat>8</sat>
</trkpt>
<trkpt lat="39.709702000" lon="-0.348199000">
  <ele>110.800000</ele>
  <time>2012-03-10T06:23:46Z</time>
  <sat>9</sat>
</trkpt>
<trkpt lat="39.709661000" lon="-0.348198000">
  <ele>110.000000</ele>
  <time>2012-03-10T06:23:47Z</time>
  <sat>9</sat>
</trkpt>
<trkpt lat="39.709608000" lon="-0.348193000">
  <ele>109.500000</ele>
  <time>2012-03-10T06:23:48Z</time>
  <sat>9</sat>
</trkpt>
<trkpt lat="39.709546000" lon="-0.348173000">
  <ele>108.800000</ele>
  <time>2012-03-10T06:23:49Z</time>
  <sat>9</sat>
</trkpt>
<trkpt lat="39.709484000" lon="-0.348141000">
  <ele>108.300000</ele>
  <time>2012-03-10T06:23:50Z</time>
  <sat>9</sat>
</trkpt>
<trkpt lat="39.709419000" lon="-0.348098000">
  <ele>107.800000</ele>
  <time>2012-03-10T06:23:51Z</time>
  <sat>9</sat>
</trkpt>
<trkpt lat="39.709301000" lon="-0.347979000">
  <ele>106.300000</ele>
  <time>2012-03-10T06:23:53Z</time>
  <sat>10</sat>
</trkpt>
<trkpt lat="39.709078000" lon="-0.347752000">
  <ele>105.500000</ele>
  <time>2012-03-10T06:23:58Z</time>
  <sat>10</sat>
</trkpt>
<trkpt lat="39.709055000" lon="-0.347742000">
  <ele>105.400000</ele>
  <time>2012-03-10T06:23:59Z</time>
  <sat>10</sat>
</trkpt>
<trkpt lat="39.709041000" lon="-0.347733000">
  <ele>105.300000</ele>
  <time>2012-03-10T06:24:00Z</time>
  <sat>10</sat>
</trkpt>
<trkpt lat="39.709031000" lon="-0.347715000">
  <ele>105.000000</ele>
  <time>2012-03-10T06:24:01Z</time>
  <sat>10</sat>
</trkpt>
<trkpt lat="39.709018000" lon="-0.347685000">
  <ele>105.100000</ele>
  <time>2012-03-10T06:24:02Z</time>
  <sat>10</sat>
</trkpt>
<trkpt lat="39.708996000" lon="-0.347667000">
  <ele>104.500000</ele>
  <time>2012-03-10T06:24:03Z</time>
  <sat>10</sat>
</trkpt>
<trkpt lat="39.708976000" lon="-0.347650000">
  <ele>104.100000</ele>
  <time>2012-03-10T06:24:04Z</time>
  <sat>10</sat>
</trkpt>
<trkpt lat="39.708954000" lon="-0.347626000">
  <ele>104.000000</ele>
  <time>2012-03-10T06:24:05Z</time>
  <sat>10</sat>
</trkpt>
<trkpt lat="39.708927000" lon="-0.347577000">
  <ele>103.300000</ele>
  <time>2012-03-10T06:24:07Z</time>
  <sat>10</sat>
</trkpt>
<trkpt lat="39.708852000" lon="-0.347482000">
  <ele>102.300000</ele>
  <time>2012-03-10T06:24:12Z</time>
  <sat>10</sat>
</trkpt>
<trkpt lat="39.708820000" lon="-0.347412000">
  <ele>101.400000</ele>
  <time>2012-03-10T06:24:15Z</time>
  <sat>10</sat>
</trkpt>
<trkpt lat="39.708796000" lon="-0.347355000">
  <ele>98.900000</ele>
  <time>2012-03-10T06:24:17Z</time>
  <sat>10</sat>
</trkpt>
<trkpt lat="39.708775000" lon="-0.347325000">
  <ele>97.900000</ele>
  <time>2012-03-10T06:24:18Z</time>
  <sat>10</sat>
</trkpt>
<trkpt lat="39.708753000" lon="-0.347315000">
  <ele>96.600000</ele>
  <time>2012-03-10T06:24:19Z</time>
  <sat>9</sat>
</trkpt>
<trkpt lat="39.708692000" lon="-0.347299000">
  <ele>95.300000</ele>
  <time>2012-03-10T06:24:21Z</time>
  <sat>9</sat>
</trkpt>
<trkpt lat="39.708659000" lon="-0.347310000">
  <ele>95.000000</ele>
  <time>2012-03-10T06:24:22Z</time>
  <sat>9</sat>
</trkpt>
<trkpt lat="39.708625000" lon="-0.347315000">
  <ele>95.000000</ele>
  <time>2012-03-10T06:24:23Z</time>
  <sat>9</sat>
</trkpt>
<trkpt lat="39.708470000" lon="-0.347319000">
  <ele>93.500000</ele>
  <time>2012-03-10T06:24:27Z</time>
  <sat>10</sat>
</trkpt>
<trkpt lat="39.708425000" lon="-0.347311000">
  <ele>93.300000</ele>
  <time>2012-03-10T06:24:28Z</time>
  <sat>10</sat>
</trkpt>
<trkpt lat="39.708204000" lon="-0.347237000">
  <ele>93.100000</ele>
  <time>2012-03-10T06:24:33Z</time>
  <sat>10</sat>
</trkpt>
<trkpt lat="39.708159000" lon="-0.347212000">
  <ele>93.000000</ele>
  <time>2012-03-10T06:24:34Z</time>
  <sat>10</sat>
</trkpt>
<trkpt lat="39.707825000" lon="-0.347029000">
  <ele>92.000000</ele>
  <time>2012-03-10T06:24:41Z</time>
  <sat>9</sat>
</trkpt>
<trkpt lat="39.707775000" lon="-0.347014000">
  <ele>92.000000</ele>
  <time>2012-03-10T06:24:42Z</time>
  <sat>9</sat>
</trkpt>
<trkpt lat="39.707725000" lon="-0.347005000">
  <ele>92.000000</ele>
  <time>2012-03-10T06:24:43Z</time>
  <sat>9</sat>
</trkpt>
<trkpt lat="39.706423000" lon="-0.346747000">
  <ele>93.000000</ele>
  <time>2012-03-10T06:25:10Z</time>
  <sat>9</sat>
</trkpt>
<trkpt lat="39.706269000" lon="-0.346706000">
  <ele>92.800000</ele>
  <time>2012-03-10T06:25:14Z</time>
  <sat>10</sat>
</trkpt>
<trkpt lat="39.705710000" lon="-0.346516000">
  <ele>93.900000</ele>
  <time>2012-03-10T06:25:26Z</time>
  <sat>10</sat>
</trkpt>
<trkpt lat="39.705004000" lon="-0.346256000">
  <ele>93.300000</ele>
  <time>2012-03-10T06:25:41Z</time>
  <sat>8</sat>
</trkpt>
<trkpt lat="39.704966000" lon="-0.346234000">
  <ele>93.300000</ele>
  <time>2012-03-10T06:25:42Z</time>
  <sat>8</sat>
</trkpt>
<trkpt lat="39.704879000" lon="-0.346212000">
  <ele>93.400000</ele>
  <time>2012-03-10T06:25:44Z</time>
  <sat>9</sat>
</trkpt>
<trkpt lat="39.704836000" lon="-0.346198000">
  <ele>93.400000</ele>
  <time>2012-03-10T06:25:45Z</time>
  <sat>9</sat>
</trkpt>
<trkpt lat="39.704693000" lon="-0.346135000">
  <ele>92.600000</ele>
  <time>2012-03-10T06:25:49Z</time>
  <sat>9</sat>
</trkpt>
<trkpt lat="39.704665000" lon="-0.346104000">
  <ele>92.500000</ele>
  <time>2012-03-10T06:25:50Z</time>
  <sat>9</sat>
</trkpt>
<trkpt lat="39.704642000" lon="-0.346069000">
  <ele>92.300000</ele>
  <time>2012-03-10T06:25:51Z</time>
  <sat>9</sat>
</trkpt>
<trkpt lat="39.704620000" lon="-0.346033000">
  <ele>92.100000</ele>
  <time>2012-03-10T06:25:52Z</time>
  <sat>9</sat>
</trkpt>
<trkpt lat="39.704600000" lon="-0.345987000">
  <ele>92.400000</ele>
  <time>2012-03-10T06:25:53Z</time>
  <sat>10</sat>
</trkpt>
<trkpt lat="39.704587000" lon="-0.345936000">
  <ele>92.600000</ele>
  <time>2012-03-10T06:25:54Z</time>
  <sat>10</sat>
</trkpt>
<trkpt lat="39.704597000" lon="-0.345830000">
  <ele>92.000000</ele>
  <time>2012-03-10T06:25:56Z</time>
  <sat>10</sat>
</trkpt>
<trkpt lat="39.704611000" lon="-0.345778000">
  <ele>92.300000</ele>
  <time>2012-03-10T06:25:57Z</time>
  <sat>10</sat>
</trkpt>
<trkpt lat="39.704664000" lon="-0.345577000">
  <ele>93.500000</ele>
  <time>2012-03-10T06:26:01Z</time>
  <sat>10</sat>
</trkpt>
<trkpt lat="39.704669000" lon="-0.345528000">
  <ele>93.600000</ele>
  <time>2012-03-10T06:26:02Z</time>
  <sat>10</sat>
</trkpt>
<trkpt lat="39.704655000" lon="-0.345482000">
  <ele>93.400000</ele>
  <time>2012-03-10T06:26:03Z</time>
  <sat>10</sat>
</trkpt>
<trkpt lat="39.704601000" lon="-0.345405000">
  <ele>93.000000</ele>
  <time>2012-03-10T06:26:05Z</time>
  <sat>10</sat>
</trkpt>
<trkpt lat="39.704422000" lon="-0.345220000">
  <ele>91.800000</ele>
  <time>2012-03-10T06:26:09Z</time>
  <sat>10</sat>
</trkpt>
<trkpt lat="39.704391000" lon="-0.345157000">
  <ele>91.000000</ele>
  <time>2012-03-10T06:26:10Z</time>
  <sat>10</sat>
</trkpt>
<trkpt lat="39.704370000" lon="-0.345090000">
  <ele>90.100000</ele>
  <time>2012-03-10T06:26:11Z</time>
  <sat>10</sat>
</trkpt>
<trkpt lat="39.704319000" lon="-0.344969000">
  <ele>89.500000</ele>
  <time>2012-03-10T06:26:13Z</time>
  <sat>10</sat>
</trkpt>
<trkpt lat="39.704292000" lon="-0.344920000">
  <ele>89.500000</ele>
  <time>2012-03-10T06:26:14Z</time>
  <sat>10</sat>
</trkpt>
<trkpt lat="39.704260000" lon="-0.344879000">
  <ele>89.500000</ele>
  <time>2012-03-10T06:26:15Z</time>
  <sat>10</sat>
</trkpt>
<trkpt lat="39.704187000" lon="-0.344808000">
  <ele>89.600000</ele>
  <time>2012-03-10T06:26:17Z</time>
  <sat>10</sat>
</trkpt>
<trkpt lat="39.704143000" lon="-0.344784000">
  <ele>89.400000</ele>
  <time>2012-03-10T06:26:18Z</time>
  <sat>10</sat>
</trkpt>
<trkpt lat="39.704012000" lon="-0.344705000">
  <ele>88.600000</ele>
  <time>2012-03-10T06:26:21Z</time>
  <sat>10</sat>
</trkpt>
<trkpt lat="39.703858000" lon="-0.344587000">
  <ele>87.500000</ele>
  <time>2012-03-10T06:26:25Z</time>
  <sat>10</sat>
</trkpt>
<trkpt lat="39.703302000" lon="-0.344151000">
  <ele>87.000000</ele>
  <time>2012-03-10T06:26:40Z</time>
  <sat>9</sat>
</trkpt>
<trkpt lat="39.703270000" lon="-0.344111000">
  <ele>87.000000</ele>
  <time>2012-03-10T06:26:41Z</time>
  <sat>9</sat>
</trkpt>
<trkpt lat="39.703204000" lon="-0.344047000">
  <ele>86.900000</ele>
  <time>2012-03-10T06:26:43Z</time>
  <sat>9</sat>
</trkpt>
<trkpt lat="39.703158000" lon="-0.344048000">
  <ele>87.000000</ele>
  <time>2012-03-10T06:26:44Z</time>
  <sat>9</sat>
</trkpt>
<trkpt lat="39.703113000" lon="-0.344041000">
  <ele>86.900000</ele>
  <time>2012-03-10T06:26:45Z</time>
  <sat>9</sat>
</trkpt>
<trkpt lat="39.703072000" lon="-0.344030000">
  <ele>86.500000</ele>
  <time>2012-03-10T06:26:46Z</time>
  <sat>10</sat>
</trkpt>
<trkpt lat="39.703028000" lon="-0.344009000">
  <ele>86.300000</ele>
  <time>2012-03-10T06:26:47Z</time>
  <sat>10</sat>
</trkpt>
<trkpt lat="39.702999000" lon="-0.343967000">
  <ele>86.000000</ele>
  <time>2012-03-10T06:26:48Z</time>
  <sat>10</sat>
</trkpt>
<trkpt lat="39.702974000" lon="-0.343915000">
  <ele>86.000000</ele>
  <time>2012-03-10T06:26:49Z</time>
  <sat>10</sat>
</trkpt>
<trkpt lat="39.702924000" lon="-0.343812000">
  <ele>86.100000</ele>
  <time>2012-03-10T06:26:51Z</time>
  <sat>10</sat>
</trkpt>
<trkpt lat="39.702889000" lon="-0.343776000">
  <ele>86.000000</ele>
  <time>2012-03-10T06:26:52Z</time>
  <sat>10</sat>
</trkpt>
<trkpt lat="39.702847000" lon="-0.343750000">
  <ele>86.400000</ele>
  <time>2012-03-10T06:26:53Z</time>
  <sat>10</sat>
</trkpt>
<trkpt lat="39.702770000" lon="-0.343689000">
  <ele>86.100000</ele>
  <time>2012-03-10T06:26:55Z</time>
  <sat>10</sat>
</trkpt>
<trkpt lat="39.702740000" lon="-0.343653000">
  <ele>86.400000</ele>
  <time>2012-03-10T06:26:56Z</time>
  <sat>10</sat>
</trkpt>
<trkpt lat="39.702714000" lon="-0.343611000">
  <ele>86.300000</ele>
  <time>2012-03-10T06:26:57Z</time>
  <sat>10</sat>
</trkpt>
<trkpt lat="39.702590000" lon="-0.343392000">
  <ele>85.500000</ele>
  <time>2012-03-10T06:27:02Z</time>
  <sat>9</sat>
</trkpt>
<trkpt lat="39.702567000" lon="-0.343340000">
  <ele>85.000000</ele>
  <time>2012-03-10T06:27:03Z</time>
  <sat>9</sat>
</trkpt>
<trkpt lat="39.702495000" lon="-0.343184000">
  <ele>85.100000</ele>
  <time>2012-03-10T06:27:06Z</time>
  <sat>9</sat>
</trkpt>
<trkpt lat="39.702467000" lon="-0.343141000">
  <ele>85.300000</ele>
  <time>2012-03-10T06:27:07Z</time>
  <sat>9</sat>
</trkpt>
<trkpt lat="39.702440000" lon="-0.343097000">
  <ele>85.000000</ele>
  <time>2012-03-10T06:27:08Z</time>
  <sat>9</sat>
</trkpt>
<trkpt lat="39.702418000" lon="-0.343048000">
  <ele>84.900000</ele>
  <time>2012-03-10T06:27:09Z</time>
  <sat>9</sat>
</trkpt>
<trkpt lat="39.701997000" lon="-0.342099000">
  <ele>85.000000</ele>
  <time>2012-03-10T06:27:27Z</time>
  <sat>9</sat>
</trkpt>
<trkpt lat="39.701978000" lon="-0.342040000">
  <ele>85.000000</ele>
  <time>2012-03-10T06:27:28Z</time>
  <sat>9</sat>
</trkpt>
<trkpt lat="39.701867000" lon="-0.341674000">
  <ele>84.500000</ele>
  <time>2012-03-10T06:27:34Z</time>
  <sat>9</sat>
</trkpt>
<trkpt lat="39.701825000" lon="-0.341498000">
  <ele>84.100000</ele>
  <time>2012-03-10T06:27:37Z</time>
  <sat>9</sat>
</trkpt>
<trkpt lat="39.701760000" lon="-0.341132000">
  <ele>83.800000</ele>
  <time>2012-03-10T06:27:43Z</time>
  <sat>9</sat>
</trkpt>
<trkpt lat="39.701711000" lon="-0.340884000">
  <ele>84.100000</ele>
  <time>2012-03-10T06:27:47Z</time>
  <sat>9</sat>
</trkpt>
<trkpt lat="39.701690000" lon="-0.340820000">
  <ele>84.500000</ele>
  <time>2012-03-10T06:27:48Z</time>
  <sat>9</sat>
</trkpt>
<trkpt lat="39.701653000" lon="-0.340697000">
  <ele>84.100000</ele>
  <time>2012-03-10T06:27:50Z</time>
  <sat>9</sat>
</trkpt>
<trkpt lat="39.701583000" lon="-0.340383000">
  <ele>85.000000</ele>
  <time>2012-03-10T06:27:55Z</time>
  <sat>7</sat>
</trkpt>
<trkpt lat="39.701533000" lon="-0.340166000">
  <ele>84.500000</ele>
  <time>2012-03-10T06:27:59Z</time>
  <sat>8</sat>
</trkpt>
<trkpt lat="39.701517000" lon="-0.340121000">
  <ele>84.600000</ele>
  <time>2012-03-10T06:28:00Z</time>
  <sat>8</sat>
</trkpt>
<trkpt lat="39.701496000" lon="-0.340078000">
  <ele>84.900000</ele>
  <time>2012-03-10T06:28:01Z</time>
  <sat>9</sat>
</trkpt>
<trkpt lat="39.701470000" lon="-0.340040000">
  <ele>84.800000</ele>
  <time>2012-03-10T06:28:02Z</time>
  <sat>9</sat>
</trkpt>
<trkpt lat="39.701363000" lon="-0.339888000">
  <ele>84.500000</ele>
  <time>2012-03-10T06:28:06Z</time>
  <sat>9</sat>
</trkpt>
<trkpt lat="39.701341000" lon="-0.339848000">
  <ele>84.500000</ele>
  <time>2012-03-10T06:28:07Z</time>
  <sat>9</sat>
</trkpt>
<trkpt lat="39.700897000" lon="-0.339059000">
  <ele>84.100000</ele>
  <time>2012-03-10T06:28:25Z</time>
  <sat>9</sat>
</trkpt>
<trkpt lat="39.700878000" lon="-0.339007000">
  <ele>84.000000</ele>
  <time>2012-03-10T06:28:26Z</time>
  <sat>8</sat>
</trkpt>
<trkpt lat="39.700747000" lon="-0.338783000">
  <ele>85.000000</ele>
  <time>2012-03-10T06:28:32Z</time>
  <sat>10</sat>
</trkpt>
<trkpt lat="39.700717000" lon="-0.338768000">
  <ele>85.000000</ele>
  <time>2012-03-10T06:28:33Z</time>
  <sat>10</sat>
</trkpt>
<trkpt lat="39.700688000" lon="-0.338750000">
  <ele>85.000000</ele>
  <time>2012-03-10T06:28:34Z</time>
  <sat>10</sat>
</trkpt>
<trkpt lat="39.700629000" lon="-0.338721000">
  <ele>85.400000</ele>
  <time>2012-03-10T06:28:36Z</time>
  <sat>10</sat>
</trkpt>
<trkpt lat="39.700567000" lon="-0.338705000">
  <ele>85.800000</ele>
  <time>2012-03-10T06:28:38Z</time>
  <sat>9</sat>
</trkpt>
<trkpt lat="39.700540000" lon="-0.338695000">
  <ele>86.000000</ele>
  <time>2012-03-10T06:28:39Z</time>
  <sat>9</sat>
</trkpt>
<trkpt lat="39.700516000" lon="-0.338682000">
  <ele>86.100000</ele>
  <time>2012-03-10T06:28:40Z</time>
  <sat>9</sat>
</trkpt>
<trkpt lat="39.700493000" lon="-0.338665000">
  <ele>86.000000</ele>
  <time>2012-03-10T06:28:41Z</time>
  <sat>9</sat>
</trkpt>
<trkpt lat="39.700403000" lon="-0.338609000">
  <ele>84.900000</ele>
  <time>2012-03-10T06:28:44Z</time>
  <sat>10</sat>
</trkpt>
<trkpt lat="39.700366000" lon="-0.338603000">
  <ele>85.000000</ele>
  <time>2012-03-10T06:28:45Z</time>
  <sat>10</sat>
</trkpt>
<trkpt lat="39.700326000" lon="-0.338607000">
  <ele>84.600000</ele>
  <time>2012-03-10T06:28:46Z</time>
  <sat>10</sat>
</trkpt>
<trkpt lat="39.700208000" lon="-0.338609000">
  <ele>85.300000</ele>
  <time>2012-03-10T06:28:49Z</time>
  <sat>10</sat>
</trkpt>
<trkpt lat="39.700169000" lon="-0.338598000">
  <ele>85.100000</ele>
  <time>2012-03-10T06:28:50Z</time>
  <sat>10</sat>
</trkpt>
<trkpt lat="39.700051000" lon="-0.338566000">
  <ele>85.300000</ele>
  <time>2012-03-10T06:28:53Z</time>
  <sat>10</sat>
</trkpt>
<trkpt lat="39.700011000" lon="-0.338563000">
  <ele>85.500000</ele>
  <time>2012-03-10T06:28:54Z</time>
  <sat>10</sat>
</trkpt>
<trkpt lat="39.699827000" lon="-0.338534000">
  <ele>86.000000</ele>
  <time>2012-03-10T06:28:59Z</time>
  <sat>10</sat>
</trkpt>
<trkpt lat="39.699791000" lon="-0.338519000">
  <ele>85.900000</ele>
  <time>2012-03-10T06:29:00Z</time>
  <sat>10</sat>
</trkpt>
<trkpt lat="39.699715000" lon="-0.338476000">
  <ele>85.500000</ele>
  <time>2012-03-10T06:29:02Z</time>
  <sat>10</sat>
</trkpt>
<trkpt lat="39.699299000" lon="-0.338224000">
  <ele>85.100000</ele>
  <time>2012-03-10T06:29:12Z</time>
  <sat>10</sat>
</trkpt>
<trkpt lat="39.699173000" lon="-0.338134000">
  <ele>85.000000</ele>
  <time>2012-03-10T06:29:15Z</time>
  <sat>9</sat>
</trkpt>
<trkpt lat="39.699102000" lon="-0.338059000">
  <ele>85.000000</ele>
  <time>2012-03-10T06:29:17Z</time>
  <sat>9</sat>
</trkpt>
<trkpt lat="39.699073000" lon="-0.338015000">
  <ele>85.000000</ele>
  <time>2012-03-10T06:29:18Z</time>
  <sat>9</sat>
</trkpt>
<trkpt lat="39.699052000" lon="-0.337974000">
  <ele>85.000000</ele>
  <time>2012-03-10T06:29:19Z</time>
  <sat>9</sat>
</trkpt>
<trkpt lat="39.699038000" lon="-0.337929000">
  <ele>84.800000</ele>
  <time>2012-03-10T06:29:20Z</time>
  <sat>9</sat>
</trkpt>
<trkpt lat="39.698900000" lon="-0.337508000">
  <ele>83.300000</ele>
  <time>2012-03-10T06:29:29Z</time>
  <sat>9</sat>
</trkpt>
<trkpt lat="39.698862000" lon="-0.337348000">
  <ele>82.600000</ele>
  <time>2012-03-10T06:29:32Z</time>
  <sat>9</sat>
</trkpt>
<trkpt lat="39.698856000" lon="-0.337288000">
  <ele>83.000000</ele>
  <time>2012-03-10T06:29:33Z</time>
  <sat>10</sat>
</trkpt>
<trkpt lat="39.698832000" lon="-0.337145000">
  <ele>82.900000</ele>
  <time>2012-03-10T06:29:36Z</time>
  <sat>10</sat>
</trkpt>
<trkpt lat="39.698814000" lon="-0.337112000">
  <ele>82.800000</ele>
  <time>2012-03-10T06:29:37Z</time>
  <sat>10</sat>
</trkpt>
<trkpt lat="39.698792000" lon="-0.337081000">
  <ele>83.000000</ele>
  <time>2012-03-10T06:29:38Z</time>
  <sat>10</sat>
</trkpt>
<trkpt lat="39.698741000" lon="-0.337024000">
  <ele>83.500000</ele>
  <time>2012-03-10T06:29:40Z</time>
  <sat>10</sat>
</trkpt>
<trkpt lat="39.698712000" lon="-0.337003000">
  <ele>83.600000</ele>
  <time>2012-03-10T06:29:41Z</time>
  <sat>10</sat>
</trkpt>
<trkpt lat="39.698651000" lon="-0.336992000">
  <ele>83.400000</ele>
  <time>2012-03-10T06:29:43Z</time>
  <sat>10</sat>
</trkpt>
<trkpt lat="39.698613000" lon="-0.336997000">
  <ele>83.500000</ele>
  <time>2012-03-10T06:29:44Z</time>
  <sat>10</sat>
</trkpt>
<trkpt lat="39.698531000" lon="-0.337002000">
  <ele>83.100000</ele>
  <time>2012-03-10T06:29:46Z</time>
  <sat>10</sat>
</trkpt>
<trkpt lat="39.698486000" lon="-0.336995000">
  <ele>83.000000</ele>
  <time>2012-03-10T06:29:47Z</time>
  <sat>10</sat>
</trkpt>
<trkpt lat="39.698445000" lon="-0.336980000">
  <ele>83.000000</ele>
  <time>2012-03-10T06:29:48Z</time>
  <sat>10</sat>
</trkpt>
<trkpt lat="39.698405000" lon="-0.336953000">
  <ele>82.500000</ele>
  <time>2012-03-10T06:29:49Z</time>
  <sat>10</sat>
</trkpt>
<trkpt lat="39.698333000" lon="-0.336873000">
  <ele>82.100000</ele>
  <time>2012-03-10T06:29:51Z</time>
  <sat>10</sat>
</trkpt>
<trkpt lat="39.698303000" lon="-0.336831000">
  <ele>81.800000</ele>
  <time>2012-03-10T06:29:52Z</time>
  <sat>10</sat>
</trkpt>
<trkpt lat="39.698195000" lon="-0.336754000">
  <ele>81.500000</ele>
  <time>2012-03-10T06:29:55Z</time>
  <sat>10</sat>
</trkpt>
<trkpt lat="39.698072000" lon="-0.336689000">
  <ele>81.100000</ele>
  <time>2012-03-10T06:29:58Z</time>
  <sat>10</sat>
</trkpt>
<trkpt lat="39.698033000" lon="-0.336658000">
  <ele>81.000000</ele>
  <time>2012-03-10T06:29:59Z</time>
  <sat>10</sat>
</trkpt>
<trkpt lat="39.697959000" lon="-0.336589000">
  <ele>81.100000</ele>
  <time>2012-03-10T06:30:01Z</time>
  <sat>10</sat>
</trkpt>
<trkpt lat="39.697883000" lon="-0.336526000">
  <ele>81.400000</ele>
  <time>2012-03-10T06:30:03Z</time>
  <sat>10</sat>
</trkpt>
<trkpt lat="39.697843000" lon="-0.336502000">
  <ele>81.000000</ele>
  <time>2012-03-10T06:30:04Z</time>
  <sat>10</sat>
</trkpt>
<trkpt lat="39.697598000" lon="-0.336353000">
  <ele>80.000000</ele>
  <time>2012-03-10T06:30:10Z</time>
  <sat>10</sat>
</trkpt>
<trkpt lat="39.697564000" lon="-0.336312000">
  <ele>80.000000</ele>
  <time>2012-03-10T06:30:11Z</time>
  <sat>10</sat>
</trkpt>
<trkpt lat="39.697535000" lon="-0.336269000">
  <ele>79.900000</ele>
  <time>2012-03-10T06:30:12Z</time>
  <sat>10</sat>
</trkpt>
<trkpt lat="39.697412000" lon="-0.336072000">
  <ele>80.100000</ele>
  <time>2012-03-10T06:30:16Z</time>
  <sat>10</sat>
</trkpt>
<trkpt lat="39.697101000" lon="-0.335504000">
  <ele>79.800000</ele>
  <time>2012-03-10T06:30:27Z</time>
  <sat>9</sat>
</trkpt>
<trkpt lat="39.696966000" lon="-0.335238000">
  <ele>79.600000</ele>
  <time>2012-03-10T06:30:32Z</time>
  <sat>9</sat>
</trkpt>
<trkpt lat="39.696930000" lon="-0.335193000">
  <ele>79.500000</ele>
  <time>2012-03-10T06:30:33Z</time>
  <sat>9</sat>
</trkpt>
<trkpt lat="39.696745000" lon="-0.334985000">
  <ele>78.500000</ele>
  <time>2012-03-10T06:30:38Z</time>
  <sat>8</sat>
</trkpt>
<trkpt lat="39.696529000" lon="-0.334715000">
  <ele>78.400000</ele>
  <time>2012-03-10T06:30:45Z</time>
  <sat>9</sat>
</trkpt>
<trkpt lat="39.696442000" lon="-0.334576000">
  <ele>78.400000</ele>
  <time>2012-03-10T06:30:48Z</time>
  <sat>9</sat>
</trkpt>
<trkpt lat="39.696075000" lon="-0.334007000">
  <ele>79.000000</ele>
  <time>2012-03-10T06:31:02Z</time>
  <sat>9</sat>
</trkpt>
<trkpt lat="39.696056000" lon="-0.333973000">
  <ele>79.000000</ele>
  <time>2012-03-10T06:31:03Z</time>
  <sat>8</sat>
</trkpt>
<trkpt lat="39.695926000" lon="-0.333729000">
  <ele>78.500000</ele>
  <time>2012-03-10T06:31:10Z</time>
  <sat>9</sat>
</trkpt>
<trkpt lat="39.695546000" lon="-0.333092000">
  <ele>78.500000</ele>
  <time>2012-03-10T06:31:25Z</time>
  <sat>9</sat>
</trkpt>
<trkpt lat="39.695513000" lon="-0.333053000">
  <ele>78.600000</ele>
  <time>2012-03-10T06:31:26Z</time>
  <sat>9</sat>
</trkpt>
<trkpt lat="39.695091000" lon="-0.332595000">
  <ele>78.100000</ele>
  <time>2012-03-10T06:31:38Z</time>
  <sat>10</sat>
</trkpt>
<trkpt lat="39.694556000" lon="-0.332003000">
  <ele>78.000000</ele>
  <time>2012-03-10T06:31:52Z</time>
  <sat>9</sat>
</trkpt>
<trkpt lat="39.694512000" lon="-0.331974000">
  <ele>77.500000</ele>
  <time>2012-03-10T06:31:53Z</time>
  <sat>10</sat>
</trkpt>
<trkpt lat="39.694297000" lon="-0.331829000">
  <ele>76.600000</ele>
  <time>2012-03-10T06:31:58Z</time>
  <sat>10</sat>
</trkpt>
<trkpt lat="39.694257000" lon="-0.331793000">
  <ele>76.500000</ele>
  <time>2012-03-10T06:31:59Z</time>
  <sat>10</sat>
</trkpt>
<trkpt lat="39.693959000" lon="-0.331567000">
  <ele>76.400000</ele>
  <time>2012-03-10T06:32:06Z</time>
  <sat>10</sat>
</trkpt>
<trkpt lat="39.693911000" lon="-0.331540000">
  <ele>76.500000</ele>
  <time>2012-03-10T06:32:07Z</time>
  <sat>10</sat>
</trkpt>
<trkpt lat="39.693556000" lon="-0.331280000">
  <ele>75.800000</ele>
  <time>2012-03-10T06:32:15Z</time>
  <sat>9</sat>
</trkpt>
<trkpt lat="39.693470000" lon="-0.331258000">
  <ele>75.600000</ele>
  <time>2012-03-10T06:32:17Z</time>
  <sat>9</sat>
</trkpt>
<trkpt lat="39.693429000" lon="-0.331263000">
  <ele>75.600000</ele>
  <time>2012-03-10T06:32:18Z</time>
  <sat>10</sat>
</trkpt>
<trkpt lat="39.693390000" lon="-0.331262000">
  <ele>75.500000</ele>
  <time>2012-03-10T06:32:19Z</time>
  <sat>10</sat>
</trkpt>
<trkpt lat="39.693303000" lon="-0.331246000">
  <ele>75.400000</ele>
  <time>2012-03-10T06:32:21Z</time>
  <sat>10</sat>
</trkpt>
<trkpt lat="39.693260000" lon="-0.331227000">
  <ele>75.300000</ele>
  <time>2012-03-10T06:32:22Z</time>
  <sat>10</sat>
</trkpt>
<trkpt lat="39.693219000" lon="-0.331196000">
  <ele>75.000000</ele>
  <time>2012-03-10T06:32:23Z</time>
  <sat>10</sat>
</trkpt>
<trkpt lat="39.693012000" lon="-0.331026000">
  <ele>75.100000</ele>
  <time>2012-03-10T06:32:28Z</time>
  <sat>10</sat>
</trkpt>
<trkpt lat="39.692842000" lon="-0.330874000">
  <ele>74.500000</ele>
  <time>2012-03-10T06:32:32Z</time>
  <sat>10</sat>
</trkpt>
<trkpt lat="39.692804000" lon="-0.330831000">
  <ele>74.500000</ele>
  <time>2012-03-10T06:32:33Z</time>
  <sat>10</sat>
</trkpt>
<trkpt lat="39.692763000" lon="-0.330795000">
  <ele>74.400000</ele>
  <time>2012-03-10T06:32:34Z</time>
  <sat>10</sat>
</trkpt>
<trkpt lat="39.692717000" lon="-0.330771000">
  <ele>74.400000</ele>
  <time>2012-03-10T06:32:35Z</time>
  <sat>10</sat>
</trkpt>
<trkpt lat="39.692668000" lon="-0.330753000">
  <ele>74.300000</ele>
  <time>2012-03-10T06:32:36Z</time>
  <sat>10</sat>
</trkpt>
<trkpt lat="39.692623000" lon="-0.330732000">
  <ele>74.300000</ele>
  <time>2012-03-10T06:32:37Z</time>
  <sat>10</sat>
</trkpt>
<trkpt lat="39.692577000" lon="-0.330703000">
  <ele>74.100000</ele>
  <time>2012-03-10T06:32:38Z</time>
  <sat>10</sat>
</trkpt>
<trkpt lat="39.692493000" lon="-0.330637000">
  <ele>74.100000</ele>
  <time>2012-03-10T06:32:40Z</time>
  <sat>10</sat>
</trkpt>
<trkpt lat="39.692244000" lon="-0.330411000">
  <ele>74.000000</ele>
  <time>2012-03-10T06:32:46Z</time>
  <sat>8</sat>
</trkpt>
<trkpt lat="39.691767000" lon="-0.329950000">
  <ele>73.800000</ele>
  <time>2012-03-10T06:32:58Z</time>
  <sat>10</sat>
</trkpt>
<trkpt lat="39.691721000" lon="-0.329921000">
  <ele>74.400000</ele>
  <time>2012-03-10T06:32:59Z</time>
  <sat>9</sat>
</trkpt>
<trkpt lat="39.691456000" lon="-0.329769000">
  <ele>73.800000</ele>
  <time>2012-03-10T06:33:05Z</time>
  <sat>10</sat>
</trkpt>
<trkpt lat="39.691410000" lon="-0.329738000">
  <ele>73.600000</ele>
  <time>2012-03-10T06:33:06Z</time>
  <sat>10</sat>
</trkpt>
<trkpt lat="39.691325000" lon="-0.329674000">
  <ele>73.600000</ele>
  <time>2012-03-10T06:33:08Z</time>
  <sat>10</sat>
</trkpt>
<trkpt lat="39.691284000" lon="-0.329635000">
  <ele>73.600000</ele>
  <time>2012-03-10T06:33:09Z</time>
  <sat>10</sat>
</trkpt>
<trkpt lat="39.691248000" lon="-0.329592000">
  <ele>73.800000</ele>
  <time>2012-03-10T06:33:10Z</time>
  <sat>10</sat>
</trkpt>
<trkpt lat="39.690919000" lon="-0.329206000">
  <ele>73.000000</ele>
  <time>2012-03-10T06:33:19Z</time>
  <sat>9</sat>
</trkpt>
<trkpt lat="39.690875000" lon="-0.329183000">
  <ele>73.400000</ele>
  <time>2012-03-10T06:33:20Z</time>
  <sat>10</sat>
</trkpt>
<trkpt lat="39.690830000" lon="-0.329178000">
  <ele>73.800000</ele>
  <time>2012-03-10T06:33:21Z</time>
  <sat>10</sat>
</trkpt>
<trkpt lat="39.690608000" lon="-0.329158000">
  <ele>76.000000</ele>
  <time>2012-03-10T06:33:28Z</time>
  <sat>10</sat>
</trkpt>
<trkpt lat="39.690586000" lon="-0.329142000">
  <ele>76.500000</ele>
  <time>2012-03-10T06:33:29Z</time>
  <sat>10</sat>
</trkpt>
<trkpt lat="39.690565000" lon="-0.329123000">
  <ele>76.600000</ele>
  <time>2012-03-10T06:33:30Z</time>
  <sat>10</sat>
</trkpt>
<trkpt lat="39.690543000" lon="-0.329100000">
  <ele>76.800000</ele>
  <time>2012-03-10T06:33:31Z</time>
  <sat>9</sat>
</trkpt>
<trkpt lat="39.689940000" lon="-0.328430000">
  <ele>77.000000</ele>
  <time>2012-03-10T06:33:51Z</time>
  <sat>7</sat>
</trkpt>
<trkpt lat="39.689881000" lon="-0.328344000">
  <ele>77.000000</ele>
  <time>2012-03-10T06:33:53Z</time>
  <sat>7</sat>
</trkpt>
<trkpt lat="39.689515000" lon="-0.327836000">
  <ele>76.900000</ele>
  <time>2012-03-10T06:34:05Z</time>
  <sat>9</sat>
</trkpt>
<trkpt lat="39.689481000" lon="-0.327799000">
  <ele>77.000000</ele>
  <time>2012-03-10T06:34:06Z</time>
  <sat>9</sat>
</trkpt>
<trkpt lat="39.689287000" lon="-0.327631000">
  <ele>77.000000</ele>
  <time>2012-03-10T06:34:11Z</time>
  <sat>9</sat>
</trkpt>
<trkpt lat="39.689248000" lon="-0.327604000">
  <ele>77.000000</ele>
  <time>2012-03-10T06:34:12Z</time>
  <sat>9</sat>
</trkpt>
<trkpt lat="39.687369000" lon="-0.326352000">
  <ele>72.500000</ele>
  <time>2012-03-10T06:34:55Z</time>
  <sat>10</sat>
</trkpt>
<trkpt lat="39.687323000" lon="-0.326336000">
  <ele>72.400000</ele>
  <time>2012-03-10T06:34:56Z</time>
  <sat>10</sat>
</trkpt>
<trkpt lat="39.687227000" lon="-0.326326000">
  <ele>72.000000</ele>
  <time>2012-03-10T06:34:58Z</time>
  <sat>10</sat>
</trkpt>
<trkpt lat="39.687183000" lon="-0.326334000">
  <ele>72.000000</ele>
  <time>2012-03-10T06:34:59Z</time>
  <sat>10</sat>
</trkpt>
<trkpt lat="39.687142000" lon="-0.326351000">
  <ele>72.000000</ele>
  <time>2012-03-10T06:35:00Z</time>
  <sat>10</sat>
</trkpt>
<trkpt lat="39.687097000" lon="-0.326363000">
  <ele>72.000000</ele>
  <time>2012-03-10T06:35:01Z</time>
  <sat>10</sat>
</trkpt>
<trkpt lat="39.687052000" lon="-0.326372000">
  <ele>71.900000</ele>
  <time>2012-03-10T06:35:02Z</time>
  <sat>10</sat>
</trkpt>
<trkpt lat="39.687004000" lon="-0.326374000">
  <ele>71.800000</ele>
  <time>2012-03-10T06:35:03Z</time>
  <sat>10</sat>
</trkpt>
<trkpt lat="39.686955000" lon="-0.326363000">
  <ele>71.500000</ele>
  <time>2012-03-10T06:35:04Z</time>
  <sat>10</sat>
</trkpt>
<trkpt lat="39.686907000" lon="-0.326343000">
  <ele>71.100000</ele>
  <time>2012-03-10T06:35:05Z</time>
  <sat>10</sat>
</trkpt>
<trkpt lat="39.686766000" lon="-0.326266000">
  <ele>71.300000</ele>
  <time>2012-03-10T06:35:08Z</time>
  <sat>10</sat>
</trkpt>
<trkpt lat="39.685314000" lon="-0.325452000">
  <ele>72.400000</ele>
  <time>2012-03-10T06:35:38Z</time>
  <sat>9</sat>
</trkpt>
<trkpt lat="39.685272000" lon="-0.325417000">
  <ele>72.100000</ele>
  <time>2012-03-10T06:35:39Z</time>
  <sat>9</sat>
</trkpt>
<trkpt lat="39.685015000" lon="-0.325220000">
  <ele>73.000000</ele>
  <time>2012-03-10T06:35:45Z</time>
  <sat>10</sat>
</trkpt>
<trkpt lat="39.684971000" lon="-0.325200000">
  <ele>73.100000</ele>
  <time>2012-03-10T06:35:46Z</time>
  <sat>10</sat>
</trkpt>
<trkpt lat="39.684897000" lon="-0.325184000">
  <ele>74.000000</ele>
  <time>2012-03-10T06:35:48Z</time>
  <sat>10</sat>
</trkpt>
<trkpt lat="39.684866000" lon="-0.325188000">
  <ele>74.500000</ele>
  <time>2012-03-10T06:35:49Z</time>
  <sat>10</sat>
</trkpt>
<trkpt lat="39.684796000" lon="-0.325192000">
  <ele>75.600000</ele>
  <time>2012-03-10T06:35:52Z</time>
  <sat>10</sat>
</trkpt>
<trkpt lat="39.684778000" lon="-0.325187000">
  <ele>75.800000</ele>
  <time>2012-03-10T06:35:53Z</time>
  <sat>10</sat>
</trkpt>
<trkpt lat="39.684757000" lon="-0.325180000">
  <ele>75.800000</ele>
  <time>2012-03-10T06:35:54Z</time>
  <sat>10</sat>
</trkpt>
<trkpt lat="39.684733000" lon="-0.325168000">
  <ele>75.600000</ele>
  <time>2012-03-10T06:35:55Z</time>
  <sat>9</sat>
</trkpt>
<trkpt lat="39.684708000" lon="-0.325147000">
  <ele>75.500000</ele>
  <time>2012-03-10T06:35:56Z</time>
  <sat>9</sat>
</trkpt>
<trkpt lat="39.684644000" lon="-0.325101000">
  <ele>74.900000</ele>
  <time>2012-03-10T06:35:58Z</time>
  <sat>9</sat>
</trkpt>
<trkpt lat="39.684604000" lon="-0.325086000">
  <ele>74.400000</ele>
  <time>2012-03-10T06:35:59Z</time>
  <sat>9</sat>
</trkpt>
<trkpt lat="39.684295000" lon="-0.324900000">
  <ele>73.000000</ele>
  <time>2012-03-10T06:36:05Z</time>
  <sat>10</sat>
</trkpt>
<trkpt lat="39.684228000" lon="-0.324839000">
  <ele>72.900000</ele>
  <time>2012-03-10T06:36:06Z</time>
  <sat>10</sat>
</trkpt>
<trkpt lat="39.684117000" lon="-0.324771000">
  <ele>72.300000</ele>
  <time>2012-03-10T06:36:08Z</time>
  <sat>10</sat>
</trkpt>
<trkpt lat="39.683833000" lon="-0.324665000">
  <ele>69.900000</ele>
  <time>2012-03-10T06:36:13Z</time>
  <sat>10</sat>
</trkpt>
<trkpt lat="39.683776000" lon="-0.324698000">
  <ele>69.900000</ele>
  <time>2012-03-10T06:36:14Z</time>
  <sat>10</sat>
</trkpt>
<trkpt lat="39.683547000" lon="-0.324114000">
  <ele>70.000000</ele>
  <time>2012-03-10T06:36:21Z</time>
  <sat>10</sat>
</trkpt>
<trkpt lat="39.683508000" lon="-0.323870000">
  <ele>69.600000</ele>
  <time>2012-03-10T06:36:24Z</time>
  <sat>10</sat>
</trkpt>
<trkpt lat="39.683456000" lon="-0.323756000">
  <ele>70.800000</ele>
  <time>2012-03-10T06:36:26Z</time>
  <sat>10</sat>
</trkpt>
<trkpt lat="39.683410000" lon="-0.323752000">
  <ele>70.000000</ele>
  <time>2012-03-10T06:36:27Z</time>
  <sat>10</sat>
</trkpt>
<trkpt lat="39.683373000" lon="-0.323712000">
  <ele>71.000000</ele>
  <time>2012-03-10T06:36:28Z</time>
  <sat>10</sat>
</trkpt>
<trkpt lat="39.683169000" lon="-0.323542000">
  <ele>69.500000</ele>
  <time>2012-03-10T06:36:33Z</time>
  <sat>10</sat>
</trkpt>
<trkpt lat="39.683132000" lon="-0.323482000">
  <ele>70.000000</ele>
  <time>2012-03-10T06:36:34Z</time>
  <sat>8</sat>
</trkpt>
<trkpt lat="39.683094000" lon="-0.323440000">
  <ele>70.400000</ele>
  <time>2012-03-10T06:36:35Z</time>
  <sat>8</sat>
</trkpt>
<trkpt lat="39.682808000" lon="-0.323123000">
  <ele>69.500000</ele>
  <time>2012-03-10T06:36:42Z</time>
  <sat>9</sat>
</trkpt>
<trkpt lat="39.682763000" lon="-0.323082000">
  <ele>69.300000</ele>
  <time>2012-03-10T06:36:43Z</time>
  <sat>9</sat>
</trkpt>
<trkpt lat="39.682638000" lon="-0.322999000">
  <ele>69.500000</ele>
  <time>2012-03-10T06:36:46Z</time>
  <sat>9</sat>
</trkpt>
<trkpt lat="39.682254000" lon="-0.322767000">
  <ele>68.500000</ele>
  <time>2012-03-10T06:36:55Z</time>
  <sat>8</sat>
</trkpt>
<trkpt lat="39.682235000" lon="-0.322741000">
  <ele>68.500000</ele>
  <time>2012-03-10T06:36:56Z</time>
  <sat>8</sat>
</trkpt>
<trkpt lat="39.682218000" lon="-0.322737000">
  <ele>68.300000</ele>
  <time>2012-03-10T06:38:51Z</time>
  <sat>7</sat>
</trkpt>
<trkpt lat="39.682202000" lon="-0.322722000">
  <ele>68.800000</ele>
  <time>2012-03-10T06:38:52Z</time>
  <sat>8</sat>
</trkpt>
<trkpt lat="39.681730000" lon="-0.322266000">
  <ele>68.500000</ele>
  <time>2012-03-10T06:39:09Z</time>
  <sat>9</sat>
</trkpt>
<trkpt lat="39.681698000" lon="-0.322220000">
  <ele>68.600000</ele>
  <time>2012-03-10T06:39:10Z</time>
  <sat>9</sat>
</trkpt>
<trkpt lat="39.681482000" lon="-0.321953000">
  <ele>67.900000</ele>
  <time>2012-03-10T06:39:16Z</time>
  <sat>8</sat>
</trkpt>
<trkpt lat="39.681443000" lon="-0.321921000">
  <ele>67.500000</ele>
  <time>2012-03-10T06:39:17Z</time>
  <sat>9</sat>
</trkpt>
<trkpt lat="39.681066000" lon="-0.321621000">
  <ele>69.500000</ele>
  <time>2012-03-10T06:39:27Z</time>
  <sat>9</sat>
</trkpt>
<trkpt lat="39.681035000" lon="-0.321607000">
  <ele>69.500000</ele>
  <time>2012-03-10T06:39:28Z</time>
  <sat>10</sat>
</trkpt>
<trkpt lat="39.681006000" lon="-0.321611000">
  <ele>70.300000</ele>
  <time>2012-03-10T06:39:29Z</time>
  <sat>10</sat>
</trkpt>
<trkpt lat="39.680922000" lon="-0.321653000">
  <ele>70.000000</ele>
  <time>2012-03-10T06:39:32Z</time>
  <sat>10</sat>
</trkpt>
<trkpt lat="39.680898000" lon="-0.321692000">
  <ele>70.900000</ele>
  <time>2012-03-10T06:39:33Z</time>
  <sat>10</sat>
</trkpt>
<trkpt lat="39.680765000" lon="-0.321906000">
  <ele>72.900000</ele>
  <time>2012-03-10T06:39:40Z</time>
  <sat>10</sat>
</trkpt>
<trkpt lat="39.680745000" lon="-0.321920000">
  <ele>73.500000</ele>
  <time>2012-03-10T06:39:41Z</time>
  <sat>10</sat>
</trkpt>
<trkpt lat="39.680733000" lon="-0.321923000">
  <ele>73.500000</ele>
  <time>2012-03-10T06:39:42Z</time>
  <sat>10</sat>
</trkpt>
<trkpt lat="39.680712000" lon="-0.321903000">
  <ele>73.500000</ele>
  <time>2012-03-10T06:39:43Z</time>
  <sat>10</sat>
</trkpt>
<trkpt lat="39.678197000" lon="-0.319712000">
  <ele>73.800000</ele>
  <time>2012-03-10T06:40:48Z</time>
  <sat>9</sat>
</trkpt>
<trkpt lat="39.678171000" lon="-0.319705000">
  <ele>73.900000</ele>
  <time>2012-03-10T06:40:49Z</time>
  <sat>10</sat>
</trkpt>
<trkpt lat="39.678149000" lon="-0.319706000">
  <ele>74.000000</ele>
  <time>2012-03-10T06:40:50Z</time>
  <sat>10</sat>
</trkpt>
<trkpt lat="39.678129000" lon="-0.319715000">
  <ele>73.800000</ele>
  <time>2012-03-10T06:40:51Z</time>
  <sat>10</sat>
</trkpt>
<trkpt lat="39.678106000" lon="-0.319723000">
  <ele>74.000000</ele>
  <time>2012-03-10T06:40:52Z</time>
  <sat>10</sat>
</trkpt>
<trkpt lat="39.678082000" lon="-0.319729000">
  <ele>74.000000</ele>
  <time>2012-03-10T06:40:53Z</time>
  <sat>10</sat>
</trkpt>
<trkpt lat="39.677957000" lon="-0.319769000">
  <ele>73.600000</ele>
  <time>2012-03-10T06:40:57Z</time>
  <sat>10</sat>
</trkpt>
<trkpt lat="39.677927000" lon="-0.319783000">
  <ele>73.900000</ele>
  <time>2012-03-10T06:40:58Z</time>
  <sat>9</sat>
</trkpt>
<trkpt lat="39.677853000" lon="-0.319806000">
  <ele>74.000000</ele>
  <time>2012-03-10T06:41:00Z</time>
  <sat>9</sat>
</trkpt>
<trkpt lat="39.677813000" lon="-0.319809000">
  <ele>73.800000</ele>
  <time>2012-03-10T06:41:01Z</time>
  <sat>9</sat>
</trkpt>
<trkpt lat="39.677775000" lon="-0.319796000">
  <ele>73.900000</ele>
  <time>2012-03-10T06:41:02Z</time>
  <sat>10</sat>
</trkpt>
<trkpt lat="39.677694000" lon="-0.319762000">
  <ele>74.000000</ele>
  <time>2012-03-10T06:41:04Z</time>
  <sat>10</sat>
</trkpt>
<trkpt lat="39.677483000" lon="-0.319654000">
  <ele>74.000000</ele>
  <time>2012-03-10T06:41:09Z</time>
  <sat>10</sat>
</trkpt>
<trkpt lat="39.677306000" lon="-0.319547000">
  <ele>74.000000</ele>
  <time>2012-03-10T06:41:13Z</time>
  <sat>10</sat>
</trkpt>
<trkpt lat="39.677221000" lon="-0.319482000">
  <ele>73.900000</ele>
  <time>2012-03-10T06:41:15Z</time>
  <sat>10</sat>
</trkpt>
<trkpt lat="39.677138000" lon="-0.319400000">
  <ele>74.100000</ele>
  <time>2012-03-10T06:41:17Z</time>
  <sat>10</sat>
</trkpt>
<trkpt lat="39.676946000" lon="-0.319169000">
  <ele>74.400000</ele>
  <time>2012-03-10T06:41:22Z</time>
  <sat>8</sat>
</trkpt>
<trkpt lat="39.676323000" lon="-0.318380000">
  <ele>73.000000</ele>
  <time>2012-03-10T06:41:37Z</time>
  <sat>9</sat>
</trkpt>
<trkpt lat="39.676287000" lon="-0.318319000">
  <ele>73.000000</ele>
  <time>2012-03-10T06:41:38Z</time>
  <sat>10</sat>
</trkpt>
<trkpt lat="39.676027000" lon="-0.317813000">
  <ele>72.500000</ele>
  <time>2012-03-10T06:41:46Z</time>
  <sat>10</sat>
</trkpt>
<trkpt lat="39.676000000" lon="-0.317752000">
  <ele>72.500000</ele>
  <time>2012-03-10T06:41:47Z</time>
  <sat>10</sat>
</trkpt>
<trkpt lat="39.675957000" lon="-0.317630000">
  <ele>72.300000</ele>
  <time>2012-03-10T06:41:49Z</time>
  <sat>9</sat>
</trkpt>
<trkpt lat="39.675298000" lon="-0.315804000">
  <ele>74.500000</ele>
  <time>2012-03-10T06:42:22Z</time>
  <sat>10</sat>
</trkpt>
<trkpt lat="39.675285000" lon="-0.315747000">
  <ele>74.600000</ele>
  <time>2012-03-10T06:42:23Z</time>
  <sat>10</sat>
</trkpt>
<trkpt lat="39.675122000" lon="-0.315094000">
  <ele>75.600000</ele>
  <time>2012-03-10T06:42:36Z</time>
  <sat>9</sat>
</trkpt>
<trkpt lat="39.675102000" lon="-0.315044000">
  <ele>75.500000</ele>
  <time>2012-03-10T06:42:37Z</time>
  <sat>9</sat>
</trkpt>
<trkpt lat="39.674993000" lon="-0.314772000">
  <ele>75.000000</ele>
  <time>2012-03-10T06:42:42Z</time>
  <sat>10</sat>
</trkpt>
<trkpt lat="39.674939000" lon="-0.314593000">
  <ele>74.400000</ele>
  <time>2012-03-10T06:42:45Z</time>
  <sat>10</sat>
</trkpt>
<trkpt lat="39.674756000" lon="-0.314043000">
  <ele>70.600000</ele>
  <time>2012-03-10T06:42:53Z</time>
  <sat>10</sat>
</trkpt>
<trkpt lat="39.674727000" lon="-0.313994000">
  <ele>70.100000</ele>
  <time>2012-03-10T06:42:54Z</time>
  <sat>10</sat>
</trkpt>
<trkpt lat="39.674690000" lon="-0.313959000">
  <ele>69.500000</ele>
  <time>2012-03-10T06:42:55Z</time>
  <sat>10</sat>
</trkpt>
<trkpt lat="39.674653000" lon="-0.313943000">
  <ele>69.000000</ele>
  <time>2012-03-10T06:42:56Z</time>
  <sat>10</sat>
</trkpt>
<trkpt lat="39.674615000" lon="-0.313939000">
  <ele>68.900000</ele>
  <time>2012-03-10T06:42:57Z</time>
  <sat>10</sat>
</trkpt>
<trkpt lat="39.674580000" lon="-0.313956000">
  <ele>69.000000</ele>
  <time>2012-03-10T06:42:58Z</time>
  <sat>10</sat>
</trkpt>
<trkpt lat="39.674486000" lon="-0.314035000">
  <ele>69.000000</ele>
  <time>2012-03-10T06:43:01Z</time>
  <sat>10</sat>
</trkpt>
<trkpt lat="39.674477000" lon="-0.314068000">
  <ele>69.000000</ele>
  <time>2012-03-10T06:43:02Z</time>
  <sat>10</sat>
</trkpt>
<trkpt lat="39.674493000" lon="-0.314157000">
  <ele>69.000000</ele>
  <time>2012-03-10T06:43:04Z</time>
  <sat>10</sat>
</trkpt>
<trkpt lat="39.674493000" lon="-0.314207000">
  <ele>69.100000</ele>
  <time>2012-03-10T06:43:05Z</time>
  <sat>10</sat>
</trkpt>
<trkpt lat="39.674459000" lon="-0.314246000">
  <ele>68.800000</ele>
  <time>2012-03-10T06:43:06Z</time>
  <sat>9</sat>
</trkpt>
<trkpt lat="39.674449000" lon="-0.314289000">
  <ele>68.400000</ele>
  <time>2012-03-10T06:43:07Z</time>
  <sat>9</sat>
</trkpt>
<trkpt lat="39.674410000" lon="-0.314315000">
  <ele>68.100000</ele>
  <time>2012-03-10T06:43:08Z</time>
  <sat>9</sat>
</trkpt>
<trkpt lat="39.674392000" lon="-0.314337000">
  <ele>68.500000</ele>
  <time>2012-03-10T06:43:09Z</time>
  <sat>9</sat>
</trkpt>
<trkpt lat="39.674382000" lon="-0.314368000">
  <ele>69.500000</ele>
  <time>2012-03-10T06:43:10Z</time>
  <sat>9</sat>
</trkpt>
<trkpt lat="39.674362000" lon="-0.314443000">
  <ele>70.300000</ele>
  <time>2012-03-10T06:43:12Z</time>
  <sat>10</sat>
</trkpt>
<trkpt lat="39.674357000" lon="-0.314491000">
  <ele>70.900000</ele>
  <time>2012-03-10T06:43:13Z</time>
  <sat>10</sat>
</trkpt>
<trkpt lat="39.674354000" lon="-0.314535000">
  <ele>71.100000</ele>
  <time>2012-03-10T06:43:14Z</time>
  <sat>9</sat>
</trkpt>
<trkpt lat="39.674324000" lon="-0.314711000">
  <ele>70.500000</ele>
  <time>2012-03-10T06:43:18Z</time>
  <sat>10</sat>
</trkpt>
<trkpt lat="39.674307000" lon="-0.314755000">
  <ele>70.400000</ele>
  <time>2012-03-10T06:43:19Z</time>
  <sat>10</sat>
</trkpt>
<trkpt lat="39.674181000" lon="-0.315046000">
  <ele>71.400000</ele>
  <time>2012-03-10T06:43:26Z</time>
  <sat>10</sat>
</trkpt>
<trkpt lat="39.674153000" lon="-0.315098000">
  <ele>70.800000</ele>
  <time>2012-03-10T06:43:27Z</time>
  <sat>10</sat>
</trkpt>
<trkpt lat="39.674037000" lon="-0.315311000">
  <ele>70.600000</ele>
  <time>2012-03-10T06:43:32Z</time>
  <sat>10</sat>
</trkpt>
<trkpt lat="39.673943000" lon="-0.315490000">
  <ele>70.500000</ele>
  <time>2012-03-10T06:43:37Z</time>
  <sat>8</sat>
</trkpt>
<trkpt lat="39.673934000" lon="-0.315524000">
  <ele>70.000000</ele>
  <time>2012-03-10T06:43:38Z</time>
  <sat>9</sat>
</trkpt>
<trkpt lat="39.673909000" lon="-0.315589000">
  <ele>69.500000</ele>
  <time>2012-03-10T06:43:40Z</time>
  <sat>9</sat>
</trkpt>
<trkpt lat="39.673891000" lon="-0.315614000">
  <ele>69.000000</ele>
  <time>2012-03-10T06:43:41Z</time>
  <sat>10</sat>
</trkpt>
<trkpt lat="39.673870000" lon="-0.315635000">
  <ele>68.500000</ele>
  <time>2012-03-10T06:43:42Z</time>
  <sat>10</sat>
</trkpt>
<trkpt lat="39.673849000" lon="-0.315652000">
  <ele>68.000000</ele>
  <time>2012-03-10T06:43:43Z</time>
  <sat>10</sat>
</trkpt>
<trkpt lat="39.673772000" lon="-0.315712000">
  <ele>66.800000</ele>
  <time>2012-03-10T06:43:47Z</time>
  <sat>10</sat>
</trkpt>
<trkpt lat="39.673751000" lon="-0.315720000">
  <ele>66.500000</ele>
  <time>2012-03-10T06:43:48Z</time>
  <sat>9</sat>
</trkpt>
<trkpt lat="39.673710000" lon="-0.315719000">
  <ele>66.900000</ele>
  <time>2012-03-10T06:43:50Z</time>
  <sat>9</sat>
</trkpt>
<trkpt lat="39.673673000" lon="-0.315732000">
  <ele>66.600000</ele>
  <time>2012-03-10T06:43:52Z</time>
  <sat>9</sat>
</trkpt>
<trkpt lat="39.673652000" lon="-0.315736000">
  <ele>67.100000</ele>
  <time>2012-03-10T06:43:53Z</time>
  <sat>9</sat>
</trkpt>
<trkpt lat="39.673632000" lon="-0.315753000">
  <ele>67.500000</ele>
  <time>2012-03-10T06:43:54Z</time>
  <sat>9</sat>
</trkpt>
<trkpt lat="39.673613000" lon="-0.315777000">
  <ele>67.500000</ele>
  <time>2012-03-10T06:43:55Z</time>
  <sat>9</sat>
</trkpt>
<trkpt lat="39.673596000" lon="-0.315801000">
  <ele>67.900000</ele>
  <time>2012-03-10T06:43:56Z</time>
  <sat>7</sat>
</trkpt>
<trkpt lat="39.673579000" lon="-0.315829000">
  <ele>68.500000</ele>
  <time>2012-03-10T06:43:57Z</time>
  <sat>9</sat>
</trkpt>
<trkpt lat="39.673570000" lon="-0.315861000">
  <ele>69.400000</ele>
  <time>2012-03-10T06:43:58Z</time>
  <sat>9</sat>
</trkpt>
<trkpt lat="39.673559000" lon="-0.315888000">
  <ele>69.900000</ele>
  <time>2012-03-10T06:43:59Z</time>
  <sat>9</sat>
</trkpt>
<trkpt lat="39.673543000" lon="-0.315915000">
  <ele>70.000000</ele>
  <time>2012-03-10T06:44:00Z</time>
  <sat>8</sat>
</trkpt>
<trkpt lat="39.673507000" lon="-0.316004000">
  <ele>71.100000</ele>
  <time>2012-03-10T06:44:03Z</time>
  <sat>8</sat>
</trkpt>
<trkpt lat="39.673503000" lon="-0.316045000">
  <ele>71.300000</ele>
  <time>2012-03-10T06:44:04Z</time>
  <sat>9</sat>
</trkpt>
<trkpt lat="39.673472000" lon="-0.316168000">
  <ele>72.000000</ele>
  <time>2012-03-10T06:44:08Z</time>
  <sat>10</sat>
</trkpt>
<trkpt lat="39.673458000" lon="-0.316193000">
  <ele>72.100000</ele>
  <time>2012-03-10T06:44:09Z</time>
  <sat>10</sat>
</trkpt>
<trkpt lat="39.673400000" lon="-0.316311000">
  <ele>73.800000</ele>
  <time>2012-03-10T06:44:14Z</time>
  <sat>9</sat>
</trkpt>
<trkpt lat="39.673392000" lon="-0.316349000">
  <ele>74.100000</ele>
  <time>2012-03-10T06:44:15Z</time>
  <sat>9</sat>
</trkpt>
<trkpt lat="39.673385000" lon="-0.316410000">
  <ele>74.500000</ele>
  <time>2012-03-10T06:44:17Z</time>
  <sat>9</sat>
</trkpt>
<trkpt lat="39.673386000" lon="-0.316435000">
  <ele>73.600000</ele>
  <time>2012-03-10T06:44:18Z</time>
  <sat>9</sat>
</trkpt>
<trkpt lat="39.673382000" lon="-0.316493000">
  <ele>73.500000</ele>
  <time>2012-03-10T06:44:20Z</time>
  <sat>8</sat>
</trkpt>
<trkpt lat="39.673367000" lon="-0.316517000">
  <ele>74.000000</ele>
  <time>2012-03-10T06:44:21Z</time>
  <sat>8</sat>
</trkpt>
<trkpt lat="39.673363000" lon="-0.316540000">
  <ele>74.100000</ele>
  <time>2012-03-10T06:44:22Z</time>
  <sat>8</sat>
</trkpt>
<trkpt lat="39.673337000" lon="-0.316645000">
  <ele>76.500000</ele>
  <time>2012-03-10T06:44:27Z</time>
  <sat>10</sat>
</trkpt>
<trkpt lat="39.673332000" lon="-0.316664000">
  <ele>76.500000</ele>
  <time>2012-03-10T06:44:28Z</time>
  <sat>10</sat>
</trkpt>
<trkpt lat="39.673326000" lon="-0.316694000">
  <ele>74.900000</ele>
  <time>2012-03-10T06:44:29Z</time>
  <sat>10</sat>
</trkpt>
<trkpt lat="39.673320000" lon="-0.316770000">
  <ele>72.400000</ele>
  <time>2012-03-10T06:44:32Z</time>
  <sat>10</sat>
</trkpt>
<trkpt lat="39.673322000" lon="-0.316792000">
  <ele>72.000000</ele>
  <time>2012-03-10T06:44:33Z</time>
  <sat>10</sat>
</trkpt>
<trkpt lat="39.673320000" lon="-0.316815000">
  <ele>72.500000</ele>
  <time>2012-03-10T06:44:34Z</time>
  <sat>10</sat>
</trkpt>
<trkpt lat="39.673311000" lon="-0.316828000">
  <ele>72.500000</ele>
  <time>2012-03-10T06:44:35Z</time>
  <sat>10</sat>
</trkpt>
<trkpt lat="39.673305000" lon="-0.316843000">
  <ele>73.000000</ele>
  <time>2012-03-10T06:44:36Z</time>
  <sat>10</sat>
</trkpt>
<trkpt lat="39.673252000" lon="-0.316941000">
  <ele>74.400000</ele>
  <time>2012-03-10T06:44:41Z</time>
  <sat>10</sat>
</trkpt>
<trkpt lat="39.673238000" lon="-0.316952000">
  <ele>74.600000</ele>
  <time>2012-03-10T06:44:42Z</time>
  <sat>10</sat>
</trkpt>
<trkpt lat="39.673253000" lon="-0.316944000">
  <ele>74.500000</ele>
  <time>2012-03-10T06:44:43Z</time>
  <sat>10</sat>
</trkpt>
<trkpt lat="39.673253000" lon="-0.316944000">
  <ele>74.500000</ele>
  <time>2012-03-10T06:44:44Z</time>
  <sat>10</sat>
</trkpt>
<trkpt lat="39.673240000" lon="-0.316948000">
  <ele>75.100000</ele>
  <time>2012-03-10T06:44:45Z</time>
  <sat>10</sat>
</trkpt>
<trkpt lat="39.673234000" lon="-0.316956000">
  <ele>75.000000</ele>
  <time>2012-03-10T06:44:46Z</time>
  <sat>10</sat>
</trkpt>
<trkpt lat="39.673228000" lon="-0.316966000">
  <ele>75.100000</ele>
  <time>2012-03-10T06:44:47Z</time>
  <sat>10</sat>
</trkpt>
<trkpt lat="39.673221000" lon="-0.316983000">
  <ele>75.400000</ele>
  <time>2012-03-10T06:44:48Z</time>
  <sat>10</sat>
</trkpt>
<trkpt lat="39.673207000" lon="-0.316984000">
  <ele>76.000000</ele>
  <time>2012-03-10T06:44:49Z</time>
  <sat>10</sat>
</trkpt>
<trkpt lat="39.673198000" lon="-0.316995000">
  <ele>76.000000</ele>
  <time>2012-03-10T06:44:50Z</time>
  <sat>10</sat>
</trkpt>
<trkpt lat="39.673189000" lon="-0.317002000">
  <ele>76.500000</ele>
  <time>2012-03-10T06:44:51Z</time>
  <sat>10</sat>
</trkpt>
<trkpt lat="39.673190000" lon="-0.317019000">
  <ele>76.800000</ele>
  <time>2012-03-10T06:44:52Z</time>
  <sat>10</sat>
</trkpt>
<trkpt lat="39.673195000" lon="-0.317037000">
  <ele>77.100000</ele>
  <time>2012-03-10T06:44:53Z</time>
  <sat>10</sat>
</trkpt>
<trkpt lat="39.673195000" lon="-0.317054000">
  <ele>77.900000</ele>
  <time>2012-03-10T06:44:54Z</time>
  <sat>10</sat>
</trkpt>
<trkpt lat="39.673200000" lon="-0.317063000">
  <ele>79.000000</ele>
  <time>2012-03-10T06:44:55Z</time>
  <sat>10</sat>
</trkpt>
<trkpt lat="39.673198000" lon="-0.317077000">
  <ele>80.000000</ele>
  <time>2012-03-10T06:44:56Z</time>
  <sat>10</sat>
</trkpt>
<trkpt lat="39.673195000" lon="-0.317086000">
  <ele>80.000000</ele>
  <time>2012-03-10T06:44:57Z</time>
  <sat>10</sat>
</trkpt>
<trkpt lat="39.673188000" lon="-0.317100000">
  <ele>80.100000</ele>
  <time>2012-03-10T06:44:58Z</time>
  <sat>10</sat>
</trkpt>
<trkpt lat="39.673136000" lon="-0.317196000">
  <ele>78.100000</ele>
  <time>2012-03-10T06:45:06Z</time>
  <sat>10</sat>
</trkpt>
<trkpt lat="39.673128000" lon="-0.317206000">
  <ele>79.000000</ele>
  <time>2012-03-10T06:45:07Z</time>
  <sat>10</sat>
</trkpt>
<trkpt lat="39.673127000" lon="-0.317225000">
  <ele>79.500000</ele>
  <time>2012-03-10T06:45:08Z</time>
  <sat>10</sat>
</trkpt>
<trkpt lat="39.673120000" lon="-0.317236000">
  <ele>79.500000</ele>
  <time>2012-03-10T06:45:09Z</time>
  <sat>10</sat>
</trkpt>
<trkpt lat="39.673118000" lon="-0.317247000">
  <ele>79.500000</ele>
  <time>2012-03-10T06:45:10Z</time>
  <sat>10</sat>
</trkpt>
<trkpt lat="39.673122000" lon="-0.317243000">
  <ele>79.100000</ele>
  <time>2012-03-10T06:45:11Z</time>
  <sat>10</sat>
</trkpt>
<trkpt lat="39.673119000" lon="-0.317246000">
  <ele>79.300000</ele>
  <time>2012-03-10T06:45:12Z</time>
  <sat>10</sat>
</trkpt>
<trkpt lat="39.673120000" lon="-0.317248000">
  <ele>79.300000</ele>
  <time>2012-03-10T06:45:13Z</time>
  <sat>10</sat>
</trkpt>
<trkpt lat="39.673120000" lon="-0.317248000">
  <ele>79.300000</ele>
  <time>2012-03-10T06:45:14Z</time>
  <sat>10</sat>
</trkpt>
<trkpt lat="39.673113000" lon="-0.317269000">
  <ele>78.100000</ele>
  <time>2012-03-10T06:45:15Z</time>
  <sat>10</sat>
</trkpt>
<trkpt lat="39.673108000" lon="-0.317281000">
  <ele>77.500000</ele>
  <time>2012-03-10T06:45:16Z</time>
  <sat>10</sat>
</trkpt>
<trkpt lat="39.673102000" lon="-0.317297000">
  <ele>77.500000</ele>
  <time>2012-03-10T06:45:17Z</time>
  <sat>10</sat>
</trkpt>
<trkpt lat="39.673038000" lon="-0.317434000">
  <ele>76.000000</ele>
  <time>2012-03-10T06:45:23Z</time>
  <sat>10</sat>
</trkpt>
<trkpt lat="39.672979000" lon="-0.317635000">
  <ele>74.300000</ele>
  <time>2012-03-10T06:45:30Z</time>
  <sat>6</sat>
</trkpt>
<trkpt lat="39.672966000" lon="-0.317664000">
  <ele>73.500000</ele>
  <time>2012-03-10T06:45:31Z</time>
  <sat>6</sat>
</trkpt>
<trkpt lat="39.672852000" lon="-0.317958000">
  <ele>76.100000</ele>
  <time>2012-03-10T06:45:41Z</time>
  <sat>7</sat>
</trkpt>
<trkpt lat="39.672846000" lon="-0.318040000">
  <ele>76.500000</ele>
  <time>2012-03-10T06:45:44Z</time>
  <sat>8</sat>
</trkpt>
<trkpt lat="39.672844000" lon="-0.318065000">
  <ele>77.000000</ele>
  <time>2012-03-10T06:45:45Z</time>
  <sat>8</sat>
</trkpt>
<trkpt lat="39.672843000" lon="-0.318089000">
  <ele>77.300000</ele>
  <time>2012-03-10T06:45:46Z</time>
  <sat>7</sat>
</trkpt>
<trkpt lat="39.672842000" lon="-0.318114000">
  <ele>77.500000</ele>
  <time>2012-03-10T06:45:47Z</time>
  <sat>7</sat>
</trkpt>
<trkpt lat="39.672836000" lon="-0.318134000">
  <ele>77.400000</ele>
  <time>2012-03-10T06:45:48Z</time>
  <sat>7</sat>
</trkpt>
<trkpt lat="39.672828000" lon="-0.318199000">
  <ele>79.800000</ele>
  <time>2012-03-10T06:45:56Z</time>
  <sat>10</sat>
</trkpt>
<trkpt lat="39.672824000" lon="-0.318216000">
  <ele>79.300000</ele>
  <time>2012-03-10T06:45:57Z</time>
  <sat>10</sat>
</trkpt>
<trkpt lat="39.672776000" lon="-0.318376000">
  <ele>78.100000</ele>
  <time>2012-03-10T06:46:09Z</time>
  <sat>10</sat>
</trkpt>
<trkpt lat="39.672761000" lon="-0.318386000">
  <ele>78.000000</ele>
  <time>2012-03-10T06:46:10Z</time>
  <sat>10</sat>
</trkpt>
<trkpt lat="39.672749000" lon="-0.318395000">
  <ele>77.600000</ele>
  <time>2012-03-10T06:46:11Z</time>
  <sat>10</sat>
</trkpt>
<trkpt lat="39.672739000" lon="-0.318403000">
  <ele>77.400000</ele>
  <time>2012-03-10T06:46:12Z</time>
  <sat>10</sat>
</trkpt>
<trkpt lat="39.672731000" lon="-0.318419000">
  <ele>77.400000</ele>
  <time>2012-03-10T06:46:13Z</time>
  <sat>10</sat>
</trkpt>
<trkpt lat="39.672679000" lon="-0.318523000">
  <ele>80.400000</ele>
  <time>2012-03-10T06:46:20Z</time>
  <sat>10</sat>
</trkpt>
<trkpt lat="39.672673000" lon="-0.318533000">
  <ele>80.000000</ele>
  <time>2012-03-10T06:46:21Z</time>
  <sat>7</sat>
</trkpt>
<trkpt lat="39.672619000" lon="-0.318618000">
  <ele>80.100000</ele>
  <time>2012-03-10T06:46:27Z</time>
  <sat>10</sat>
</trkpt>
<trkpt lat="39.672611000" lon="-0.318675000">
  <ele>79.500000</ele>
  <time>2012-03-10T06:46:30Z</time>
  <sat>10</sat>
</trkpt>
<trkpt lat="39.672607000" lon="-0.318693000">
  <ele>79.400000</ele>
  <time>2012-03-10T06:46:31Z</time>
  <sat>10</sat>
</trkpt>
<trkpt lat="39.672600000" lon="-0.318701000">
  <ele>79.000000</ele>
  <time>2012-03-10T06:46:32Z</time>
  <sat>10</sat>
</trkpt>
<trkpt lat="39.672598000" lon="-0.318719000">
  <ele>78.800000</ele>
  <time>2012-03-10T06:46:33Z</time>
  <sat>10</sat>
</trkpt>
<trkpt lat="39.672589000" lon="-0.318725000">
  <ele>78.500000</ele>
  <time>2012-03-10T06:46:34Z</time>
  <sat>10</sat>
</trkpt>
<trkpt lat="39.672585000" lon="-0.318744000">
  <ele>78.100000</ele>
  <time>2012-03-10T06:46:35Z</time>
  <sat>10</sat>
</trkpt>
<trkpt lat="39.672575000" lon="-0.318755000">
  <ele>78.000000</ele>
  <time>2012-03-10T06:46:36Z</time>
  <sat>10</sat>
</trkpt>
<trkpt lat="39.672567000" lon="-0.318771000">
  <ele>77.500000</ele>
  <time>2012-03-10T06:46:37Z</time>
  <sat>10</sat>
</trkpt>
<trkpt lat="39.672559000" lon="-0.318784000">
  <ele>77.100000</ele>
  <time>2012-03-10T06:46:38Z</time>
  <sat>10</sat>
</trkpt>
<trkpt lat="39.672482000" lon="-0.318893000">
  <ele>77.800000</ele>
  <time>2012-03-10T06:46:47Z</time>
  <sat>10</sat>
</trkpt>
<trkpt lat="39.672472000" lon="-0.318900000">
  <ele>77.900000</ele>
  <time>2012-03-10T06:46:48Z</time>
  <sat>10</sat>
</trkpt>
<trkpt lat="39.672446000" lon="-0.318924000">
  <ele>79.000000</ele>
  <time>2012-03-10T06:46:51Z</time>
  <sat>10</sat>
</trkpt>
<trkpt lat="39.672439000" lon="-0.318933000">
  <ele>78.900000</ele>
  <time>2012-03-10T06:46:52Z</time>
  <sat>10</sat>
</trkpt>
<trkpt lat="39.672363000" lon="-0.319047000">
  <ele>80.000000</ele>
  <time>2012-03-10T06:47:01Z</time>
  <sat>10</sat>
</trkpt>
<trkpt lat="39.672349000" lon="-0.319052000">
  <ele>79.900000</ele>
  <time>2012-03-10T06:47:02Z</time>
  <sat>10</sat>
</trkpt>
<trkpt lat="39.672338000" lon="-0.319060000">
  <ele>80.000000</ele>
  <time>2012-03-10T06:47:03Z</time>
  <sat>10</sat>
</trkpt>
<trkpt lat="39.672318000" lon="-0.319092000">
  <ele>78.000000</ele>
  <time>2012-03-10T06:47:08Z</time>
  <sat>10</sat>
</trkpt>
<trkpt lat="39.672318000" lon="-0.319082000">
  <ele>79.000000</ele>
  <time>2012-03-10T06:47:09Z</time>
  <sat>9</sat>
</trkpt>
<trkpt lat="39.672314000" lon="-0.319081000">
  <ele>79.100000</ele>
  <time>2012-03-10T06:47:10Z</time>
  <sat>10</sat>
</trkpt>
<trkpt lat="39.672316000" lon="-0.319080000">
  <ele>79.500000</ele>
  <time>2012-03-10T06:47:11Z</time>
  <sat>10</sat>
</trkpt>
<trkpt lat="39.672314000" lon="-0.319078000">
  <ele>79.300000</ele>
  <time>2012-03-10T06:47:12Z</time>
  <sat>10</sat>
</trkpt>
<trkpt lat="39.672310000" lon="-0.319073000">
  <ele>78.900000</ele>
  <time>2012-03-10T06:47:13Z</time>
  <sat>10</sat>
</trkpt>
<trkpt lat="39.672310000" lon="-0.319071000">
  <ele>78.400000</ele>
  <time>2012-03-10T06:47:14Z</time>
  <sat>10</sat>
</trkpt>
<trkpt lat="39.672309000" lon="-0.319069000">
  <ele>78.100000</ele>
  <time>2012-03-10T06:47:15Z</time>
  <sat>10</sat>
</trkpt>
<trkpt lat="39.672302000" lon="-0.319064000">
  <ele>78.500000</ele>
  <time>2012-03-10T06:47:16Z</time>
  <sat>10</sat>
</trkpt>
<trkpt lat="39.672300000" lon="-0.319063000">
  <ele>78.800000</ele>
  <time>2012-03-10T06:47:17Z</time>
  <sat>10</sat>
</trkpt>
<trkpt lat="39.672300000" lon="-0.319064000">
  <ele>78.600000</ele>
  <time>2012-03-10T06:47:18Z</time>
  <sat>10</sat>
</trkpt>
<trkpt lat="39.672300000" lon="-0.319064000">
  <ele>78.600000</ele>
  <time>2012-03-10T06:47:19Z</time>
  <sat>10</sat>
</trkpt>
<trkpt lat="39.672286000" lon="-0.319080000">
  <ele>79.300000</ele>
  <time>2012-03-10T06:47:20Z</time>
  <sat>10</sat>
</trkpt>
<trkpt lat="39.672282000" lon="-0.319095000">
  <ele>79.500000</ele>
  <time>2012-03-10T06:47:21Z</time>
  <sat>10</sat>
</trkpt>
<trkpt lat="39.672276000" lon="-0.319115000">
  <ele>79.000000</ele>
  <time>2012-03-10T06:47:22Z</time>
  <sat>10</sat>
</trkpt>
<trkpt lat="39.672251000" lon="-0.319161000">
  <ele>79.000000</ele>
  <time>2012-03-10T06:47:24Z</time>
  <sat>10</sat>
</trkpt>
<trkpt lat="39.672215000" lon="-0.319283000">
  <ele>79.500000</ele>
  <time>2012-03-10T06:47:28Z</time>
  <sat>7</sat>
</trkpt>
<trkpt lat="39.672137000" lon="-0.319443000">
  <ele>77.400000</ele>
  <time>2012-03-10T06:47:35Z</time>
  <sat>9</sat>
</trkpt>
<trkpt lat="39.672127000" lon="-0.319460000">
  <ele>77.600000</ele>
  <time>2012-03-10T06:47:36Z</time>
  <sat>9</sat>
</trkpt>
<trkpt lat="39.672108000" lon="-0.319472000">
  <ele>78.100000</ele>
  <time>2012-03-10T06:47:37Z</time>
  <sat>9</sat>
</trkpt>
<trkpt lat="39.672003000" lon="-0.319564000">
  <ele>78.500000</ele>
  <time>2012-03-10T06:47:42Z</time>
  <sat>8</sat>
</trkpt>
<trkpt lat="39.671982000" lon="-0.319600000">
  <ele>78.500000</ele>
  <time>2012-03-10T06:47:43Z</time>
  <sat>8</sat>
</trkpt>
<trkpt lat="39.671932000" lon="-0.319659000">
  <ele>78.900000</ele>
  <time>2012-03-10T06:47:46Z</time>
  <sat>8</sat>
</trkpt>
<trkpt lat="39.671753000" lon="-0.319942000">
  <ele>79.300000</ele>
  <time>2012-03-10T06:47:56Z</time>
  <sat>9</sat>
</trkpt>
<trkpt lat="39.671738000" lon="-0.319968000">
  <ele>80.000000</ele>
  <time>2012-03-10T06:47:57Z</time>
  <sat>9</sat>
</trkpt>
<trkpt lat="39.671616000" lon="-0.320297000">
  <ele>76.300000</ele>
  <time>2012-03-10T06:48:07Z</time>
  <sat>8</sat>
</trkpt>
<trkpt lat="39.671622000" lon="-0.320323000">
  <ele>76.000000</ele>
  <time>2012-03-10T06:48:09Z</time>
  <sat>9</sat>
</trkpt>
<trkpt lat="39.671633000" lon="-0.320328000">
  <ele>75.800000</ele>
  <time>2012-03-10T06:48:10Z</time>
  <sat>8</sat>
</trkpt>
<trkpt lat="39.671636000" lon="-0.320330000">
  <ele>76.000000</ele>
  <time>2012-03-10T06:48:11Z</time>
  <sat>8</sat>
</trkpt>
<trkpt lat="39.671639000" lon="-0.320331000">
  <ele>76.000000</ele>
  <time>2012-03-10T06:48:12Z</time>
  <sat>8</sat>
</trkpt>
<trkpt lat="39.671643000" lon="-0.320336000">
  <ele>76.300000</ele>
  <time>2012-03-10T06:48:13Z</time>
  <sat>9</sat>
</trkpt>
<trkpt lat="39.671646000" lon="-0.320339000">
  <ele>76.400000</ele>
  <time>2012-03-10T06:48:14Z</time>
  <sat>9</sat>
</trkpt>
<trkpt lat="39.671648000" lon="-0.320339000">
  <ele>76.500000</ele>
  <time>2012-03-10T06:48:15Z</time>
  <sat>9</sat>
</trkpt>
<trkpt lat="39.671650000" lon="-0.320339000">
  <ele>76.600000</ele>
  <time>2012-03-10T06:48:16Z</time>
  <sat>9</sat>
</trkpt>
<trkpt lat="39.671657000" lon="-0.320400000">
  <ele>79.300000</ele>
  <time>2012-03-10T06:48:25Z</time>
  <sat>9</sat>
</trkpt>
<trkpt lat="39.671686000" lon="-0.320475000">
  <ele>78.000000</ele>
  <time>2012-03-10T06:48:27Z</time>
  <sat>7</sat>
</trkpt>
<trkpt lat="39.671795000" lon="-0.320747000">
  <ele>80.000000</ele>
  <time>2012-03-10T06:48:37Z</time>
  <sat>7</sat>
</trkpt>
<trkpt lat="39.671808000" lon="-0.320772000">
  <ele>79.900000</ele>
  <time>2012-03-10T06:48:38Z</time>
  <sat>7</sat>
</trkpt>
<trkpt lat="39.671932000" lon="-0.321068000">
  <ele>81.800000</ele>
  <time>2012-03-10T06:48:49Z</time>
  <sat>8</sat>
</trkpt>
<trkpt lat="39.671933000" lon="-0.321105000">
  <ele>81.600000</ele>
  <time>2012-03-10T06:48:50Z</time>
  <sat>8</sat>
</trkpt>
<trkpt lat="39.671932000" lon="-0.321138000">
  <ele>82.000000</ele>
  <time>2012-03-10T06:48:51Z</time>
  <sat>8</sat>
</trkpt>
<trkpt lat="39.671911000" lon="-0.321228000">
  <ele>82.500000</ele>
  <time>2012-03-10T06:48:54Z</time>
  <sat>8</sat>
</trkpt>
<trkpt lat="39.671865000" lon="-0.321246000">
  <ele>83.000000</ele>
  <time>2012-03-10T06:48:55Z</time>
  <sat>9</sat>
</trkpt>
<trkpt lat="39.671839000" lon="-0.321272000">
  <ele>82.300000</ele>
  <time>2012-03-10T06:48:56Z</time>
  <sat>8</sat>
</trkpt>
<trkpt lat="39.671772000" lon="-0.321349000">
  <ele>80.800000</ele>
  <time>2012-03-10T06:48:59Z</time>
  <sat>8</sat>
</trkpt>
<trkpt lat="39.671730000" lon="-0.321410000">
  <ele>79.800000</ele>
  <time>2012-03-10T06:49:01Z</time>
  <sat>8</sat>
</trkpt>
<trkpt lat="39.671713000" lon="-0.321445000">
  <ele>79.600000</ele>
  <time>2012-03-10T06:49:02Z</time>
  <sat>8</sat>
</trkpt>
<trkpt lat="39.671694000" lon="-0.321521000">
  <ele>80.000000</ele>
  <time>2012-03-10T06:49:04Z</time>
  <sat>9</sat>
</trkpt>
<trkpt lat="39.671697000" lon="-0.321655000">
  <ele>79.800000</ele>
  <time>2012-03-10T06:49:07Z</time>
  <sat>10</sat>
</trkpt>
<trkpt lat="39.671723000" lon="-0.322062000">
  <ele>80.000000</ele>
  <time>2012-03-10T06:49:14Z</time>
  <sat>10</sat>
</trkpt>
<trkpt lat="39.671718000" lon="-0.322090000">
  <ele>80.600000</ele>
  <time>2012-03-10T06:49:15Z</time>
  <sat>10</sat>
</trkpt>
<trkpt lat="39.671679000" lon="-0.322227000">
  <ele>82.100000</ele>
  <time>2012-03-10T06:49:20Z</time>
  <sat>10</sat>
</trkpt>
<trkpt lat="39.671649000" lon="-0.322341000">
  <ele>84.100000</ele>
  <time>2012-03-10T06:49:24Z</time>
  <sat>10</sat>
</trkpt>
<trkpt lat="39.671643000" lon="-0.322375000">
  <ele>83.800000</ele>
  <time>2012-03-10T06:49:25Z</time>
  <sat>10</sat>
</trkpt>
<trkpt lat="39.671640000" lon="-0.322397000">
  <ele>83.800000</ele>
  <time>2012-03-10T06:49:26Z</time>
  <sat>10</sat>
</trkpt>
<trkpt lat="39.671640000" lon="-0.322484000">
  <ele>83.300000</ele>
  <time>2012-03-10T06:49:30Z</time>
  <sat>8</sat>
</trkpt>
<trkpt lat="39.671640000" lon="-0.322502000">
  <ele>83.500000</ele>
  <time>2012-03-10T06:49:31Z</time>
  <sat>8</sat>
</trkpt>
<trkpt lat="39.671635000" lon="-0.322518000">
  <ele>84.400000</ele>
  <time>2012-03-10T06:49:32Z</time>
  <sat>7</sat>
</trkpt>
<trkpt lat="39.671626000" lon="-0.322534000">
  <ele>85.400000</ele>
  <time>2012-03-10T06:49:33Z</time>
  <sat>10</sat>
</trkpt>
<trkpt lat="39.671611000" lon="-0.322540000">
  <ele>85.500000</ele>
  <time>2012-03-10T06:49:35Z</time>
  <sat>10</sat>
</trkpt>
<trkpt lat="39.671599000" lon="-0.322538000">
  <ele>85.800000</ele>
  <time>2012-03-10T06:49:36Z</time>
  <sat>10</sat>
</trkpt>
<trkpt lat="39.671552000" lon="-0.322509000">
  <ele>87.500000</ele>
  <time>2012-03-10T06:49:39Z</time>
  <sat>10</sat>
</trkpt>
<trkpt lat="39.671540000" lon="-0.322488000">
  <ele>87.900000</ele>
  <time>2012-03-10T06:49:40Z</time>
  <sat>10</sat>
</trkpt>
<trkpt lat="39.671506000" lon="-0.322445000">
  <ele>88.600000</ele>
  <time>2012-03-10T06:49:43Z</time>
  <sat>10</sat>
</trkpt>
<trkpt lat="39.671488000" lon="-0.322413000">
  <ele>88.400000</ele>
  <time>2012-03-10T06:49:45Z</time>
  <sat>10</sat>
</trkpt>
<trkpt lat="39.671408000" lon="-0.322282000">
  <ele>90.400000</ele>
  <time>2012-03-10T06:49:52Z</time>
  <sat>10</sat>
</trkpt>
<trkpt lat="39.671391000" lon="-0.322269000">
  <ele>91.000000</ele>
  <time>2012-03-10T06:49:53Z</time>
  <sat>10</sat>
</trkpt>
<trkpt lat="39.671362000" lon="-0.322255000">
  <ele>90.500000</ele>
  <time>2012-03-10T06:49:55Z</time>
  <sat>10</sat>
</trkpt>
<trkpt lat="39.671347000" lon="-0.322253000">
  <ele>90.500000</ele>
  <time>2012-03-10T06:49:56Z</time>
  <sat>10</sat>
</trkpt>
<trkpt lat="39.671331000" lon="-0.322256000">
  <ele>91.000000</ele>
  <time>2012-03-10T06:49:57Z</time>
  <sat>10</sat>
</trkpt>
<trkpt lat="39.671319000" lon="-0.322262000">
  <ele>91.300000</ele>
  <time>2012-03-10T06:49:58Z</time>
  <sat>10</sat>
</trkpt>
<trkpt lat="39.671306000" lon="-0.322287000">
  <ele>92.000000</ele>
  <time>2012-03-10T06:50:00Z</time>
  <sat>10</sat>
</trkpt>
<trkpt lat="39.671293000" lon="-0.322305000">
  <ele>92.000000</ele>
  <time>2012-03-10T06:50:01Z</time>
  <sat>10</sat>
</trkpt>
<trkpt lat="39.671287000" lon="-0.322325000">
  <ele>91.600000</ele>
  <time>2012-03-10T06:50:02Z</time>
  <sat>10</sat>
</trkpt>
<trkpt lat="39.671276000" lon="-0.322334000">
  <ele>92.500000</ele>
  <time>2012-03-10T06:50:03Z</time>
  <sat>10</sat>
</trkpt>
<trkpt lat="39.671238000" lon="-0.322383000">
  <ele>92.500000</ele>
  <time>2012-03-10T06:50:06Z</time>
  <sat>10</sat>
</trkpt>
<trkpt lat="39.671181000" lon="-0.322467000">
  <ele>93.600000</ele>
  <time>2012-03-10T06:50:11Z</time>
  <sat>10</sat>
</trkpt>
<trkpt lat="39.671164000" lon="-0.322478000">
  <ele>94.000000</ele>
  <time>2012-03-10T06:50:12Z</time>
  <sat>8</sat>
</trkpt>
<trkpt lat="39.671147000" lon="-0.322492000">
  <ele>94.000000</ele>
  <time>2012-03-10T06:50:13Z</time>
  <sat>8</sat>
</trkpt>
<trkpt lat="39.671137000" lon="-0.322509000">
  <ele>94.400000</ele>
  <time>2012-03-10T06:50:14Z</time>
  <sat>8</sat>
</trkpt>
<trkpt lat="39.671107000" lon="-0.322564000">
  <ele>95.600000</ele>
  <time>2012-03-10T06:50:17Z</time>
  <sat>9</sat>
</trkpt>
<trkpt lat="39.671068000" lon="-0.322642000">
  <ele>97.300000</ele>
  <time>2012-03-10T06:50:21Z</time>
  <sat>9</sat>
</trkpt>
<trkpt lat="39.671062000" lon="-0.322665000">
  <ele>97.300000</ele>
  <time>2012-03-10T06:50:22Z</time>
  <sat>9</sat>
</trkpt>
<trkpt lat="39.671061000" lon="-0.322689000">
  <ele>97.300000</ele>
  <time>2012-03-10T06:50:23Z</time>
  <sat>9</sat>
</trkpt>
<trkpt lat="39.671043000" lon="-0.322947000">
  <ele>99.400000</ele>
  <time>2012-03-10T06:50:32Z</time>
  <sat>9</sat>
</trkpt>
<trkpt lat="39.671036000" lon="-0.322973000">
  <ele>100.000000</ele>
  <time>2012-03-10T06:50:33Z</time>
  <sat>9</sat>
</trkpt>
<trkpt lat="39.671030000" lon="-0.322999000">
  <ele>99.900000</ele>
  <time>2012-03-10T06:50:34Z</time>
  <sat>9</sat>
</trkpt>
<trkpt lat="39.671025000" lon="-0.323027000">
  <ele>99.900000</ele>
  <time>2012-03-10T06:50:35Z</time>
  <sat>9</sat>
</trkpt>
<trkpt lat="39.671023000" lon="-0.323057000">
  <ele>100.300000</ele>
  <time>2012-03-10T06:50:36Z</time>
  <sat>9</sat>
</trkpt>
<trkpt lat="39.671023000" lon="-0.323273000">
  <ele>101.900000</ele>
  <time>2012-03-10T06:50:44Z</time>
  <sat>10</sat>
</trkpt>
<trkpt lat="39.671026000" lon="-0.323305000">
  <ele>102.100000</ele>
  <time>2012-03-10T06:50:45Z</time>
  <sat>10</sat>
</trkpt>
<trkpt lat="39.671036000" lon="-0.323363000">
  <ele>103.000000</ele>
  <time>2012-03-10T06:50:47Z</time>
  <sat>10</sat>
</trkpt>
<trkpt lat="39.671046000" lon="-0.323479000">
  <ele>103.300000</ele>
  <time>2012-03-10T06:50:51Z</time>
  <sat>10</sat>
</trkpt>
<trkpt lat="39.671041000" lon="-0.323510000">
  <ele>103.300000</ele>
  <time>2012-03-10T06:50:52Z</time>
  <sat>10</sat>
</trkpt>
<trkpt lat="39.671021000" lon="-0.323576000">
  <ele>104.000000</ele>
  <time>2012-03-10T06:50:55Z</time>
  <sat>10</sat>
</trkpt>
<trkpt lat="39.671011000" lon="-0.323598000">
  <ele>104.500000</ele>
  <time>2012-03-10T06:50:56Z</time>
  <sat>9</sat>
</trkpt>
<trkpt lat="39.671003000" lon="-0.323638000">
  <ele>104.900000</ele>
  <time>2012-03-10T06:50:58Z</time>
  <sat>9</sat>
</trkpt>
<trkpt lat="39.671000000" lon="-0.323659000">
  <ele>105.300000</ele>
  <time>2012-03-10T06:50:59Z</time>
  <sat>9</sat>
</trkpt>
<trkpt lat="39.670994000" lon="-0.323755000">
  <ele>106.400000</ele>
  <time>2012-03-10T06:51:03Z</time>
  <sat>10</sat>
</trkpt>
<trkpt lat="39.671005000" lon="-0.323814000">
  <ele>106.500000</ele>
  <time>2012-03-10T06:51:05Z</time>
  <sat>10</sat>
</trkpt>
<trkpt lat="39.670994000" lon="-0.323855000">
  <ele>107.000000</ele>
  <time>2012-03-10T06:51:06Z</time>
  <sat>10</sat>
</trkpt>
<trkpt lat="39.670995000" lon="-0.323884000">
  <ele>107.300000</ele>
  <time>2012-03-10T06:51:07Z</time>
  <sat>10</sat>
</trkpt>
<trkpt lat="39.670990000" lon="-0.323915000">
  <ele>107.500000</ele>
  <time>2012-03-10T06:51:08Z</time>
  <sat>10</sat>
</trkpt>
<trkpt lat="39.670977000" lon="-0.324070000">
  <ele>108.400000</ele>
  <time>2012-03-10T06:51:14Z</time>
  <sat>10</sat>
</trkpt>
<trkpt lat="39.670971000" lon="-0.324096000">
  <ele>109.500000</ele>
  <time>2012-03-10T06:51:15Z</time>
  <sat>10</sat>
</trkpt>
<trkpt lat="39.670921000" lon="-0.324294000">
  <ele>110.100000</ele>
  <time>2012-03-10T06:51:22Z</time>
  <sat>10</sat>
</trkpt>
<trkpt lat="39.670878000" lon="-0.324444000">
  <ele>111.300000</ele>
  <time>2012-03-10T06:51:27Z</time>
  <sat>8</sat>
</trkpt>
<trkpt lat="39.670862000" lon="-0.324498000">
  <ele>111.000000</ele>
  <time>2012-03-10T06:51:29Z</time>
  <sat>9</sat>
</trkpt>
<trkpt lat="39.670831000" lon="-0.324580000">
  <ele>110.500000</ele>
  <time>2012-03-10T06:51:32Z</time>
  <sat>9</sat>
</trkpt>
<trkpt lat="39.670816000" lon="-0.324604000">
  <ele>110.800000</ele>
  <time>2012-03-10T06:51:33Z</time>
  <sat>9</sat>
</trkpt>
<trkpt lat="39.670802000" lon="-0.324622000">
  <ele>110.500000</ele>
  <time>2012-03-10T06:51:34Z</time>
  <sat>9</sat>
</trkpt>
<trkpt lat="39.670713000" lon="-0.324737000">
  <ele>109.300000</ele>
  <time>2012-03-10T06:51:39Z</time>
  <sat>8</sat>
</trkpt>
<trkpt lat="39.670691000" lon="-0.324758000">
  <ele>109.300000</ele>
  <time>2012-03-10T06:51:40Z</time>
  <sat>8</sat>
</trkpt>
<trkpt lat="39.670664000" lon="-0.324767000">
  <ele>109.100000</ele>
  <time>2012-03-10T06:51:41Z</time>
  <sat>9</sat>
</trkpt>
<trkpt lat="39.670635000" lon="-0.324771000">
  <ele>109.300000</ele>
  <time>2012-03-10T06:51:42Z</time>
  <sat>9</sat>
</trkpt>
<trkpt lat="39.670525000" lon="-0.324765000">
  <ele>109.000000</ele>
  <time>2012-03-10T06:51:47Z</time>
  <sat>9</sat>
</trkpt>
<trkpt lat="39.670508000" lon="-0.324754000">
  <ele>109.300000</ele>
  <time>2012-03-10T06:51:48Z</time>
  <sat>9</sat>
</trkpt>
<trkpt lat="39.670466000" lon="-0.324739000">
  <ele>109.100000</ele>
  <time>2012-03-10T06:51:50Z</time>
  <sat>9</sat>
</trkpt>
<trkpt lat="39.670395000" lon="-0.324723000">
  <ele>109.100000</ele>
  <time>2012-03-10T06:51:53Z</time>
  <sat>9</sat>
</trkpt>
<trkpt lat="39.670369000" lon="-0.324725000">
  <ele>108.800000</ele>
  <time>2012-03-10T06:51:54Z</time>
  <sat>9</sat>
</trkpt>
<trkpt lat="39.670341000" lon="-0.324730000">
  <ele>108.800000</ele>
  <time>2012-03-10T06:51:55Z</time>
  <sat>9</sat>
</trkpt>
<trkpt lat="39.670313000" lon="-0.324743000">
  <ele>109.000000</ele>
  <time>2012-03-10T06:51:56Z</time>
  <sat>9</sat>
</trkpt>
<trkpt lat="39.670292000" lon="-0.324760000">
  <ele>109.100000</ele>
  <time>2012-03-10T06:51:57Z</time>
  <sat>9</sat>
</trkpt>
<trkpt lat="39.670275000" lon="-0.324781000">
  <ele>109.400000</ele>
  <time>2012-03-10T06:51:58Z</time>
  <sat>9</sat>
</trkpt>
<trkpt lat="39.670263000" lon="-0.324805000">
  <ele>109.800000</ele>
  <time>2012-03-10T06:51:59Z</time>
  <sat>9</sat>
</trkpt>
<trkpt lat="39.670251000" lon="-0.324852000">
  <ele>110.900000</ele>
  <time>2012-03-10T06:52:01Z</time>
  <sat>9</sat>
</trkpt>
<trkpt lat="39.670250000" lon="-0.324877000">
  <ele>111.100000</ele>
  <time>2012-03-10T06:52:02Z</time>
  <sat>9</sat>
</trkpt>
<trkpt lat="39.670254000" lon="-0.324975000">
  <ele>111.500000</ele>
  <time>2012-03-10T06:52:06Z</time>
  <sat>8</sat>
</trkpt>
<trkpt lat="39.670268000" lon="-0.325111000">
  <ele>112.500000</ele>
  <time>2012-03-10T06:52:12Z</time>
  <sat>9</sat>
</trkpt>
<trkpt lat="39.670279000" lon="-0.325126000">
  <ele>112.900000</ele>
  <time>2012-03-10T06:52:13Z</time>
  <sat>9</sat>
</trkpt>
<trkpt lat="39.670290000" lon="-0.325143000">
  <ele>113.000000</ele>
  <time>2012-03-10T06:52:14Z</time>
  <sat>9</sat>
</trkpt>
<trkpt lat="39.670348000" lon="-0.325241000">
  <ele>112.300000</ele>
  <time>2012-03-10T06:52:18Z</time>
  <sat>9</sat>
</trkpt>
<trkpt lat="39.670366000" lon="-0.325261000">
  <ele>112.000000</ele>
  <time>2012-03-10T06:52:19Z</time>
  <sat>8</sat>
</trkpt>
<trkpt lat="39.670397000" lon="-0.325309000">
  <ele>111.900000</ele>
  <time>2012-03-10T06:52:21Z</time>
  <sat>8</sat>
</trkpt>
<trkpt lat="39.670465000" lon="-0.325412000">
  <ele>111.600000</ele>
  <time>2012-03-10T06:52:25Z</time>
  <sat>9</sat>
</trkpt>
<trkpt lat="39.670483000" lon="-0.325431000">
  <ele>111.400000</ele>
  <time>2012-03-10T06:52:26Z</time>
  <sat>9</sat>
</trkpt>
<trkpt lat="39.670505000" lon="-0.325451000">
  <ele>111.000000</ele>
  <time>2012-03-10T06:52:27Z</time>
  <sat>9</sat>
</trkpt>
<trkpt lat="39.670532000" lon="-0.325465000">
  <ele>110.800000</ele>
  <time>2012-03-10T06:52:28Z</time>
  <sat>10</sat>
</trkpt>
<trkpt lat="39.670654000" lon="-0.325498000">
  <ele>110.100000</ele>
  <time>2012-03-10T06:52:31Z</time>
  <sat>10</sat>
</trkpt>
<trkpt lat="39.670732000" lon="-0.325509000">
  <ele>110.300000</ele>
  <time>2012-03-10T06:52:33Z</time>
  <sat>10</sat>
</trkpt>
<trkpt lat="39.670784000" lon="-0.325497000">
  <ele>109.400000</ele>
  <time>2012-03-10T06:52:34Z</time>
  <sat>10</sat>
</trkpt>
<trkpt lat="39.670830000" lon="-0.325505000">
  <ele>109.300000</ele>
  <time>2012-03-10T06:52:35Z</time>
  <sat>10</sat>
</trkpt>
<trkpt lat="39.670919000" lon="-0.325534000">
  <ele>108.500000</ele>
  <time>2012-03-10T06:52:37Z</time>
  <sat>10</sat>
</trkpt>
<trkpt lat="39.670955000" lon="-0.325565000">
  <ele>108.100000</ele>
  <time>2012-03-10T06:52:38Z</time>
  <sat>10</sat>
</trkpt>
<trkpt lat="39.670975000" lon="-0.325602000">
  <ele>107.500000</ele>
  <time>2012-03-10T06:52:39Z</time>
  <sat>10</sat>
</trkpt>
<trkpt lat="39.670963000" lon="-0.325681000">
  <ele>107.900000</ele>
  <time>2012-03-10T06:52:40Z</time>
  <sat>10</sat>
</trkpt>
<trkpt lat="39.670966000" lon="-0.325738000">
  <ele>108.100000</ele>
  <time>2012-03-10T06:52:41Z</time>
  <sat>10</sat>
</trkpt>
<trkpt lat="39.670974000" lon="-0.325782000">
  <ele>108.300000</ele>
  <time>2012-03-10T06:52:42Z</time>
  <sat>10</sat>
</trkpt>
<trkpt lat="39.671012000" lon="-0.325920000">
  <ele>108.500000</ele>
  <time>2012-03-10T06:52:46Z</time>
  <sat>10</sat>
</trkpt>
<trkpt lat="39.671021000" lon="-0.325947000">
  <ele>108.400000</ele>
  <time>2012-03-10T06:52:47Z</time>
  <sat>10</sat>
</trkpt>
<trkpt lat="39.671035000" lon="-0.325973000">
  <ele>108.500000</ele>
  <time>2012-03-10T06:52:48Z</time>
  <sat>10</sat>
</trkpt>
<trkpt lat="39.671102000" lon="-0.326069000">
  <ele>108.100000</ele>
  <time>2012-03-10T06:52:52Z</time>
  <sat>10</sat>
</trkpt>
<trkpt lat="39.671120000" lon="-0.326090000">
  <ele>108.000000</ele>
  <time>2012-03-10T06:52:53Z</time>
  <sat>10</sat>
</trkpt>
<trkpt lat="39.671134000" lon="-0.326144000">
  <ele>107.500000</ele>
  <time>2012-03-10T06:52:55Z</time>
  <sat>10</sat>
</trkpt>
<trkpt lat="39.671181000" lon="-0.326314000">
  <ele>108.400000</ele>
  <time>2012-03-10T06:53:01Z</time>
  <sat>10</sat>
</trkpt>
<trkpt lat="39.671184000" lon="-0.326343000">
  <ele>108.800000</ele>
  <time>2012-03-10T06:53:02Z</time>
  <sat>10</sat>
</trkpt>
<trkpt lat="39.671207000" lon="-0.326471000">
  <ele>109.900000</ele>
  <time>2012-03-10T06:53:07Z</time>
  <sat>9</sat>
</trkpt>
<trkpt lat="39.671215000" lon="-0.326491000">
  <ele>110.000000</ele>
  <time>2012-03-10T06:53:08Z</time>
  <sat>9</sat>
</trkpt>
<trkpt lat="39.671257000" lon="-0.326622000">
  <ele>111.100000</ele>
  <time>2012-03-10T06:53:14Z</time>
  <sat>9</sat>
</trkpt>
<trkpt lat="39.671257000" lon="-0.326643000">
  <ele>111.600000</ele>
  <time>2012-03-10T06:53:15Z</time>
  <sat>8</sat>
</trkpt>
<trkpt lat="39.671274000" lon="-0.326674000">
  <ele>112.100000</ele>
  <time>2012-03-10T06:53:17Z</time>
  <sat>9</sat>
</trkpt>
<trkpt lat="39.671399000" lon="-0.326933000">
  <ele>114.300000</ele>
  <time>2012-03-10T06:53:31Z</time>
  <sat>8</sat>
</trkpt>
<trkpt lat="39.671405000" lon="-0.326944000">
  <ele>114.500000</ele>
  <time>2012-03-10T06:53:32Z</time>
  <sat>8</sat>
</trkpt>
<trkpt lat="39.671408000" lon="-0.326957000">
  <ele>114.500000</ele>
  <time>2012-03-10T06:53:33Z</time>
  <sat>9</sat>
</trkpt>
<trkpt lat="39.671400000" lon="-0.327021000">
  <ele>115.900000</ele>
  <time>2012-03-10T06:53:56Z</time>
  <sat>7</sat>
</trkpt>
<trkpt lat="39.671454000" lon="-0.327436000">
  <ele>116.500000</ele>
</trkpt>
<trkpt lat="39.671337000" lon="-0.328042000">
  <ele>110.300000</ele>
</trkpt>
<trkpt lat="39.671239000" lon="-0.328854000">
  <ele>111.100000</ele>
  </trkpt>
<trkpt lat="39.671297000" lon="-0.329453000">
  <ele>113.400000</ele>
</trkpt>
<trkpt lat="39.671533000" lon="-0.330252000">
  <ele>112.600000</ele>
  </trkpt>
<trkpt lat="39.671606000" lon="-0.330888000">
  <ele>109.700000</ele>
  <time>1996-01-16T03:08:06Z</time>
</trkpt>
<trkpt lat="39.671430000" lon="-0.331459000">
  <ele>114.700000</ele>
  <time>2013-01-05T21:43:58Z</time>
</trkpt>
<trkpt lat="39.671169000" lon="-0.332108000">
  <ele>114.800000</ele>
  <time>2012-02-21T13:52:08Z</time>
</trkpt>
<trkpt lat="39.671106000" lon="-0.332542000">
  <ele>113.200000</ele>
  <time>2012-03-11T10:00:19Z</time>
</trkpt>
<trkpt lat="39.670866000" lon="-0.332815000">
  <ele>115.300000</ele>
  <time>2012-03-10T05:04:35Z</time>
</trkpt>
<trkpt lat="39.670549000" lon="-0.332319000">
  <ele>118.100000</ele>
  <time>2012-03-07T11:42:48Z</time>
</trkpt>
<trkpt lat="39.669813000" lon="-0.331878000">
  <ele>122.400000</ele>
  <time>2011-11-11T23:39:09Z</time>
</trkpt>
<trkpt lat="39.669279000" lon="-0.332011000">
  <ele>121.700000</ele>
  <time>1987-07-19T12:41:44Z</time>
</trkpt>
<trkpt lat="39.668838000" lon="-0.331970000">
  <ele>127.400000</ele>
  <time>2012-03-10T07:01:27Z</time>
  <sat>8</sat>
</trkpt>
<trkpt lat="39.668811000" lon="-0.331980000">
  <ele>126.900000</ele>
  <time>2012-03-10T07:01:28Z</time>
  <sat>10</sat>
</trkpt>
<trkpt lat="39.668775000" lon="-0.332002000">
  <ele>128.600000</ele>
  <time>2012-03-10T07:01:31Z</time>
  <sat>10</sat>
</trkpt>
<trkpt lat="39.668763000" lon="-0.332002000">
  <ele>128.800000</ele>
  <time>2012-03-10T07:01:32Z</time>
  <sat>10</sat>
</trkpt>
<trkpt lat="39.668704000" lon="-0.332010000">
  <ele>129.300000</ele>
  <time>2012-03-10T07:01:36Z</time>
  <sat>10</sat>
</trkpt>
<trkpt lat="39.668670000" lon="-0.332031000">
  <ele>129.100000</ele>
  <time>2012-03-10T07:01:38Z</time>
  <sat>10</sat>
</trkpt>
<trkpt lat="39.668645000" lon="-0.332062000">
  <ele>129.600000</ele>
  <time>2012-03-10T07:01:40Z</time>
  <sat>10</sat>
</trkpt>
<trkpt lat="39.668633000" lon="-0.332084000">
  <ele>129.100000</ele>
  <time>2012-03-10T07:01:41Z</time>
  <sat>10</sat>
</trkpt>
<trkpt lat="39.668628000" lon="-0.332108000">
  <ele>128.800000</ele>
  <time>2012-03-10T07:01:42Z</time>
  <sat>10</sat>
</trkpt>
<trkpt lat="39.668620000" lon="-0.332127000">
  <ele>128.800000</ele>
  <time>2012-03-10T07:01:43Z</time>
  <sat>10</sat>
</trkpt>
<trkpt lat="39.668591000" lon="-0.332120000">
  <ele>128.100000</ele>
  <time>2012-03-10T07:01:56Z</time>
  <sat>10</sat>
</trkpt>
<trkpt lat="39.668599000" lon="-0.332136000">
  <ele>128.100000</ele>
  <time>2012-03-10T07:01:57Z</time>
  <sat>10</sat>
</trkpt>
<trkpt lat="39.668592000" lon="-0.332157000">
  <ele>128.300000</ele>
  <time>2012-03-10T07:01:58Z</time>
  <sat>10</sat>
</trkpt>
<trkpt lat="39.668600000" lon="-0.332159000">
  <ele>127.500000</ele>
  <time>2012-03-10T07:01:59Z</time>
  <sat>10</sat>
</trkpt>
<trkpt lat="39.668600000" lon="-0.332154000">
  <ele>127.800000</ele>
  <time>2012-03-10T07:02:00Z</time>
  <sat>10</sat>
</trkpt>
<trkpt lat="39.668612000" lon="-0.332120000">
  <ele>129.500000</ele>
  <time>2012-03-10T07:02:02Z</time>
  <sat>10</sat>
</trkpt>
<trkpt lat="39.668601000" lon="-0.332105000">
  <ele>130.100000</ele>
  <time>2012-03-10T07:02:03Z</time>
  <sat>10</sat>
</trkpt>
<trkpt lat="39.668586000" lon="-0.332094000">
  <ele>130.000000</ele>
  <time>2012-03-10T07:02:05Z</time>
  <sat>10</sat>
</trkpt>
<trkpt lat="39.668562000" lon="-0.332070000">
  <ele>130.000000</ele>
  <time>2012-03-10T07:02:07Z</time>
  <sat>10</sat>
</trkpt>
<trkpt lat="39.668554000" lon="-0.332062000">
  <ele>130.100000</ele>
  <time>2012-03-10T07:02:08Z</time>
  <sat>10</sat>
</trkpt>
<trkpt lat="39.668549000" lon="-0.332055000">
  <ele>130.100000</ele>
  <time>2012-03-10T07:02:09Z</time>
  <sat>10</sat>
</trkpt>
<trkpt lat="39.668515000" lon="-0.332061000">
  <ele>132.800000</ele>
  <time>2012-03-10T07:02:15Z</time>
  <sat>10</sat>
</trkpt>
<trkpt lat="39.668508000" lon="-0.332070000">
  <ele>133.800000</ele>
  <time>2012-03-10T07:02:16Z</time>
  <sat>10</sat>
</trkpt>
<trkpt lat="39.668491000" lon="-0.332072000">
  <ele>133.800000</ele>
  <time>2012-03-10T07:02:17Z</time>
  <sat>10</sat>
</trkpt>
<trkpt lat="39.668473000" lon="-0.332076000">
  <ele>133.300000</ele>
  <time>2012-03-10T07:02:18Z</time>
  <sat>10</sat>
</trkpt>
<trkpt lat="39.668458000" lon="-0.332072000">
  <ele>134.000000</ele>
  <time>2012-03-10T07:02:19Z</time>
  <sat>10</sat>
</trkpt>
<trkpt lat="39.668446000" lon="-0.332069000">
  <ele>134.300000</ele>
  <time>2012-03-10T07:02:20Z</time>
  <sat>10</sat>
</trkpt>
<trkpt lat="39.668431000" lon="-0.332078000">
  <ele>134.100000</ele>
  <time>2012-03-10T07:02:21Z</time>
  <sat>10</sat>
</trkpt>
<trkpt lat="39.668420000" lon="-0.332085000">
  <ele>134.300000</ele>
  <time>2012-03-10T07:02:22Z</time>
  <sat>10</sat>
</trkpt>
<trkpt lat="39.668400000" lon="-0.332087000">
  <ele>134.300000</ele>
  <time>2012-03-10T07:02:23Z</time>
  <sat>10</sat>
</trkpt>
<trkpt lat="39.668386000" lon="-0.332088000">
  <ele>134.300000</ele>
  <time>2012-03-10T07:02:24Z</time>
  <sat>10</sat>
</trkpt>
<trkpt lat="39.668299000" lon="-0.332100000">
  <ele>134.100000</ele>
  <time>2012-03-10T07:02:29Z</time>
  <sat>10</sat>
</trkpt>
<trkpt lat="39.668278000" lon="-0.332099000">
  <ele>134.000000</ele>
  <time>2012-03-10T07:02:30Z</time>
  <sat>10</sat>
</trkpt>
<trkpt lat="39.668260000" lon="-0.332097000">
  <ele>133.500000</ele>
  <time>2012-03-10T07:02:31Z</time>
  <sat>10</sat>
</trkpt>
<trkpt lat="39.668250000" lon="-0.332086000">
  <ele>133.800000</ele>
  <time>2012-03-10T07:02:32Z</time>
  <sat>10</sat>
</trkpt>
<trkpt lat="39.668246000" lon="-0.332081000">
  <ele>134.800000</ele>
  <time>2012-03-10T07:02:33Z</time>
  <sat>10</sat>
</trkpt>
<trkpt lat="39.668246000" lon="-0.332081000">
  <ele>134.800000</ele>
  <time>2012-03-10T07:02:34Z</time>
  <sat>10</sat>
</trkpt>
<trkpt lat="39.668240000" lon="-0.332081000">
  <ele>135.300000</ele>
  <time>2012-03-10T07:02:35Z</time>
  <sat>10</sat>
</trkpt>
<trkpt lat="39.668225000" lon="-0.332044000">
  <ele>135.100000</ele>
  <time>2012-03-10T07:02:38Z</time>
  <sat>10</sat>
</trkpt>
<trkpt lat="39.668224000" lon="-0.332031000">
  <ele>135.100000</ele>
  <time>2012-03-10T07:02:39Z</time>
  <sat>10</sat>
</trkpt>
<trkpt lat="39.668172000" lon="-0.332016000">
  <ele>132.800000</ele>
  <time>2012-03-10T07:03:06Z</time>
  <sat>10</sat>
</trkpt>
<trkpt lat="39.668177000" lon="-0.332030000">
  <ele>132.300000</ele>
  <time>2012-03-10T07:03:07Z</time>
  <sat>10</sat>
</trkpt>
<trkpt lat="39.668184000" lon="-0.332059000">
  <ele>134.800000</ele>
  <time>2012-03-10T07:03:09Z</time>
  <sat>10</sat>
</trkpt>
<trkpt lat="39.668190000" lon="-0.332073000">
  <ele>135.100000</ele>
  <time>2012-03-10T07:03:10Z</time>
  <sat>10</sat>
</trkpt>
<trkpt lat="39.668185000" lon="-0.332082000">
  <ele>135.300000</ele>
  <time>2012-03-10T07:03:11Z</time>
  <sat>10</sat>
</trkpt>
<trkpt lat="39.668181000" lon="-0.332084000">
  <ele>135.300000</ele>
  <time>2012-03-10T07:03:12Z</time>
  <sat>10</sat>
</trkpt>
<trkpt lat="39.668181000" lon="-0.332089000">
  <ele>135.800000</ele>
  <time>2012-03-10T07:03:13Z</time>
  <sat>10</sat>
</trkpt>
<trkpt lat="39.668181000" lon="-0.332089000">
  <ele>135.800000</ele>
  <time>2012-03-10T07:03:14Z</time>
  <sat>10</sat>
</trkpt>
<trkpt lat="39.668181000" lon="-0.332089000">
  <ele>135.800000</ele>
  <time>2012-03-10T07:03:15Z</time>
  <sat>10</sat>
</trkpt>
<trkpt lat="39.668178000" lon="-0.332091000">
  <ele>135.600000</ele>
  <time>2012-03-10T07:03:16Z</time>
  <sat>10</sat>
</trkpt>
<trkpt lat="39.668178000" lon="-0.332091000">
  <ele>135.600000</ele>
  <time>2012-03-10T07:03:17Z</time>
  <sat>10</sat>
</trkpt>
<trkpt lat="39.668176000" lon="-0.332091000">
  <ele>135.300000</ele>
  <time>2012-03-10T07:03:18Z</time>
  <sat>10</sat>
</trkpt>
<trkpt lat="39.668177000" lon="-0.332091000">
  <ele>135.100000</ele>
  <time>2012-03-10T07:03:19Z</time>
  <sat>10</sat>
</trkpt>
<trkpt lat="39.668179000" lon="-0.332091000">
  <ele>135.300000</ele>
  <time>2012-03-10T07:03:20Z</time>
  <sat>10</sat>
</trkpt>
<trkpt lat="39.668180000" lon="-0.332088000">
  <ele>135.100000</ele>
  <time>2012-03-10T07:03:21Z</time>
  <sat>10</sat>
</trkpt>
<trkpt lat="39.668180000" lon="-0.332088000">
  <ele>135.100000</ele>
  <time>2012-03-10T07:03:22Z</time>
  <sat>10</sat>
</trkpt>
<trkpt lat="39.668183000" lon="-0.332083000">
  <ele>135.300000</ele>
  <time>2012-03-10T07:03:23Z</time>
  <sat>10</sat>
</trkpt>
<trkpt lat="39.668182000" lon="-0.332079000">
  <ele>134.800000</ele>
  <time>2012-03-10T07:03:24Z</time>
  <sat>10</sat>
</trkpt>
<trkpt lat="39.668185000" lon="-0.332081000">
  <ele>134.800000</ele>
  <time>2012-03-10T07:03:25Z</time>
  <sat>10</sat>
</trkpt>
<trkpt lat="39.668191000" lon="-0.332090000">
  <ele>134.600000</ele>
  <time>2012-03-10T07:03:26Z</time>
  <sat>10</sat>
</trkpt>
<trkpt lat="39.668208000" lon="-0.332101000">
  <ele>133.500000</ele>
  <time>2012-03-10T07:03:27Z</time>
  <sat>10</sat>
</trkpt>
<trkpt lat="39.668227000" lon="-0.332111000">
  <ele>132.100000</ele>
  <time>2012-03-10T07:03:33Z</time>
  <sat>10</sat>
</trkpt>
<trkpt lat="39.668236000" lon="-0.332108000">
  <ele>132.000000</ele>
  <time>2012-03-10T07:03:34Z</time>
  <sat>10</sat>
</trkpt>
<trkpt lat="39.668246000" lon="-0.332122000">
  <ele>131.800000</ele>
  <time>2012-03-10T07:03:35Z</time>
  <sat>10</sat>
</trkpt>
<trkpt lat="39.668255000" lon="-0.332116000">
  <ele>131.800000</ele>
  <time>2012-03-10T07:03:36Z</time>
  <sat>10</sat>
</trkpt>
<trkpt lat="39.668265000" lon="-0.332124000">
  <ele>132.100000</ele>
  <time>2012-03-10T07:03:37Z</time>
  <sat>10</sat>
</trkpt>
<trkpt lat="39.668280000" lon="-0.332132000">
  <ele>131.600000</ele>
  <time>2012-03-10T07:03:38Z</time>
  <sat>10</sat>
</trkpt>
<trkpt lat="39.668290000" lon="-0.332127000">
  <ele>131.800000</ele>
  <time>2012-03-10T07:03:39Z</time>
  <sat>10</sat>
</trkpt>
<trkpt lat="39.668298000" lon="-0.332134000">
  <ele>132.800000</ele>
  <time>2012-03-10T07:03:40Z</time>
  <sat>10</sat>
</trkpt>
<trkpt lat="39.668312000" lon="-0.332132000">
  <ele>132.800000</ele>
  <time>2012-03-10T07:03:41Z</time>
  <sat>10</sat>
</trkpt>
<trkpt lat="39.668328000" lon="-0.332139000">
  <ele>133.600000</ele>
  <time>2012-03-10T07:03:42Z</time>
  <sat>10</sat>
</trkpt>
<trkpt lat="39.668347000" lon="-0.332144000">
  <ele>134.100000</ele>
  <time>2012-03-10T07:03:43Z</time>
  <sat>10</sat>
</trkpt>
<trkpt lat="39.668365000" lon="-0.332124000">
  <ele>134.100000</ele>
  <time>2012-03-10T07:03:44Z</time>
  <sat>10</sat>
</trkpt>
<trkpt lat="39.668372000" lon="-0.332122000">
  <ele>134.300000</ele>
  <time>2012-03-10T07:03:45Z</time>
  <sat>10</sat>
</trkpt>
<trkpt lat="39.668390000" lon="-0.332110000">
  <ele>134.000000</ele>
  <time>2012-03-10T07:03:46Z</time>
  <sat>10</sat>
</trkpt>
<trkpt lat="39.668426000" lon="-0.332108000">
  <ele>133.500000</ele>
  <time>2012-03-10T07:03:48Z</time>
  <sat>10</sat>
</trkpt>
<trkpt lat="39.668433000" lon="-0.332105000">
  <ele>133.300000</ele>
  <time>2012-03-10T07:03:49Z</time>
  <sat>10</sat>
</trkpt>
<trkpt lat="39.668475000" lon="-0.332119000">
  <ele>133.800000</ele>
  <time>2012-03-10T07:03:52Z</time>
  <sat>10</sat>
</trkpt>
<trkpt lat="39.668556000" lon="-0.332166000">
  <ele>130.800000</ele>
  <time>2012-03-10T07:03:55Z</time>
  <sat>10</sat>
</trkpt>
<trkpt lat="39.668544000" lon="-0.332178000">
  <ele>128.600000</ele>
  <time>2012-03-10T07:03:56Z</time>
  <sat>10</sat>
</trkpt>
<trkpt lat="39.668554000" lon="-0.332196000">
  <ele>128.100000</ele>
  <time>2012-03-10T07:03:57Z</time>
  <sat>10</sat>
</trkpt>
<trkpt lat="39.668567000" lon="-0.332212000">
  <ele>127.900000</ele>
  <time>2012-03-10T07:03:58Z</time>
  <sat>7</sat>
</trkpt>
<trkpt lat="39.668574000" lon="-0.332225000">
  <ele>127.400000</ele>
  <time>2012-03-10T07:03:59Z</time>
  <sat>10</sat>
</trkpt>
<trkpt lat="39.668573000" lon="-0.332227000">
  <ele>127.100000</ele>
  <time>2012-03-10T07:04:00Z</time>
  <sat>10</sat>
</trkpt>
<trkpt lat="39.668567000" lon="-0.332233000">
  <ele>127.300000</ele>
  <time>2012-03-10T07:04:01Z</time>
  <sat>10</sat>
</trkpt>
<trkpt lat="39.668568000" lon="-0.332233000">
  <ele>127.300000</ele>
  <time>2012-03-10T07:04:02Z</time>
  <sat>10</sat>
</trkpt>
<trkpt lat="39.668568000" lon="-0.332232000">
  <ele>127.100000</ele>
  <time>2012-03-10T07:04:03Z</time>
  <sat>10</sat>
</trkpt>
<trkpt lat="39.668568000" lon="-0.332234000">
  <ele>127.000000</ele>
  <time>2012-03-10T07:04:04Z</time>
  <sat>10</sat>
</trkpt>
<trkpt lat="39.668567000" lon="-0.332235000">
  <ele>126.900000</ele>
  <time>2012-03-10T07:04:05Z</time>
  <sat>10</sat>
</trkpt>
<trkpt lat="39.668565000" lon="-0.332238000">
  <ele>126.500000</ele>
  <time>2012-03-10T07:04:06Z</time>
  <sat>10</sat>
</trkpt>
<trkpt lat="39.668565000" lon="-0.332239000">
  <ele>126.500000</ele>
  <time>2012-03-10T07:04:07Z</time>
  <sat>10</sat>
</trkpt>
<trkpt lat="39.668566000" lon="-0.332240000">
  <ele>126.500000</ele>
  <time>2012-03-10T07:04:08Z</time>
  <sat>10</sat>
</trkpt>
<trkpt lat="39.668566000" lon="-0.332241000">
  <ele>126.500000</ele>
  <time>2012-03-10T07:04:09Z</time>
  <sat>10</sat>
</trkpt>
<trkpt lat="39.668567000" lon="-0.332241000">
  <ele>126.800000</ele>
  <time>2012-03-10T07:04:10Z</time>
  <sat>10</sat>
</trkpt>
<trkpt lat="39.668567000" lon="-0.332241000">
  <ele>126.800000</ele>
  <time>2012-03-10T07:04:11Z</time>
  <sat>10</sat>
</trkpt>
<trkpt lat="39.668566000" lon="-0.332243000">
  <ele>126.600000</ele>
  <time>2012-03-10T07:04:12Z</time>
  <sat>10</sat>
</trkpt>
<trkpt lat="39.668568000" lon="-0.332252000">
  <ele>126.900000</ele>
  <time>2012-03-10T07:04:13Z</time>
  <sat>10</sat>
</trkpt>
<trkpt lat="39.668592000" lon="-0.332368000">
  <ele>127.500000</ele>
  <time>2012-03-10T07:04:26Z</time>
  <sat>10</sat>
</trkpt>
<trkpt lat="39.668583000" lon="-0.332376000">
  <ele>127.500000</ele>
  <time>2012-03-10T07:04:27Z</time>
  <sat>10</sat>
</trkpt>
<trkpt lat="39.668569000" lon="-0.332410000">
  <ele>129.300000</ele>
  <time>2012-03-10T07:04:36Z</time>
  <sat>10</sat>
</trkpt>
<trkpt lat="39.668558000" lon="-0.332421000">
  <ele>129.800000</ele>
  <time>2012-03-10T07:04:37Z</time>
  <sat>10</sat>
</trkpt>
<trkpt lat="39.668540000" lon="-0.332430000">
  <ele>130.600000</ele>
  <time>2012-03-10T07:04:38Z</time>
  <sat>10</sat>
</trkpt>
<trkpt lat="39.668472000" lon="-0.332478000">
  <ele>133.100000</ele>
  <time>2012-03-10T07:04:43Z</time>
  <sat>10</sat>
</trkpt>
<trkpt lat="39.668440000" lon="-0.332511000">
  <ele>133.600000</ele>
  <time>2012-03-10T07:04:46Z</time>
  <sat>10</sat>
</trkpt>
<trkpt lat="39.668444000" lon="-0.332523000">
  <ele>133.600000</ele>
  <time>2012-03-10T07:04:47Z</time>
  <sat>10</sat>
</trkpt>
<trkpt lat="39.668428000" lon="-0.332546000">
  <ele>133.600000</ele>
  <time>2012-03-10T07:04:48Z</time>
  <sat>10</sat>
</trkpt>
<trkpt lat="39.668418000" lon="-0.332562000">
  <ele>133.300000</ele>
  <time>2012-03-10T07:04:49Z</time>
  <sat>7</sat>
</trkpt>
<trkpt lat="39.668425000" lon="-0.332583000">
  <ele>132.600000</ele>
  <time>2012-03-10T07:04:50Z</time>
  <sat>7</sat>
</trkpt>
<trkpt lat="39.668428000" lon="-0.332579000">
  <ele>132.600000</ele>
  <time>2012-03-10T07:04:51Z</time>
  <sat>7</sat>
</trkpt>
<trkpt lat="39.668414000" lon="-0.332615000">
  <ele>132.500000</ele>
  <time>2012-03-10T07:04:52Z</time>
  <sat>7</sat>
</trkpt>
<trkpt lat="39.668360000" lon="-0.332749000">
  <ele>134.800000</ele>
  <time>2012-03-10T07:05:00Z</time>
  <sat>10</sat>
</trkpt>
<trkpt lat="39.668238000" lon="-0.333093000">
  <ele>137.500000</ele>
  <time>2012-03-10T07:05:15Z</time>
  <sat>6</sat>
</trkpt>
<trkpt lat="39.668209000" lon="-0.333100000">
  <ele>137.800000</ele>
  <time>2012-03-10T07:05:16Z</time>
  <sat>10</sat>
</trkpt>
<trkpt lat="39.668123000" lon="-0.333134000">
  <ele>137.600000</ele>
  <time>2012-03-10T07:05:21Z</time>
  <sat>10</sat>
</trkpt>
<trkpt lat="39.668080000" lon="-0.333156000">
  <ele>138.300000</ele>
  <time>2012-03-10T07:05:24Z</time>
  <sat>10</sat>
</trkpt>
<trkpt lat="39.668052000" lon="-0.333174000">
  <ele>139.300000</ele>
  <time>2012-03-10T07:05:26Z</time>
  <sat>10</sat>
</trkpt>
<trkpt lat="39.668032000" lon="-0.333180000">
  <ele>139.300000</ele>
  <time>2012-03-10T07:05:27Z</time>
  <sat>10</sat>
</trkpt>
<trkpt lat="39.667917000" lon="-0.333236000">
  <ele>141.600000</ele>
  <time>2012-03-10T07:05:37Z</time>
  <sat>10</sat>
</trkpt>
<trkpt lat="39.667910000" lon="-0.333247000">
  <ele>141.600000</ele>
  <time>2012-03-10T07:05:38Z</time>
  <sat>10</sat>
</trkpt>
<trkpt lat="39.667891000" lon="-0.333254000">
  <ele>141.100000</ele>
  <time>2012-03-10T07:05:39Z</time>
  <sat>10</sat>
</trkpt>
<trkpt lat="39.667877000" lon="-0.333275000">
  <ele>140.600000</ele>
  <time>2012-03-10T07:05:40Z</time>
  <sat>10</sat>
</trkpt>
<trkpt lat="39.667859000" lon="-0.333283000">
  <ele>140.300000</ele>
  <time>2012-03-10T07:05:41Z</time>
  <sat>10</sat>
</trkpt>
<trkpt lat="39.667851000" lon="-0.333293000">
  <ele>140.000000</ele>
  <time>2012-03-10T07:05:42Z</time>
  <sat>10</sat>
</trkpt>
<trkpt lat="39.667838000" lon="-0.333306000">
  <ele>139.600000</ele>
  <time>2012-03-10T07:05:43Z</time>
  <sat>10</sat>
</trkpt>
<trkpt lat="39.667819000" lon="-0.333313000">
  <ele>140.100000</ele>
  <time>2012-03-10T07:05:44Z</time>
  <sat>10</sat>
</trkpt>
<trkpt lat="39.667596000" lon="-0.333449000">
  <ele>140.100000</ele>
  <time>2012-03-10T07:05:56Z</time>
  <sat>10</sat>
</trkpt>
<trkpt lat="39.667578000" lon="-0.333469000">
  <ele>140.000000</ele>
  <time>2012-03-10T07:05:57Z</time>
  <sat>10</sat>
</trkpt>
<trkpt lat="39.667534000" lon="-0.333491000">
  <ele>138.800000</ele>
  <time>2012-03-10T07:05:59Z</time>
  <sat>6</sat>
</trkpt>
<trkpt lat="39.667486000" lon="-0.333504000">
  <ele>139.000000</ele>
  <time>2012-03-10T07:06:01Z</time>
  <sat>7</sat>
</trkpt>
<trkpt lat="39.667366000" lon="-0.333518000">
  <ele>140.100000</ele>
  <time>2012-03-10T07:06:07Z</time>
  <sat>9</sat>
</trkpt>
<trkpt lat="39.667353000" lon="-0.333524000">
  <ele>140.300000</ele>
  <time>2012-03-10T07:06:08Z</time>
  <sat>9</sat>
</trkpt>
<trkpt lat="39.667353000" lon="-0.333538000">
  <ele>140.300000</ele>
  <time>2012-03-10T07:06:09Z</time>
  <sat>9</sat>
</trkpt>
<trkpt lat="39.667356000" lon="-0.333555000">
  <ele>140.000000</ele>
  <time>2012-03-10T07:06:10Z</time>
  <sat>9</sat>
</trkpt>
<trkpt lat="39.667378000" lon="-0.333692000">
  <ele>140.100000</ele>
  <time>2012-03-10T07:06:14Z</time>
  <sat>8</sat>
</trkpt>
<trkpt lat="39.667385000" lon="-0.333722000">
  <ele>140.500000</ele>
  <time>2012-03-10T07:06:15Z</time>
  <sat>8</sat>
</trkpt>
<trkpt lat="39.667395000" lon="-0.333807000">
  <ele>140.600000</ele>
  <time>2012-03-10T07:06:18Z</time>
  <sat>9</sat>
</trkpt>
<trkpt lat="39.667379000" lon="-0.333828000">
  <ele>141.000000</ele>
  <time>2012-03-10T07:06:19Z</time>
  <sat>9</sat>
</trkpt>
<trkpt lat="39.667364000" lon="-0.333851000">
  <ele>141.100000</ele>
  <time>2012-03-10T07:06:20Z</time>
  <sat>9</sat>
</trkpt>
<trkpt lat="39.667331000" lon="-0.333892000">
  <ele>141.800000</ele>
  <time>2012-03-10T07:06:22Z</time>
  <sat>10</sat>
</trkpt>
<trkpt lat="39.667313000" lon="-0.333895000">
  <ele>142.000000</ele>
  <time>2012-03-10T07:06:23Z</time>
  <sat>10</sat>
</trkpt>
<trkpt lat="39.667286000" lon="-0.333907000">
  <ele>142.100000</ele>
  <time>2012-03-10T07:06:24Z</time>
  <sat>10</sat>
</trkpt>
<trkpt lat="39.667191000" lon="-0.333972000">
  <ele>142.800000</ele>
  <time>2012-03-10T07:06:28Z</time>
  <sat>10</sat>
</trkpt>
<trkpt lat="39.667077000" lon="-0.334068000">
  <ele>142.500000</ele>
  <time>2012-03-10T07:06:34Z</time>
  <sat>9</sat>
</trkpt>
<trkpt lat="39.667050000" lon="-0.334079000">
  <ele>141.800000</ele>
  <time>2012-03-10T07:06:35Z</time>
  <sat>9</sat>
</trkpt>
<trkpt lat="39.666907000" lon="-0.334144000">
  <ele>140.600000</ele>
  <time>2012-03-10T07:06:41Z</time>
  <sat>9</sat>
</trkpt>
<trkpt lat="39.666888000" lon="-0.334161000">
  <ele>140.500000</ele>
  <time>2012-03-10T07:06:42Z</time>
  <sat>9</sat>
</trkpt>
<trkpt lat="39.666861000" lon="-0.334203000">
  <ele>140.600000</ele>
  <time>2012-03-10T07:06:44Z</time>
  <sat>9</sat>
</trkpt>
<trkpt lat="39.666841000" lon="-0.334266000">
  <ele>140.600000</ele>
  <time>2012-03-10T07:06:46Z</time>
  <sat>9</sat>
</trkpt>
<trkpt lat="39.666827000" lon="-0.334295000">
  <ele>140.600000</ele>
  <time>2012-03-10T07:06:47Z</time>
  <sat>9</sat>
</trkpt>
<trkpt lat="39.666802000" lon="-0.334385000">
  <ele>140.300000</ele>
  <time>2012-03-10T07:06:50Z</time>
  <sat>9</sat>
</trkpt>
<trkpt lat="39.666798000" lon="-0.334452000">
  <ele>141.600000</ele>
  <time>2012-03-10T07:06:52Z</time>
  <sat>7</sat>
</trkpt>
<trkpt lat="39.666791000" lon="-0.334479000">
  <ele>141.600000</ele>
  <time>2012-03-10T07:06:53Z</time>
  <sat>7</sat>
</trkpt>
<trkpt lat="39.666752000" lon="-0.334660000">
  <ele>143.000000</ele>
  <time>2012-03-10T07:06:59Z</time>
  <sat>7</sat>
</trkpt>
<trkpt lat="39.666743000" lon="-0.334687000">
  <ele>143.500000</ele>
  <time>2012-03-10T07:07:00Z</time>
  <sat>8</sat>
</trkpt>
<trkpt lat="39.666733000" lon="-0.334712000">
  <ele>143.800000</ele>
  <time>2012-03-10T07:07:01Z</time>
  <sat>8</sat>
</trkpt>
<trkpt lat="39.666722000" lon="-0.334739000">
  <ele>144.100000</ele>
  <time>2012-03-10T07:07:02Z</time>
  <sat>8</sat>
</trkpt>
<trkpt lat="39.666658000" lon="-0.334868000">
  <ele>143.800000</ele>
  <time>2012-03-10T07:07:07Z</time>
  <sat>8</sat>
</trkpt>
<trkpt lat="39.666636000" lon="-0.334867000">
  <ele>142.600000</ele>
  <time>2012-03-10T07:07:10Z</time>
  <sat>7</sat>
</trkpt>
<trkpt lat="39.666653000" lon="-0.334864000">
  <ele>143.100000</ele>
  <time>2012-03-10T07:07:11Z</time>
  <sat>7</sat>
</trkpt>
<trkpt lat="39.666653000" lon="-0.334904000">
  <ele>143.300000</ele>
  <time>2012-03-10T07:07:14Z</time>
  <sat>7</sat>
</trkpt>
<trkpt lat="39.666657000" lon="-0.334930000">
  <ele>143.600000</ele>
  <time>2012-03-10T07:07:15Z</time>
  <sat>8</sat>
</trkpt>
<trkpt lat="39.666641000" lon="-0.334971000">
  <ele>142.800000</ele>
  <time>2012-03-10T07:07:16Z</time>
  <sat>8</sat>
</trkpt>
<trkpt lat="39.666593000" lon="-0.335079000">
  <ele>142.800000</ele>
  <time>2012-03-10T07:07:20Z</time>
  <sat>7</sat>
</trkpt>
<trkpt lat="39.666580000" lon="-0.335109000">
  <ele>143.100000</ele>
  <time>2012-03-10T07:07:21Z</time>
  <sat>7</sat>
</trkpt>
<trkpt lat="39.666566000" lon="-0.335134000">
  <ele>143.300000</ele>
  <time>2012-03-10T07:07:22Z</time>
  <sat>7</sat>
</trkpt>
<trkpt lat="39.666521000" lon="-0.335191000">
  <ele>143.100000</ele>
  <time>2012-03-10T07:07:25Z</time>
  <sat>7</sat>
</trkpt>
<trkpt lat="39.666498000" lon="-0.335206000">
  <ele>142.500000</ele>
  <time>2012-03-10T07:07:27Z</time>
  <sat>7</sat>
</trkpt>
<trkpt lat="39.666474000" lon="-0.335209000">
  <ele>142.600000</ele>
  <time>2012-03-10T07:07:28Z</time>
  <sat>7</sat>
</trkpt>
<trkpt lat="39.666413000" lon="-0.335187000">
  <ele>142.000000</ele>
  <time>2012-03-10T07:07:30Z</time>
  <sat>9</sat>
</trkpt>
<trkpt lat="39.666379000" lon="-0.335199000">
  <ele>143.600000</ele>
  <time>2012-03-10T07:07:31Z</time>
  <sat>9</sat>
</trkpt>
<trkpt lat="39.666272000" lon="-0.335258000">
  <ele>143.800000</ele>
  <time>2012-03-10T07:07:35Z</time>
  <sat>9</sat>
</trkpt>
<trkpt lat="39.666250000" lon="-0.335289000">
  <ele>143.300000</ele>
  <time>2012-03-10T07:07:36Z</time>
  <sat>9</sat>
</trkpt>
<trkpt lat="39.666250000" lon="-0.335338000">
  <ele>143.800000</ele>
  <time>2012-03-10T07:07:38Z</time>
  <sat>9</sat>
</trkpt>
<trkpt lat="39.666257000" lon="-0.335363000">
  <ele>143.100000</ele>
  <time>2012-03-10T07:07:39Z</time>
  <sat>9</sat>
</trkpt>
<trkpt lat="39.666257000" lon="-0.335397000">
  <ele>143.300000</ele>
  <time>2012-03-10T07:07:40Z</time>
  <sat>9</sat>
</trkpt>
<trkpt lat="39.666291000" lon="-0.335441000">
  <ele>141.100000</ele>
  <time>2012-03-10T07:07:42Z</time>
  <sat>9</sat>
</trkpt>
<trkpt lat="39.666293000" lon="-0.335470000">
  <ele>140.800000</ele>
  <time>2012-03-10T07:07:43Z</time>
  <sat>9</sat>
</trkpt>
<trkpt lat="39.666299000" lon="-0.335489000">
  <ele>140.300000</ele>
  <time>2012-03-10T07:07:44Z</time>
  <sat>9</sat>
</trkpt>
<trkpt lat="39.666301000" lon="-0.335532000">
  <ele>140.600000</ele>
  <time>2012-03-10T07:07:47Z</time>
  <sat>9</sat>
</trkpt>
<trkpt lat="39.666314000" lon="-0.335535000">
  <ele>141.300000</ele>
  <time>2012-03-10T07:07:48Z</time>
  <sat>9</sat>
</trkpt>
<trkpt lat="39.666314000" lon="-0.335536000">
  <ele>141.300000</ele>
  <time>2012-03-10T07:07:49Z</time>
  <sat>9</sat>
</trkpt>
<trkpt lat="39.666314000" lon="-0.335536000">
  <ele>141.300000</ele>
  <time>2012-03-10T07:07:50Z</time>
  <sat>9</sat>
</trkpt>
<trkpt lat="39.666313000" lon="-0.335535000">
  <ele>141.600000</ele>
  <time>2012-03-10T07:07:51Z</time>
  <sat>9</sat>
</trkpt>
<trkpt lat="39.666313000" lon="-0.335533000">
  <ele>141.600000</ele>
  <time>2012-03-10T07:07:52Z</time>
  <sat>9</sat>
</trkpt>
<trkpt lat="39.666314000" lon="-0.335533000">
  <ele>141.600000</ele>
  <time>2012-03-10T07:07:53Z</time>
  <sat>9</sat>
</trkpt>
<trkpt lat="39.666314000" lon="-0.335534000">
  <ele>141.800000</ele>
  <time>2012-03-10T07:07:54Z</time>
  <sat>9</sat>
</trkpt>
<trkpt lat="39.666314000" lon="-0.335534000">
  <ele>142.000000</ele>
  <time>2012-03-10T07:07:55Z</time>
  <sat>9</sat>
</trkpt>
<trkpt lat="39.666314000" lon="-0.335535000">
  <ele>142.100000</ele>
  <time>2012-03-10T07:07:56Z</time>
  <sat>9</sat>
</trkpt>
<trkpt lat="39.666313000" lon="-0.335534000">
  <ele>142.600000</ele>
  <time>2012-03-10T07:07:57Z</time>
  <sat>9</sat>
</trkpt>
<trkpt lat="39.666312000" lon="-0.335534000">
  <ele>142.600000</ele>
  <time>2012-03-10T07:07:58Z</time>
  <sat>9</sat>
</trkpt>
<trkpt lat="39.666313000" lon="-0.335534000">
  <ele>142.800000</ele>
  <time>2012-03-10T07:07:59Z</time>
  <sat>9</sat>
</trkpt>
<trkpt lat="39.666313000" lon="-0.335534000">
  <ele>142.800000</ele>
  <time>2012-03-10T07:08:00Z</time>
  <sat>9</sat>
</trkpt>
<trkpt lat="39.666283000" lon="-0.335664000">
  <ele>143.100000</ele>
  <time>2012-03-10T07:08:37Z</time>
  <sat>6</sat>
</trkpt>
<trkpt lat="39.666270000" lon="-0.335697000">
  <ele>143.500000</ele>
  <time>2012-03-10T07:08:39Z</time>
  <sat>7</sat>
</trkpt>
<trkpt lat="39.666254000" lon="-0.335715000">
  <ele>143.500000</ele>
  <time>2012-03-10T07:08:40Z</time>
  <sat>7</sat>
</trkpt>
<trkpt lat="39.666228000" lon="-0.335756000">
  <ele>143.100000</ele>
  <time>2012-03-10T07:08:41Z</time>
  <sat>6</sat>
</trkpt>
<trkpt lat="39.666223000" lon="-0.335775000">
  <ele>143.300000</ele>
  <time>2012-03-10T07:08:42Z</time>
  <sat>6</sat>
</trkpt>
<trkpt lat="39.666231000" lon="-0.335787000">
  <ele>143.600000</ele>
  <time>2012-03-10T07:08:43Z</time>
  <sat>9</sat>
</trkpt>
<trkpt lat="39.666218000" lon="-0.335802000">
  <ele>144.000000</ele>
  <time>2012-03-10T07:08:44Z</time>
  <sat>9</sat>
</trkpt>
<trkpt lat="39.666213000" lon="-0.335811000">
  <ele>146.100000</ele>
  <time>2012-03-10T07:08:45Z</time>
  <sat>9</sat>
</trkpt>
<trkpt lat="39.666183000" lon="-0.335854000">
  <ele>147.100000</ele>
  <time>2012-03-10T07:08:49Z</time>
  <sat>9</sat>
</trkpt>
<trkpt lat="39.666179000" lon="-0.335861000">
  <ele>147.600000</ele>
  <time>2012-03-10T07:08:50Z</time>
  <sat>9</sat>
</trkpt>
<trkpt lat="39.666169000" lon="-0.335855000">
  <ele>147.300000</ele>
  <time>2012-03-10T07:08:51Z</time>
  <sat>9</sat>
</trkpt>
<trkpt lat="39.666164000" lon="-0.335843000">
  <ele>147.100000</ele>
  <time>2012-03-10T07:08:52Z</time>
  <sat>9</sat>
</trkpt>
<trkpt lat="39.666159000" lon="-0.335833000">
  <ele>148.100000</ele>
  <time>2012-03-10T07:08:53Z</time>
  <sat>9</sat>
</trkpt>
<trkpt lat="39.666151000" lon="-0.335825000">
  <ele>148.600000</ele>
  <time>2012-03-10T07:08:54Z</time>
  <sat>9</sat>
</trkpt>
<trkpt lat="39.666123000" lon="-0.335815000">
  <ele>149.300000</ele>
  <time>2012-03-10T07:08:57Z</time>
  <sat>9</sat>
</trkpt>
<trkpt lat="39.666106000" lon="-0.335815000">
  <ele>150.000000</ele>
  <time>2012-03-10T07:08:58Z</time>
  <sat>9</sat>
</trkpt>
<trkpt lat="39.666078000" lon="-0.335814000">
  <ele>150.600000</ele>
  <time>2012-03-10T07:09:00Z</time>
  <sat>9</sat>
</trkpt>
<trkpt lat="39.666065000" lon="-0.335819000">
  <ele>150.800000</ele>
  <time>2012-03-10T07:09:01Z</time>
  <sat>9</sat>
</trkpt>
<trkpt lat="39.666032000" lon="-0.335835000">
  <ele>150.600000</ele>
  <time>2012-03-10T07:09:03Z</time>
  <sat>9</sat>
</trkpt>
<trkpt lat="39.665853000" lon="-0.335954000">
  <ele>153.800000</ele>
  <time>2012-03-10T07:09:21Z</time>
  <sat>9</sat>
</trkpt>
<trkpt lat="39.665810000" lon="-0.335979000">
  <ele>154.600000</ele>
  <time>2012-03-10T07:09:24Z</time>
  <sat>9</sat>
</trkpt>
<trkpt lat="39.665795000" lon="-0.335983000">
  <ele>154.600000</ele>
  <time>2012-03-10T07:09:25Z</time>
  <sat>9</sat>
</trkpt>
<trkpt lat="39.665782000" lon="-0.335984000">
  <ele>153.800000</ele>
  <time>2012-03-10T07:09:26Z</time>
  <sat>8</sat>
</trkpt>
<trkpt lat="39.665748000" lon="-0.335988000">
  <ele>153.300000</ele>
  <time>2012-03-10T07:09:29Z</time>
  <sat>8</sat>
</trkpt>
<trkpt lat="39.665732000" lon="-0.335983000">
  <ele>154.100000</ele>
  <time>2012-03-10T07:09:30Z</time>
  <sat>8</sat>
</trkpt>
<trkpt lat="39.665652000" lon="-0.335968000">
  <ele>153.600000</ele>
  <time>2012-03-10T07:09:35Z</time>
  <sat>9</sat>
</trkpt>
<trkpt lat="39.665569000" lon="-0.335967000">
  <ele>153.600000</ele>
  <time>2012-03-10T07:09:40Z</time>
  <sat>8</sat>
</trkpt>
<trkpt lat="39.665550000" lon="-0.335974000">
  <ele>153.300000</ele>
  <time>2012-03-10T07:09:41Z</time>
  <sat>8</sat>
</trkpt>
<trkpt lat="39.665430000" lon="-0.336014000">
  <ele>153.300000</ele>
  <time>2012-03-10T07:09:48Z</time>
  <sat>8</sat>
</trkpt>
<trkpt lat="39.665417000" lon="-0.336022000">
  <ele>154.300000</ele>
  <time>2012-03-10T07:09:49Z</time>
  <sat>9</sat>
</trkpt>
<trkpt lat="39.665379000" lon="-0.336054000">
  <ele>155.100000</ele>
  <time>2012-03-10T07:09:52Z</time>
  <sat>9</sat>
</trkpt>
<trkpt lat="39.665372000" lon="-0.336080000">
  <ele>155.300000</ele>
  <time>2012-03-10T07:09:53Z</time>
  <sat>9</sat>
</trkpt>
<trkpt lat="39.665366000" lon="-0.336100000">
  <ele>155.600000</ele>
  <time>2012-03-10T07:09:54Z</time>
  <sat>9</sat>
</trkpt>
<trkpt lat="39.665348000" lon="-0.336133000">
  <ele>156.100000</ele>
  <time>2012-03-10T07:09:56Z</time>
  <sat>9</sat>
</trkpt>
<trkpt lat="39.665306000" lon="-0.336170000">
  <ele>156.300000</ele>
  <time>2012-03-10T07:09:59Z</time>
  <sat>9</sat>
</trkpt>
<trkpt lat="39.665296000" lon="-0.336196000">
  <ele>156.500000</ele>
  <time>2012-03-10T07:10:00Z</time>
  <sat>9</sat>
</trkpt>
<trkpt lat="39.665284000" lon="-0.336218000">
  <ele>156.600000</ele>
  <time>2012-03-10T07:10:01Z</time>
  <sat>9</sat>
</trkpt>
<trkpt lat="39.665237000" lon="-0.336248000">
  <ele>159.100000</ele>
  <time>2012-03-10T07:10:04Z</time>
  <sat>9</sat>
</trkpt>
<trkpt lat="39.665225000" lon="-0.336268000">
  <ele>159.300000</ele>
  <time>2012-03-10T07:10:05Z</time>
  <sat>9</sat>
</trkpt>
<trkpt lat="39.665181000" lon="-0.336344000">
  <ele>159.100000</ele>
  <time>2012-03-10T07:10:09Z</time>
  <sat>7</sat>
</trkpt>
<trkpt lat="39.665172000" lon="-0.336362000">
  <ele>159.100000</ele>
  <time>2012-03-10T07:10:10Z</time>
  <sat>7</sat>
</trkpt>
<trkpt lat="39.665154000" lon="-0.336379000">
  <ele>159.800000</ele>
  <time>2012-03-10T07:10:11Z</time>
  <sat>7</sat>
</trkpt>
<trkpt lat="39.665123000" lon="-0.336417000">
  <ele>159.600000</ele>
  <time>2012-03-10T07:10:14Z</time>
  <sat>9</sat>
</trkpt>
<trkpt lat="39.665089000" lon="-0.336466000">
  <ele>159.300000</ele>
  <time>2012-03-10T07:10:17Z</time>
  <sat>9</sat>
</trkpt>
<trkpt lat="39.665074000" lon="-0.336483000">
  <ele>158.800000</ele>
  <time>2012-03-10T07:10:18Z</time>
  <sat>9</sat>
</trkpt>
<trkpt lat="39.665017000" lon="-0.336563000">
  <ele>158.800000</ele>
  <time>2012-03-10T07:10:22Z</time>
  <sat>9</sat>
</trkpt>
<trkpt lat="39.664993000" lon="-0.336625000">
  <ele>158.800000</ele>
  <time>2012-03-10T07:10:24Z</time>
  <sat>7</sat>
</trkpt>
<trkpt lat="39.664870000" lon="-0.336899000">
  <ele>161.800000</ele>
  <time>2012-03-10T07:10:35Z</time>
  <sat>8</sat>
</trkpt>
<trkpt lat="39.664522000" lon="-0.337719000">
  <ele>162.800000</ele>
  <time>2012-03-10T07:11:03Z</time>
  <sat>7</sat>
</trkpt>
<trkpt lat="39.664513000" lon="-0.337743000">
  <ele>162.800000</ele>
  <time>2012-03-10T07:11:04Z</time>
  <sat>7</sat>
</trkpt>
<trkpt lat="39.664476000" lon="-0.337927000">
  <ele>164.100000</ele>
  <time>2012-03-10T07:11:10Z</time>
  <sat>9</sat>
</trkpt>
<trkpt lat="39.664466000" lon="-0.337977000">
  <ele>166.100000</ele>
  <time>2012-03-10T07:11:11Z</time>
  <sat>9</sat>
</trkpt>
<trkpt lat="39.664460000" lon="-0.338020000">
  <ele>166.500000</ele>
  <time>2012-03-10T07:11:12Z</time>
  <sat>9</sat>
</trkpt>
<trkpt lat="39.664471000" lon="-0.338181000">
  <ele>167.600000</ele>
  <time>2012-03-10T07:11:17Z</time>
  <sat>8</sat>
</trkpt>
<trkpt lat="39.664471000" lon="-0.338217000">
  <ele>167.600000</ele>
  <time>2012-03-10T07:11:18Z</time>
  <sat>8</sat>
</trkpt>
<trkpt lat="39.664471000" lon="-0.338244000">
  <ele>167.800000</ele>
  <time>2012-03-10T07:11:19Z</time>
  <sat>7</sat>
</trkpt>
<trkpt lat="39.664468000" lon="-0.338272000">
  <ele>167.300000</ele>
  <time>2012-03-10T07:11:20Z</time>
  <sat>7</sat>
</trkpt>
<trkpt lat="39.664459000" lon="-0.338308000">
  <ele>166.800000</ele>
  <time>2012-03-10T07:11:21Z</time>
  <sat>6</sat>
</trkpt>
<trkpt lat="39.664414000" lon="-0.338483000">
  <ele>165.800000</ele>
  <time>2012-03-10T07:11:26Z</time>
  <sat>7</sat>
</trkpt>
<trkpt lat="39.664341000" lon="-0.338736000">
  <ele>165.300000</ele>
  <time>2012-03-10T07:11:34Z</time>
  <sat>8</sat>
</trkpt>
<trkpt lat="39.663793000" lon="-0.340671000">
  <ele>161.100000</ele>
  <time>2012-03-10T07:12:24Z</time>
  <sat>6</sat>
</trkpt>
<trkpt lat="39.663786000" lon="-0.340674000">
  <ele>161.500000</ele>
  <time>2012-03-10T07:12:25Z</time>
  <sat>7</sat>
</trkpt>
<trkpt lat="39.663794000" lon="-0.340662000">
  <ele>161.500000</ele>
  <time>2012-03-10T07:12:26Z</time>
  <sat>7</sat>
</trkpt>
<trkpt lat="39.663796000" lon="-0.340657000">
  <ele>161.300000</ele>
  <time>2012-03-10T07:12:27Z</time>
  <sat>7</sat>
</trkpt>
<trkpt lat="39.663797000" lon="-0.340652000">
  <ele>161.300000</ele>
  <time>2012-03-10T07:12:28Z</time>
  <sat>7</sat>
</trkpt>
<trkpt lat="39.663800000" lon="-0.340652000">
  <ele>161.000000</ele>
  <time>2012-03-10T07:12:29Z</time>
  <sat>7</sat>
</trkpt>
<trkpt lat="39.663804000" lon="-0.340685000">
  <ele>160.500000</ele>
  <time>2012-03-10T07:12:48Z</time>
  <sat>8</sat>
</trkpt>
<trkpt lat="39.663805000" lon="-0.340700000">
  <ele>160.800000</ele>
  <time>2012-03-10T07:12:49Z</time>
  <sat>8</sat>
</trkpt>
<trkpt lat="39.663801000" lon="-0.340723000">
  <ele>160.800000</ele>
  <time>2012-03-10T07:12:50Z</time>
  <sat>8</sat>
</trkpt>
<trkpt lat="39.663790000" lon="-0.340741000">
  <ele>160.800000</ele>
  <time>2012-03-10T07:12:51Z</time>
  <sat>8</sat>
</trkpt>
<trkpt lat="39.663760000" lon="-0.340783000">
  <ele>160.600000</ele>
  <time>2012-03-10T07:12:53Z</time>
  <sat>8</sat>
</trkpt>
<trkpt lat="39.663728000" lon="-0.340816000">
  <ele>160.300000</ele>
  <time>2012-03-10T07:12:54Z</time>
  <sat>8</sat>
</trkpt>
<trkpt lat="39.663708000" lon="-0.340822000">
  <ele>160.000000</ele>
  <time>2012-03-10T07:12:55Z</time>
  <sat>8</sat>
</trkpt>
<trkpt lat="39.663676000" lon="-0.340847000">
  <ele>160.100000</ele>
  <time>2012-03-10T07:12:56Z</time>
  <sat>8</sat>
</trkpt>
<trkpt lat="39.663651000" lon="-0.340852000">
  <ele>160.300000</ele>
  <time>2012-03-10T07:12:57Z</time>
  <sat>9</sat>
</trkpt>
<trkpt lat="39.663618000" lon="-0.340865000">
  <ele>160.800000</ele>
  <time>2012-03-10T07:12:59Z</time>
  <sat>9</sat>
</trkpt>
<trkpt lat="39.663587000" lon="-0.340874000">
  <ele>161.100000</ele>
  <time>2012-03-10T07:13:01Z</time>
  <sat>9</sat>
</trkpt>
<trkpt lat="39.663572000" lon="-0.340885000">
  <ele>161.000000</ele>
  <time>2012-03-10T07:13:02Z</time>
  <sat>9</sat>
</trkpt>
<trkpt lat="39.663549000" lon="-0.340919000">
  <ele>160.800000</ele>
  <time>2012-03-10T07:13:04Z</time>
  <sat>9</sat>
</trkpt>
<trkpt lat="39.663392000" lon="-0.341141000">
  <ele>165.100000</ele>
  <time>2012-03-10T07:13:19Z</time>
  <sat>7</sat>
</trkpt>
<trkpt lat="39.663386000" lon="-0.341155000">
  <ele>165.600000</ele>
  <time>2012-03-10T07:13:20Z</time>
  <sat>8</sat>
</trkpt>
<trkpt lat="39.663382000" lon="-0.341171000">
  <ele>165.800000</ele>
  <time>2012-03-10T07:13:21Z</time>
  <sat>8</sat>
</trkpt>
<trkpt lat="39.663383000" lon="-0.341246000">
  <ele>166.600000</ele>
  <time>2012-03-10T07:13:25Z</time>
  <sat>9</sat>
</trkpt>
<trkpt lat="39.663388000" lon="-0.341357000">
  <ele>169.800000</ele>
  <time>2012-03-10T07:13:31Z</time>
  <sat>9</sat>
</trkpt>
<trkpt lat="39.663387000" lon="-0.341372000">
  <ele>170.100000</ele>
  <time>2012-03-10T07:13:32Z</time>
  <sat>9</sat>
</trkpt>
<trkpt lat="39.663379000" lon="-0.341424000">
  <ele>170.800000</ele>
  <time>2012-03-10T07:13:35Z</time>
  <sat>9</sat>
</trkpt>
<trkpt lat="39.663377000" lon="-0.341440000">
  <ele>171.100000</ele>
  <time>2012-03-10T07:13:36Z</time>
  <sat>7</sat>
</trkpt>
<trkpt lat="39.663372000" lon="-0.341454000">
  <ele>171.300000</ele>
  <time>2012-03-10T07:13:37Z</time>
  <sat>7</sat>
</trkpt>
<trkpt lat="39.663344000" lon="-0.341491000">
  <ele>170.300000</ele>
  <time>2012-03-10T07:13:40Z</time>
  <sat>7</sat>
</trkpt>
<trkpt lat="39.663332000" lon="-0.341499000">
  <ele>170.000000</ele>
  <time>2012-03-10T07:13:41Z</time>
  <sat>8</sat>
</trkpt>
<trkpt lat="39.663046000" lon="-0.341692000">
  <ele>174.500000</ele>
  <time>2012-03-10T07:14:01Z</time>
  <sat>9</sat>
</trkpt>
<trkpt lat="39.663024000" lon="-0.341699000">
  <ele>174.100000</ele>
  <time>2012-03-10T07:14:02Z</time>
  <sat>9</sat>
</trkpt>
<trkpt lat="39.662916000" lon="-0.341749000">
  <ele>175.100000</ele>
  <time>2012-03-10T07:14:09Z</time>
  <sat>9</sat>
</trkpt>
<trkpt lat="39.662904000" lon="-0.341758000">
  <ele>175.100000</ele>
  <time>2012-03-10T07:14:10Z</time>
  <sat>9</sat>
</trkpt>
<trkpt lat="39.662897000" lon="-0.341762000">
  <ele>175.500000</ele>
  <time>2012-03-10T07:14:11Z</time>
  <sat>8</sat>
</trkpt>
<trkpt lat="39.662819000" lon="-0.341822000">
  <ele>179.800000</ele>
  <time>2012-03-10T07:14:18Z</time>
  <sat>10</sat>
</trkpt>
<trkpt lat="39.662766000" lon="-0.341869000">
  <ele>180.800000</ele>
  <time>2012-03-10T07:14:22Z</time>
  <sat>10</sat>
</trkpt>
<trkpt lat="39.662762000" lon="-0.341880000">
  <ele>180.800000</ele>
  <time>2012-03-10T07:14:23Z</time>
  <sat>10</sat>
</trkpt>
<trkpt lat="39.662745000" lon="-0.341898000">
  <ele>180.600000</ele>
  <time>2012-03-10T07:14:24Z</time>
  <sat>10</sat>
</trkpt>
<trkpt lat="39.662727000" lon="-0.341909000">
  <ele>180.500000</ele>
  <time>2012-03-10T07:14:25Z</time>
  <sat>10</sat>
</trkpt>
<trkpt lat="39.662592000" lon="-0.342032000">
  <ele>181.800000</ele>
  <time>2012-03-10T07:14:37Z</time>
  <sat>10</sat>
</trkpt>
<trkpt lat="39.662578000" lon="-0.342036000">
  <ele>182.500000</ele>
  <time>2012-03-10T07:14:38Z</time>
  <sat>10</sat>
</trkpt>
<trkpt lat="39.662542000" lon="-0.342068000">
  <ele>181.800000</ele>
  <time>2012-03-10T07:14:41Z</time>
  <sat>10</sat>
</trkpt>
<trkpt lat="39.662474000" lon="-0.342127000">
  <ele>183.100000</ele>
  <time>2012-03-10T07:14:45Z</time>
  <sat>6</sat>
</trkpt>
<trkpt lat="39.662458000" lon="-0.342133000">
  <ele>183.300000</ele>
  <time>2012-03-10T07:14:46Z</time>
  <sat>6</sat>
</trkpt>
<trkpt lat="39.662359000" lon="-0.342178000">
  <ele>185.600000</ele>
  <time>2012-03-10T07:14:53Z</time>
  <sat>10</sat>
</trkpt>
<trkpt lat="39.662346000" lon="-0.342176000">
  <ele>185.800000</ele>
  <time>2012-03-10T07:14:54Z</time>
  <sat>10</sat>
</trkpt>
<trkpt lat="39.662320000" lon="-0.342179000">
  <ele>186.800000</ele>
  <time>2012-03-10T07:14:56Z</time>
  <sat>10</sat>
</trkpt>
<trkpt lat="39.662250000" lon="-0.342189000">
  <ele>186.800000</ele>
  <time>2012-03-10T07:15:01Z</time>
  <sat>8</sat>
</trkpt>
<trkpt lat="39.662197000" lon="-0.342206000">
  <ele>188.000000</ele>
  <time>2012-03-10T07:15:05Z</time>
  <sat>6</sat>
</trkpt>
<trkpt lat="39.662187000" lon="-0.342212000">
  <ele>188.100000</ele>
  <time>2012-03-10T07:15:06Z</time>
  <sat>7</sat>
</trkpt>
<trkpt lat="39.662176000" lon="-0.342225000">
  <ele>187.800000</ele>
  <time>2012-03-10T07:15:07Z</time>
  <sat>7</sat>
</trkpt>
<trkpt lat="39.662166000" lon="-0.342237000">
  <ele>187.500000</ele>
  <time>2012-03-10T07:15:08Z</time>
  <sat>7</sat>
</trkpt>
<trkpt lat="39.662154000" lon="-0.342250000">
  <ele>187.600000</ele>
  <time>2012-03-10T07:15:09Z</time>
  <sat>10</sat>
</trkpt>
<trkpt lat="39.662144000" lon="-0.342267000">
  <ele>187.800000</ele>
  <time>2012-03-10T07:15:10Z</time>
  <sat>10</sat>
</trkpt>
<trkpt lat="39.662132000" lon="-0.342308000">
  <ele>188.300000</ele>
  <time>2012-03-10T07:15:12Z</time>
  <sat>10</sat>
</trkpt>
<trkpt lat="39.662128000" lon="-0.342332000">
  <ele>188.800000</ele>
  <time>2012-03-10T07:15:13Z</time>
  <sat>10</sat>
</trkpt>
<trkpt lat="39.662120000" lon="-0.342439000">
  <ele>189.600000</ele>
  <time>2012-03-10T07:15:17Z</time>
  <sat>8</sat>
</trkpt>
<trkpt lat="39.662104000" lon="-0.342558000">
  <ele>191.300000</ele>
  <time>2012-03-10T07:15:23Z</time>
  <sat>8</sat>
</trkpt>
<trkpt lat="39.662104000" lon="-0.342577000">
  <ele>192.100000</ele>
  <time>2012-03-10T07:15:24Z</time>
  <sat>9</sat>
</trkpt>
<trkpt lat="39.662096000" lon="-0.342595000">
  <ele>192.100000</ele>
  <time>2012-03-10T07:15:25Z</time>
  <sat>9</sat>
</trkpt>
<trkpt lat="39.662087000" lon="-0.342605000">
  <ele>192.500000</ele>
  <time>2012-03-10T07:15:26Z</time>
  <sat>9</sat>
</trkpt>
<trkpt lat="39.662079000" lon="-0.342619000">
  <ele>192.500000</ele>
  <time>2012-03-10T07:15:27Z</time>
  <sat>9</sat>
</trkpt>
<trkpt lat="39.662068000" lon="-0.342624000">
  <ele>192.600000</ele>
  <time>2012-03-10T07:15:28Z</time>
  <sat>9</sat>
</trkpt>
<trkpt lat="39.662001000" lon="-0.342659000">
  <ele>195.300000</ele>
  <time>2012-03-10T07:15:34Z</time>
  <sat>10</sat>
</trkpt>
<trkpt lat="39.661989000" lon="-0.342665000">
  <ele>195.600000</ele>
  <time>2012-03-10T07:15:35Z</time>
  <sat>10</sat>
</trkpt>
<trkpt lat="39.661977000" lon="-0.342670000">
  <ele>196.000000</ele>
  <time>2012-03-10T07:15:36Z</time>
  <sat>7</sat>
</trkpt>
<trkpt lat="39.661937000" lon="-0.342690000">
  <ele>197.600000</ele>
  <time>2012-03-10T07:15:39Z</time>
  <sat>7</sat>
</trkpt>
<trkpt lat="39.661922000" lon="-0.342692000">
  <ele>198.100000</ele>
  <time>2012-03-10T07:15:40Z</time>
  <sat>8</sat>
</trkpt>
<trkpt lat="39.661896000" lon="-0.342696000">
  <ele>198.500000</ele>
  <time>2012-03-10T07:15:42Z</time>
  <sat>8</sat>
</trkpt>
<trkpt lat="39.661803000" lon="-0.342717000">
  <ele>199.800000</ele>
  <time>2012-03-10T07:15:49Z</time>
  <sat>9</sat>
</trkpt>
<trkpt lat="39.661793000" lon="-0.342717000">
  <ele>200.300000</ele>
  <time>2012-03-10T07:15:50Z</time>
  <sat>9</sat>
</trkpt>
<trkpt lat="39.661779000" lon="-0.342713000">
  <ele>200.500000</ele>
  <time>2012-03-10T07:15:51Z</time>
  <sat>9</sat>
</trkpt>
<trkpt lat="39.661749000" lon="-0.342702000">
  <ele>200.800000</ele>
  <time>2012-03-10T07:15:53Z</time>
  <sat>9</sat>
</trkpt>
<trkpt lat="39.661605000" lon="-0.342656000">
  <ele>202.800000</ele>
  <time>2012-03-10T07:16:03Z</time>
  <sat>9</sat>
</trkpt>
<trkpt lat="39.661591000" lon="-0.342643000">
  <ele>203.000000</ele>
  <time>2012-03-10T07:16:04Z</time>
  <sat>10</sat>
</trkpt>
<trkpt lat="39.661562000" lon="-0.342621000">
  <ele>202.800000</ele>
  <time>2012-03-10T07:16:06Z</time>
  <sat>10</sat>
</trkpt>
<trkpt lat="39.661551000" lon="-0.342608000">
  <ele>203.100000</ele>
  <time>2012-03-10T07:16:07Z</time>
  <sat>10</sat>
</trkpt>
<trkpt lat="39.661542000" lon="-0.342592000">
  <ele>203.300000</ele>
  <time>2012-03-10T07:16:08Z</time>
  <sat>10</sat>
</trkpt>
<trkpt lat="39.661522000" lon="-0.342545000">
  <ele>203.800000</ele>
  <time>2012-03-10T07:16:11Z</time>
  <sat>7</sat>
</trkpt>
<trkpt lat="39.661498000" lon="-0.342458000">
  <ele>205.600000</ele>
  <time>2012-03-10T07:16:16Z</time>
  <sat>7</sat>
</trkpt>
<trkpt lat="39.661494000" lon="-0.342444000">
  <ele>206.300000</ele>
  <time>2012-03-10T07:16:17Z</time>
  <sat>7</sat>
</trkpt>
<trkpt lat="39.661471000" lon="-0.342400000">
  <ele>207.300000</ele>
  <time>2012-03-10T07:16:20Z</time>
  <sat>10</sat>
</trkpt>
<trkpt lat="39.661448000" lon="-0.342365000">
  <ele>207.800000</ele>
  <time>2012-03-10T07:16:23Z</time>
  <sat>10</sat>
</trkpt>
<trkpt lat="39.661443000" lon="-0.342348000">
  <ele>208.100000</ele>
  <time>2012-03-10T07:16:24Z</time>
  <sat>10</sat>
</trkpt>
<trkpt lat="39.661407000" lon="-0.342262000">
  <ele>209.600000</ele>
  <time>2012-03-10T07:16:30Z</time>
  <sat>9</sat>
</trkpt>
<trkpt lat="39.661394000" lon="-0.342232000">
  <ele>210.000000</ele>
  <time>2012-03-10T07:16:32Z</time>
  <sat>8</sat>
</trkpt>
<trkpt lat="39.661355000" lon="-0.342156000">
  <ele>212.300000</ele>
  <time>2012-03-10T07:16:38Z</time>
  <sat>8</sat>
</trkpt>
<trkpt lat="39.661336000" lon="-0.342128000">
  <ele>213.300000</ele>
  <time>2012-03-10T07:16:41Z</time>
  <sat>9</sat>
</trkpt>
<trkpt lat="39.661329000" lon="-0.342121000">
  <ele>213.800000</ele>
  <time>2012-03-10T07:16:42Z</time>
  <sat>9</sat>
</trkpt>
<trkpt lat="39.661316000" lon="-0.342097000">
  <ele>215.100000</ele>
  <time>2012-03-10T07:16:44Z</time>
  <sat>9</sat>
</trkpt>
<trkpt lat="39.661307000" lon="-0.342033000">
  <ele>215.800000</ele>
  <time>2012-03-10T07:16:48Z</time>
  <sat>9</sat>
</trkpt>
<trkpt lat="39.661307000" lon="-0.342017000">
  <ele>216.000000</ele>
  <time>2012-03-10T07:16:49Z</time>
  <sat>9</sat>
</trkpt>
<trkpt lat="39.661305000" lon="-0.342003000">
  <ele>216.100000</ele>
  <time>2012-03-10T07:16:50Z</time>
  <sat>8</sat>
</trkpt>
<trkpt lat="39.661308000" lon="-0.341981000">
  <ele>216.000000</ele>
  <time>2012-03-10T07:16:51Z</time>
  <sat>9</sat>
</trkpt>
<trkpt lat="39.661333000" lon="-0.341850000">
  <ele>218.100000</ele>
  <time>2012-03-10T07:16:59Z</time>
  <sat>8</sat>
</trkpt>
<trkpt lat="39.661338000" lon="-0.341837000">
  <ele>218.600000</ele>
  <time>2012-03-10T07:17:00Z</time>
  <sat>8</sat>
</trkpt>
<trkpt lat="39.661340000" lon="-0.341824000">
  <ele>218.800000</ele>
  <time>2012-03-10T07:17:01Z</time>
  <sat>8</sat>
</trkpt>
<trkpt lat="39.661345000" lon="-0.341806000">
  <ele>219.000000</ele>
  <time>2012-03-10T07:17:02Z</time>
  <sat>8</sat>
</trkpt>
<trkpt lat="39.661353000" lon="-0.341790000">
  <ele>219.000000</ele>
  <time>2012-03-10T07:17:03Z</time>
  <sat>8</sat>
</trkpt>
<trkpt lat="39.661371000" lon="-0.341732000">
  <ele>219.800000</ele>
  <time>2012-03-10T07:17:07Z</time>
  <sat>8</sat>
</trkpt>
<trkpt lat="39.661372000" lon="-0.341717000">
  <ele>219.800000</ele>
  <time>2012-03-10T07:17:08Z</time>
  <sat>8</sat>
</trkpt>
<trkpt lat="39.661377000" lon="-0.341703000">
  <ele>220.100000</ele>
  <time>2012-03-10T07:17:09Z</time>
  <sat>8</sat>
</trkpt>
<trkpt lat="39.661386000" lon="-0.341656000">
  <ele>221.100000</ele>
  <time>2012-03-10T07:17:12Z</time>
  <sat>8</sat>
</trkpt>
<trkpt lat="39.661388000" lon="-0.341638000">
  <ele>221.300000</ele>
  <time>2012-03-10T07:17:13Z</time>
  <sat>8</sat>
</trkpt>
<trkpt lat="39.661387000" lon="-0.341622000">
  <ele>221.600000</ele>
  <time>2012-03-10T07:17:14Z</time>
  <sat>7</sat>
</trkpt>
<trkpt lat="39.661380000" lon="-0.341608000">
  <ele>221.600000</ele>
  <time>2012-03-10T07:17:15Z</time>
  <sat>7</sat>
</trkpt>
<trkpt lat="39.661381000" lon="-0.341591000">
  <ele>221.300000</ele>
  <time>2012-03-10T07:17:16Z</time>
  <sat>7</sat>
</trkpt>
<trkpt lat="39.661392000" lon="-0.341488000">
  <ele>221.800000</ele>
  <time>2012-03-10T07:17:22Z</time>
  <sat>8</sat>
</trkpt>
<trkpt lat="39.661389000" lon="-0.341473000">
  <ele>222.300000</ele>
  <time>2012-03-10T07:17:23Z</time>
  <sat>8</sat>
</trkpt>
<trkpt lat="39.661377000" lon="-0.341444000">
  <ele>222.800000</ele>
  <time>2012-03-10T07:17:25Z</time>
  <sat>9</sat>
</trkpt>
<trkpt lat="39.661366000" lon="-0.341433000">
  <ele>223.100000</ele>
  <time>2012-03-10T07:17:26Z</time>
  <sat>9</sat>
</trkpt>
<trkpt lat="39.661357000" lon="-0.341421000">
  <ele>223.500000</ele>
  <time>2012-03-10T07:17:27Z</time>
  <sat>9</sat>
</trkpt>
<trkpt lat="39.661339000" lon="-0.341401000">
  <ele>224.100000</ele>
  <time>2012-03-10T07:17:29Z</time>
  <sat>10</sat>
</trkpt>
<trkpt lat="39.661329000" lon="-0.341393000">
  <ele>224.600000</ele>
  <time>2012-03-10T07:17:30Z</time>
  <sat>10</sat>
</trkpt>
<trkpt lat="39.661300000" lon="-0.341372000">
  <ele>225.800000</ele>
  <time>2012-03-10T07:17:33Z</time>
  <sat>10</sat>
</trkpt>
<trkpt lat="39.661291000" lon="-0.341369000">
  <ele>226.100000</ele>
  <time>2012-03-10T07:17:34Z</time>
  <sat>10</sat>
</trkpt>
<trkpt lat="39.661217000" lon="-0.341362000">
  <ele>229.000000</ele>
  <time>2012-03-10T07:17:40Z</time>
  <sat>10</sat>
</trkpt>
<trkpt lat="39.661207000" lon="-0.341358000">
  <ele>229.100000</ele>
  <time>2012-03-10T07:17:41Z</time>
  <sat>9</sat>
</trkpt>
<trkpt lat="39.661175000" lon="-0.341345000">
  <ele>230.600000</ele>
  <time>2012-03-10T07:17:45Z</time>
  <sat>9</sat>
</trkpt>
<trkpt lat="39.661162000" lon="-0.341347000">
  <ele>230.800000</ele>
  <time>2012-03-10T07:17:46Z</time>
  <sat>9</sat>
</trkpt>
<trkpt lat="39.661148000" lon="-0.341345000">
  <ele>230.800000</ele>
  <time>2012-03-10T07:17:47Z</time>
  <sat>9</sat>
</trkpt>
<trkpt lat="39.661123000" lon="-0.341340000">
  <ele>231.100000</ele>
  <time>2012-03-10T07:17:49Z</time>
  <sat>10</sat>
</trkpt>
<trkpt lat="39.661060000" lon="-0.341310000">
  <ele>231.800000</ele>
  <time>2012-03-10T07:17:54Z</time>
  <sat>10</sat>
</trkpt>
<trkpt lat="39.661050000" lon="-0.341300000">
  <ele>232.000000</ele>
  <time>2012-03-10T07:17:55Z</time>
  <sat>10</sat>
</trkpt>
<trkpt lat="39.660986000" lon="-0.341230000">
  <ele>232.600000</ele>
  <time>2012-03-10T07:18:02Z</time>
  <sat>10</sat>
</trkpt>
<trkpt lat="39.660980000" lon="-0.341218000">
  <ele>232.800000</ele>
  <time>2012-03-10T07:18:03Z</time>
  <sat>7</sat>
</trkpt>
<trkpt lat="39.660964000" lon="-0.341192000">
  <ele>233.300000</ele>
  <time>2012-03-10T07:18:05Z</time>
  <sat>9</sat>
</trkpt>
<trkpt lat="39.660951000" lon="-0.341182000">
  <ele>233.300000</ele>
  <time>2012-03-10T07:18:06Z</time>
  <sat>9</sat>
</trkpt>
<trkpt lat="39.660942000" lon="-0.341172000">
  <ele>233.500000</ele>
  <time>2012-03-10T07:18:07Z</time>
  <sat>9</sat>
</trkpt>
<trkpt lat="39.660934000" lon="-0.341161000">
  <ele>233.600000</ele>
  <time>2012-03-10T07:18:08Z</time>
  <sat>9</sat>
</trkpt>
<trkpt lat="39.660926000" lon="-0.341152000">
  <ele>233.800000</ele>
  <time>2012-03-10T07:18:09Z</time>
  <sat>9</sat>
</trkpt>
<trkpt lat="39.660895000" lon="-0.341124000">
  <ele>234.100000</ele>
  <time>2012-03-10T07:18:12Z</time>
  <sat>8</sat>
</trkpt>
<trkpt lat="39.660888000" lon="-0.341114000">
  <ele>234.500000</ele>
  <time>2012-03-10T07:18:13Z</time>
  <sat>10</sat>
</trkpt>
<trkpt lat="39.660877000" lon="-0.341103000">
  <ele>234.600000</ele>
  <time>2012-03-10T07:18:14Z</time>
  <sat>10</sat>
</trkpt>
<trkpt lat="39.660856000" lon="-0.341081000">
  <ele>235.500000</ele>
  <time>2012-03-10T07:18:16Z</time>
  <sat>10</sat>
</trkpt>
<trkpt lat="39.660845000" lon="-0.341071000">
  <ele>235.800000</ele>
  <time>2012-03-10T07:18:17Z</time>
  <sat>10</sat>
</trkpt>
<trkpt lat="39.660820000" lon="-0.341057000">
  <ele>236.100000</ele>
  <time>2012-03-10T07:18:19Z</time>
  <sat>10</sat>
</trkpt>
<trkpt lat="39.660792000" lon="-0.341054000">
  <ele>236.800000</ele>
  <time>2012-03-10T07:18:21Z</time>
  <sat>10</sat>
</trkpt>
<trkpt lat="39.660683000" lon="-0.341045000">
  <ele>239.800000</ele>
  <time>2012-03-10T07:18:29Z</time>
  <sat>8</sat>
</trkpt>
<trkpt lat="39.660659000" lon="-0.341039000">
  <ele>240.800000</ele>
  <time>2012-03-10T07:18:31Z</time>
  <sat>8</sat>
</trkpt>
<trkpt lat="39.660645000" lon="-0.341039000">
  <ele>241.000000</ele>
  <time>2012-03-10T07:18:32Z</time>
  <sat>9</sat>
</trkpt>
<trkpt lat="39.660623000" lon="-0.341040000">
  <ele>241.800000</ele>
  <time>2012-03-10T07:18:34Z</time>
  <sat>9</sat>
</trkpt>
<trkpt lat="39.660577000" lon="-0.341039000">
  <ele>242.100000</ele>
  <time>2012-03-10T07:18:38Z</time>
  <sat>10</sat>
</trkpt>
<trkpt lat="39.660567000" lon="-0.341030000">
  <ele>242.100000</ele>
  <time>2012-03-10T07:18:39Z</time>
  <sat>10</sat>
</trkpt>
<trkpt lat="39.660543000" lon="-0.341020000">
  <ele>242.000000</ele>
  <time>2012-03-10T07:18:41Z</time>
  <sat>10</sat>
</trkpt>
<trkpt lat="39.660481000" lon="-0.340991000">
  <ele>242.100000</ele>
  <time>2012-03-10T07:18:46Z</time>
  <sat>10</sat>
</trkpt>
<trkpt lat="39.660470000" lon="-0.340976000">
  <ele>242.000000</ele>
  <time>2012-03-10T07:18:47Z</time>
  <sat>10</sat>
</trkpt>
<trkpt lat="39.660465000" lon="-0.340964000">
  <ele>242.300000</ele>
  <time>2012-03-10T07:18:48Z</time>
  <sat>10</sat>
</trkpt>
<trkpt lat="39.660460000" lon="-0.340948000">
  <ele>242.500000</ele>
  <time>2012-03-10T07:18:49Z</time>
  <sat>10</sat>
</trkpt>
<trkpt lat="39.660437000" lon="-0.340902000">
  <ele>242.600000</ele>
  <time>2012-03-10T07:18:52Z</time>
  <sat>10</sat>
</trkpt>
<trkpt lat="39.660430000" lon="-0.340891000">
  <ele>242.800000</ele>
  <time>2012-03-10T07:18:53Z</time>
  <sat>10</sat>
</trkpt>
<trkpt lat="39.660381000" lon="-0.340857000">
  <ele>243.300000</ele>
  <time>2012-03-10T07:18:57Z</time>
  <sat>10</sat>
</trkpt>
<trkpt lat="39.660372000" lon="-0.340852000">
  <ele>243.600000</ele>
  <time>2012-03-10T07:18:58Z</time>
  <sat>10</sat>
</trkpt>
<trkpt lat="39.660360000" lon="-0.340838000">
  <ele>243.600000</ele>
  <time>2012-03-10T07:18:59Z</time>
  <sat>10</sat>
</trkpt>
<trkpt lat="39.660326000" lon="-0.340823000">
  <ele>245.100000</ele>
  <time>2012-03-10T07:19:02Z</time>
  <sat>10</sat>
</trkpt>
<trkpt lat="39.660315000" lon="-0.340811000">
  <ele>245.600000</ele>
  <time>2012-03-10T07:19:03Z</time>
  <sat>10</sat>
</trkpt>
<trkpt lat="39.660302000" lon="-0.340801000">
  <ele>246.100000</ele>
  <time>2012-03-10T07:19:04Z</time>
  <sat>10</sat>
</trkpt>
<trkpt lat="39.660286000" lon="-0.340807000">
  <ele>246.500000</ele>
  <time>2012-03-10T07:19:05Z</time>
  <sat>10</sat>
</trkpt>
<trkpt lat="39.660272000" lon="-0.340804000">
  <ele>246.800000</ele>
  <time>2012-03-10T07:19:06Z</time>
  <sat>10</sat>
</trkpt>
<trkpt lat="39.660262000" lon="-0.340791000">
  <ele>247.300000</ele>
  <time>2012-03-10T07:19:07Z</time>
  <sat>10</sat>
</trkpt>
<trkpt lat="39.660249000" lon="-0.340782000">
  <ele>247.500000</ele>
  <time>2012-03-10T07:19:08Z</time>
  <sat>10</sat>
</trkpt>
<trkpt lat="39.660233000" lon="-0.340772000">
  <ele>247.300000</ele>
  <time>2012-03-10T07:19:09Z</time>
  <sat>10</sat>
</trkpt>
<trkpt lat="39.660215000" lon="-0.340767000">
  <ele>247.600000</ele>
  <time>2012-03-10T07:19:10Z</time>
  <sat>10</sat>
</trkpt>
<trkpt lat="39.660199000" lon="-0.340759000">
  <ele>247.600000</ele>
  <time>2012-03-10T07:19:11Z</time>
  <sat>10</sat>
</trkpt>
<trkpt lat="39.660116000" lon="-0.340716000">
  <ele>248.800000</ele>
  <time>2012-03-10T07:19:16Z</time>
  <sat>10</sat>
</trkpt>
<trkpt lat="39.660081000" lon="-0.340692000">
  <ele>248.600000</ele>
  <time>2012-03-10T07:19:18Z</time>
  <sat>10</sat>
</trkpt>
<trkpt lat="39.660049000" lon="-0.340673000">
  <ele>248.600000</ele>
  <time>2012-03-10T07:19:20Z</time>
  <sat>10</sat>
</trkpt>
<trkpt lat="39.659908000" lon="-0.340609000">
  <ele>250.600000</ele>
  <time>2012-03-10T07:19:28Z</time>
  <sat>8</sat>
</trkpt>
<trkpt lat="39.659658000" lon="-0.340487000">
  <ele>250.600000</ele>
  <time>2012-03-10T07:19:42Z</time>
  <sat>10</sat>
</trkpt>
<trkpt lat="39.659502000" lon="-0.340391000">
  <ele>250.000000</ele>
  <time>2012-03-10T07:19:47Z</time>
  <sat>10</sat>
</trkpt>
<trkpt lat="39.659471000" lon="-0.340383000">
  <ele>249.800000</ele>
  <time>2012-03-10T07:19:48Z</time>
  <sat>10</sat>
</trkpt>
<trkpt lat="39.659443000" lon="-0.340388000">
  <ele>249.800000</ele>
  <time>2012-03-10T07:19:49Z</time>
  <sat>9</sat>
</trkpt>
<trkpt lat="39.659416000" lon="-0.340402000">
  <ele>249.300000</ele>
  <time>2012-03-10T07:19:50Z</time>
  <sat>8</sat>
</trkpt>
<trkpt lat="39.659391000" lon="-0.340424000">
  <ele>248.800000</ele>
  <time>2012-03-10T07:19:51Z</time>
  <sat>8</sat>
</trkpt>
<trkpt lat="39.659181000" lon="-0.340571000">
  <ele>245.800000</ele>
  <time>2012-03-10T07:19:59Z</time>
  <sat>7</sat>
</trkpt>
<trkpt lat="39.659194000" lon="-0.340553000">
  <ele>244.600000</ele>
  <time>2012-03-10T07:20:00Z</time>
  <sat>7</sat>
</trkpt>
<trkpt lat="39.659207000" lon="-0.340546000">
  <ele>245.100000</ele>
  <time>2012-03-10T07:20:01Z</time>
  <sat>7</sat>
</trkpt>
<trkpt lat="39.659202000" lon="-0.340541000">
  <ele>244.600000</ele>
  <time>2012-03-10T07:20:02Z</time>
  <sat>7</sat>
</trkpt>
<trkpt lat="39.659209000" lon="-0.340544000">
  <ele>245.600000</ele>
  <time>2012-03-10T07:20:03Z</time>
  <sat>7</sat>
</trkpt>
<trkpt lat="39.659207000" lon="-0.340538000">
  <ele>245.600000</ele>
  <time>2012-03-10T07:20:04Z</time>
  <sat>7</sat>
</trkpt>
<trkpt lat="39.659212000" lon="-0.340543000">
  <ele>245.600000</ele>
  <time>2012-03-10T07:20:05Z</time>
  <sat>7</sat>
</trkpt>
<trkpt lat="39.659210000" lon="-0.340545000">
  <ele>245.600000</ele>
  <time>2012-03-10T07:20:06Z</time>
  <sat>7</sat>
</trkpt>
<trkpt lat="39.659210000" lon="-0.340545000">
  <ele>245.600000</ele>
  <time>2012-03-10T07:20:07Z</time>
  <sat>9</sat>
</trkpt>
<trkpt lat="39.659200000" lon="-0.340545000">
  <ele>244.800000</ele>
  <time>2012-03-10T07:20:08Z</time>
  <sat>9</sat>
</trkpt>
<trkpt lat="39.659198000" lon="-0.340540000">
  <ele>244.800000</ele>
  <time>2012-03-10T07:20:09Z</time>
  <sat>9</sat>
</trkpt>
<trkpt lat="39.659188000" lon="-0.340541000">
  <ele>244.500000</ele>
  <time>2012-03-10T07:20:10Z</time>
  <sat>9</sat>
</trkpt>
<trkpt lat="39.659177000" lon="-0.340539000">
  <ele>244.300000</ele>
  <time>2012-03-10T07:20:11Z</time>
  <sat>9</sat>
</trkpt>
<trkpt lat="39.659176000" lon="-0.340539000">
  <ele>244.300000</ele>
  <time>2012-03-10T07:20:12Z</time>
  <sat>9</sat>
</trkpt>
<trkpt lat="39.659170000" lon="-0.340536000">
  <ele>244.000000</ele>
  <time>2012-03-10T07:20:13Z</time>
  <sat>9</sat>
</trkpt>
<trkpt lat="39.659162000" lon="-0.340536000">
  <ele>244.100000</ele>
  <time>2012-03-10T07:20:14Z</time>
  <sat>9</sat>
</trkpt>
<trkpt lat="39.659162000" lon="-0.340535000">
  <ele>244.000000</ele>
  <time>2012-03-10T07:20:15Z</time>
  <sat>9</sat>
</trkpt>
<trkpt lat="39.659163000" lon="-0.340538000">
  <ele>244.000000</ele>
  <time>2012-03-10T07:20:16Z</time>
  <sat>9</sat>
</trkpt>
<trkpt lat="39.659163000" lon="-0.340538000">
  <ele>244.000000</ele>
  <time>2012-03-10T07:20:17Z</time>
  <sat>9</sat>
</trkpt>
<trkpt lat="39.659164000" lon="-0.340538000">
  <ele>244.300000</ele>
  <time>2012-03-10T07:20:18Z</time>
  <sat>9</sat>
</trkpt>
<trkpt lat="39.659160000" lon="-0.340536000">
  <ele>244.300000</ele>
  <time>2012-03-10T07:20:19Z</time>
  <sat>9</sat>
</trkpt>
<trkpt lat="39.659156000" lon="-0.340543000">
  <ele>244.300000</ele>
  <time>2012-03-10T07:20:20Z</time>
  <sat>9</sat>
</trkpt>
<trkpt lat="39.659156000" lon="-0.340543000">
  <ele>244.300000</ele>
  <time>2012-03-10T07:20:21Z</time>
  <sat>9</sat>
</trkpt>
<trkpt lat="39.659151000" lon="-0.340547000">
  <ele>244.100000</ele>
  <time>2012-03-10T07:20:22Z</time>
  <sat>9</sat>
</trkpt>
<trkpt lat="39.659131000" lon="-0.340555000">
  <ele>242.000000</ele>
  <time>2012-03-10T07:20:23Z</time>
  <sat>9</sat>
</trkpt>
<trkpt lat="39.659123000" lon="-0.340558000">
  <ele>241.300000</ele>
  <time>2012-03-10T07:20:24Z</time>
  <sat>8</sat>
</trkpt>
<trkpt lat="39.659110000" lon="-0.340564000">
  <ele>240.500000</ele>
  <time>2012-03-10T07:20:25Z</time>
  <sat>7</sat>
</trkpt>
<trkpt lat="39.659084000" lon="-0.340587000">
  <ele>240.300000</ele>
  <time>2012-03-10T07:20:26Z</time>
  <sat>8</sat>
</trkpt>
<trkpt lat="39.658926000" lon="-0.340721000">
  <ele>238.300000</ele>
  <time>2012-03-10T07:20:34Z</time>
  <sat>9</sat>
</trkpt>
<trkpt lat="39.658902000" lon="-0.340738000">
  <ele>237.800000</ele>
  <time>2012-03-10T07:20:35Z</time>
  <sat>9</sat>
</trkpt>
<trkpt lat="39.658886000" lon="-0.340753000">
  <ele>237.300000</ele>
  <time>2012-03-10T07:20:36Z</time>
  <sat>9</sat>
</trkpt>
<trkpt lat="39.658826000" lon="-0.340830000">
  <ele>238.300000</ele>
  <time>2012-03-10T07:20:41Z</time>
  <sat>7</sat>
</trkpt>
<trkpt lat="39.658835000" lon="-0.340824000">
  <ele>237.800000</ele>
  <time>2012-03-10T07:20:42Z</time>
  <sat>7</sat>
</trkpt>
<trkpt lat="39.658836000" lon="-0.340825000">
  <ele>237.800000</ele>
  <time>2012-03-10T07:20:43Z</time>
  <sat>7</sat>
</trkpt>
<trkpt lat="39.658837000" lon="-0.340827000">
  <ele>238.000000</ele>
  <time>2012-03-10T07:20:44Z</time>
  <sat>7</sat>
</trkpt>
<trkpt lat="39.658837000" lon="-0.340827000">
  <ele>238.100000</ele>
  <time>2012-03-10T07:20:45Z</time>
  <sat>7</sat>
</trkpt>
<trkpt lat="39.658837000" lon="-0.340827000">
  <ele>238.100000</ele>
  <time>2012-03-10T07:20:46Z</time>
  <sat>7</sat>
</trkpt>
<trkpt lat="39.658836000" lon="-0.340828000">
  <ele>238.300000</ele>
  <time>2012-03-10T07:20:47Z</time>
  <sat>7</sat>
</trkpt>
<trkpt lat="39.658836000" lon="-0.340829000">
  <ele>238.500000</ele>
  <time>2012-03-10T07:20:48Z</time>
  <sat>7</sat>
</trkpt>
<trkpt lat="39.658836000" lon="-0.340830000">
  <ele>238.500000</ele>
  <time>2012-03-10T07:20:49Z</time>
  <sat>7</sat>
</trkpt>
<trkpt lat="39.658835000" lon="-0.340831000">
  <ele>238.500000</ele>
  <time>2012-03-10T07:20:50Z</time>
  <sat>7</sat>
</trkpt>
<trkpt lat="39.658835000" lon="-0.340832000">
  <ele>238.500000</ele>
  <time>2012-03-10T07:20:51Z</time>
  <sat>7</sat>
</trkpt>
<trkpt lat="39.658835000" lon="-0.340832000">
  <ele>238.500000</ele>
  <time>2012-03-10T07:20:52Z</time>
  <sat>7</sat>
</trkpt>
<trkpt lat="39.658835000" lon="-0.340832000">
  <ele>238.500000</ele>
  <time>2012-03-10T07:20:53Z</time>
  <sat>7</sat>
</trkpt>
<trkpt lat="39.658495000" lon="-0.341232000">
  <ele>227.000000</ele>
  <time>2012-03-10T07:21:30Z</time>
  <sat>7</sat>
</trkpt>
<trkpt lat="39.658488000" lon="-0.341251000">
  <ele>225.600000</ele>
  <time>2012-03-10T07:21:31Z</time>
  <sat>7</sat>
</trkpt>
<trkpt lat="39.658456000" lon="-0.341426000">
  <ele>226.800000</ele>
  <time>2012-03-10T07:21:36Z</time>
  <sat>7</sat>
</trkpt>
<trkpt lat="39.658449000" lon="-0.341448000">
  <ele>226.800000</ele>
  <time>2012-03-10T07:21:37Z</time>
  <sat>7</sat>
</trkpt>
<trkpt lat="39.658436000" lon="-0.341464000">
  <ele>225.600000</ele>
  <time>2012-03-10T07:21:38Z</time>
  <sat>7</sat>
</trkpt>
<trkpt lat="39.658429000" lon="-0.341475000">
  <ele>226.600000</ele>
  <time>2012-03-10T07:21:39Z</time>
  <sat>7</sat>
</trkpt>
<trkpt lat="39.658429000" lon="-0.341486000">
  <ele>224.600000</ele>
  <time>2012-03-10T07:21:40Z</time>
  <sat>7</sat>
</trkpt>
<trkpt lat="39.658425000" lon="-0.341507000">
  <ele>222.600000</ele>
  <time>2012-03-10T07:21:41Z</time>
  <sat>7</sat>
</trkpt>
<trkpt lat="39.658409000" lon="-0.341532000">
  <ele>222.300000</ele>
  <time>2012-03-10T07:21:42Z</time>
  <sat>7</sat>
</trkpt>
<trkpt lat="39.658382000" lon="-0.341583000">
  <ele>221.800000</ele>
  <time>2012-03-10T07:21:44Z</time>
  <sat>7</sat>
</trkpt>
<trkpt lat="39.658371000" lon="-0.341618000">
  <ele>221.300000</ele>
  <time>2012-03-10T07:21:45Z</time>
  <sat>7</sat>
</trkpt>
<trkpt lat="39.658362000" lon="-0.341636000">
  <ele>220.600000</ele>
  <time>2012-03-10T07:21:46Z</time>
  <sat>7</sat>
</trkpt>
<trkpt lat="39.658325000" lon="-0.341727000">
  <ele>219.100000</ele>
  <time>2012-03-10T07:21:50Z</time>
  <sat>7</sat>
</trkpt>
<trkpt lat="39.658297000" lon="-0.341767000">
  <ele>218.500000</ele>
  <time>2012-03-10T07:21:52Z</time>
  <sat>7</sat>
</trkpt>
<trkpt lat="39.658299000" lon="-0.341788000">
  <ele>218.500000</ele>
  <time>2012-03-10T07:21:53Z</time>
  <sat>7</sat>
</trkpt>
<trkpt lat="39.658290000" lon="-0.341809000">
  <ele>217.600000</ele>
  <time>2012-03-10T07:21:54Z</time>
  <sat>7</sat>
</trkpt>
<trkpt lat="39.658221000" lon="-0.341933000">
  <ele>215.600000</ele>
  <time>2012-03-10T07:22:01Z</time>
  <sat>7</sat>
</trkpt>
<trkpt lat="39.658186000" lon="-0.342021000">
  <ele>213.600000</ele>
  <time>2012-03-10T07:22:23Z</time>
  <sat>7</sat>
</trkpt>
<trkpt lat="39.658175000" lon="-0.342069000">
  <ele>211.600000</ele>
  <time>2012-03-10T07:22:26Z</time>
  <sat>8</sat>
</trkpt>
<trkpt lat="39.658153000" lon="-0.342154000">
  <ele>209.500000</ele>
  <time>2012-03-10T07:22:30Z</time>
  <sat>8</sat>
</trkpt>
<trkpt lat="39.658144000" lon="-0.342170000">
  <ele>209.000000</ele>
  <time>2012-03-10T07:22:31Z</time>
  <sat>8</sat>
</trkpt>
<trkpt lat="39.658090000" lon="-0.342277000">
  <ele>208.000000</ele>
  <time>2012-03-10T07:22:36Z</time>
  <sat>8</sat>
</trkpt>
<trkpt lat="39.658062000" lon="-0.342371000">
  <ele>206.800000</ele>
  <time>2012-03-10T07:22:40Z</time>
  <sat>8</sat>
</trkpt>
<trkpt lat="39.658057000" lon="-0.342404000">
  <ele>207.100000</ele>
  <time>2012-03-10T07:22:41Z</time>
  <sat>8</sat>
</trkpt>
<trkpt lat="39.658030000" lon="-0.342549000">
  <ele>208.300000</ele>
  <time>2012-03-10T07:22:47Z</time>
  <sat>8</sat>
</trkpt>
<trkpt lat="39.658016000" lon="-0.342563000">
  <ele>208.100000</ele>
  <time>2012-03-10T07:22:48Z</time>
  <sat>8</sat>
</trkpt>
<trkpt lat="39.658006000" lon="-0.342578000">
  <ele>208.300000</ele>
  <time>2012-03-10T07:22:49Z</time>
  <sat>8</sat>
</trkpt>
<trkpt lat="39.657970000" lon="-0.342658000">
  <ele>208.600000</ele>
  <time>2012-03-10T07:22:54Z</time>
  <sat>8</sat>
</trkpt>
<trkpt lat="39.657961000" lon="-0.342688000">
  <ele>208.600000</ele>
  <time>2012-03-10T07:22:55Z</time>
  <sat>8</sat>
</trkpt>
<trkpt lat="39.657947000" lon="-0.342792000">
  <ele>208.100000</ele>
  <time>2012-03-10T07:22:58Z</time>
  <sat>8</sat>
</trkpt>
<trkpt lat="39.657941000" lon="-0.342825000">
  <ele>207.800000</ele>
  <time>2012-03-10T07:22:59Z</time>
  <sat>8</sat>
</trkpt>
<trkpt lat="39.657930000" lon="-0.342852000">
  <ele>207.500000</ele>
  <time>2012-03-10T07:23:16Z</time>
  <sat>8</sat>
</trkpt>
<trkpt lat="39.657928000" lon="-0.342867000">
  <ele>207.100000</ele>
  <time>2012-03-10T07:23:17Z</time>
  <sat>8</sat>
</trkpt>
<trkpt lat="39.657931000" lon="-0.342894000">
  <ele>206.800000</ele>
  <time>2012-03-10T07:23:18Z</time>
  <sat>8</sat>
</trkpt>
<trkpt lat="39.657949000" lon="-0.342936000">
  <ele>207.600000</ele>
  <time>2012-03-10T07:23:19Z</time>
  <sat>8</sat>
</trkpt>
<trkpt lat="39.657958000" lon="-0.342970000">
  <ele>208.000000</ele>
  <time>2012-03-10T07:23:20Z</time>
  <sat>8</sat>
</trkpt>
<trkpt lat="39.657959000" lon="-0.343047000">
  <ele>208.000000</ele>
  <time>2012-03-10T07:23:22Z</time>
  <sat>8</sat>
</trkpt>
<trkpt lat="39.657942000" lon="-0.343105000">
  <ele>207.800000</ele>
  <time>2012-03-10T07:23:23Z</time>
  <sat>8</sat>
</trkpt>
<trkpt lat="39.657927000" lon="-0.343179000">
  <ele>205.800000</ele>
  <time>2012-03-10T07:23:24Z</time>
  <sat>8</sat>
</trkpt>
<trkpt lat="39.657877000" lon="-0.343562000">
  <ele>204.600000</ele>
  <time>2012-03-10T07:23:28Z</time>
  <sat>8</sat>
</trkpt>
<trkpt lat="39.657884000" lon="-0.343649000">
  <ele>204.000000</ele>
  <time>2012-03-10T07:23:29Z</time>
  <sat>8</sat>
</trkpt>
<trkpt lat="39.657880000" lon="-0.343885000">
  <ele>203.600000</ele>
  <time>2012-03-10T07:23:32Z</time>
  <sat>8</sat>
</trkpt>
<trkpt lat="39.657893000" lon="-0.344043000">
  <ele>203.100000</ele>
  <time>2012-03-10T07:23:34Z</time>
  <sat>8</sat>
</trkpt>
<trkpt lat="39.657936000" lon="-0.344116000">
  <ele>201.800000</ele>
  <time>2012-03-10T07:23:35Z</time>
  <sat>8</sat>
</trkpt>
<trkpt lat="39.657972000" lon="-0.344193000">
  <ele>200.500000</ele>
  <time>2012-03-10T07:23:36Z</time>
  <sat>8</sat>
</trkpt>
<trkpt lat="39.658063000" lon="-0.344316000">
  <ele>199.800000</ele>
  <time>2012-03-10T07:23:38Z</time>
  <sat>8</sat>
</trkpt>
<trkpt lat="39.658138000" lon="-0.344413000">
  <ele>199.800000</ele>
  <time>2012-03-10T07:23:40Z</time>
  <sat>8</sat>
</trkpt>
<trkpt lat="39.658139000" lon="-0.344476000">
  <ele>199.800000</ele>
  <time>2012-03-10T07:23:41Z</time>
  <sat>8</sat>
</trkpt>
<trkpt lat="39.658088000" lon="-0.344602000">
  <ele>199.500000</ele>
  <time>2012-03-10T07:23:43Z</time>
  <sat>8</sat>
</trkpt>
<trkpt lat="39.658054000" lon="-0.344644000">
  <ele>199.100000</ele>
  <time>2012-03-10T07:23:44Z</time>
  <sat>8</sat>
</trkpt>
<trkpt lat="39.658031000" lon="-0.344690000">
  <ele>199.100000</ele>
  <time>2012-03-10T07:23:45Z</time>
  <sat>8</sat>
</trkpt>
<trkpt lat="39.657969000" lon="-0.344883000">
  <ele>196.300000</ele>
  <time>2012-03-10T07:23:49Z</time>
  <sat>8</sat>
</trkpt>
<trkpt lat="39.657954000" lon="-0.344989000">
  <ele>195.300000</ele>
  <time>2012-03-10T07:23:51Z</time>
  <sat>8</sat>
</trkpt>
<trkpt lat="39.657927000" lon="-0.345086000">
  <ele>195.100000</ele>
  <time>2012-03-10T07:23:53Z</time>
  <sat>8</sat>
</trkpt>
<trkpt lat="39.657890000" lon="-0.345393000">
  <ele>192.800000</ele>
  <time>2012-03-10T07:23:58Z</time>
  <sat>8</sat>
</trkpt>
<trkpt lat="39.657889000" lon="-0.345468000">
  <ele>192.000000</ele>
  <time>2012-03-10T07:23:59Z</time>
  <sat>8</sat>
</trkpt>
<trkpt lat="39.657813000" lon="-0.346648000">
  <ele>191.100000</ele>
  <time>2012-03-10T07:24:15Z</time>
  <sat>9</sat>
</trkpt>
<trkpt lat="39.657829000" lon="-0.347477000">
  <ele>190.800000</ele>
  <time>2012-03-10T07:24:29Z</time>
  <sat>8</sat>
</trkpt>
<trkpt lat="39.657866000" lon="-0.347996000">
  <ele>187.600000</ele>
  <time>2012-03-10T07:24:38Z</time>
  <sat>8</sat>
</trkpt>
<trkpt lat="39.657882000" lon="-0.348059000">
  <ele>187.300000</ele>
  <time>2012-03-10T07:24:39Z</time>
  <sat>8</sat>
</trkpt>
<trkpt lat="39.657956000" lon="-0.348359000">
  <ele>187.800000</ele>
  <time>2012-03-10T07:24:44Z</time>
  <sat>9</sat>
</trkpt>
<trkpt lat="39.657985000" lon="-0.348484000">
  <ele>188.300000</ele>
  <time>2012-03-10T07:24:46Z</time>
  <sat>9</sat>
</trkpt>
<trkpt lat="39.658193000" lon="-0.349294000">
  <ele>184.600000</ele>
  <time>2012-03-10T07:25:01Z</time>
  <sat>7</sat>
</trkpt>
<trkpt lat="39.658215000" lon="-0.349340000">
  <ele>184.500000</ele>
  <time>2012-03-10T07:25:02Z</time>
  <sat>7</sat>
</trkpt>
<trkpt lat="39.658243000" lon="-0.349377000">
  <ele>184.300000</ele>
  <time>2012-03-10T07:25:03Z</time>
  <sat>6</sat>
</trkpt>
<trkpt lat="39.658345000" lon="-0.349473000">
  <ele>185.300000</ele>
  <time>2012-03-10T07:25:07Z</time>
  <sat>8</sat>
</trkpt>
<trkpt lat="39.658398000" lon="-0.349492000">
  <ele>184.600000</ele>
  <time>2012-03-10T07:25:08Z</time>
  <sat>8</sat>
</trkpt>
<trkpt lat="39.658425000" lon="-0.349523000">
  <ele>184.100000</ele>
  <time>2012-03-10T07:25:09Z</time>
  <sat>8</sat>
</trkpt>
<trkpt lat="39.658535000" lon="-0.349652000">
  <ele>186.000000</ele>
  <time>2012-03-10T07:25:13Z</time>
  <sat>8</sat>
</trkpt>
<trkpt lat="39.658543000" lon="-0.349688000">
  <ele>186.600000</ele>
  <time>2012-03-10T07:25:14Z</time>
  <sat>8</sat>
</trkpt>
<trkpt lat="39.658540000" lon="-0.349717000">
  <ele>186.800000</ele>
  <time>2012-03-10T07:25:15Z</time>
  <sat>8</sat>
</trkpt>
<trkpt lat="39.658510000" lon="-0.349779000">
  <ele>187.000000</ele>
  <time>2012-03-10T07:25:17Z</time>
  <sat>8</sat>
</trkpt>
<trkpt lat="39.658319000" lon="-0.350098000">
  <ele>188.500000</ele>
  <time>2012-03-10T07:25:28Z</time>
  <sat>8</sat>
</trkpt>
<trkpt lat="39.658273000" lon="-0.350201000">
  <ele>188.100000</ele>
  <time>2012-03-10T07:25:31Z</time>
  <sat>8</sat>
</trkpt>
<trkpt lat="39.658261000" lon="-0.350236000">
  <ele>188.600000</ele>
  <time>2012-03-10T07:25:33Z</time>
  <sat>8</sat>
</trkpt>
<trkpt lat="39.658243000" lon="-0.350250000">
  <ele>188.600000</ele>
  <time>2012-03-10T07:25:34Z</time>
  <sat>8</sat>
</trkpt>
<trkpt lat="39.658233000" lon="-0.350265000">
  <ele>188.800000</ele>
  <time>2012-03-10T07:25:35Z</time>
  <sat>8</sat>
</trkpt>
<trkpt lat="39.658184000" lon="-0.350364000">
  <ele>189.300000</ele>
  <time>2012-03-10T07:25:40Z</time>
  <sat>8</sat>
</trkpt>
<trkpt lat="39.658180000" lon="-0.350401000">
  <ele>189.100000</ele>
  <time>2012-03-10T07:25:41Z</time>
  <sat>8</sat>
</trkpt>
<trkpt lat="39.658195000" lon="-0.350492000">
  <ele>190.300000</ele>
  <time>2012-03-10T07:25:43Z</time>
  <sat>8</sat>
</trkpt>
<trkpt lat="39.658223000" lon="-0.350626000">
  <ele>192.600000</ele>
  <time>2012-03-10T07:25:47Z</time>
  <sat>7</sat>
</trkpt>
<trkpt lat="39.658253000" lon="-0.350681000">
  <ele>193.300000</ele>
  <time>2012-03-10T07:25:49Z</time>
  <sat>6</sat>
</trkpt>
<trkpt lat="39.658278000" lon="-0.350742000">
  <ele>193.800000</ele>
  <time>2012-03-10T07:25:51Z</time>
  <sat>5</sat>
</trkpt>
<trkpt lat="39.658289000" lon="-0.350786000">
  <ele>197.800000</ele>
  <time>2012-03-10T07:25:53Z</time>
  <sat>6</sat>
</trkpt>
<trkpt lat="39.658300000" lon="-0.350800000">
  <ele>198.300000</ele>
  <time>2012-03-10T07:25:54Z</time>
  <sat>5</sat>
</trkpt>
<trkpt lat="39.658311000" lon="-0.350819000">
  <ele>198.600000</ele>
  <time>2012-03-10T07:25:55Z</time>
  <sat>5</sat>
</trkpt>
<trkpt lat="39.658321000" lon="-0.350840000">
  <ele>198.600000</ele>
  <time>2012-03-10T07:25:56Z</time>
  <sat>6</sat>
</trkpt>
<trkpt lat="39.658325000" lon="-0.350864000">
  <ele>198.500000</ele>
  <time>2012-03-10T07:25:57Z</time>
  <sat>6</sat>
</trkpt>
<trkpt lat="39.658307000" lon="-0.350901000">
  <ele>198.600000</ele>
  <time>2012-03-10T07:25:59Z</time>
  <sat>7</sat>
</trkpt>
<trkpt lat="39.658218000" lon="-0.351024000">
  <ele>201.300000</ele>
  <time>2012-03-10T07:26:04Z</time>
  <sat>9</sat>
</trkpt>
<trkpt lat="39.658199000" lon="-0.351050000">
  <ele>201.800000</ele>
  <time>2012-03-10T07:26:05Z</time>
  <sat>9</sat>
</trkpt>
<trkpt lat="39.658106000" lon="-0.351238000">
  <ele>203.800000</ele>
  <time>2012-03-10T07:26:13Z</time>
  <sat>9</sat>
</trkpt>
<trkpt lat="39.658079000" lon="-0.351275000">
  <ele>204.600000</ele>
  <time>2012-03-10T07:26:14Z</time>
  <sat>9</sat>
</trkpt>
<trkpt lat="39.658055000" lon="-0.351360000">
  <ele>205.500000</ele>
  <time>2012-03-10T07:26:18Z</time>
  <sat>7</sat>
</trkpt>
<trkpt lat="39.658054000" lon="-0.351415000">
  <ele>205.600000</ele>
  <time>2012-03-10T07:26:19Z</time>
  <sat>6</sat>
</trkpt>
<trkpt lat="39.658059000" lon="-0.351449000">
  <ele>205.800000</ele>
  <time>2012-03-10T07:26:20Z</time>
  <sat>6</sat>
</trkpt>
<trkpt lat="39.658072000" lon="-0.351474000">
  <ele>205.800000</ele>
  <time>2012-03-10T07:26:21Z</time>
  <sat>6</sat>
</trkpt>
<trkpt lat="39.658079000" lon="-0.351510000">
  <ele>206.000000</ele>
  <time>2012-03-10T07:26:22Z</time>
  <sat>6</sat>
</trkpt>
<trkpt lat="39.658097000" lon="-0.351533000">
  <ele>205.800000</ele>
  <time>2012-03-10T07:26:23Z</time>
  <sat>6</sat>
</trkpt>
<trkpt lat="39.658117000" lon="-0.351555000">
  <ele>206.000000</ele>
  <time>2012-03-10T07:26:24Z</time>
  <sat>6</sat>
</trkpt>
<trkpt lat="39.658283000" lon="-0.351748000">
  <ele>207.100000</ele>
  <time>2012-03-10T07:26:33Z</time>
  <sat>8</sat>
</trkpt>
<trkpt lat="39.658548000" lon="-0.352078000">
  <ele>208.300000</ele>
  <time>2012-03-10T07:26:46Z</time>
  <sat>8</sat>
</trkpt>
<trkpt lat="39.658571000" lon="-0.352115000">
  <ele>207.800000</ele>
  <time>2012-03-10T07:26:47Z</time>
  <sat>8</sat>
</trkpt>
<trkpt lat="39.658770000" lon="-0.352493000">
  <ele>206.500000</ele>
  <time>2012-03-10T07:26:57Z</time>
  <sat>8</sat>
</trkpt>
<trkpt lat="39.658851000" lon="-0.352669000">
  <ele>204.800000</ele>
  <time>2012-03-10T07:27:01Z</time>
  <sat>8</sat>
</trkpt>
<trkpt lat="39.659012000" lon="-0.352885000">
  <ele>203.000000</ele>
  <time>2012-03-10T07:27:07Z</time>
  <sat>7</sat>
</trkpt>
<trkpt lat="39.659044000" lon="-0.352901000">
  <ele>203.000000</ele>
  <time>2012-03-10T07:27:08Z</time>
  <sat>7</sat>
</trkpt>
<trkpt lat="39.659106000" lon="-0.352835000">
  <ele>202.100000</ele>
  <time>2012-03-10T07:27:10Z</time>
  <sat>7</sat>
</trkpt>
<trkpt lat="39.659129000" lon="-0.352790000">
  <ele>202.300000</ele>
  <time>2012-03-10T07:27:11Z</time>
  <sat>7</sat>
</trkpt>
<trkpt lat="39.659136000" lon="-0.352749000">
  <ele>202.500000</ele>
  <time>2012-03-10T07:27:12Z</time>
  <sat>7</sat>
</trkpt>
<trkpt lat="39.659136000" lon="-0.352512000">
  <ele>203.300000</ele>
  <time>2012-03-10T07:27:17Z</time>
  <sat>7</sat>
</trkpt>
<trkpt lat="39.659158000" lon="-0.352467000">
  <ele>202.600000</ele>
  <time>2012-03-10T07:27:18Z</time>
  <sat>7</sat>
</trkpt>
<trkpt lat="39.659165000" lon="-0.352422000">
  <ele>202.500000</ele>
  <time>2012-03-10T07:27:19Z</time>
  <sat>7</sat>
</trkpt>
<trkpt lat="39.659199000" lon="-0.352326000">
  <ele>203.100000</ele>
  <time>2012-03-10T07:27:21Z</time>
  <sat>8</sat>
</trkpt>
<trkpt lat="39.659284000" lon="-0.352143000">
  <ele>205.500000</ele>
  <time>2012-03-10T07:27:25Z</time>
  <sat>7</sat>
</trkpt>
<trkpt lat="39.659312000" lon="-0.352106000">
  <ele>205.300000</ele>
  <time>2012-03-10T07:27:26Z</time>
  <sat>7</sat>
</trkpt>
<trkpt lat="39.659342000" lon="-0.352074000">
  <ele>205.500000</ele>
  <time>2012-03-10T07:27:27Z</time>
  <sat>7</sat>
</trkpt>
<trkpt lat="39.659369000" lon="-0.352052000">
  <ele>205.800000</ele>
  <time>2012-03-10T07:27:28Z</time>
  <sat>7</sat>
</trkpt>
<trkpt lat="39.659403000" lon="-0.352040000">
  <ele>206.000000</ele>
  <time>2012-03-10T07:27:29Z</time>
  <sat>6</sat>
</trkpt>
<trkpt lat="39.659434000" lon="-0.352034000">
  <ele>206.000000</ele>
  <time>2012-03-10T07:27:30Z</time>
  <sat>6</sat>
</trkpt>
<trkpt lat="39.659494000" lon="-0.352037000">
  <ele>205.600000</ele>
  <time>2012-03-10T07:27:32Z</time>
  <sat>7</sat>
</trkpt>
<trkpt lat="39.659551000" lon="-0.352051000">
  <ele>205.600000</ele>
  <time>2012-03-10T07:27:34Z</time>
  <sat>7</sat>
</trkpt>
<trkpt lat="39.659674000" lon="-0.352105000">
  <ele>206.500000</ele>
  <time>2012-03-10T07:27:38Z</time>
  <sat>6</sat>
</trkpt>
<trkpt lat="39.659819000" lon="-0.352146000">
  <ele>205.800000</ele>
  <time>2012-03-10T07:27:42Z</time>
  <sat>9</sat>
</trkpt>
<trkpt lat="39.659850000" lon="-0.352145000">
  <ele>205.300000</ele>
  <time>2012-03-10T07:27:43Z</time>
  <sat>9</sat>
</trkpt>
<trkpt lat="39.659880000" lon="-0.352134000">
  <ele>205.100000</ele>
  <time>2012-03-10T07:27:44Z</time>
  <sat>9</sat>
</trkpt>
<trkpt lat="39.659946000" lon="-0.352081000">
  <ele>205.600000</ele>
  <time>2012-03-10T07:27:46Z</time>
  <sat>9</sat>
</trkpt>
<trkpt lat="39.660075000" lon="-0.351997000">
  <ele>207.600000</ele>
  <time>2012-03-10T07:27:50Z</time>
  <sat>9</sat>
</trkpt>
<trkpt lat="39.660110000" lon="-0.351985000">
  <ele>208.300000</ele>
  <time>2012-03-10T07:27:51Z</time>
  <sat>8</sat>
</trkpt>
<trkpt lat="39.660262000" lon="-0.351918000">
  <ele>209.800000</ele>
  <time>2012-03-10T07:27:56Z</time>
  <sat>8</sat>
</trkpt>
<trkpt lat="39.660296000" lon="-0.351889000">
  <ele>209.800000</ele>
  <time>2012-03-10T07:27:57Z</time>
  <sat>8</sat>
</trkpt>
<trkpt lat="39.660357000" lon="-0.351814000">
  <ele>209.100000</ele>
  <time>2012-03-10T07:27:59Z</time>
  <sat>8</sat>
</trkpt>
<trkpt lat="39.660467000" lon="-0.351680000">
  <ele>208.600000</ele>
  <time>2012-03-10T07:28:03Z</time>
  <sat>7</sat>
</trkpt>
<trkpt lat="39.660488000" lon="-0.351645000">
  <ele>208.800000</ele>
  <time>2012-03-10T07:28:04Z</time>
  <sat>8</sat>
</trkpt>
<trkpt lat="39.660543000" lon="-0.351523000">
  <ele>209.500000</ele>
  <time>2012-03-10T07:28:07Z</time>
  <sat>9</sat>
</trkpt>
<trkpt lat="39.660555000" lon="-0.351479000">
  <ele>209.300000</ele>
  <time>2012-03-10T07:28:08Z</time>
  <sat>9</sat>
</trkpt>
<trkpt lat="39.660559000" lon="-0.351433000">
  <ele>209.600000</ele>
  <time>2012-03-10T07:28:09Z</time>
  <sat>9</sat>
</trkpt>
<trkpt lat="39.660584000" lon="-0.351225000">
  <ele>209.500000</ele>
  <time>2012-03-10T07:28:14Z</time>
  <sat>9</sat>
</trkpt>
<trkpt lat="39.660597000" lon="-0.351185000">
  <ele>209.300000</ele>
  <time>2012-03-10T07:28:15Z</time>
  <sat>9</sat>
</trkpt>
<trkpt lat="39.660611000" lon="-0.351145000">
  <ele>209.300000</ele>
  <time>2012-03-10T07:28:16Z</time>
  <sat>9</sat>
</trkpt>
<trkpt lat="39.660632000" lon="-0.351113000">
  <ele>209.800000</ele>
  <time>2012-03-10T07:28:17Z</time>
  <sat>9</sat>
</trkpt>
<trkpt lat="39.660750000" lon="-0.350973000">
  <ele>208.500000</ele>
  <time>2012-03-10T07:28:22Z</time>
  <sat>9</sat>
</trkpt>
<trkpt lat="39.660812000" lon="-0.350946000">
  <ele>207.800000</ele>
  <time>2012-03-10T07:28:24Z</time>
  <sat>9</sat>
</trkpt>
<trkpt lat="39.660987000" lon="-0.350940000">
  <ele>208.300000</ele>
  <time>2012-03-10T07:28:28Z</time>
  <sat>9</sat>
</trkpt>
<trkpt lat="39.661094000" lon="-0.350976000">
  <ele>209.800000</ele>
  <time>2012-03-10T07:28:30Z</time>
  <sat>9</sat>
</trkpt>
<trkpt lat="39.661144000" lon="-0.350985000">
  <ele>209.800000</ele>
  <time>2012-03-10T07:28:31Z</time>
  <sat>9</sat>
</trkpt>
<trkpt lat="39.661232000" lon="-0.350986000">
  <ele>209.600000</ele>
  <time>2012-03-10T07:28:33Z</time>
  <sat>6</sat>
</trkpt>
<trkpt lat="39.661268000" lon="-0.350971000">
  <ele>209.500000</ele>
  <time>2012-03-10T07:28:34Z</time>
  <sat>9</sat>
</trkpt>
<trkpt lat="39.661315000" lon="-0.350957000">
  <ele>209.100000</ele>
  <time>2012-03-10T07:28:35Z</time>
  <sat>9</sat>
</trkpt>
<trkpt lat="39.661912000" lon="-0.350796000">
  <ele>208.100000</ele>
  <time>2012-03-10T07:28:50Z</time>
  <sat>7</sat>
</trkpt>
<trkpt lat="39.661951000" lon="-0.350792000">
  <ele>207.800000</ele>
  <time>2012-03-10T07:28:51Z</time>
  <sat>8</sat>
</trkpt>
<trkpt lat="39.661998000" lon="-0.350788000">
  <ele>208.100000</ele>
  <time>2012-03-10T07:28:52Z</time>
  <sat>8</sat>
</trkpt>
<trkpt lat="39.662049000" lon="-0.350799000">
  <ele>208.100000</ele>
  <time>2012-03-10T07:28:53Z</time>
  <sat>8</sat>
</trkpt>
<trkpt lat="39.662215000" lon="-0.350844000">
  <ele>207.000000</ele>
  <time>2012-03-10T07:28:56Z</time>
  <sat>9</sat>
</trkpt>
<trkpt lat="39.662276000" lon="-0.350872000">
  <ele>207.100000</ele>
  <time>2012-03-10T07:28:57Z</time>
  <sat>9</sat>
</trkpt>
<trkpt lat="39.662337000" lon="-0.350911000">
  <ele>207.600000</ele>
  <time>2012-03-10T07:28:58Z</time>
  <sat>9</sat>
</trkpt>
<trkpt lat="39.662390000" lon="-0.350959000">
  <ele>207.300000</ele>
  <time>2012-03-10T07:28:59Z</time>
  <sat>9</sat>
</trkpt>
<trkpt lat="39.662563000" lon="-0.351080000">
  <ele>208.100000</ele>
  <time>2012-03-10T07:29:02Z</time>
  <sat>8</sat>
</trkpt>
<trkpt lat="39.662623000" lon="-0.351081000">
  <ele>208.600000</ele>
  <time>2012-03-10T07:29:03Z</time>
  <sat>8</sat>
</trkpt>
<trkpt lat="39.662678000" lon="-0.351065000">
  <ele>208.600000</ele>
  <time>2012-03-10T07:29:04Z</time>
  <sat>7</sat>
</trkpt>
<trkpt lat="39.662717000" lon="-0.351021000">
  <ele>209.300000</ele>
  <time>2012-03-10T07:29:05Z</time>
  <sat>7</sat>
</trkpt>
<trkpt lat="39.662755000" lon="-0.350997000">
  <ele>209.600000</ele>
  <time>2012-03-10T07:29:06Z</time>
  <sat>7</sat>
</trkpt>
<trkpt lat="39.662913000" lon="-0.350933000">
  <ele>211.600000</ele>
  <time>2012-03-10T07:29:10Z</time>
  <sat>7</sat>
</trkpt>
<trkpt lat="39.662947000" lon="-0.350923000">
  <ele>212.100000</ele>
  <time>2012-03-10T07:29:11Z</time>
  <sat>7</sat>
</trkpt>
<trkpt lat="39.663120000" lon="-0.350891000">
  <ele>213.300000</ele>
  <time>2012-03-10T07:29:16Z</time>
  <sat>6</sat>
</trkpt>
<trkpt lat="39.663703000" lon="-0.351053000">
  <ele>210.300000</ele>
  <time>2012-03-10T07:29:32Z</time>
  <sat>7</sat>
</trkpt>
<trkpt lat="39.663776000" lon="-0.351095000">
  <ele>210.600000</ele>
  <time>2012-03-10T07:29:34Z</time>
  <sat>5</sat>
</trkpt>
<trkpt lat="39.663970000" lon="-0.351171000">
  <ele>211.500000</ele>
  <time>2012-03-10T07:29:40Z</time>
  <sat>6</sat>
</trkpt>
<trkpt lat="39.664057000" lon="-0.351157000">
  <ele>211.800000</ele>
  <time>2012-03-10T07:29:42Z</time>
  <sat>6</sat>
</trkpt>
<trkpt lat="39.664084000" lon="-0.351142000">
  <ele>210.800000</ele>
  <time>2012-03-10T07:29:43Z</time>
  <sat>6</sat>
</trkpt>
<trkpt lat="39.664143000" lon="-0.351164000">
  <ele>212.800000</ele>
  <time>2012-03-10T07:29:44Z</time>
  <sat>7</sat>
</trkpt>
<trkpt lat="39.664178000" lon="-0.351158000">
  <ele>213.500000</ele>
  <time>2012-03-10T07:29:45Z</time>
  <sat>7</sat>
</trkpt>
<trkpt lat="39.664213000" lon="-0.351167000">
  <ele>212.800000</ele>
  <time>2012-03-10T07:29:46Z</time>
  <sat>8</sat>
</trkpt>
<trkpt lat="39.664421000" lon="-0.351223000">
  <ele>214.100000</ele>
  <time>2012-03-10T07:29:51Z</time>
  <sat>8</sat>
</trkpt>
<trkpt lat="39.664454000" lon="-0.351240000">
  <ele>214.800000</ele>
  <time>2012-03-10T07:29:52Z</time>
  <sat>9</sat>
</trkpt>
<trkpt lat="39.664490000" lon="-0.351268000">
  <ele>215.300000</ele>
  <time>2012-03-10T07:29:53Z</time>
  <sat>10</sat>
</trkpt>
<trkpt lat="39.664942000" lon="-0.351613000">
  <ele>210.000000</ele>
  <time>2012-03-10T07:30:03Z</time>
  <sat>10</sat>
</trkpt>
<trkpt lat="39.665006000" lon="-0.351640000">
  <ele>209.600000</ele>
  <time>2012-03-10T07:30:04Z</time>
  <sat>10</sat>
</trkpt>
<trkpt lat="39.665146000" lon="-0.351654000">
  <ele>209.600000</ele>
  <time>2012-03-10T07:30:06Z</time>
  <sat>10</sat>
</trkpt>
<trkpt lat="39.665505000" lon="-0.351729000">
  <ele>209.100000</ele>
  <time>2012-03-10T07:30:11Z</time>
  <sat>6</sat>
</trkpt>
<trkpt lat="39.665577000" lon="-0.351751000">
  <ele>208.800000</ele>
  <time>2012-03-10T07:30:12Z</time>
  <sat>6</sat>
</trkpt>
<trkpt lat="39.665895000" lon="-0.351671000">
  <ele>207.800000</ele>
  <time>2012-03-10T07:30:17Z</time>
  <sat>7</sat>
</trkpt>
<trkpt lat="39.665968000" lon="-0.351651000">
  <ele>208.300000</ele>
  <time>2012-03-10T07:30:18Z</time>
  <sat>8</sat>
</trkpt>
<trkpt lat="39.666208000" lon="-0.351646000">
  <ele>205.800000</ele>
  <time>2012-03-10T07:30:21Z</time>
  <sat>8</sat>
</trkpt>
<trkpt lat="39.666281000" lon="-0.351658000">
  <ele>205.600000</ele>
  <time>2012-03-10T07:30:22Z</time>
  <sat>8</sat>
</trkpt>
<trkpt lat="39.666354000" lon="-0.351683000">
  <ele>205.100000</ele>
  <time>2012-03-10T07:30:23Z</time>
  <sat>8</sat>
</trkpt>
<trkpt lat="39.666545000" lon="-0.351780000">
  <ele>203.600000</ele>
  <time>2012-03-10T07:30:26Z</time>
  <sat>8</sat>
</trkpt>
<trkpt lat="39.666641000" lon="-0.351829000">
  <ele>202.300000</ele>
  <time>2012-03-10T07:30:28Z</time>
  <sat>8</sat>
</trkpt>
<trkpt lat="39.666696000" lon="-0.351831000">
  <ele>201.600000</ele>
  <time>2012-03-10T07:30:29Z</time>
  <sat>8</sat>
</trkpt>
<trkpt lat="39.666774000" lon="-0.351819000">
  <ele>201.300000</ele>
  <time>2012-03-10T07:30:31Z</time>
  <sat>8</sat>
</trkpt>
<trkpt lat="39.666807000" lon="-0.351771000">
  <ele>200.800000</ele>
  <time>2012-03-10T07:30:32Z</time>
  <sat>8</sat>
</trkpt>
<trkpt lat="39.666832000" lon="-0.351715000">
  <ele>200.500000</ele>
  <time>2012-03-10T07:30:33Z</time>
  <sat>8</sat>
</trkpt>
<trkpt lat="39.666816000" lon="-0.351554000">
  <ele>200.300000</ele>
  <time>2012-03-10T07:30:35Z</time>
  <sat>6</sat>
</trkpt>
<trkpt lat="39.666835000" lon="-0.351481000">
  <ele>200.100000</ele>
  <time>2012-03-10T07:30:36Z</time>
  <sat>7</sat>
</trkpt>
<trkpt lat="39.666921000" lon="-0.351091000">
  <ele>199.000000</ele>
  <time>2012-03-10T07:30:41Z</time>
  <sat>8</sat>
</trkpt>
<trkpt lat="39.666954000" lon="-0.351023000">
  <ele>198.600000</ele>
  <time>2012-03-10T07:30:42Z</time>
  <sat>8</sat>
</trkpt>
<trkpt lat="39.667224000" lon="-0.350438000">
  <ele>195.300000</ele>
  <time>2012-03-10T07:30:50Z</time>
  <sat>8</sat>
</trkpt>
<trkpt lat="39.667270000" lon="-0.350377000">
  <ele>195.300000</ele>
  <time>2012-03-10T07:30:51Z</time>
  <sat>8</sat>
</trkpt>
<trkpt lat="39.667368000" lon="-0.350290000">
  <ele>194.500000</ele>
  <time>2012-03-10T07:30:53Z</time>
  <sat>8</sat>
</trkpt>
<trkpt lat="39.667470000" lon="-0.350219000">
  <ele>194.600000</ele>
  <time>2012-03-10T07:30:55Z</time>
  <sat>8</sat>
</trkpt>
<trkpt lat="39.667576000" lon="-0.350183000">
  <ele>194.600000</ele>
  <time>2012-03-10T07:30:57Z</time>
  <sat>8</sat>
</trkpt>
<trkpt lat="39.667678000" lon="-0.350173000">
  <ele>193.800000</ele>
  <time>2012-03-10T07:30:59Z</time>
  <sat>8</sat>
</trkpt>
<trkpt lat="39.667919000" lon="-0.350097000">
  <ele>192.800000</ele>
  <time>2012-03-10T07:31:03Z</time>
  <sat>8</sat>
</trkpt>
<trkpt lat="39.667978000" lon="-0.350065000">
  <ele>192.600000</ele>
  <time>2012-03-10T07:31:04Z</time>
  <sat>8</sat>
</trkpt>
<trkpt lat="39.668087000" lon="-0.349978000">
  <ele>192.300000</ele>
  <time>2012-03-10T07:31:06Z</time>
  <sat>8</sat>
</trkpt>
<trkpt lat="39.668495000" lon="-0.349694000">
  <ele>193.100000</ele>
  <time>2012-03-10T07:31:14Z</time>
  <sat>9</sat>
</trkpt>
<trkpt lat="39.668546000" lon="-0.349649000">
  <ele>193.300000</ele>
  <time>2012-03-10T07:31:15Z</time>
  <sat>9</sat>
</trkpt>
<trkpt lat="39.668792000" lon="-0.349445000">
  <ele>190.800000</ele>
  <time>2012-03-10T07:31:22Z</time>
  <sat>8</sat>
</trkpt>
<trkpt lat="39.668786000" lon="-0.349403000">
  <ele>191.000000</ele>
  <time>2012-03-10T07:31:23Z</time>
  <sat>8</sat>
</trkpt>
<trkpt lat="39.668778000" lon="-0.349370000">
  <ele>191.100000</ele>
  <time>2012-03-10T07:31:24Z</time>
  <sat>6</sat>
</trkpt>
<trkpt lat="39.668710000" lon="-0.349329000">
  <ele>190.000000</ele>
  <time>2012-03-10T07:31:25Z</time>
  <sat>6</sat>
</trkpt>
<trkpt lat="39.668663000" lon="-0.349282000">
  <ele>189.500000</ele>
  <time>2012-03-10T07:31:26Z</time>
  <sat>6</sat>
</trkpt>
<trkpt lat="39.668646000" lon="-0.349242000">
  <ele>188.800000</ele>
  <time>2012-03-10T07:31:27Z</time>
  <sat>9</sat>
</trkpt>
<trkpt lat="39.668659000" lon="-0.349211000">
  <ele>188.300000</ele>
  <time>2012-03-10T07:31:28Z</time>
  <sat>9</sat>
</trkpt>
<trkpt lat="39.668685000" lon="-0.349177000">
  <ele>187.800000</ele>
  <time>2012-03-10T07:31:29Z</time>
  <sat>9</sat>
</trkpt>
<trkpt lat="39.668711000" lon="-0.349142000">
  <ele>187.600000</ele>
  <time>2012-03-10T07:31:30Z</time>
  <sat>9</sat>
</trkpt>
<trkpt lat="39.668727000" lon="-0.349101000">
  <ele>187.300000</ele>
  <time>2012-03-10T07:31:31Z</time>
  <sat>9</sat>
</trkpt>
<trkpt lat="39.668730000" lon="-0.349054000">
  <ele>187.100000</ele>
  <time>2012-03-10T07:31:32Z</time>
  <sat>9</sat>
</trkpt>
<trkpt lat="39.668723000" lon="-0.348983000">
  <ele>187.500000</ele>
  <time>2012-03-10T07:31:34Z</time>
  <sat>8</sat>
</trkpt>
<trkpt lat="39.668701000" lon="-0.348796000">
  <ele>186.800000</ele>
  <time>2012-03-10T07:31:41Z</time>
  <sat>7</sat>
</trkpt>
<trkpt lat="39.668716000" lon="-0.348776000">
  <ele>186.500000</ele>
  <time>2012-03-10T07:31:42Z</time>
  <sat>9</sat>
</trkpt>
<trkpt lat="39.668732000" lon="-0.348736000">
  <ele>185.600000</ele>
  <time>2012-03-10T07:31:43Z</time>
  <sat>9</sat>
</trkpt>
<trkpt lat="39.668823000" lon="-0.348469000">
  <ele>184.600000</ele>
  <time>2012-03-10T07:31:49Z</time>
  <sat>8</sat>
</trkpt>
<trkpt lat="39.669003000" lon="-0.347951000">
  <ele>179.800000</ele>
  <time>2012-03-10T07:32:02Z</time>
  <sat>7</sat>
</trkpt>
<trkpt lat="39.668997000" lon="-0.347899000">
  <ele>179.800000</ele>
  <time>2012-03-10T07:32:03Z</time>
  <sat>8</sat>
</trkpt>
<trkpt lat="39.669008000" lon="-0.347860000">
  <ele>179.300000</ele>
  <time>2012-03-10T07:32:04Z</time>
  <sat>9</sat>
</trkpt>
<trkpt lat="39.669115000" lon="-0.347576000">
  <ele>177.100000</ele>
  <time>2012-03-10T07:32:11Z</time>
  <sat>9</sat>
</trkpt>
<trkpt lat="39.669143000" lon="-0.347545000">
  <ele>176.600000</ele>
  <time>2012-03-10T07:32:12Z</time>
  <sat>9</sat>
</trkpt>
<trkpt lat="39.669144000" lon="-0.347487000">
  <ele>176.800000</ele>
  <time>2012-03-10T07:32:13Z</time>
  <sat>9</sat>
</trkpt>
<trkpt lat="39.669147000" lon="-0.347453000">
  <ele>176.500000</ele>
  <time>2012-03-10T07:32:14Z</time>
  <sat>7</sat>
</trkpt>
<trkpt lat="39.669165000" lon="-0.347424000">
  <ele>175.800000</ele>
  <time>2012-03-10T07:32:15Z</time>
  <sat>7</sat>
</trkpt>
<trkpt lat="39.669171000" lon="-0.347394000">
  <ele>175.300000</ele>
  <time>2012-03-10T07:32:16Z</time>
  <sat>7</sat>
</trkpt>
<trkpt lat="39.669193000" lon="-0.347326000">
  <ele>175.100000</ele>
  <time>2012-03-10T07:32:17Z</time>
  <sat>9</sat>
</trkpt>
<trkpt lat="39.669345000" lon="-0.346939000">
  <ele>178.800000</ele>
  <time>2012-03-10T07:32:24Z</time>
  <sat>7</sat>
</trkpt>
<trkpt lat="39.669434000" lon="-0.346795000">
  <ele>177.300000</ele>
  <time>2012-03-10T07:32:27Z</time>
  <sat>9</sat>
</trkpt>
<trkpt lat="39.669492000" lon="-0.346713000">
  <ele>175.300000</ele>
  <time>2012-03-10T07:32:30Z</time>
  <sat>9</sat>
</trkpt>
<trkpt lat="39.669524000" lon="-0.346676000">
  <ele>175.000000</ele>
  <time>2012-03-10T07:32:31Z</time>
  <sat>9</sat>
</trkpt>
<trkpt lat="39.669619000" lon="-0.346583000">
  <ele>174.300000</ele>
  <time>2012-03-10T07:32:35Z</time>
  <sat>8</sat>
</trkpt>
<trkpt lat="39.669634000" lon="-0.346584000">
  <ele>174.100000</ele>
  <time>2012-03-10T07:32:36Z</time>
  <sat>8</sat>
</trkpt>
<trkpt lat="39.669656000" lon="-0.346591000">
  <ele>173.600000</ele>
  <time>2012-03-10T07:32:37Z</time>
  <sat>9</sat>
</trkpt>
<trkpt lat="39.669679000" lon="-0.346584000">
  <ele>173.800000</ele>
  <time>2012-03-10T07:32:38Z</time>
  <sat>8</sat>
</trkpt>
<trkpt lat="39.669701000" lon="-0.346585000">
  <ele>174.100000</ele>
  <time>2012-03-10T07:32:39Z</time>
  <sat>8</sat>
</trkpt>
<trkpt lat="39.669729000" lon="-0.346582000">
  <ele>174.100000</ele>
  <time>2012-03-10T07:32:40Z</time>
  <sat>8</sat>
</trkpt>
<trkpt lat="39.669769000" lon="-0.346555000">
  <ele>173.800000</ele>
  <time>2012-03-10T07:32:41Z</time>
  <sat>8</sat>
</trkpt>
<trkpt lat="39.669807000" lon="-0.346543000">
  <ele>173.300000</ele>
  <time>2012-03-10T07:32:42Z</time>
  <sat>8</sat>
</trkpt>
<trkpt lat="39.669907000" lon="-0.346504000">
  <ele>173.600000</ele>
  <time>2012-03-10T07:33:00Z</time>
  <sat>9</sat>
</trkpt>
<trkpt lat="39.669895000" lon="-0.346507000">
  <ele>173.600000</ele>
  <time>2012-03-10T07:33:01Z</time>
  <sat>9</sat>
</trkpt>
<trkpt lat="39.669721000" lon="-0.346549000">
  <ele>170.100000</ele>
  <time>2012-03-10T07:33:06Z</time>
  <sat>9</sat>
</trkpt>
<trkpt lat="39.669685000" lon="-0.346552000">
  <ele>170.100000</ele>
  <time>2012-03-10T07:33:07Z</time>
  <sat>9</sat>
</trkpt>
<trkpt lat="39.669664000" lon="-0.346546000">
  <ele>170.300000</ele>
  <time>2012-03-10T07:33:08Z</time>
  <sat>9</sat>
</trkpt>
<trkpt lat="39.669646000" lon="-0.346528000">
  <ele>169.800000</ele>
  <time>2012-03-10T07:33:09Z</time>
  <sat>9</sat>
</trkpt>
<trkpt lat="39.669512000" lon="-0.346319000">
  <ele>165.800000</ele>
  <time>2012-03-10T07:33:16Z</time>
  <sat>9</sat>
</trkpt>
<trkpt lat="39.669525000" lon="-0.346274000">
  <ele>166.100000</ele>
  <time>2012-03-10T07:33:17Z</time>
  <sat>9</sat>
</trkpt>
<trkpt lat="39.669527000" lon="-0.346239000">
  <ele>166.000000</ele>
  <time>2012-03-10T07:33:18Z</time>
  <sat>9</sat>
</trkpt>
<trkpt lat="39.669550000" lon="-0.346184000">
  <ele>164.600000</ele>
  <time>2012-03-10T07:33:20Z</time>
  <sat>6</sat>
</trkpt>
<trkpt lat="39.669559000" lon="-0.346153000">
  <ele>163.600000</ele>
  <time>2012-03-10T07:33:21Z</time>
  <sat>7</sat>
</trkpt>
<trkpt lat="39.669702000" lon="-0.345628000">
  <ele>155.300000</ele>
  <time>2012-03-10T07:33:35Z</time>
  <sat>6</sat>
</trkpt>
<trkpt lat="39.669712000" lon="-0.345595000">
  <ele>154.300000</ele>
  <time>2012-03-10T07:33:36Z</time>
  <sat>6</sat>
</trkpt>
<trkpt lat="39.669737000" lon="-0.345510000">
  <ele>153.000000</ele>
  <time>2012-03-10T07:33:39Z</time>
  <sat>6</sat>
</trkpt>
<trkpt lat="39.669742000" lon="-0.345490000">
  <ele>152.300000</ele>
  <time>2012-03-10T07:33:40Z</time>
  <sat>6</sat>
</trkpt>
<trkpt lat="39.669756000" lon="-0.345459000">
  <ele>151.100000</ele>
  <time>2012-03-10T07:33:42Z</time>
  <sat>7</sat>
</trkpt>
<trkpt lat="39.669758000" lon="-0.345434000">
  <ele>150.800000</ele>
  <time>2012-03-10T07:33:43Z</time>
  <sat>7</sat>
</trkpt>
<trkpt lat="39.669771000" lon="-0.345355000">
  <ele>148.600000</ele>
  <time>2012-03-10T07:34:08Z</time>
  <sat>10</sat>
</trkpt>
<trkpt lat="39.669782000" lon="-0.345308000">
  <ele>149.100000</ele>
  <time>2012-03-10T07:34:09Z</time>
  <sat>8</sat>
</trkpt>
<trkpt lat="39.669803000" lon="-0.345164000">
  <ele>150.800000</ele>
  <time>2012-03-10T07:34:13Z</time>
  <sat>10</sat>
</trkpt>
<trkpt lat="39.669812000" lon="-0.345133000">
  <ele>151.500000</ele>
  <time>2012-03-10T07:34:14Z</time>
  <sat>10</sat>
</trkpt>
<trkpt lat="39.669887000" lon="-0.344937000">
  <ele>155.500000</ele>
  <time>2012-03-10T07:34:22Z</time>
  <sat>8</sat>
</trkpt>
<trkpt lat="39.669903000" lon="-0.344909000">
  <ele>155.600000</ele>
  <time>2012-03-10T07:34:23Z</time>
  <sat>8</sat>
</trkpt>
<trkpt lat="39.669941000" lon="-0.344865000">
  <ele>156.100000</ele>
  <time>2012-03-10T07:34:25Z</time>
  <sat>10</sat>
</trkpt>
<trkpt lat="39.669954000" lon="-0.344851000">
  <ele>156.600000</ele>
  <time>2012-03-10T07:34:26Z</time>
  <sat>10</sat>
</trkpt>
<trkpt lat="39.669979000" lon="-0.344850000">
  <ele>157.100000</ele>
  <time>2012-03-10T07:34:27Z</time>
  <sat>10</sat>
</trkpt>
<trkpt lat="39.670000000" lon="-0.344852000">
  <ele>157.100000</ele>
  <time>2012-03-10T07:34:28Z</time>
  <sat>10</sat>
</trkpt>
<trkpt lat="39.670020000" lon="-0.344856000">
  <ele>157.500000</ele>
  <time>2012-03-10T07:34:29Z</time>
  <sat>10</sat>
</trkpt>
<trkpt lat="39.670034000" lon="-0.344865000">
  <ele>157.800000</ele>
  <time>2012-03-10T07:34:30Z</time>
  <sat>10</sat>
</trkpt>
<trkpt lat="39.670052000" lon="-0.344889000">
  <ele>157.500000</ele>
  <time>2012-03-10T07:34:32Z</time>
  <sat>10</sat>
</trkpt>
<trkpt lat="39.670053000" lon="-0.344919000">
  <ele>157.600000</ele>
  <time>2012-03-10T07:34:33Z</time>
  <sat>10</sat>
</trkpt>
<trkpt lat="39.670059000" lon="-0.344945000">
  <ele>157.300000</ele>
  <time>2012-03-10T07:34:34Z</time>
  <sat>10</sat>
</trkpt>
<trkpt lat="39.670055000" lon="-0.345011000">
  <ele>155.000000</ele>
  <time>2012-03-10T07:35:11Z</time>
  <sat>6</sat>
</trkpt>
<trkpt lat="39.670066000" lon="-0.345034000">
  <ele>154.800000</ele>
  <time>2012-03-10T07:35:12Z</time>
  <sat>7</sat>
</trkpt>
<trkpt lat="39.670069000" lon="-0.345055000">
  <ele>155.600000</ele>
  <time>2012-03-10T07:35:13Z</time>
  <sat>7</sat>
</trkpt>
<trkpt lat="39.670090000" lon="-0.345145000">
  <ele>158.100000</ele>
  <time>2012-03-10T07:35:16Z</time>
  <sat>8</sat>
</trkpt>
<trkpt lat="39.670120000" lon="-0.345205000">
  <ele>160.600000</ele>
  <time>2012-03-10T07:35:19Z</time>
  <sat>9</sat>
</trkpt>
<trkpt lat="39.670186000" lon="-0.345325000">
  <ele>161.300000</ele>
  <time>2012-03-10T07:35:24Z</time>
  <sat>9</sat>
</trkpt>
<trkpt lat="39.670202000" lon="-0.345343000">
  <ele>161.300000</ele>
  <time>2012-03-10T07:35:25Z</time>
  <sat>8</sat>
</trkpt>
<trkpt lat="39.670261000" lon="-0.345397000">
  <ele>161.500000</ele>
  <time>2012-03-10T07:35:28Z</time>
  <sat>10</sat>
</trkpt>
<trkpt lat="39.670374000" lon="-0.345489000">
  <ele>161.100000</ele>
  <time>2012-03-10T07:35:34Z</time>
  <sat>10</sat>
</trkpt>
<trkpt lat="39.670429000" lon="-0.345541000">
  <ele>160.800000</ele>
  <time>2012-03-10T07:35:37Z</time>
  <sat>10</sat>
</trkpt>
<trkpt lat="39.670444000" lon="-0.345562000">
  <ele>161.300000</ele>
  <time>2012-03-10T07:35:38Z</time>
  <sat>7</sat>
</trkpt>
<trkpt lat="39.670488000" lon="-0.345619000">
  <ele>161.800000</ele>
  <time>2012-03-10T07:35:41Z</time>
  <sat>8</sat>
</trkpt>
<trkpt lat="39.670581000" lon="-0.345712000">
  <ele>162.800000</ele>
  <time>2012-03-10T07:35:47Z</time>
  <sat>6</sat>
</trkpt>
<trkpt lat="39.670673000" lon="-0.345805000">
  <ele>163.600000</ele>
  <time>2012-03-10T07:35:54Z</time>
  <sat>5</sat>
</trkpt>
<trkpt lat="39.670689000" lon="-0.345815000">
  <ele>163.800000</ele>
  <time>2012-03-10T07:35:55Z</time>
  <sat>5</sat>
</trkpt>
<trkpt lat="39.670772000" lon="-0.345861000">
  <ele>165.300000</ele>
  <time>2012-03-10T07:36:00Z</time>
  <sat>5</sat>
</trkpt>
<trkpt lat="39.670790000" lon="-0.345867000">
  <ele>165.600000</ele>
  <time>2012-03-10T07:36:01Z</time>
  <sat>5</sat>
</trkpt>
<trkpt lat="39.670804000" lon="-0.345881000">
  <ele>166.100000</ele>
  <time>2012-03-10T07:36:02Z</time>
  <sat>5</sat>
</trkpt>
<trkpt lat="39.670890000" lon="-0.345965000">
  <ele>169.000000</ele>
  <time>2012-03-10T07:36:08Z</time>
  <sat>6</sat>
</trkpt>
<trkpt lat="39.670906000" lon="-0.345979000">
  <ele>169.100000</ele>
  <time>2012-03-10T07:36:09Z</time>
  <sat>5</sat>
</trkpt>
<trkpt lat="39.670922000" lon="-0.345990000">
  <ele>169.300000</ele>
  <time>2012-03-10T07:36:10Z</time>
  <sat>6</sat>
</trkpt>
<trkpt lat="39.670976000" lon="-0.346035000">
  <ele>169.800000</ele>
  <time>2012-03-10T07:36:14Z</time>
  <sat>7</sat>
</trkpt>
<trkpt lat="39.671092000" lon="-0.346136000">
  <ele>172.800000</ele>
  <time>2012-03-10T07:36:22Z</time>
  <sat>8</sat>
</trkpt>
<trkpt lat="39.671101000" lon="-0.346150000">
  <ele>172.800000</ele>
  <time>2012-03-10T07:36:23Z</time>
  <sat>8</sat>
</trkpt>
<trkpt lat="39.671113000" lon="-0.346164000">
  <ele>172.800000</ele>
  <time>2012-03-10T07:36:24Z</time>
  <sat>8</sat>
</trkpt>
<trkpt lat="39.671220000" lon="-0.346311000">
  <ele>174.600000</ele>
  <time>2012-03-10T07:36:33Z</time>
  <sat>8</sat>
</trkpt>
<trkpt lat="39.671231000" lon="-0.346333000">
  <ele>174.600000</ele>
  <time>2012-03-10T07:36:34Z</time>
  <sat>7</sat>
</trkpt>
<trkpt lat="39.671253000" lon="-0.346374000">
  <ele>175.800000</ele>
  <time>2012-03-10T07:36:36Z</time>
  <sat>7</sat>
</trkpt>
<trkpt lat="39.671351000" lon="-0.346539000">
  <ele>178.300000</ele>
  <time>2012-03-10T07:36:45Z</time>
  <sat>7</sat>
</trkpt>
<trkpt lat="39.671362000" lon="-0.346559000">
  <ele>179.100000</ele>
  <time>2012-03-10T07:36:46Z</time>
  <sat>7</sat>
</trkpt>
<trkpt lat="39.671377000" lon="-0.346573000">
  <ele>179.000000</ele>
  <time>2012-03-10T07:36:47Z</time>
  <sat>7</sat>
</trkpt>
<trkpt lat="39.671390000" lon="-0.346589000">
  <ele>178.800000</ele>
  <time>2012-03-10T07:36:48Z</time>
  <sat>7</sat>
</trkpt>
<trkpt lat="39.671508000" lon="-0.346726000">
  <ele>179.000000</ele>
  <time>2012-03-10T07:36:56Z</time>
  <sat>6</sat>
</trkpt>
<trkpt lat="39.671520000" lon="-0.346743000">
  <ele>178.800000</ele>
  <time>2012-03-10T07:36:57Z</time>
  <sat>6</sat>
</trkpt>
<trkpt lat="39.671632000" lon="-0.346861000">
  <ele>180.000000</ele>
  <time>2012-03-10T07:37:04Z</time>
  <sat>6</sat>
</trkpt>
<trkpt lat="39.671671000" lon="-0.346911000">
  <ele>181.000000</ele>
  <time>2012-03-10T07:37:07Z</time>
  <sat>5</sat>
</trkpt>
<trkpt lat="39.671691000" lon="-0.346922000">
  <ele>181.500000</ele>
  <time>2012-03-10T07:37:08Z</time>
  <sat>5</sat>
</trkpt>
<trkpt lat="39.671708000" lon="-0.346942000">
  <ele>181.600000</ele>
  <time>2012-03-10T07:37:09Z</time>
  <sat>5</sat>
</trkpt>
<trkpt lat="39.671719000" lon="-0.346966000">
  <ele>181.800000</ele>
  <time>2012-03-10T07:37:10Z</time>
  <sat>5</sat>
</trkpt>
<trkpt lat="39.671749000" lon="-0.346996000">
  <ele>182.100000</ele>
  <time>2012-03-10T07:37:12Z</time>
  <sat>6</sat>
</trkpt>
<trkpt lat="39.671887000" lon="-0.347105000">
  <ele>181.100000</ele>
  <time>2012-03-10T07:37:20Z</time>
  <sat>5</sat>
</trkpt>
<trkpt lat="39.671899000" lon="-0.347108000">
  <ele>180.600000</ele>
  <time>2012-03-10T07:37:21Z</time>
  <sat>5</sat>
</trkpt>
<trkpt lat="39.671963000" lon="-0.347135000">
  <ele>181.800000</ele>
  <time>2012-03-10T07:37:24Z</time>
  <sat>6</sat>
</trkpt>
<trkpt lat="39.672005000" lon="-0.347154000">
  <ele>183.600000</ele>
  <time>2012-03-10T07:37:27Z</time>
  <sat>6</sat>
</trkpt>
<trkpt lat="39.672025000" lon="-0.347164000">
  <ele>184.000000</ele>
  <time>2012-03-10T07:37:28Z</time>
  <sat>6</sat>
</trkpt>
<trkpt lat="39.672078000" lon="-0.347217000">
  <ele>185.800000</ele>
  <time>2012-03-10T07:37:32Z</time>
  <sat>6</sat>
</trkpt>
<trkpt lat="39.672096000" lon="-0.347224000">
  <ele>186.300000</ele>
  <time>2012-03-10T07:37:33Z</time>
  <sat>6</sat>
</trkpt>
<trkpt lat="39.672112000" lon="-0.347229000">
  <ele>187.300000</ele>
  <time>2012-03-10T07:37:34Z</time>
  <sat>6</sat>
</trkpt>
<trkpt lat="39.672128000" lon="-0.347237000">
  <ele>187.100000</ele>
  <time>2012-03-10T07:37:35Z</time>
  <sat>6</sat>
</trkpt>
<trkpt lat="39.672179000" lon="-0.347256000">
  <ele>188.800000</ele>
  <time>2012-03-10T07:37:38Z</time>
  <sat>5</sat>
</trkpt>
<trkpt lat="39.672196000" lon="-0.347255000">
  <ele>189.500000</ele>
  <time>2012-03-10T07:37:39Z</time>
  <sat>5</sat>
</trkpt>
<trkpt lat="39.672213000" lon="-0.347257000">
  <ele>189.600000</ele>
  <time>2012-03-10T07:37:40Z</time>
  <sat>6</sat>
</trkpt>
<trkpt lat="39.672555000" lon="-0.347298000">
  <ele>191.500000</ele>
  <time>2012-03-10T07:38:00Z</time>
  <sat>8</sat>
</trkpt>
<trkpt lat="39.672570000" lon="-0.347306000">
  <ele>191.600000</ele>
  <time>2012-03-10T07:38:01Z</time>
  <sat>7</sat>
</trkpt>
<trkpt lat="39.672609000" lon="-0.347309000">
  <ele>192.800000</ele>
  <time>2012-03-10T07:38:03Z</time>
  <sat>7</sat>
</trkpt>
<trkpt lat="39.672625000" lon="-0.347312000">
  <ele>192.600000</ele>
  <time>2012-03-10T07:38:04Z</time>
  <sat>7</sat>
</trkpt>
<trkpt lat="39.672707000" lon="-0.347340000">
  <ele>193.800000</ele>
  <time>2012-03-10T07:38:09Z</time>
  <sat>7</sat>
</trkpt>
<trkpt lat="39.672736000" lon="-0.347343000">
  <ele>194.300000</ele>
  <time>2012-03-10T07:38:11Z</time>
  <sat>7</sat>
</trkpt>
<trkpt lat="39.672787000" lon="-0.347358000">
  <ele>195.600000</ele>
  <time>2012-03-10T07:38:14Z</time>
  <sat>8</sat>
</trkpt>
<trkpt lat="39.672804000" lon="-0.347364000">
  <ele>196.000000</ele>
  <time>2012-03-10T07:38:15Z</time>
  <sat>8</sat>
</trkpt>
<trkpt lat="39.672875000" lon="-0.347390000">
  <ele>197.300000</ele>
  <time>2012-03-10T07:38:20Z</time>
  <sat>8</sat>
</trkpt>
<trkpt lat="39.672891000" lon="-0.347398000">
  <ele>196.800000</ele>
  <time>2012-03-10T07:38:21Z</time>
  <sat>8</sat>
</trkpt>
<trkpt lat="39.672992000" lon="-0.347458000">
  <ele>198.300000</ele>
  <time>2012-03-10T07:38:28Z</time>
  <sat>8</sat>
</trkpt>
<trkpt lat="39.673001000" lon="-0.347469000">
  <ele>198.600000</ele>
  <time>2012-03-10T07:38:29Z</time>
  <sat>8</sat>
</trkpt>
<trkpt lat="39.673029000" lon="-0.347489000">
  <ele>199.500000</ele>
  <time>2012-03-10T07:38:31Z</time>
  <sat>7</sat>
</trkpt>
<trkpt lat="39.673092000" lon="-0.347537000">
  <ele>200.300000</ele>
  <time>2012-03-10T07:38:36Z</time>
  <sat>7</sat>
</trkpt>
<trkpt lat="39.673106000" lon="-0.347547000">
  <ele>200.100000</ele>
  <time>2012-03-10T07:38:37Z</time>
  <sat>8</sat>
</trkpt>
<trkpt lat="39.673117000" lon="-0.347560000">
  <ele>200.300000</ele>
  <time>2012-03-10T07:38:38Z</time>
  <sat>8</sat>
</trkpt>
<trkpt lat="39.673155000" lon="-0.347596000">
  <ele>201.500000</ele>
  <time>2012-03-10T07:38:41Z</time>
  <sat>8</sat>
</trkpt>
<trkpt lat="39.673203000" lon="-0.347647000">
  <ele>202.800000</ele>
  <time>2012-03-10T07:38:45Z</time>
  <sat>7</sat>
</trkpt>
<trkpt lat="39.673211000" lon="-0.347660000">
  <ele>203.600000</ele>
  <time>2012-03-10T07:38:46Z</time>
  <sat>7</sat>
</trkpt>
<trkpt lat="39.673222000" lon="-0.347673000">
  <ele>203.800000</ele>
  <time>2012-03-10T07:38:47Z</time>
  <sat>8</sat>
</trkpt>
<trkpt lat="39.673263000" lon="-0.347723000">
  <ele>204.300000</ele>
  <time>2012-03-10T07:38:51Z</time>
  <sat>8</sat>
</trkpt>
<trkpt lat="39.673290000" lon="-0.347765000">
  <ele>206.000000</ele>
  <time>2012-03-10T07:38:54Z</time>
  <sat>8</sat>
</trkpt>
<trkpt lat="39.673295000" lon="-0.347780000">
  <ele>206.300000</ele>
  <time>2012-03-10T07:38:55Z</time>
  <sat>8</sat>
</trkpt>
<trkpt lat="39.673327000" lon="-0.347855000">
  <ele>207.100000</ele>
  <time>2012-03-10T07:39:00Z</time>
  <sat>8</sat>
</trkpt>
<trkpt lat="39.673351000" lon="-0.347914000">
  <ele>208.000000</ele>
  <time>2012-03-10T07:39:04Z</time>
  <sat>8</sat>
</trkpt>
<trkpt lat="39.673355000" lon="-0.347932000">
  <ele>208.600000</ele>
  <time>2012-03-10T07:39:05Z</time>
  <sat>8</sat>
</trkpt>
<trkpt lat="39.673369000" lon="-0.347979000">
  <ele>210.100000</ele>
  <time>2012-03-10T07:39:08Z</time>
  <sat>7</sat>
</trkpt>
<trkpt lat="39.673373000" lon="-0.347996000">
  <ele>210.800000</ele>
  <time>2012-03-10T07:39:09Z</time>
  <sat>6</sat>
</trkpt>
<trkpt lat="39.673378000" lon="-0.348031000">
  <ele>212.000000</ele>
  <time>2012-03-10T07:39:11Z</time>
  <sat>6</sat>
</trkpt>
<trkpt lat="39.673391000" lon="-0.348099000">
  <ele>213.600000</ele>
  <time>2012-03-10T07:39:15Z</time>
  <sat>6</sat>
</trkpt>
<trkpt lat="39.673397000" lon="-0.348115000">
  <ele>214.100000</ele>
  <time>2012-03-10T07:39:16Z</time>
  <sat>5</sat>
</trkpt>
<trkpt lat="39.673418000" lon="-0.348177000">
  <ele>215.800000</ele>
  <time>2012-03-10T07:39:20Z</time>
  <sat>7</sat>
</trkpt>
<trkpt lat="39.673421000" lon="-0.348193000">
  <ele>216.100000</ele>
  <time>2012-03-10T07:39:21Z</time>
  <sat>7</sat>
</trkpt>
<trkpt lat="39.673432000" lon="-0.348230000">
  <ele>217.100000</ele>
  <time>2012-03-10T07:39:24Z</time>
  <sat>8</sat>
</trkpt>
<trkpt lat="39.673439000" lon="-0.348243000">
  <ele>217.300000</ele>
  <time>2012-03-10T07:39:25Z</time>
  <sat>7</sat>
</trkpt>
<trkpt lat="39.673466000" lon="-0.348278000">
  <ele>217.800000</ele>
  <time>2012-03-10T07:39:28Z</time>
  <sat>8</sat>
</trkpt>
<trkpt lat="39.673520000" lon="-0.348341000">
  <ele>219.300000</ele>
  <time>2012-03-10T07:39:34Z</time>
  <sat>5</sat>
</trkpt>
<trkpt lat="39.673529000" lon="-0.348347000">
  <ele>219.800000</ele>
  <time>2012-03-10T07:39:35Z</time>
  <sat>5</sat>
</trkpt>
<trkpt lat="39.673537000" lon="-0.348358000">
  <ele>220.500000</ele>
  <time>2012-03-10T07:39:36Z</time>
  <sat>6</sat>
</trkpt>
<trkpt lat="39.673545000" lon="-0.348368000">
  <ele>220.800000</ele>
  <time>2012-03-10T07:39:37Z</time>
  <sat>6</sat>
</trkpt>
<trkpt lat="39.673554000" lon="-0.348377000">
  <ele>221.300000</ele>
  <time>2012-03-10T07:39:38Z</time>
  <sat>8</sat>
</trkpt>
<trkpt lat="39.673584000" lon="-0.348411000">
  <ele>220.500000</ele>
  <time>2012-03-10T07:39:41Z</time>
  <sat>8</sat>
</trkpt>
<trkpt lat="39.673595000" lon="-0.348417000">
  <ele>220.500000</ele>
  <time>2012-03-10T07:39:42Z</time>
  <sat>8</sat>
</trkpt>
<trkpt lat="39.673622000" lon="-0.348457000">
  <ele>220.300000</ele>
  <time>2012-03-10T07:39:45Z</time>
  <sat>5</sat>
</trkpt>
<trkpt lat="39.673656000" lon="-0.348503000">
  <ele>223.300000</ele>
  <time>2012-03-10T07:39:49Z</time>
  <sat>6</sat>
</trkpt>
<trkpt lat="39.673665000" lon="-0.348510000">
  <ele>223.600000</ele>
  <time>2012-03-10T07:39:50Z</time>
  <sat>6</sat>
</trkpt>
<trkpt lat="39.673685000" lon="-0.348516000">
  <ele>224.100000</ele>
  <time>2012-03-10T07:39:52Z</time>
  <sat>9</sat>
</trkpt>
<trkpt lat="39.673693000" lon="-0.348527000">
  <ele>224.300000</ele>
  <time>2012-03-10T07:39:53Z</time>
  <sat>9</sat>
</trkpt>
<trkpt lat="39.673701000" lon="-0.348545000">
  <ele>224.300000</ele>
  <time>2012-03-10T07:39:54Z</time>
  <sat>9</sat>
</trkpt>
<trkpt lat="39.673718000" lon="-0.348544000">
  <ele>225.500000</ele>
  <time>2012-03-10T07:39:55Z</time>
  <sat>9</sat>
</trkpt>
<trkpt lat="39.673733000" lon="-0.348548000">
  <ele>225.600000</ele>
  <time>2012-03-10T07:39:56Z</time>
  <sat>9</sat>
</trkpt>
<trkpt lat="39.673763000" lon="-0.348565000">
  <ele>226.100000</ele>
  <time>2012-03-10T07:39:58Z</time>
  <sat>9</sat>
</trkpt>
<trkpt lat="39.673774000" lon="-0.348577000">
  <ele>226.600000</ele>
  <time>2012-03-10T07:39:59Z</time>
  <sat>7</sat>
</trkpt>
<trkpt lat="39.673811000" lon="-0.348609000">
  <ele>227.000000</ele>
  <time>2012-03-10T07:40:02Z</time>
  <sat>7</sat>
</trkpt>
<trkpt lat="39.673829000" lon="-0.348612000">
  <ele>226.800000</ele>
  <time>2012-03-10T07:40:03Z</time>
  <sat>7</sat>
</trkpt>
<trkpt lat="39.673839000" lon="-0.348615000">
  <ele>227.000000</ele>
  <time>2012-03-10T07:40:04Z</time>
  <sat>7</sat>
</trkpt>
<trkpt lat="39.673854000" lon="-0.348620000">
  <ele>226.800000</ele>
  <time>2012-03-10T07:40:05Z</time>
  <sat>7</sat>
</trkpt>
<trkpt lat="39.673892000" lon="-0.348640000">
  <ele>227.600000</ele>
  <time>2012-03-10T07:40:08Z</time>
  <sat>7</sat>
</trkpt>
<trkpt lat="39.673906000" lon="-0.348652000">
  <ele>228.100000</ele>
  <time>2012-03-10T07:40:09Z</time>
  <sat>7</sat>
</trkpt>
<trkpt lat="39.673915000" lon="-0.348668000">
  <ele>228.800000</ele>
  <time>2012-03-10T07:40:10Z</time>
  <sat>7</sat>
</trkpt>
<trkpt lat="39.673946000" lon="-0.348705000">
  <ele>228.800000</ele>
  <time>2012-03-10T07:40:13Z</time>
  <sat>7</sat>
</trkpt>
<trkpt lat="39.673964000" lon="-0.348727000">
  <ele>230.300000</ele>
  <time>2012-03-10T07:40:15Z</time>
  <sat>9</sat>
</trkpt>
<trkpt lat="39.673969000" lon="-0.348744000">
  <ele>231.100000</ele>
  <time>2012-03-10T07:40:16Z</time>
  <sat>9</sat>
</trkpt>
<trkpt lat="39.673975000" lon="-0.348757000">
  <ele>232.100000</ele>
  <time>2012-03-10T07:40:17Z</time>
  <sat>9</sat>
</trkpt>
<trkpt lat="39.673965000" lon="-0.348793000">
  <ele>233.800000</ele>
  <time>2012-03-10T07:40:20Z</time>
  <sat>9</sat>
</trkpt>
<trkpt lat="39.673956000" lon="-0.348806000">
  <ele>234.100000</ele>
  <time>2012-03-10T07:40:21Z</time>
  <sat>9</sat>
</trkpt>
<trkpt lat="39.673941000" lon="-0.348821000">
  <ele>234.300000</ele>
  <time>2012-03-10T07:40:22Z</time>
  <sat>8</sat>
</trkpt>
<trkpt lat="39.673929000" lon="-0.348831000">
  <ele>234.600000</ele>
  <time>2012-03-10T07:40:23Z</time>
  <sat>9</sat>
</trkpt>
<trkpt lat="39.673905000" lon="-0.348842000">
  <ele>235.500000</ele>
  <time>2012-03-10T07:40:25Z</time>
  <sat>9</sat>
</trkpt>
<trkpt lat="39.673902000" lon="-0.348834000">
  <ele>234.300000</ele>
  <time>2012-03-10T07:40:26Z</time>
  <sat>9</sat>
</trkpt>
<trkpt lat="39.673888000" lon="-0.348824000">
  <ele>234.300000</ele>
  <time>2012-03-10T07:40:27Z</time>
  <sat>9</sat>
</trkpt>
<trkpt lat="39.673803000" lon="-0.348759000">
  <ele>234.100000</ele>
  <time>2012-03-10T07:40:32Z</time>
  <sat>9</sat>
</trkpt>
<trkpt lat="39.673733000" lon="-0.348716000">
  <ele>233.800000</ele>
  <time>2012-03-10T07:40:36Z</time>
  <sat>9</sat>
</trkpt>
<trkpt lat="39.673665000" lon="-0.348682000">
  <ele>233.800000</ele>
  <time>2012-03-10T07:40:40Z</time>
  <sat>9</sat>
</trkpt>
<trkpt lat="39.673648000" lon="-0.348677000">
  <ele>233.800000</ele>
  <time>2012-03-10T07:40:41Z</time>
  <sat>9</sat>
</trkpt>
<trkpt lat="39.673614000" lon="-0.348683000">
  <ele>233.800000</ele>
  <time>2012-03-10T07:40:43Z</time>
  <sat>9</sat>
</trkpt>
<trkpt lat="39.673600000" lon="-0.348682000">
  <ele>233.300000</ele>
  <time>2012-03-10T07:40:44Z</time>
  <sat>9</sat>
</trkpt>
<trkpt lat="39.673587000" lon="-0.348686000">
  <ele>233.100000</ele>
  <time>2012-03-10T07:40:45Z</time>
  <sat>9</sat>
</trkpt>
<trkpt lat="39.673571000" lon="-0.348681000">
  <ele>233.100000</ele>
  <time>2012-03-10T07:40:46Z</time>
  <sat>9</sat>
</trkpt>
<trkpt lat="39.673558000" lon="-0.348678000">
  <ele>233.600000</ele>
  <time>2012-03-10T07:40:47Z</time>
  <sat>6</sat>
</trkpt>
<trkpt lat="39.673432000" lon="-0.348659000">
  <ele>235.100000</ele>
  <time>2012-03-10T07:40:55Z</time>
  <sat>8</sat>
</trkpt>
<trkpt lat="39.673417000" lon="-0.348660000">
  <ele>235.600000</ele>
  <time>2012-03-10T07:40:56Z</time>
  <sat>8</sat>
</trkpt>
<trkpt lat="39.673385000" lon="-0.348665000">
  <ele>235.800000</ele>
  <time>2012-03-10T07:40:58Z</time>
  <sat>8</sat>
</trkpt>
<trkpt lat="39.673370000" lon="-0.348666000">
  <ele>235.800000</ele>
  <time>2012-03-10T07:40:59Z</time>
  <sat>8</sat>
</trkpt>
<trkpt lat="39.673342000" lon="-0.348669000">
  <ele>236.300000</ele>
  <time>2012-03-10T07:41:01Z</time>
  <sat>8</sat>
</trkpt>
<trkpt lat="39.673310000" lon="-0.348677000">
  <ele>236.500000</ele>
  <time>2012-03-10T07:41:03Z</time>
  <sat>8</sat>
</trkpt>
<trkpt lat="39.673295000" lon="-0.348686000">
  <ele>236.600000</ele>
  <time>2012-03-10T07:41:04Z</time>
  <sat>8</sat>
</trkpt>
<trkpt lat="39.673279000" lon="-0.348700000">
  <ele>237.000000</ele>
  <time>2012-03-10T07:41:05Z</time>
  <sat>8</sat>
</trkpt>
<trkpt lat="39.673266000" lon="-0.348716000">
  <ele>237.500000</ele>
  <time>2012-03-10T07:41:06Z</time>
  <sat>8</sat>
</trkpt>
<trkpt lat="39.673255000" lon="-0.348732000">
  <ele>237.800000</ele>
  <time>2012-03-10T07:41:07Z</time>
  <sat>8</sat>
</trkpt>
<trkpt lat="39.673242000" lon="-0.348764000">
  <ele>238.300000</ele>
  <time>2012-03-10T07:41:09Z</time>
  <sat>8</sat>
</trkpt>
<trkpt lat="39.673214000" lon="-0.348829000">
  <ele>239.000000</ele>
  <time>2012-03-10T07:41:13Z</time>
  <sat>9</sat>
</trkpt>
<trkpt lat="39.673213000" lon="-0.348847000">
  <ele>238.300000</ele>
  <time>2012-03-10T07:41:14Z</time>
  <sat>9</sat>
</trkpt>
<trkpt lat="39.673213000" lon="-0.348867000">
  <ele>238.600000</ele>
  <time>2012-03-10T07:41:15Z</time>
  <sat>9</sat>
</trkpt>
<trkpt lat="39.673209000" lon="-0.348928000">
  <ele>239.800000</ele>
  <time>2012-03-10T07:41:18Z</time>
  <sat>9</sat>
</trkpt>
<trkpt lat="39.673207000" lon="-0.348947000">
  <ele>240.100000</ele>
  <time>2012-03-10T07:41:19Z</time>
  <sat>9</sat>
</trkpt>
<trkpt lat="39.673203000" lon="-0.348987000">
  <ele>240.300000</ele>
  <time>2012-03-10T07:41:21Z</time>
  <sat>9</sat>
</trkpt>
<trkpt lat="39.673189000" lon="-0.349104000">
  <ele>241.800000</ele>
  <time>2012-03-10T07:41:27Z</time>
  <sat>9</sat>
</trkpt>
<trkpt lat="39.673181000" lon="-0.349145000">
  <ele>242.100000</ele>
  <time>2012-03-10T07:41:29Z</time>
  <sat>9</sat>
</trkpt>
<trkpt lat="39.673172000" lon="-0.349202000">
  <ele>242.600000</ele>
  <time>2012-03-10T07:41:32Z</time>
  <sat>7</sat>
</trkpt>
<trkpt lat="39.673172000" lon="-0.349224000">
  <ele>242.600000</ele>
  <time>2012-03-10T07:41:33Z</time>
  <sat>8</sat>
</trkpt>
<trkpt lat="39.673175000" lon="-0.349241000">
  <ele>242.500000</ele>
  <time>2012-03-10T07:41:34Z</time>
  <sat>8</sat>
</trkpt>
<trkpt lat="39.673189000" lon="-0.349282000">
  <ele>242.500000</ele>
  <time>2012-03-10T07:41:36Z</time>
  <sat>9</sat>
</trkpt>
<trkpt lat="39.673211000" lon="-0.349346000">
  <ele>242.600000</ele>
  <time>2012-03-10T07:41:39Z</time>
  <sat>9</sat>
</trkpt>
<trkpt lat="39.673222000" lon="-0.349364000">
  <ele>242.600000</ele>
  <time>2012-03-10T07:41:40Z</time>
  <sat>9</sat>
</trkpt>
<trkpt lat="39.673256000" lon="-0.349424000">
  <ele>243.100000</ele>
  <time>2012-03-10T07:41:43Z</time>
  <sat>7</sat>
</trkpt>
<trkpt lat="39.673266000" lon="-0.349443000">
  <ele>242.800000</ele>
  <time>2012-03-10T07:41:44Z</time>
  <sat>7</sat>
</trkpt>
<trkpt lat="39.673347000" lon="-0.349549000">
  <ele>242.800000</ele>
  <time>2012-03-10T07:41:50Z</time>
  <sat>9</sat>
</trkpt>
<trkpt lat="39.673364000" lon="-0.349560000">
  <ele>243.100000</ele>
  <time>2012-03-10T07:41:51Z</time>
  <sat>9</sat>
</trkpt>
<trkpt lat="39.673382000" lon="-0.349571000">
  <ele>243.100000</ele>
  <time>2012-03-10T07:41:52Z</time>
  <sat>8</sat>
</trkpt>
<trkpt lat="39.673438000" lon="-0.349597000">
  <ele>243.100000</ele>
  <time>2012-03-10T07:41:55Z</time>
  <sat>8</sat>
</trkpt>
<trkpt lat="39.673457000" lon="-0.349603000">
  <ele>243.100000</ele>
  <time>2012-03-10T07:41:56Z</time>
  <sat>8</sat>
</trkpt>
<trkpt lat="39.673617000" lon="-0.349654000">
  <ele>243.800000</ele>
  <time>2012-03-10T07:42:04Z</time>
  <sat>8</sat>
</trkpt>
<trkpt lat="39.673652000" lon="-0.349666000">
  <ele>243.600000</ele>
  <time>2012-03-10T07:42:06Z</time>
  <sat>8</sat>
</trkpt>
<trkpt lat="39.673670000" lon="-0.349665000">
  <ele>244.100000</ele>
  <time>2012-03-10T07:42:07Z</time>
  <sat>9</sat>
</trkpt>
<trkpt lat="39.673707000" lon="-0.349656000">
  <ele>244.300000</ele>
  <time>2012-03-10T07:42:09Z</time>
  <sat>9</sat>
</trkpt>
<trkpt lat="39.673740000" lon="-0.349657000">
  <ele>244.100000</ele>
  <time>2012-03-10T07:42:11Z</time>
  <sat>8</sat>
</trkpt>
<trkpt lat="39.673751000" lon="-0.349679000">
  <ele>244.300000</ele>
  <time>2012-03-10T07:42:12Z</time>
  <sat>8</sat>
</trkpt>
<trkpt lat="39.673768000" lon="-0.349692000">
  <ele>244.500000</ele>
  <time>2012-03-10T07:42:13Z</time>
  <sat>8</sat>
</trkpt>
<trkpt lat="39.673785000" lon="-0.349700000">
  <ele>244.800000</ele>
  <time>2012-03-10T07:42:14Z</time>
  <sat>8</sat>
</trkpt>
<trkpt lat="39.673863000" lon="-0.349743000">
  <ele>247.000000</ele>
  <time>2012-03-10T07:42:20Z</time>
  <sat>8</sat>
</trkpt>
<trkpt lat="39.673875000" lon="-0.349755000">
  <ele>247.500000</ele>
  <time>2012-03-10T07:42:21Z</time>
  <sat>8</sat>
</trkpt>
<trkpt lat="39.673887000" lon="-0.349764000">
  <ele>247.800000</ele>
  <time>2012-03-10T07:42:22Z</time>
  <sat>8</sat>
</trkpt>
<trkpt lat="39.673902000" lon="-0.349771000">
  <ele>248.300000</ele>
  <time>2012-03-10T07:42:23Z</time>
  <sat>8</sat>
</trkpt>
<trkpt lat="39.673928000" lon="-0.349785000">
  <ele>248.800000</ele>
  <time>2012-03-10T07:42:25Z</time>
  <sat>8</sat>
</trkpt>
<trkpt lat="39.674001000" lon="-0.349825000">
  <ele>250.600000</ele>
  <time>2012-03-10T07:42:30Z</time>
  <sat>9</sat>
</trkpt>
<trkpt lat="39.674212000" lon="-0.349938000">
  <ele>256.000000</ele>
  <time>2012-03-10T07:42:46Z</time>
  <sat>10</sat>
</trkpt>
<trkpt lat="39.674225000" lon="-0.349947000">
  <ele>256.200000</ele>
  <time>2012-03-10T07:42:47Z</time>
  <sat>10</sat>
</trkpt>
<trkpt lat="39.674261000" lon="-0.349974000">
  <ele>257.300000</ele>
  <time>2012-03-10T07:42:50Z</time>
  <sat>10</sat>
</trkpt>
<trkpt lat="39.674282000" lon="-0.349990000">
  <ele>257.700000</ele>
  <time>2012-03-10T07:42:52Z</time>
  <sat>9</sat>
</trkpt>
<trkpt lat="39.674334000" lon="-0.350019000">
  <ele>258.800000</ele>
  <time>2012-03-10T07:42:56Z</time>
  <sat>10</sat>
</trkpt>
<trkpt lat="39.674372000" lon="-0.350034000">
  <ele>259.300000</ele>
  <time>2012-03-10T07:42:59Z</time>
  <sat>10</sat>
</trkpt>
<trkpt lat="39.674388000" lon="-0.350043000">
  <ele>259.800000</ele>
  <time>2012-03-10T07:43:00Z</time>
  <sat>9</sat>
</trkpt>
<trkpt lat="39.674437000" lon="-0.350071000">
  <ele>261.800000</ele>
  <time>2012-03-10T07:43:04Z</time>
  <sat>9</sat>
</trkpt>
<trkpt lat="39.674454000" lon="-0.350074000">
  <ele>262.000000</ele>
  <time>2012-03-10T07:43:05Z</time>
  <sat>9</sat>
</trkpt>
<trkpt lat="39.674469000" lon="-0.350079000">
  <ele>262.000000</ele>
  <time>2012-03-10T07:43:06Z</time>
  <sat>9</sat>
</trkpt>
<trkpt lat="39.674496000" lon="-0.350084000">
  <ele>262.500000</ele>
  <time>2012-03-10T07:43:08Z</time>
  <sat>9</sat>
</trkpt>
<trkpt lat="39.674509000" lon="-0.350093000">
  <ele>262.700000</ele>
  <time>2012-03-10T07:43:09Z</time>
  <sat>9</sat>
</trkpt>
<trkpt lat="39.674531000" lon="-0.350116000">
  <ele>263.200000</ele>
  <time>2012-03-10T07:43:11Z</time>
  <sat>10</sat>
</trkpt>
<trkpt lat="39.674542000" lon="-0.350125000">
  <ele>263.700000</ele>
  <time>2012-03-10T07:43:12Z</time>
  <sat>10</sat>
</trkpt>
<trkpt lat="39.674552000" lon="-0.350131000">
  <ele>264.000000</ele>
  <time>2012-03-10T07:43:13Z</time>
  <sat>10</sat>
</trkpt>
<trkpt lat="39.674589000" lon="-0.350149000">
  <ele>264.800000</ele>
  <time>2012-03-10T07:43:16Z</time>
  <sat>10</sat>
</trkpt>
<trkpt lat="39.674625000" lon="-0.350168000">
  <ele>265.500000</ele>
  <time>2012-03-10T07:43:19Z</time>
  <sat>9</sat>
</trkpt>
<trkpt lat="39.674636000" lon="-0.350177000">
  <ele>265.700000</ele>
  <time>2012-03-10T07:43:20Z</time>
  <sat>9</sat>
</trkpt>
<trkpt lat="39.674657000" lon="-0.350191000">
  <ele>266.300000</ele>
  <time>2012-03-10T07:43:22Z</time>
  <sat>9</sat>
</trkpt>
<trkpt lat="39.674679000" lon="-0.350201000">
  <ele>266.700000</ele>
  <time>2012-03-10T07:43:24Z</time>
  <sat>9</sat>
</trkpt>
<trkpt lat="39.674692000" lon="-0.350205000">
  <ele>266.700000</ele>
  <time>2012-03-10T07:43:25Z</time>
  <sat>9</sat>
</trkpt>
<trkpt lat="39.674740000" lon="-0.350220000">
  <ele>267.600000</ele>
  <time>2012-03-10T07:43:29Z</time>
  <sat>9</sat>
</trkpt>
<trkpt lat="39.674763000" lon="-0.350238000">
  <ele>268.000000</ele>
  <time>2012-03-10T07:43:31Z</time>
  <sat>9</sat>
</trkpt>
<trkpt lat="39.674775000" lon="-0.350247000">
  <ele>268.200000</ele>
  <time>2012-03-10T07:43:32Z</time>
  <sat>9</sat>
</trkpt>
<trkpt lat="39.674851000" lon="-0.350290000">
  <ele>271.000000</ele>
  <time>2012-03-10T07:43:38Z</time>
  <sat>9</sat>
</trkpt>
<trkpt lat="39.674872000" lon="-0.350304000">
  <ele>271.800000</ele>
  <time>2012-03-10T07:43:40Z</time>
  <sat>9</sat>
</trkpt>
<trkpt lat="39.674884000" lon="-0.350314000">
  <ele>272.300000</ele>
  <time>2012-03-10T07:43:41Z</time>
  <sat>9</sat>
</trkpt>
<trkpt lat="39.674905000" lon="-0.350327000">
  <ele>272.800000</ele>
  <time>2012-03-10T07:43:43Z</time>
  <sat>9</sat>
</trkpt>
<trkpt lat="39.674917000" lon="-0.350327000">
  <ele>273.200000</ele>
  <time>2012-03-10T07:43:44Z</time>
  <sat>9</sat>
</trkpt>
<trkpt lat="39.674953000" lon="-0.350335000">
  <ele>273.500000</ele>
  <time>2012-03-10T07:43:47Z</time>
  <sat>9</sat>
</trkpt>
<trkpt lat="39.674966000" lon="-0.350339000">
  <ele>273.200000</ele>
  <time>2012-03-10T07:43:48Z</time>
  <sat>9</sat>
</trkpt>
<trkpt lat="39.674977000" lon="-0.350346000">
  <ele>273.500000</ele>
  <time>2012-03-10T07:43:49Z</time>
  <sat>9</sat>
</trkpt>
<trkpt lat="39.675000000" lon="-0.350352000">
  <ele>274.000000</ele>
  <time>2012-03-10T07:43:51Z</time>
  <sat>9</sat>
</trkpt>
<trkpt lat="39.675012000" lon="-0.350357000">
  <ele>274.100000</ele>
  <time>2012-03-10T07:43:52Z</time>
  <sat>9</sat>
</trkpt>
<trkpt lat="39.675035000" lon="-0.350371000">
  <ele>274.500000</ele>
  <time>2012-03-10T07:43:54Z</time>
  <sat>9</sat>
</trkpt>
<trkpt lat="39.675056000" lon="-0.350383000">
  <ele>275.200000</ele>
  <time>2012-03-10T07:43:56Z</time>
  <sat>9</sat>
</trkpt>
<trkpt lat="39.675091000" lon="-0.350401000">
  <ele>276.200000</ele>
  <time>2012-03-10T07:43:59Z</time>
  <sat>9</sat>
</trkpt>
<trkpt lat="39.675103000" lon="-0.350411000">
  <ele>276.800000</ele>
  <time>2012-03-10T07:44:00Z</time>
  <sat>9</sat>
</trkpt>
<trkpt lat="39.675113000" lon="-0.350420000">
  <ele>277.200000</ele>
  <time>2012-03-10T07:44:01Z</time>
  <sat>9</sat>
</trkpt>
<trkpt lat="39.675125000" lon="-0.350423000">
  <ele>277.700000</ele>
  <time>2012-03-10T07:44:02Z</time>
  <sat>9</sat>
</trkpt>
<trkpt lat="39.675175000" lon="-0.350437000">
  <ele>278.200000</ele>
  <time>2012-03-10T07:44:06Z</time>
  <sat>9</sat>
</trkpt>
<trkpt lat="39.675186000" lon="-0.350443000">
  <ele>278.500000</ele>
  <time>2012-03-10T07:44:07Z</time>
  <sat>9</sat>
</trkpt>
<trkpt lat="39.675271000" lon="-0.350485000">
  <ele>279.800000</ele>
  <time>2012-03-10T07:44:14Z</time>
  <sat>9</sat>
</trkpt>
<trkpt lat="39.675286000" lon="-0.350485000">
  <ele>280.000000</ele>
  <time>2012-03-10T07:44:15Z</time>
  <sat>9</sat>
</trkpt>
<trkpt lat="39.675298000" lon="-0.350487000">
  <ele>280.200000</ele>
  <time>2012-03-10T07:44:16Z</time>
  <sat>9</sat>
</trkpt>
<trkpt lat="39.675323000" lon="-0.350495000">
  <ele>280.600000</ele>
  <time>2012-03-10T07:44:18Z</time>
  <sat>9</sat>
</trkpt>
<trkpt lat="39.675330000" lon="-0.350500000">
  <ele>281.000000</ele>
  <time>2012-03-10T07:44:19Z</time>
  <sat>9</sat>
</trkpt>
<trkpt lat="39.675355000" lon="-0.350519000">
  <ele>281.500000</ele>
  <time>2012-03-10T07:44:21Z</time>
  <sat>9</sat>
</trkpt>
<trkpt lat="39.675364000" lon="-0.350529000">
  <ele>281.700000</ele>
  <time>2012-03-10T07:44:22Z</time>
  <sat>9</sat>
</trkpt>
<trkpt lat="39.675373000" lon="-0.350542000">
  <ele>281.700000</ele>
  <time>2012-03-10T07:44:23Z</time>
  <sat>9</sat>
</trkpt>
<trkpt lat="39.675383000" lon="-0.350546000">
  <ele>282.100000</ele>
  <time>2012-03-10T07:44:24Z</time>
  <sat>9</sat>
</trkpt>
<trkpt lat="39.675395000" lon="-0.350548000">
  <ele>282.200000</ele>
  <time>2012-03-10T07:44:25Z</time>
  <sat>9</sat>
</trkpt>
<trkpt lat="39.675409000" lon="-0.350546000">
  <ele>282.200000</ele>
  <time>2012-03-10T07:44:26Z</time>
  <sat>9</sat>
</trkpt>
<trkpt lat="39.675420000" lon="-0.350550000">
  <ele>282.600000</ele>
  <time>2012-03-10T07:44:27Z</time>
  <sat>9</sat>
</trkpt>
<trkpt lat="39.675432000" lon="-0.350558000">
  <ele>282.800000</ele>
  <time>2012-03-10T07:44:28Z</time>
  <sat>9</sat>
</trkpt>
<trkpt lat="39.675440000" lon="-0.350565000">
  <ele>282.800000</ele>
  <time>2012-03-10T07:44:29Z</time>
  <sat>9</sat>
</trkpt>
<trkpt lat="39.675461000" lon="-0.350588000">
  <ele>283.200000</ele>
  <time>2012-03-10T07:44:31Z</time>
  <sat>9</sat>
</trkpt>
<trkpt lat="39.675471000" lon="-0.350594000">
  <ele>283.200000</ele>
  <time>2012-03-10T07:44:32Z</time>
  <sat>9</sat>
</trkpt>
<trkpt lat="39.675521000" lon="-0.350617000">
  <ele>284.200000</ele>
  <time>2012-03-10T07:44:36Z</time>
  <sat>9</sat>
</trkpt>
<trkpt lat="39.675536000" lon="-0.350618000">
  <ele>284.600000</ele>
  <time>2012-03-10T07:44:37Z</time>
  <sat>9</sat>
</trkpt>
<trkpt lat="39.675550000" lon="-0.350621000">
  <ele>284.800000</ele>
  <time>2012-03-10T07:44:38Z</time>
  <sat>9</sat>
</trkpt>
<trkpt lat="39.675561000" lon="-0.350625000">
  <ele>285.000000</ele>
  <time>2012-03-10T07:44:39Z</time>
  <sat>9</sat>
</trkpt>
<trkpt lat="39.675574000" lon="-0.350635000">
  <ele>285.300000</ele>
  <time>2012-03-10T07:44:40Z</time>
  <sat>9</sat>
</trkpt>
<trkpt lat="39.675598000" lon="-0.350653000">
  <ele>286.000000</ele>
  <time>2012-03-10T07:44:42Z</time>
  <sat>9</sat>
</trkpt>
<trkpt lat="39.675612000" lon="-0.350652000">
  <ele>286.300000</ele>
  <time>2012-03-10T07:44:43Z</time>
  <sat>9</sat>
</trkpt>
<trkpt lat="39.675638000" lon="-0.350653000">
  <ele>286.600000</ele>
  <time>2012-03-10T07:44:45Z</time>
  <sat>8</sat>
</trkpt>
<trkpt lat="39.675651000" lon="-0.350658000">
  <ele>286.600000</ele>
  <time>2012-03-10T07:44:46Z</time>
  <sat>8</sat>
</trkpt>
<trkpt lat="39.675660000" lon="-0.350669000">
  <ele>286.800000</ele>
  <time>2012-03-10T07:44:47Z</time>
  <sat>8</sat>
</trkpt>
<trkpt lat="39.675667000" lon="-0.350683000">
  <ele>287.000000</ele>
  <time>2012-03-10T07:44:48Z</time>
  <sat>8</sat>
</trkpt>
<trkpt lat="39.675673000" lon="-0.350699000">
  <ele>287.000000</ele>
  <time>2012-03-10T07:44:49Z</time>
  <sat>8</sat>
</trkpt>
<trkpt lat="39.675673000" lon="-0.350716000">
  <ele>287.000000</ele>
  <time>2012-03-10T07:44:50Z</time>
  <sat>8</sat>
</trkpt>
<trkpt lat="39.675671000" lon="-0.350736000">
  <ele>286.800000</ele>
  <time>2012-03-10T07:44:51Z</time>
  <sat>8</sat>
</trkpt>
<trkpt lat="39.675672000" lon="-0.350753000">
  <ele>287.000000</ele>
  <time>2012-03-10T07:44:52Z</time>
  <sat>8</sat>
</trkpt>
<trkpt lat="39.675676000" lon="-0.350768000">
  <ele>287.100000</ele>
  <time>2012-03-10T07:44:53Z</time>
  <sat>8</sat>
</trkpt>
<trkpt lat="39.675684000" lon="-0.350783000">
  <ele>287.200000</ele>
  <time>2012-03-10T07:44:54Z</time>
  <sat>8</sat>
</trkpt>
<trkpt lat="39.675689000" lon="-0.350799000">
  <ele>287.700000</ele>
  <time>2012-03-10T07:44:55Z</time>
  <sat>7</sat>
</trkpt>
<trkpt lat="39.675715000" lon="-0.350872000">
  <ele>288.700000</ele>
  <time>2012-03-10T07:44:59Z</time>
  <sat>7</sat>
</trkpt>
<trkpt lat="39.675719000" lon="-0.350889000">
  <ele>288.700000</ele>
  <time>2012-03-10T07:45:00Z</time>
  <sat>7</sat>
</trkpt>
<trkpt lat="39.675757000" lon="-0.351014000">
  <ele>290.600000</ele>
  <time>2012-03-10T07:45:07Z</time>
  <sat>6</sat>
</trkpt>
<trkpt lat="39.675772000" lon="-0.351064000">
  <ele>291.600000</ele>
  <time>2012-03-10T07:45:10Z</time>
  <sat>6</sat>
</trkpt>
<trkpt lat="39.675774000" lon="-0.351081000">
  <ele>291.800000</ele>
  <time>2012-03-10T07:45:11Z</time>
  <sat>6</sat>
</trkpt>
<trkpt lat="39.675775000" lon="-0.351099000">
  <ele>292.100000</ele>
  <time>2012-03-10T07:45:12Z</time>
  <sat>6</sat>
</trkpt>
<trkpt lat="39.675782000" lon="-0.351158000">
  <ele>293.700000</ele>
  <time>2012-03-10T07:45:15Z</time>
  <sat>6</sat>
</trkpt>
<trkpt lat="39.675787000" lon="-0.351177000">
  <ele>294.000000</ele>
  <time>2012-03-10T07:45:16Z</time>
  <sat>6</sat>
</trkpt>
<trkpt lat="39.675797000" lon="-0.351211000">
  <ele>294.600000</ele>
  <time>2012-03-10T07:45:18Z</time>
  <sat>6</sat>
</trkpt>
<trkpt lat="39.675801000" lon="-0.351225000">
  <ele>294.700000</ele>
  <time>2012-03-10T07:45:19Z</time>
  <sat>7</sat>
</trkpt>
<trkpt lat="39.675807000" lon="-0.351261000">
  <ele>294.700000</ele>
  <time>2012-03-10T07:45:21Z</time>
  <sat>7</sat>
</trkpt>
<trkpt lat="39.675818000" lon="-0.351302000">
  <ele>295.600000</ele>
  <time>2012-03-10T07:45:23Z</time>
  <sat>7</sat>
</trkpt>
<trkpt lat="39.675842000" lon="-0.351385000">
  <ele>296.000000</ele>
  <time>2012-03-10T07:45:28Z</time>
  <sat>8</sat>
</trkpt>
<trkpt lat="39.675845000" lon="-0.351404000">
  <ele>296.200000</ele>
  <time>2012-03-10T07:45:29Z</time>
  <sat>8</sat>
</trkpt>
<trkpt lat="39.675852000" lon="-0.351440000">
  <ele>296.100000</ele>
  <time>2012-03-10T07:45:31Z</time>
  <sat>8</sat>
</trkpt>
<trkpt lat="39.675861000" lon="-0.351451000">
  <ele>296.000000</ele>
  <time>2012-03-10T07:45:32Z</time>
  <sat>8</sat>
</trkpt>
<trkpt lat="39.675873000" lon="-0.351458000">
  <ele>296.100000</ele>
  <time>2012-03-10T07:45:33Z</time>
  <sat>8</sat>
</trkpt>
<trkpt lat="39.675884000" lon="-0.351458000">
  <ele>296.300000</ele>
  <time>2012-03-10T07:45:34Z</time>
  <sat>7</sat>
</trkpt>
<trkpt lat="39.675895000" lon="-0.351433000">
  <ele>296.600000</ele>
  <time>2012-03-10T07:45:36Z</time>
  <sat>7</sat>
</trkpt>
<trkpt lat="39.675894000" lon="-0.351415000">
  <ele>296.500000</ele>
  <time>2012-03-10T07:45:37Z</time>
  <sat>7</sat>
</trkpt>
<trkpt lat="39.675885000" lon="-0.351335000">
  <ele>296.200000</ele>
  <time>2012-03-10T07:45:39Z</time>
  <sat>8</sat>
</trkpt>
<trkpt lat="39.675832000" lon="-0.350913000">
  <ele>293.200000</ele>
  <time>2012-03-10T07:45:48Z</time>
  <sat>7</sat>
</trkpt>
<trkpt lat="39.675817000" lon="-0.350863000">
  <ele>293.200000</ele>
  <time>2012-03-10T07:45:49Z</time>
  <sat>7</sat>
</trkpt>
<trkpt lat="39.675803000" lon="-0.350814000">
  <ele>293.100000</ele>
  <time>2012-03-10T07:45:50Z</time>
  <sat>7</sat>
</trkpt>
<trkpt lat="39.675770000" lon="-0.350620000">
  <ele>293.000000</ele>
  <time>2012-03-10T07:45:54Z</time>
  <sat>7</sat>
</trkpt>
<trkpt lat="39.675772000" lon="-0.350573000">
  <ele>292.800000</ele>
  <time>2012-03-10T07:45:55Z</time>
  <sat>7</sat>
</trkpt>
<trkpt lat="39.675779000" lon="-0.350526000">
  <ele>292.700000</ele>
  <time>2012-03-10T07:45:56Z</time>
  <sat>7</sat>
</trkpt>
<trkpt lat="39.675803000" lon="-0.350395000">
  <ele>292.300000</ele>
  <time>2012-03-10T07:46:00Z</time>
  <sat>8</sat>
</trkpt>
<trkpt lat="39.675801000" lon="-0.350377000">
  <ele>292.700000</ele>
  <time>2012-03-10T07:46:01Z</time>
  <sat>8</sat>
</trkpt>
<trkpt lat="39.675801000" lon="-0.350378000">
  <ele>292.700000</ele>
  <time>2012-03-10T07:46:02Z</time>
  <sat>8</sat>
</trkpt>
<trkpt lat="39.675800000" lon="-0.350384000">
  <ele>292.700000</ele>
  <time>2012-03-10T07:46:03Z</time>
  <sat>8</sat>
</trkpt>
<trkpt lat="39.675800000" lon="-0.350389000">
  <ele>292.700000</ele>
  <time>2012-03-10T07:46:04Z</time>
  <sat>7</sat>
</trkpt>
<trkpt lat="39.675800000" lon="-0.350389000">
  <ele>292.700000</ele>
  <time>2012-03-10T07:46:05Z</time>
  <sat>7</sat>
</trkpt>
<trkpt lat="39.675800000" lon="-0.350382000">
  <ele>292.700000</ele>
  <time>2012-03-10T07:46:06Z</time>
  <sat>7</sat>
</trkpt>
<trkpt lat="39.675799000" lon="-0.350383000">
  <ele>292.700000</ele>
  <time>2012-03-10T07:46:07Z</time>
  <sat>7</sat>
</trkpt>
<trkpt lat="39.675798000" lon="-0.350385000">
  <ele>292.700000</ele>
  <time>2012-03-10T07:46:08Z</time>
  <sat>7</sat>
</trkpt>
<trkpt lat="39.675798000" lon="-0.350387000">
  <ele>292.700000</ele>
  <time>2012-03-10T07:46:09Z</time>
  <sat>7</sat>
</trkpt>
<trkpt lat="39.675797000" lon="-0.350388000">
  <ele>292.700000</ele>
  <time>2012-03-10T07:46:10Z</time>
  <sat>7</sat>
</trkpt>
<trkpt lat="39.675798000" lon="-0.350387000">
  <ele>292.600000</ele>
  <time>2012-03-10T07:46:11Z</time>
  <sat>7</sat>
</trkpt>
<trkpt lat="39.675798000" lon="-0.350389000">
  <ele>292.500000</ele>
  <time>2012-03-10T07:46:12Z</time>
  <sat>7</sat>
</trkpt>
<trkpt lat="39.675798000" lon="-0.350387000">
  <ele>292.200000</ele>
  <time>2012-03-10T07:46:13Z</time>
  <sat>7</sat>
</trkpt>
<trkpt lat="39.675799000" lon="-0.350388000">
  <ele>292.100000</ele>
  <time>2012-03-10T07:46:14Z</time>
  <sat>7</sat>
</trkpt>
<trkpt lat="39.675799000" lon="-0.350389000">
  <ele>292.000000</ele>
  <time>2012-03-10T07:46:15Z</time>
  <sat>7</sat>
</trkpt>
<trkpt lat="39.675800000" lon="-0.350389000">
  <ele>291.800000</ele>
  <time>2012-03-10T07:46:16Z</time>
  <sat>7</sat>
</trkpt>
<trkpt lat="39.675799000" lon="-0.350389000">
  <ele>291.000000</ele>
  <time>2012-03-10T07:46:19Z</time>
  <sat>4</sat>
</trkpt>
<trkpt lat="39.675799000" lon="-0.350389000">
  <ele>291.800000</ele>
  <time>2012-03-10T07:46:21Z</time>
  <sat>5</sat>
</trkpt>
<trkpt lat="39.675803000" lon="-0.350400000">
  <ele>291.200000</ele>
  <time>2012-03-10T07:46:26Z</time>
  <sat>6</sat>
</trkpt>
<trkpt lat="39.675809000" lon="-0.350415000">
  <ele>290.200000</ele>
  <time>2012-03-10T07:46:27Z</time>
  <sat>8</sat>
</trkpt>
<trkpt lat="39.675807000" lon="-0.350412000">
  <ele>290.600000</ele>
  <time>2012-03-10T07:46:28Z</time>
  <sat>8</sat>
</trkpt>
<trkpt lat="39.675805000" lon="-0.350417000">
  <ele>291.100000</ele>
  <time>2012-03-10T07:46:29Z</time>
  <sat>8</sat>
</trkpt>
<trkpt lat="39.675804000" lon="-0.350420000">
  <ele>290.500000</ele>
  <time>2012-03-10T07:46:30Z</time>
  <sat>8</sat>
</trkpt>
<trkpt lat="39.675805000" lon="-0.350425000">
  <ele>290.300000</ele>
  <time>2012-03-10T07:46:31Z</time>
  <sat>8</sat>
</trkpt>
<trkpt lat="39.675805000" lon="-0.350424000">
  <ele>290.300000</ele>
  <time>2012-03-10T07:46:32Z</time>
  <sat>8</sat>
</trkpt>
<trkpt lat="39.675805000" lon="-0.350421000">
  <ele>290.300000</ele>
  <time>2012-03-10T07:46:33Z</time>
  <sat>8</sat>
</trkpt>
<trkpt lat="39.675805000" lon="-0.350421000">
  <ele>290.300000</ele>
  <time>2012-03-10T07:46:34Z</time>
  <sat>7</sat>
</trkpt>
<trkpt lat="39.675806000" lon="-0.350439000">
  <ele>290.000000</ele>
  <time>2012-03-10T07:46:35Z</time>
  <sat>7</sat>
</trkpt>
<trkpt lat="39.675807000" lon="-0.350464000">
  <ele>289.700000</ele>
  <time>2012-03-10T07:46:36Z</time>
  <sat>7</sat>
</trkpt>
<trkpt lat="39.675803000" lon="-0.350490000">
  <ele>289.000000</ele>
  <time>2012-03-10T07:46:37Z</time>
  <sat>7</sat>
</trkpt>
<trkpt lat="39.675788000" lon="-0.350596000">
  <ele>289.700000</ele>
  <time>2012-03-10T07:46:41Z</time>
  <sat>8</sat>
</trkpt>
<trkpt lat="39.675787000" lon="-0.350621000">
  <ele>290.200000</ele>
  <time>2012-03-10T07:46:42Z</time>
  <sat>8</sat>
</trkpt>
<trkpt lat="39.675792000" lon="-0.350664000">
  <ele>290.700000</ele>
  <time>2012-03-10T07:46:44Z</time>
  <sat>8</sat>
</trkpt>
<trkpt lat="39.675793000" lon="-0.350716000">
  <ele>289.800000</ele>
  <time>2012-03-10T07:46:46Z</time>
  <sat>7</sat>
</trkpt>
<trkpt lat="39.675799000" lon="-0.350740000">
  <ele>289.200000</ele>
  <time>2012-03-10T07:46:47Z</time>
  <sat>7</sat>
</trkpt>
<trkpt lat="39.675838000" lon="-0.350872000">
  <ele>287.800000</ele>
  <time>2012-03-10T07:46:53Z</time>
  <sat>7</sat>
</trkpt>
<trkpt lat="39.675848000" lon="-0.350894000">
  <ele>287.700000</ele>
  <time>2012-03-10T07:46:54Z</time>
  <sat>7</sat>
</trkpt>
<trkpt lat="39.675870000" lon="-0.350984000">
  <ele>287.200000</ele>
  <time>2012-03-10T07:46:58Z</time>
  <sat>7</sat>
</trkpt>
<trkpt lat="39.675891000" lon="-0.351164000">
  <ele>287.600000</ele>
  <time>2012-03-10T07:47:06Z</time>
  <sat>7</sat>
</trkpt>
<trkpt lat="39.675911000" lon="-0.351297000">
  <ele>290.200000</ele>
  <time>2012-03-10T07:47:11Z</time>
  <sat>7</sat>
</trkpt>
<trkpt lat="39.675919000" lon="-0.351393000">
  <ele>291.700000</ele>
  <time>2012-03-10T07:47:15Z</time>
  <sat>7</sat>
</trkpt>
<trkpt lat="39.675900000" lon="-0.351419000">
  <ele>291.200000</ele>
  <time>2012-03-10T07:47:16Z</time>
  <sat>8</sat>
</trkpt>
<trkpt lat="39.675865000" lon="-0.351416000">
  <ele>291.700000</ele>
  <time>2012-03-10T07:47:18Z</time>
  <sat>8</sat>
</trkpt>
<trkpt lat="39.675846000" lon="-0.351414000">
  <ele>291.700000</ele>
  <time>2012-03-10T07:47:19Z</time>
  <sat>8</sat>
</trkpt>
<trkpt lat="39.675830000" lon="-0.351375000">
  <ele>291.500000</ele>
  <time>2012-03-10T07:47:20Z</time>
  <sat>8</sat>
</trkpt>
<trkpt lat="39.675811000" lon="-0.351323000">
  <ele>291.200000</ele>
  <time>2012-03-10T07:47:21Z</time>
  <sat>8</sat>
</trkpt>
<trkpt lat="39.675786000" lon="-0.351271000">
  <ele>290.800000</ele>
  <time>2012-03-10T07:47:22Z</time>
  <sat>8</sat>
</trkpt>
<trkpt lat="39.675763000" lon="-0.351177000">
  <ele>288.700000</ele>
  <time>2012-03-10T07:47:23Z</time>
  <sat>8</sat>
</trkpt>
<trkpt lat="39.675746000" lon="-0.351085000">
  <ele>287.600000</ele>
  <time>2012-03-10T07:47:24Z</time>
  <sat>8</sat>
</trkpt>
<trkpt lat="39.675724000" lon="-0.350977000">
  <ele>286.200000</ele>
  <time>2012-03-10T07:47:25Z</time>
  <sat>8</sat>
</trkpt>
<trkpt lat="39.675707000" lon="-0.350672000">
  <ele>284.500000</ele>
  <time>2012-03-10T07:47:27Z</time>
  <sat>9</sat>
</trkpt>
<trkpt lat="39.675711000" lon="-0.350546000">
  <ele>283.700000</ele>
  <time>2012-03-10T07:47:28Z</time>
  <sat>9</sat>
</trkpt>
<trkpt lat="39.675723000" lon="-0.350437000">
  <ele>283.700000</ele>
  <time>2012-03-10T07:47:29Z</time>
  <sat>9</sat>
</trkpt>
<trkpt lat="39.675742000" lon="-0.350332000">
  <ele>283.700000</ele>
  <time>2012-03-10T07:47:30Z</time>
  <sat>9</sat>
</trkpt>
<trkpt lat="39.675874000" lon="-0.349657000">
  <ele>284.600000</ele>
  <time>2012-03-10T07:47:37Z</time>
  <sat>8</sat>
</trkpt>
<trkpt lat="39.675877000" lon="-0.349593000">
  <ele>285.200000</ele>
  <time>2012-03-10T07:47:38Z</time>
  <sat>8</sat>
</trkpt>
<trkpt lat="39.675866000" lon="-0.349268000">
  <ele>285.500000</ele>
  <time>2012-03-10T07:47:49Z</time>
  <sat>7</sat>
</trkpt>
<trkpt lat="39.675860000" lon="-0.349248000">
  <ele>286.200000</ele>
  <time>2012-03-10T07:47:50Z</time>
  <sat>8</sat>
</trkpt>
<trkpt lat="39.675838000" lon="-0.349177000">
  <ele>289.000000</ele>
  <time>2012-03-10T07:47:53Z</time>
  <sat>8</sat>
</trkpt>
<trkpt lat="39.675839000" lon="-0.349149000">
  <ele>289.500000</ele>
  <time>2012-03-10T07:47:54Z</time>
  <sat>8</sat>
</trkpt>
<trkpt lat="39.675835000" lon="-0.349122000">
  <ele>290.100000</ele>
  <time>2012-03-10T07:47:55Z</time>
  <sat>8</sat>
</trkpt>
<trkpt lat="39.675838000" lon="-0.349102000">
  <ele>290.800000</ele>
  <time>2012-03-10T07:47:56Z</time>
  <sat>8</sat>
</trkpt>
<trkpt lat="39.675833000" lon="-0.349082000">
  <ele>292.100000</ele>
  <time>2012-03-10T07:47:57Z</time>
  <sat>8</sat>
</trkpt>
<trkpt lat="39.675831000" lon="-0.349058000">
  <ele>292.700000</ele>
  <time>2012-03-10T07:47:58Z</time>
  <sat>7</sat>
</trkpt>
<trkpt lat="39.675827000" lon="-0.349036000">
  <ele>293.600000</ele>
  <time>2012-03-10T07:47:59Z</time>
  <sat>7</sat>
</trkpt>
<trkpt lat="39.675812000" lon="-0.348904000">
  <ele>295.700000</ele>
  <time>2012-03-10T07:48:05Z</time>
  <sat>7</sat>
</trkpt>
<trkpt lat="39.675826000" lon="-0.348852000">
  <ele>296.300000</ele>
  <time>2012-03-10T07:48:08Z</time>
  <sat>7</sat>
</trkpt>
<trkpt lat="39.675839000" lon="-0.348816000">
  <ele>296.500000</ele>
  <time>2012-03-10T07:48:11Z</time>
  <sat>7</sat>
</trkpt>
<trkpt lat="39.675840000" lon="-0.348763000">
  <ele>296.700000</ele>
  <time>2012-03-10T07:48:14Z</time>
  <sat>8</sat>
</trkpt>
<trkpt lat="39.675828000" lon="-0.348742000">
  <ele>297.100000</ele>
  <time>2012-03-10T07:48:15Z</time>
  <sat>8</sat>
</trkpt>
<trkpt lat="39.675813000" lon="-0.348727000">
  <ele>297.200000</ele>
  <time>2012-03-10T07:48:16Z</time>
  <sat>8</sat>
</trkpt>
<trkpt lat="39.675774000" lon="-0.348693000">
  <ele>297.800000</ele>
  <time>2012-03-10T07:48:19Z</time>
  <sat>8</sat>
</trkpt>
<trkpt lat="39.675765000" lon="-0.348680000">
  <ele>297.700000</ele>
  <time>2012-03-10T07:48:20Z</time>
  <sat>9</sat>
</trkpt>
<trkpt lat="39.675735000" lon="-0.348630000">
  <ele>297.200000</ele>
  <time>2012-03-10T07:48:23Z</time>
  <sat>9</sat>
</trkpt>
<trkpt lat="39.675712000" lon="-0.348558000">
  <ele>296.200000</ele>
  <time>2012-03-10T07:48:49Z</time>
  <sat>9</sat>
</trkpt>
<trkpt lat="39.675694000" lon="-0.348495000">
  <ele>296.600000</ele>
  <time>2012-03-10T07:48:50Z</time>
  <sat>9</sat>
</trkpt>
<trkpt lat="39.675689000" lon="-0.348461000">
  <ele>296.200000</ele>
  <time>2012-03-10T07:48:51Z</time>
  <sat>9</sat>
</trkpt>
<trkpt lat="39.675689000" lon="-0.348383000">
  <ele>295.200000</ele>
  <time>2012-03-10T07:48:53Z</time>
  <sat>7</sat>
</trkpt>
<trkpt lat="39.675696000" lon="-0.348346000">
  <ele>294.700000</ele>
  <time>2012-03-10T07:48:54Z</time>
  <sat>6</sat>
</trkpt>
<trkpt lat="39.675740000" lon="-0.348161000">
  <ele>294.300000</ele>
  <time>2012-03-10T07:49:00Z</time>
  <sat>7</sat>
</trkpt>
<trkpt lat="39.675753000" lon="-0.348147000">
  <ele>294.100000</ele>
  <time>2012-03-10T07:49:01Z</time>
  <sat>8</sat>
</trkpt>
<trkpt lat="39.675774000" lon="-0.348105000">
  <ele>294.200000</ele>
  <time>2012-03-10T07:49:03Z</time>
  <sat>7</sat>
</trkpt>
<trkpt lat="39.675770000" lon="-0.348078000">
  <ele>294.800000</ele>
  <time>2012-03-10T07:49:04Z</time>
  <sat>7</sat>
</trkpt>
<trkpt lat="39.675771000" lon="-0.348054000">
  <ele>295.200000</ele>
  <time>2012-03-10T07:49:05Z</time>
  <sat>7</sat>
</trkpt>
<trkpt lat="39.675778000" lon="-0.348030000">
  <ele>295.600000</ele>
  <time>2012-03-10T07:49:06Z</time>
  <sat>7</sat>
</trkpt>
<trkpt lat="39.675783000" lon="-0.348010000">
  <ele>295.700000</ele>
  <time>2012-03-10T07:49:07Z</time>
  <sat>7</sat>
</trkpt>
<trkpt lat="39.675791000" lon="-0.347995000">
  <ele>295.500000</ele>
  <time>2012-03-10T07:49:08Z</time>
  <sat>7</sat>
</trkpt>
<trkpt lat="39.675853000" lon="-0.347883000">
  <ele>295.100000</ele>
  <time>2012-03-10T07:49:15Z</time>
  <sat>8</sat>
</trkpt>
<trkpt lat="39.675863000" lon="-0.347867000">
  <ele>295.000000</ele>
  <time>2012-03-10T07:49:16Z</time>
  <sat>8</sat>
</trkpt>
<trkpt lat="39.675875000" lon="-0.347849000">
  <ele>295.200000</ele>
  <time>2012-03-10T07:49:17Z</time>
  <sat>8</sat>
</trkpt>
<trkpt lat="39.675893000" lon="-0.347815000">
  <ele>294.000000</ele>
  <time>2012-03-10T07:49:18Z</time>
  <sat>8</sat>
</trkpt>
<trkpt lat="39.675910000" lon="-0.347798000">
  <ele>293.700000</ele>
  <time>2012-03-10T07:49:19Z</time>
  <sat>8</sat>
</trkpt>
<trkpt lat="39.675943000" lon="-0.347767000">
  <ele>292.200000</ele>
  <time>2012-03-10T07:49:21Z</time>
  <sat>8</sat>
</trkpt>
<trkpt lat="39.675970000" lon="-0.347750000">
  <ele>290.700000</ele>
  <time>2012-03-10T07:49:22Z</time>
  <sat>8</sat>
</trkpt>
<trkpt lat="39.676033000" lon="-0.347722000">
  <ele>289.300000</ele>
  <time>2012-03-10T07:49:25Z</time>
  <sat>8</sat>
</trkpt>
<trkpt lat="39.676071000" lon="-0.347700000">
  <ele>287.800000</ele>
  <time>2012-03-10T07:49:27Z</time>
  <sat>8</sat>
</trkpt>
<trkpt lat="39.676081000" lon="-0.347686000">
  <ele>287.700000</ele>
  <time>2012-03-10T07:49:28Z</time>
  <sat>7</sat>
</trkpt>
<trkpt lat="39.676157000" lon="-0.347609000">
  <ele>286.100000</ele>
  <time>2012-03-10T07:49:32Z</time>
  <sat>9</sat>
</trkpt>
<trkpt lat="39.676182000" lon="-0.347595000">
  <ele>286.000000</ele>
  <time>2012-03-10T07:49:33Z</time>
  <sat>9</sat>
</trkpt>
<trkpt lat="39.676202000" lon="-0.347569000">
  <ele>285.500000</ele>
  <time>2012-03-10T07:49:34Z</time>
  <sat>9</sat>
</trkpt>
<trkpt lat="39.676239000" lon="-0.347507000">
  <ele>284.600000</ele>
  <time>2012-03-10T07:49:36Z</time>
  <sat>8</sat>
</trkpt>
<trkpt lat="39.676283000" lon="-0.347410000">
  <ele>284.300000</ele>
  <time>2012-03-10T07:49:39Z</time>
  <sat>8</sat>
</trkpt>
<trkpt lat="39.676298000" lon="-0.347386000">
  <ele>283.800000</ele>
  <time>2012-03-10T07:49:40Z</time>
  <sat>8</sat>
</trkpt>
<trkpt lat="39.676363000" lon="-0.347300000">
  <ele>282.600000</ele>
  <time>2012-03-10T07:49:44Z</time>
  <sat>8</sat>
</trkpt>
<trkpt lat="39.676390000" lon="-0.347259000">
  <ele>280.300000</ele>
  <time>2012-03-10T07:49:47Z</time>
  <sat>9</sat>
</trkpt>
<trkpt lat="39.676403000" lon="-0.347245000">
  <ele>279.500000</ele>
  <time>2012-03-10T07:49:48Z</time>
  <sat>9</sat>
</trkpt>
<trkpt lat="39.676415000" lon="-0.347233000">
  <ele>278.600000</ele>
  <time>2012-03-10T07:49:49Z</time>
  <sat>9</sat>
</trkpt>
<trkpt lat="39.676467000" lon="-0.347177000">
  <ele>277.600000</ele>
  <time>2012-03-10T07:49:52Z</time>
  <sat>9</sat>
</trkpt>
<trkpt lat="39.676484000" lon="-0.347163000">
  <ele>277.500000</ele>
  <time>2012-03-10T07:49:53Z</time>
  <sat>9</sat>
</trkpt>
<trkpt lat="39.676512000" lon="-0.347127000">
  <ele>277.100000</ele>
  <time>2012-03-10T07:49:55Z</time>
  <sat>9</sat>
</trkpt>
<trkpt lat="39.676589000" lon="-0.347028000">
  <ele>275.000000</ele>
  <time>2012-03-10T07:50:00Z</time>
  <sat>9</sat>
</trkpt>
<trkpt lat="39.676610000" lon="-0.347021000">
  <ele>274.300000</ele>
  <time>2012-03-10T07:50:01Z</time>
  <sat>9</sat>
</trkpt>
<trkpt lat="39.676633000" lon="-0.346995000">
  <ele>273.700000</ele>
  <time>2012-03-10T07:50:02Z</time>
  <sat>9</sat>
</trkpt>
<trkpt lat="39.676650000" lon="-0.346968000">
  <ele>273.200000</ele>
  <time>2012-03-10T07:50:03Z</time>
  <sat>9</sat>
</trkpt>
<trkpt lat="39.676662000" lon="-0.346932000">
  <ele>273.000000</ele>
  <time>2012-03-10T07:50:04Z</time>
  <sat>9</sat>
</trkpt>
<trkpt lat="39.676669000" lon="-0.346844000">
  <ele>272.500000</ele>
  <time>2012-03-10T07:50:06Z</time>
  <sat>9</sat>
</trkpt>
<trkpt lat="39.676655000" lon="-0.346781000">
  <ele>272.000000</ele>
  <time>2012-03-10T07:50:07Z</time>
  <sat>8</sat>
</trkpt>
<trkpt lat="39.676649000" lon="-0.346738000">
  <ele>271.200000</ele>
  <time>2012-03-10T07:50:08Z</time>
  <sat>9</sat>
</trkpt>
<trkpt lat="39.676629000" lon="-0.346249000">
  <ele>268.200000</ele>
  <time>2012-03-10T07:50:17Z</time>
  <sat>9</sat>
</trkpt>
<trkpt lat="39.676615000" lon="-0.346106000">
  <ele>267.300000</ele>
  <time>2012-03-10T07:50:21Z</time>
  <sat>9</sat>
</trkpt>
<trkpt lat="39.676625000" lon="-0.346027000">
  <ele>266.700000</ele>
  <time>2012-03-10T07:50:24Z</time>
  <sat>9</sat>
</trkpt>
<trkpt lat="39.676659000" lon="-0.345863000">
  <ele>265.300000</ele>
  <time>2012-03-10T07:50:28Z</time>
  <sat>9</sat>
</trkpt>
<trkpt lat="39.676678000" lon="-0.345837000">
  <ele>264.300000</ele>
  <time>2012-03-10T07:50:29Z</time>
  <sat>9</sat>
</trkpt>
<trkpt lat="39.676697000" lon="-0.345797000">
  <ele>264.500000</ele>
  <time>2012-03-10T07:50:30Z</time>
  <sat>9</sat>
</trkpt>
<trkpt lat="39.676739000" lon="-0.345751000">
  <ele>263.200000</ele>
  <time>2012-03-10T07:50:32Z</time>
  <sat>9</sat>
</trkpt>
<trkpt lat="39.676774000" lon="-0.345693000">
  <ele>261.600000</ele>
  <time>2012-03-10T07:50:35Z</time>
  <sat>9</sat>
</trkpt>
<trkpt lat="39.676773000" lon="-0.345673000">
  <ele>261.000000</ele>
  <time>2012-03-10T07:50:36Z</time>
  <sat>9</sat>
</trkpt>
<trkpt lat="39.676778000" lon="-0.345649000">
  <ele>259.800000</ele>
  <time>2012-03-10T07:50:37Z</time>
  <sat>9</sat>
</trkpt>
<trkpt lat="39.676763000" lon="-0.345589000">
  <ele>260.100000</ele>
  <time>2012-03-10T07:50:38Z</time>
  <sat>8</sat>
</trkpt>
<trkpt lat="39.676762000" lon="-0.345555000">
  <ele>259.600000</ele>
  <time>2012-03-10T07:50:39Z</time>
  <sat>6</sat>
</trkpt>
<trkpt lat="39.676778000" lon="-0.345511000">
  <ele>257.700000</ele>
  <time>2012-03-10T07:50:43Z</time>
  <sat>9</sat>
</trkpt>
<trkpt lat="39.676781000" lon="-0.345527000">
  <ele>258.100000</ele>
  <time>2012-03-10T07:50:44Z</time>
  <sat>9</sat>
</trkpt>
<trkpt lat="39.676782000" lon="-0.345527000">
  <ele>258.100000</ele>
  <time>2012-03-10T07:50:45Z</time>
  <sat>9</sat>
</trkpt>
<trkpt lat="39.676784000" lon="-0.345528000">
  <ele>258.000000</ele>
  <time>2012-03-10T07:50:46Z</time>
  <sat>9</sat>
</trkpt>
<trkpt lat="39.676784000" lon="-0.345527000">
  <ele>257.800000</ele>
  <time>2012-03-10T07:50:47Z</time>
  <sat>9</sat>
</trkpt>
<trkpt lat="39.676784000" lon="-0.345528000">
  <ele>257.800000</ele>
  <time>2012-03-10T07:50:48Z</time>
  <sat>9</sat>
</trkpt>
<trkpt lat="39.676785000" lon="-0.345529000">
  <ele>257.800000</ele>
  <time>2012-03-10T07:50:49Z</time>
  <sat>9</sat>
</trkpt>
<trkpt lat="39.676786000" lon="-0.345531000">
  <ele>257.700000</ele>
  <time>2012-03-10T07:50:50Z</time>
  <sat>9</sat>
</trkpt>
<trkpt lat="39.676785000" lon="-0.345530000">
  <ele>257.700000</ele>
  <time>2012-03-10T07:50:51Z</time>
  <sat>9</sat>
</trkpt>
<trkpt lat="39.676785000" lon="-0.345529000">
  <ele>257.700000</ele>
  <time>2012-03-10T07:50:52Z</time>
  <sat>9</sat>
</trkpt>
<trkpt lat="39.676785000" lon="-0.345529000">
  <ele>257.700000</ele>
  <time>2012-03-10T07:50:53Z</time>
  <sat>9</sat>
</trkpt>
<trkpt lat="39.676783000" lon="-0.345544000">
  <ele>257.700000</ele>
  <time>2012-03-10T07:50:54Z</time>
  <sat>9</sat>
</trkpt>
<trkpt lat="39.676781000" lon="-0.345550000">
  <ele>257.700000</ele>
  <time>2012-03-10T07:50:55Z</time>
  <sat>9</sat>
</trkpt>
<trkpt lat="39.676780000" lon="-0.345551000">
  <ele>257.600000</ele>
  <time>2012-03-10T07:50:56Z</time>
  <sat>9</sat>
</trkpt>
<trkpt lat="39.676780000" lon="-0.345551000">
  <ele>257.300000</ele>
  <time>2012-03-10T07:50:57Z</time>
  <sat>9</sat>
</trkpt>
<trkpt lat="39.676779000" lon="-0.345553000">
  <ele>257.500000</ele>
  <time>2012-03-10T07:50:58Z</time>
  <sat>9</sat>
</trkpt>
<trkpt lat="39.676779000" lon="-0.345550000">
  <ele>257.500000</ele>
  <time>2012-03-10T07:50:59Z</time>
  <sat>9</sat>
</trkpt>
<trkpt lat="39.676779000" lon="-0.345550000">
  <ele>257.500000</ele>
  <time>2012-03-10T07:51:00Z</time>
  <sat>9</sat>
</trkpt>
<trkpt lat="39.676780000" lon="-0.345549000">
  <ele>257.300000</ele>
  <time>2012-03-10T07:51:01Z</time>
  <sat>9</sat>
</trkpt>
<trkpt lat="39.676780000" lon="-0.345548000">
  <ele>257.700000</ele>
  <time>2012-03-10T07:51:02Z</time>
  <sat>9</sat>
</trkpt>
<trkpt lat="39.676779000" lon="-0.345548000">
  <ele>257.500000</ele>
  <time>2012-03-10T07:51:03Z</time>
  <sat>8</sat>
</trkpt>
<trkpt lat="39.676779000" lon="-0.345548000">
  <ele>257.500000</ele>
  <time>2012-03-10T07:51:04Z</time>
  <sat>8</sat>
</trkpt>
<trkpt lat="39.676779000" lon="-0.345544000">
  <ele>257.500000</ele>
  <time>2012-03-10T07:51:05Z</time>
  <sat>8</sat>
</trkpt>
<trkpt lat="39.676781000" lon="-0.345532000">
  <ele>257.300000</ele>
  <time>2012-03-10T07:51:06Z</time>
  <sat>8</sat>
</trkpt>
<trkpt lat="39.676800000" lon="-0.345513000">
  <ele>258.200000</ele>
  <time>2012-03-10T07:51:07Z</time>
  <sat>8</sat>
</trkpt>
<trkpt lat="39.676837000" lon="-0.345494000">
  <ele>258.500000</ele>
  <time>2012-03-10T07:51:09Z</time>
  <sat>9</sat>
</trkpt>
<trkpt lat="39.676849000" lon="-0.345493000">
  <ele>258.000000</ele>
  <time>2012-03-10T07:51:10Z</time>
  <sat>8</sat>
</trkpt>
<trkpt lat="39.676887000" lon="-0.345480000">
  <ele>257.200000</ele>
  <time>2012-03-10T07:51:12Z</time>
  <sat>8</sat>
</trkpt>
<trkpt lat="39.676902000" lon="-0.345466000">
  <ele>256.600000</ele>
  <time>2012-03-10T07:51:13Z</time>
  <sat>8</sat>
</trkpt>
<trkpt lat="39.676930000" lon="-0.345439000">
  <ele>255.000000</ele>
  <time>2012-03-10T07:51:15Z</time>
  <sat>8</sat>
</trkpt>
<trkpt lat="39.676979000" lon="-0.345382000">
  <ele>252.300000</ele>
  <time>2012-03-10T07:51:18Z</time>
  <sat>9</sat>
</trkpt>
<trkpt lat="39.677016000" lon="-0.345334000">
  <ele>250.300000</ele>
  <time>2012-03-10T07:51:20Z</time>
  <sat>9</sat>
</trkpt>
<trkpt lat="39.677037000" lon="-0.345311000">
  <ele>249.800000</ele>
  <time>2012-03-10T07:51:21Z</time>
  <sat>9</sat>
</trkpt>
<trkpt lat="39.677059000" lon="-0.345300000">
  <ele>249.300000</ele>
  <time>2012-03-10T07:51:22Z</time>
  <sat>9</sat>
</trkpt>
<trkpt lat="39.677081000" lon="-0.345301000">
  <ele>249.300000</ele>
  <time>2012-03-10T07:51:23Z</time>
  <sat>9</sat>
</trkpt>
<trkpt lat="39.677116000" lon="-0.345314000">
  <ele>248.800000</ele>
  <time>2012-03-10T07:51:25Z</time>
  <sat>9</sat>
</trkpt>
<trkpt lat="39.677172000" lon="-0.345328000">
  <ele>248.800000</ele>
  <time>2012-03-10T07:51:30Z</time>
  <sat>9</sat>
</trkpt>
<trkpt lat="39.677203000" lon="-0.345359000">
  <ele>248.100000</ele>
  <time>2012-03-10T07:51:33Z</time>
  <sat>9</sat>
</trkpt>
<trkpt lat="39.677243000" lon="-0.345391000">
  <ele>247.100000</ele>
  <time>2012-03-10T07:51:35Z</time>
  <sat>9</sat>
</trkpt>
<trkpt lat="39.677339000" lon="-0.345438000">
  <ele>246.000000</ele>
  <time>2012-03-10T07:51:38Z</time>
  <sat>8</sat>
</trkpt>
<trkpt lat="39.677376000" lon="-0.345448000">
  <ele>245.800000</ele>
  <time>2012-03-10T07:51:39Z</time>
  <sat>9</sat>
</trkpt>
<trkpt lat="39.677411000" lon="-0.345450000">
  <ele>245.000000</ele>
  <time>2012-03-10T07:51:41Z</time>
  <sat>8</sat>
</trkpt>
<trkpt lat="39.677430000" lon="-0.345439000">
  <ele>244.600000</ele>
  <time>2012-03-10T07:51:42Z</time>
  <sat>8</sat>
</trkpt>
<trkpt lat="39.677447000" lon="-0.345423000">
  <ele>244.600000</ele>
  <time>2012-03-10T07:51:43Z</time>
  <sat>8</sat>
</trkpt>
<trkpt lat="39.677458000" lon="-0.345408000">
  <ele>244.600000</ele>
  <time>2012-03-10T07:51:44Z</time>
  <sat>8</sat>
</trkpt>
<trkpt lat="39.677470000" lon="-0.345338000">
  <ele>241.300000</ele>
  <time>2012-03-10T07:51:48Z</time>
  <sat>7</sat>
</trkpt>
<trkpt lat="39.677499000" lon="-0.345199000">
  <ele>237.100000</ele>
  <time>2012-03-10T07:51:53Z</time>
  <sat>9</sat>
</trkpt>
<trkpt lat="39.677521000" lon="-0.345169000">
  <ele>236.600000</ele>
  <time>2012-03-10T07:51:54Z</time>
  <sat>9</sat>
</trkpt>
<trkpt lat="39.677537000" lon="-0.345143000">
  <ele>236.800000</ele>
  <time>2012-03-10T07:51:55Z</time>
  <sat>9</sat>
</trkpt>
<trkpt lat="39.677550000" lon="-0.345125000">
  <ele>237.100000</ele>
  <time>2012-03-10T07:51:56Z</time>
  <sat>9</sat>
</trkpt>
<trkpt lat="39.677570000" lon="-0.345124000">
  <ele>236.300000</ele>
  <time>2012-03-10T07:51:57Z</time>
  <sat>9</sat>
</trkpt>
<trkpt lat="39.677602000" lon="-0.345104000">
  <ele>235.300000</ele>
  <time>2012-03-10T07:51:59Z</time>
  <sat>9</sat>
</trkpt>
<trkpt lat="39.677647000" lon="-0.345039000">
  <ele>235.300000</ele>
  <time>2012-03-10T07:52:03Z</time>
  <sat>8</sat>
</trkpt>
<trkpt lat="39.677643000" lon="-0.345023000">
  <ele>235.100000</ele>
  <time>2012-03-10T07:52:04Z</time>
  <sat>8</sat>
</trkpt>
<trkpt lat="39.677621000" lon="-0.345019000">
  <ele>234.800000</ele>
  <time>2012-03-10T07:52:05Z</time>
  <sat>8</sat>
</trkpt>
<trkpt lat="39.677619000" lon="-0.345010000">
  <ele>234.300000</ele>
  <time>2012-03-10T07:52:06Z</time>
  <sat>8</sat>
</trkpt>
<trkpt lat="39.677621000" lon="-0.345008000">
  <ele>234.300000</ele>
  <time>2012-03-10T07:52:07Z</time>
  <sat>8</sat>
</trkpt>
<trkpt lat="39.677620000" lon="-0.345007000">
  <ele>234.300000</ele>
  <time>2012-03-10T07:52:08Z</time>
  <sat>8</sat>
</trkpt>
<trkpt lat="39.677622000" lon="-0.345000000">
  <ele>234.000000</ele>
  <time>2012-03-10T07:52:14Z</time>
  <sat>6</sat>
</trkpt>
<trkpt lat="39.677628000" lon="-0.344978000">
  <ele>234.100000</ele>
  <time>2012-03-10T07:52:15Z</time>
  <sat>6</sat>
</trkpt>
<trkpt lat="39.677626000" lon="-0.344966000">
  <ele>233.600000</ele>
  <time>2012-03-10T07:52:16Z</time>
  <sat>6</sat>
</trkpt>
<trkpt lat="39.677628000" lon="-0.344959000">
  <ele>233.800000</ele>
  <time>2012-03-10T07:52:17Z</time>
  <sat>6</sat>
</trkpt>
<trkpt lat="39.677631000" lon="-0.344945000">
  <ele>233.600000</ele>
  <time>2012-03-10T07:52:18Z</time>
  <sat>6</sat>
</trkpt>
<trkpt lat="39.677634000" lon="-0.344902000">
  <ele>233.800000</ele>
  <time>2012-03-10T07:52:19Z</time>
  <sat>9</sat>
</trkpt>
<trkpt lat="39.677639000" lon="-0.344869000">
  <ele>234.500000</ele>
  <time>2012-03-10T07:52:20Z</time>
  <sat>9</sat>
</trkpt>
<trkpt lat="39.677639000" lon="-0.344839000">
  <ele>233.600000</ele>
  <time>2012-03-10T07:52:21Z</time>
  <sat>9</sat>
</trkpt>
<trkpt lat="39.677647000" lon="-0.344809000">
  <ele>233.500000</ele>
  <time>2012-03-10T07:52:22Z</time>
  <sat>9</sat>
</trkpt>
<trkpt lat="39.677682000" lon="-0.344802000">
  <ele>233.300000</ele>
  <time>2012-03-10T07:52:24Z</time>
  <sat>9</sat>
</trkpt>
<trkpt lat="39.677728000" lon="-0.344795000">
  <ele>233.800000</ele>
  <time>2012-03-10T07:52:26Z</time>
  <sat>9</sat>
</trkpt>
<trkpt lat="39.677754000" lon="-0.344786000">
  <ele>234.100000</ele>
  <time>2012-03-10T07:52:27Z</time>
  <sat>9</sat>
</trkpt>
<trkpt lat="39.677792000" lon="-0.344758000">
  <ele>234.300000</ele>
  <time>2012-03-10T07:52:29Z</time>
  <sat>7</sat>
</trkpt>
<trkpt lat="39.677794000" lon="-0.344726000">
  <ele>234.300000</ele>
  <time>2012-03-10T07:52:30Z</time>
  <sat>9</sat>
</trkpt>
<trkpt lat="39.677793000" lon="-0.344687000">
  <ele>235.000000</ele>
  <time>2012-03-10T07:52:31Z</time>
  <sat>9</sat>
</trkpt>
<trkpt lat="39.677806000" lon="-0.344653000">
  <ele>235.100000</ele>
  <time>2012-03-10T07:52:32Z</time>
  <sat>9</sat>
</trkpt>
<trkpt lat="39.677800000" lon="-0.344609000">
  <ele>235.100000</ele>
  <time>2012-03-10T07:52:33Z</time>
  <sat>9</sat>
</trkpt>
<trkpt lat="39.677792000" lon="-0.344564000">
  <ele>235.000000</ele>
  <time>2012-03-10T07:52:34Z</time>
  <sat>9</sat>
</trkpt>
<trkpt lat="39.677754000" lon="-0.344365000">
  <ele>232.500000</ele>
  <time>2012-03-10T07:52:38Z</time>
  <sat>9</sat>
</trkpt>
<trkpt lat="39.677740000" lon="-0.344320000">
  <ele>232.000000</ele>
  <time>2012-03-10T07:52:39Z</time>
  <sat>9</sat>
</trkpt>
<trkpt lat="39.677734000" lon="-0.344275000">
  <ele>231.300000</ele>
  <time>2012-03-10T07:52:40Z</time>
  <sat>9</sat>
</trkpt>
<trkpt lat="39.677712000" lon="-0.344141000">
  <ele>229.600000</ele>
  <time>2012-03-10T07:52:43Z</time>
  <sat>9</sat>
</trkpt>
<trkpt lat="39.677702000" lon="-0.344090000">
  <ele>228.800000</ele>
  <time>2012-03-10T07:52:44Z</time>
  <sat>9</sat>
</trkpt>
<trkpt lat="39.677644000" lon="-0.343575000">
  <ele>225.100000</ele>
  <time>2012-03-10T07:52:58Z</time>
  <sat>9</sat>
</trkpt>
<trkpt lat="39.677604000" lon="-0.343216000">
  <ele>222.300000</ele>
  <time>2012-03-10T07:53:04Z</time>
  <sat>9</sat>
</trkpt>
<trkpt lat="39.677592000" lon="-0.343184000">
  <ele>222.500000</ele>
  <time>2012-03-10T07:53:05Z</time>
  <sat>7</sat>
</trkpt>
<trkpt lat="39.677544000" lon="-0.343090000">
  <ele>221.300000</ele>
  <time>2012-03-10T07:53:08Z</time>
  <sat>8</sat>
</trkpt>
<trkpt lat="39.677533000" lon="-0.343010000">
  <ele>220.300000</ele>
  <time>2012-03-10T07:53:10Z</time>
  <sat>9</sat>
</trkpt>
<trkpt lat="39.677553000" lon="-0.342991000">
  <ele>220.000000</ele>
  <time>2012-03-10T07:53:11Z</time>
  <sat>9</sat>
</trkpt>
<trkpt lat="39.677567000" lon="-0.342966000">
  <ele>219.800000</ele>
  <time>2012-03-10T07:53:12Z</time>
  <sat>9</sat>
</trkpt>
<trkpt lat="39.677598000" lon="-0.342936000">
  <ele>220.600000</ele>
  <time>2012-03-10T07:53:14Z</time>
  <sat>9</sat>
</trkpt>
<trkpt lat="39.677616000" lon="-0.342922000">
  <ele>219.800000</ele>
  <time>2012-03-10T07:53:52Z</time>
  <sat>9</sat>
</trkpt>
<trkpt lat="39.677620000" lon="-0.342866000">
  <ele>219.300000</ele>
  <time>2012-03-10T07:53:53Z</time>
  <sat>9</sat>
</trkpt>
<trkpt lat="39.677628000" lon="-0.342825000">
  <ele>218.100000</ele>
  <time>2012-03-10T07:53:55Z</time>
  <sat>9</sat>
</trkpt>
<trkpt lat="39.677619000" lon="-0.342723000">
  <ele>214.100000</ele>
  <time>2012-03-10T07:54:26Z</time>
  <sat>7</sat>
</trkpt>
<trkpt lat="39.677610000" lon="-0.342713000">
  <ele>214.100000</ele>
  <time>2012-03-10T07:54:27Z</time>
  <sat>7</sat>
</trkpt>
<trkpt lat="39.677598000" lon="-0.342704000">
  <ele>214.000000</ele>
  <time>2012-03-10T07:54:28Z</time>
  <sat>7</sat>
</trkpt>
<trkpt lat="39.677584000" lon="-0.342699000">
  <ele>213.600000</ele>
  <time>2012-03-10T07:54:29Z</time>
  <sat>7</sat>
</trkpt>
<trkpt lat="39.677563000" lon="-0.342695000">
  <ele>214.100000</ele>
  <time>2012-03-10T07:54:30Z</time>
  <sat>8</sat>
</trkpt>
<trkpt lat="39.677544000" lon="-0.342695000">
  <ele>213.800000</ele>
  <time>2012-03-10T07:54:31Z</time>
  <sat>8</sat>
</trkpt>
<trkpt lat="39.677522000" lon="-0.342706000">
  <ele>213.300000</ele>
  <time>2012-03-10T07:54:32Z</time>
  <sat>8</sat>
</trkpt>
<trkpt lat="39.677461000" lon="-0.342731000">
  <ele>212.100000</ele>
  <time>2012-03-10T07:54:35Z</time>
  <sat>8</sat>
</trkpt>
<trkpt lat="39.677446000" lon="-0.342729000">
  <ele>211.300000</ele>
  <time>2012-03-10T07:54:36Z</time>
  <sat>8</sat>
</trkpt>
<trkpt lat="39.677426000" lon="-0.342721000">
  <ele>210.800000</ele>
  <time>2012-03-10T07:54:37Z</time>
  <sat>8</sat>
</trkpt>
<trkpt lat="39.677412000" lon="-0.342705000">
  <ele>210.600000</ele>
  <time>2012-03-10T07:54:38Z</time>
  <sat>9</sat>
</trkpt>
<trkpt lat="39.677428000" lon="-0.342662000">
  <ele>210.500000</ele>
  <time>2012-03-10T07:54:39Z</time>
  <sat>9</sat>
</trkpt>
<trkpt lat="39.677432000" lon="-0.342635000">
  <ele>210.100000</ele>
  <time>2012-03-10T07:54:40Z</time>
  <sat>9</sat>
</trkpt>
<trkpt lat="39.677464000" lon="-0.342564000">
  <ele>209.600000</ele>
  <time>2012-03-10T07:54:42Z</time>
  <sat>9</sat>
</trkpt>
<trkpt lat="39.677527000" lon="-0.342410000">
  <ele>206.600000</ele>
  <time>2012-03-10T07:54:46Z</time>
  <sat>9</sat>
</trkpt>
<trkpt lat="39.677532000" lon="-0.342383000">
  <ele>205.600000</ele>
  <time>2012-03-10T07:54:47Z</time>
  <sat>9</sat>
</trkpt>
<trkpt lat="39.677530000" lon="-0.342352000">
  <ele>204.800000</ele>
  <time>2012-03-10T07:54:48Z</time>
  <sat>9</sat>
</trkpt>
<trkpt lat="39.677513000" lon="-0.342329000">
  <ele>204.800000</ele>
  <time>2012-03-10T07:54:49Z</time>
  <sat>8</sat>
</trkpt>
<trkpt lat="39.677464000" lon="-0.342300000">
  <ele>203.600000</ele>
  <time>2012-03-10T07:54:51Z</time>
  <sat>9</sat>
</trkpt>
<trkpt lat="39.677446000" lon="-0.342283000">
  <ele>202.600000</ele>
  <time>2012-03-10T07:54:52Z</time>
  <sat>9</sat>
</trkpt>
<trkpt lat="39.677430000" lon="-0.342262000">
  <ele>201.800000</ele>
  <time>2012-03-10T07:54:53Z</time>
  <sat>9</sat>
</trkpt>
<trkpt lat="39.677418000" lon="-0.342230000">
  <ele>201.600000</ele>
  <time>2012-03-10T07:54:54Z</time>
  <sat>9</sat>
</trkpt>
<trkpt lat="39.677418000" lon="-0.342201000">
  <ele>201.300000</ele>
  <time>2012-03-10T07:54:55Z</time>
  <sat>9</sat>
</trkpt>
<trkpt lat="39.677422000" lon="-0.342130000">
  <ele>200.800000</ele>
  <time>2012-03-10T07:54:57Z</time>
  <sat>9</sat>
</trkpt>
<trkpt lat="39.677430000" lon="-0.342090000">
  <ele>200.100000</ele>
  <time>2012-03-10T07:54:58Z</time>
  <sat>9</sat>
</trkpt>
<trkpt lat="39.677463000" lon="-0.341833000">
  <ele>196.600000</ele>
  <time>2012-03-10T07:55:05Z</time>
  <sat>9</sat>
</trkpt>
<trkpt lat="39.677461000" lon="-0.341847000">
  <ele>196.500000</ele>
  <time>2012-03-10T07:55:06Z</time>
  <sat>9</sat>
</trkpt>
<trkpt lat="39.677460000" lon="-0.341861000">
  <ele>196.600000</ele>
  <time>2012-03-10T07:55:07Z</time>
  <sat>9</sat>
</trkpt>
<trkpt lat="39.677460000" lon="-0.341860000">
  <ele>196.600000</ele>
  <time>2012-03-10T07:55:08Z</time>
  <sat>9</sat>
</trkpt>
<trkpt lat="39.677461000" lon="-0.341864000">
  <ele>196.800000</ele>
  <time>2012-03-10T07:55:09Z</time>
  <sat>9</sat>
</trkpt>
<trkpt lat="39.677462000" lon="-0.341866000">
  <ele>196.800000</ele>
  <time>2012-03-10T07:55:10Z</time>
  <sat>9</sat>
</trkpt>
<trkpt lat="39.677462000" lon="-0.341866000">
  <ele>196.800000</ele>
  <time>2012-03-10T07:55:11Z</time>
  <sat>8</sat>
</trkpt>
<trkpt lat="39.677462000" lon="-0.341866000">
  <ele>196.800000</ele>
  <time>2012-03-10T07:55:12Z</time>
  <sat>7</sat>
</trkpt>
<trkpt lat="39.677464000" lon="-0.341846000">
  <ele>197.000000</ele>
  <time>2012-03-10T07:55:13Z</time>
  <sat>7</sat>
</trkpt>
<trkpt lat="39.677485000" lon="-0.341820000">
  <ele>197.600000</ele>
  <time>2012-03-10T07:55:14Z</time>
  <sat>9</sat>
</trkpt>
<trkpt lat="39.677515000" lon="-0.341758000">
  <ele>197.300000</ele>
  <time>2012-03-10T07:55:16Z</time>
  <sat>9</sat>
</trkpt>
<trkpt lat="39.677521000" lon="-0.341713000">
  <ele>197.500000</ele>
  <time>2012-03-10T07:55:17Z</time>
  <sat>9</sat>
</trkpt>
<trkpt lat="39.677535000" lon="-0.341674000">
  <ele>197.100000</ele>
  <time>2012-03-10T07:55:18Z</time>
  <sat>9</sat>
</trkpt>
<trkpt lat="39.677597000" lon="-0.341526000">
  <ele>195.600000</ele>
  <time>2012-03-10T07:55:22Z</time>
  <sat>9</sat>
</trkpt>
<trkpt lat="39.677739000" lon="-0.341233000">
  <ele>192.000000</ele>
  <time>2012-03-10T07:55:28Z</time>
  <sat>9</sat>
</trkpt>
<trkpt lat="39.677764000" lon="-0.341191000">
  <ele>191.600000</ele>
  <time>2012-03-10T07:55:29Z</time>
  <sat>9</sat>
</trkpt>
<trkpt lat="39.677796000" lon="-0.341163000">
  <ele>191.600000</ele>
  <time>2012-03-10T07:55:30Z</time>
  <sat>9</sat>
</trkpt>
<trkpt lat="39.677916000" lon="-0.341068000">
  <ele>192.000000</ele>
  <time>2012-03-10T07:55:33Z</time>
  <sat>9</sat>
</trkpt>
<trkpt lat="39.678195000" lon="-0.340774000">
  <ele>189.800000</ele>
  <time>2012-03-10T07:55:41Z</time>
  <sat>9</sat>
</trkpt>
<trkpt lat="39.678215000" lon="-0.340731000">
  <ele>189.800000</ele>
  <time>2012-03-10T07:55:42Z</time>
  <sat>9</sat>
</trkpt>
<trkpt lat="39.678225000" lon="-0.340679000">
  <ele>189.800000</ele>
  <time>2012-03-10T07:55:43Z</time>
  <sat>9</sat>
</trkpt>
<trkpt lat="39.678252000" lon="-0.340651000">
  <ele>190.100000</ele>
  <time>2012-03-10T07:55:44Z</time>
  <sat>9</sat>
</trkpt>
<trkpt lat="39.678272000" lon="-0.340623000">
  <ele>190.000000</ele>
  <time>2012-03-10T07:55:45Z</time>
  <sat>9</sat>
</trkpt>
<trkpt lat="39.678410000" lon="-0.340430000">
  <ele>185.800000</ele>
  <time>2012-03-10T07:55:53Z</time>
  <sat>8</sat>
</trkpt>
<trkpt lat="39.678394000" lon="-0.340445000">
  <ele>185.800000</ele>
  <time>2012-03-10T07:55:54Z</time>
  <sat>7</sat>
</trkpt>
<trkpt lat="39.678394000" lon="-0.340441000">
  <ele>185.300000</ele>
  <time>2012-03-10T07:55:55Z</time>
  <sat>7</sat>
</trkpt>
<trkpt lat="39.678393000" lon="-0.340442000">
  <ele>185.100000</ele>
  <time>2012-03-10T07:55:56Z</time>
  <sat>7</sat>
</trkpt>
<trkpt lat="39.678393000" lon="-0.340440000">
  <ele>185.300000</ele>
  <time>2012-03-10T07:55:57Z</time>
  <sat>7</sat>
</trkpt>
<trkpt lat="39.678392000" lon="-0.340440000">
  <ele>185.300000</ele>
  <time>2012-03-10T07:55:58Z</time>
  <sat>7</sat>
</trkpt>
<trkpt lat="39.678391000" lon="-0.340439000">
  <ele>185.300000</ele>
  <time>2012-03-10T07:55:59Z</time>
  <sat>6</sat>
</trkpt>
<trkpt lat="39.678389000" lon="-0.340439000">
  <ele>185.300000</ele>
  <time>2012-03-10T07:56:00Z</time>
  <sat>6</sat>
</trkpt>
<trkpt lat="39.678387000" lon="-0.340438000">
  <ele>185.300000</ele>
  <time>2012-03-10T07:56:01Z</time>
  <sat>5</sat>
</trkpt>
<trkpt lat="39.678387000" lon="-0.340439000">
  <ele>185.100000</ele>
  <time>2012-03-10T07:56:02Z</time>
  <sat>5</sat>
</trkpt>
<trkpt lat="39.678387000" lon="-0.340439000">
  <ele>185.100000</ele>
  <time>2012-03-10T07:56:03Z</time>
  <sat>5</sat>
</trkpt>
<trkpt lat="39.678376000" lon="-0.340407000">
  <ele>185.000000</ele>
  <time>2012-03-10T07:56:04Z</time>
  <sat>6</sat>
</trkpt>
<trkpt lat="39.678348000" lon="-0.340271000">
  <ele>182.100000</ele>
  <time>2012-03-10T07:56:09Z</time>
  <sat>6</sat>
</trkpt>
<trkpt lat="39.678329000" lon="-0.340124000">
  <ele>182.500000</ele>
  <time>2012-03-10T07:56:13Z</time>
  <sat>6</sat>
</trkpt>
<trkpt lat="39.678335000" lon="-0.339939000">
  <ele>181.600000</ele>
  <time>2012-03-10T07:56:19Z</time>
  <sat>8</sat>
</trkpt>
<trkpt lat="39.678348000" lon="-0.339903000">
  <ele>181.000000</ele>
  <time>2012-03-10T07:56:20Z</time>
  <sat>8</sat>
</trkpt>
<trkpt lat="39.678400000" lon="-0.339789000">
  <ele>179.300000</ele>
  <time>2012-03-10T07:56:24Z</time>
  <sat>8</sat>
</trkpt>
<trkpt lat="39.678419000" lon="-0.339771000">
  <ele>179.000000</ele>
  <time>2012-03-10T07:56:25Z</time>
  <sat>8</sat>
</trkpt>
<trkpt lat="39.678645000" lon="-0.339530000">
  <ele>177.300000</ele>
  <time>2012-03-10T07:56:37Z</time>
  <sat>8</sat>
</trkpt>
<trkpt lat="39.678649000" lon="-0.339492000">
  <ele>178.100000</ele>
  <time>2012-03-10T07:56:38Z</time>
  <sat>8</sat>
</trkpt>
<trkpt lat="39.678650000" lon="-0.339458000">
  <ele>178.100000</ele>
  <time>2012-03-10T07:56:39Z</time>
  <sat>8</sat>
</trkpt>
<trkpt lat="39.678619000" lon="-0.339401000">
  <ele>178.300000</ele>
  <time>2012-03-10T07:56:40Z</time>
  <sat>7</sat>
</trkpt>
<trkpt lat="39.678610000" lon="-0.339354000">
  <ele>178.500000</ele>
  <time>2012-03-10T07:56:41Z</time>
  <sat>8</sat>
</trkpt>
<trkpt lat="39.678586000" lon="-0.339113000">
  <ele>175.800000</ele>
  <time>2012-03-10T07:56:47Z</time>
  <sat>8</sat>
</trkpt>
<trkpt lat="39.678568000" lon="-0.339009000">
  <ele>174.600000</ele>
  <time>2012-03-10T07:56:50Z</time>
  <sat>8</sat>
</trkpt>
<trkpt lat="39.678518000" lon="-0.338845000">
  <ele>173.100000</ele>
  <time>2012-03-10T07:56:55Z</time>
  <sat>8</sat>
</trkpt>
<trkpt lat="39.678447000" lon="-0.338731000">
  <ele>171.600000</ele>
  <time>2012-03-10T07:56:59Z</time>
  <sat>8</sat>
</trkpt>
<trkpt lat="39.678363000" lon="-0.338643000">
  <ele>169.100000</ele>
  <time>2012-03-10T07:57:03Z</time>
  <sat>8</sat>
</trkpt>
<trkpt lat="39.678286000" lon="-0.338530000">
  <ele>168.000000</ele>
  <time>2012-03-10T07:57:07Z</time>
  <sat>8</sat>
</trkpt>
<trkpt lat="39.678276000" lon="-0.338499000">
  <ele>167.600000</ele>
  <time>2012-03-10T07:57:08Z</time>
  <sat>8</sat>
</trkpt>
<trkpt lat="39.678271000" lon="-0.338479000">
  <ele>167.800000</ele>
  <time>2012-03-10T07:57:09Z</time>
  <sat>8</sat>
</trkpt>
<trkpt lat="39.678266000" lon="-0.338464000">
  <ele>167.800000</ele>
  <time>2012-03-10T07:57:10Z</time>
  <sat>8</sat>
</trkpt>
<trkpt lat="39.678267000" lon="-0.338447000">
  <ele>167.500000</ele>
  <time>2012-03-10T07:57:11Z</time>
  <sat>8</sat>
</trkpt>
<trkpt lat="39.678291000" lon="-0.338424000">
  <ele>166.600000</ele>
  <time>2012-03-10T07:57:21Z</time>
  <sat>9</sat>
</trkpt>
<trkpt lat="39.678302000" lon="-0.338419000">
  <ele>166.100000</ele>
  <time>2012-03-10T07:57:22Z</time>
  <sat>9</sat>
</trkpt>
<trkpt lat="39.678311000" lon="-0.338405000">
  <ele>165.600000</ele>
  <time>2012-03-10T07:57:23Z</time>
  <sat>9</sat>
</trkpt>
<trkpt lat="39.678317000" lon="-0.338386000">
  <ele>165.600000</ele>
  <time>2012-03-10T07:57:26Z</time>
  <sat>8</sat>
</trkpt>
<trkpt lat="39.678309000" lon="-0.338403000">
  <ele>166.300000</ele>
  <time>2012-03-10T07:57:27Z</time>
  <sat>8</sat>
</trkpt>
<trkpt lat="39.678312000" lon="-0.338402000">
  <ele>166.100000</ele>
  <time>2012-03-10T07:57:28Z</time>
  <sat>8</sat>
</trkpt>
<trkpt lat="39.678351000" lon="-0.338365000">
  <ele>165.600000</ele>
  <time>2012-03-10T07:57:36Z</time>
  <sat>8</sat>
</trkpt>
<trkpt lat="39.678447000" lon="-0.338279000">
  <ele>163.800000</ele>
  <time>2012-03-10T07:57:40Z</time>
  <sat>8</sat>
</trkpt>
<trkpt lat="39.678476000" lon="-0.338254000">
  <ele>163.500000</ele>
  <time>2012-03-10T07:57:41Z</time>
  <sat>8</sat>
</trkpt>
<trkpt lat="39.678720000" lon="-0.338070000">
  <ele>161.500000</ele>
  <time>2012-03-10T07:57:48Z</time>
  <sat>8</sat>
</trkpt>
<trkpt lat="39.678907000" lon="-0.337949000">
  <ele>164.300000</ele>
  <time>2012-03-10T07:57:57Z</time>
  <sat>7</sat>
</trkpt>
<trkpt lat="39.678925000" lon="-0.337940000">
  <ele>164.600000</ele>
  <time>2012-03-10T07:57:58Z</time>
  <sat>7</sat>
</trkpt>
<trkpt lat="39.678982000" lon="-0.337923000">
  <ele>164.800000</ele>
  <time>2012-03-10T07:58:01Z</time>
  <sat>8</sat>
</trkpt>
<trkpt lat="39.679053000" lon="-0.337915000">
  <ele>165.300000</ele>
  <time>2012-03-10T07:58:05Z</time>
  <sat>7</sat>
</trkpt>
<trkpt lat="39.679069000" lon="-0.337911000">
  <ele>165.800000</ele>
  <time>2012-03-10T07:58:06Z</time>
  <sat>7</sat>
</trkpt>
<trkpt lat="39.679084000" lon="-0.337910000">
  <ele>166.000000</ele>
  <time>2012-03-10T07:58:07Z</time>
  <sat>7</sat>
</trkpt>
<trkpt lat="39.679101000" lon="-0.337912000">
  <ele>165.600000</ele>
  <time>2012-03-10T07:58:08Z</time>
  <sat>7</sat>
</trkpt>
<trkpt lat="39.679114000" lon="-0.337923000">
  <ele>165.600000</ele>
  <time>2012-03-10T07:58:09Z</time>
  <sat>7</sat>
</trkpt>
<trkpt lat="39.679133000" lon="-0.337932000">
  <ele>166.100000</ele>
  <time>2012-03-10T07:58:10Z</time>
  <sat>7</sat>
</trkpt>
<trkpt lat="39.679142000" lon="-0.337948000">
  <ele>165.500000</ele>
  <time>2012-03-10T07:58:23Z</time>
  <sat>7</sat>
</trkpt>
<trkpt lat="39.679135000" lon="-0.337940000">
  <ele>165.600000</ele>
  <time>2012-03-10T07:58:24Z</time>
  <sat>7</sat>
</trkpt>
<trkpt lat="39.679110000" lon="-0.337936000">
  <ele>167.100000</ele>
  <time>2012-03-10T07:58:25Z</time>
  <sat>8</sat>
</trkpt>
<trkpt lat="39.679092000" lon="-0.337928000">
  <ele>167.100000</ele>
  <time>2012-03-10T07:58:26Z</time>
  <sat>8</sat>
</trkpt>
<trkpt lat="39.679015000" lon="-0.337911000">
  <ele>167.800000</ele>
  <time>2012-03-10T07:58:29Z</time>
  <sat>8</sat>
</trkpt>
<trkpt lat="39.678988000" lon="-0.337914000">
  <ele>167.600000</ele>
  <time>2012-03-10T07:58:30Z</time>
  <sat>8</sat>
</trkpt>
<trkpt lat="39.678908000" lon="-0.337941000">
  <ele>167.000000</ele>
  <time>2012-03-10T07:58:32Z</time>
  <sat>8</sat>
</trkpt>
<trkpt lat="39.678865000" lon="-0.337962000">
  <ele>166.100000</ele>
  <time>2012-03-10T07:58:33Z</time>
  <sat>8</sat>
</trkpt>
<trkpt lat="39.678525000" lon="-0.338205000">
  <ele>164.300000</ele>
  <time>2012-03-10T07:58:42Z</time>
  <sat>8</sat>
</trkpt>
<trkpt lat="39.678501000" lon="-0.338226000">
  <ele>164.800000</ele>
  <time>2012-03-10T07:58:43Z</time>
  <sat>8</sat>
</trkpt>
<trkpt lat="39.678289000" lon="-0.338460000">
  <ele>165.800000</ele>
  <time>2012-03-10T07:58:56Z</time>
  <sat>6</sat>
</trkpt>
<trkpt lat="39.678262000" lon="-0.338479000">
  <ele>166.100000</ele>
  <time>2012-03-10T07:58:58Z</time>
  <sat>7</sat>
</trkpt>
<trkpt lat="39.678251000" lon="-0.338470000">
  <ele>165.500000</ele>
  <time>2012-03-10T07:58:59Z</time>
  <sat>8</sat>
</trkpt>
<trkpt lat="39.678224000" lon="-0.338447000">
  <ele>165.500000</ele>
  <time>2012-03-10T07:59:01Z</time>
  <sat>8</sat>
</trkpt>
<trkpt lat="39.678211000" lon="-0.338430000">
  <ele>165.100000</ele>
  <time>2012-03-10T07:59:02Z</time>
  <sat>8</sat>
</trkpt>
<trkpt lat="39.678209000" lon="-0.338401000">
  <ele>164.800000</ele>
  <time>2012-03-10T07:59:03Z</time>
  <sat>8</sat>
</trkpt>
<trkpt lat="39.678214000" lon="-0.338379000">
  <ele>164.600000</ele>
  <time>2012-03-10T07:59:04Z</time>
  <sat>8</sat>
</trkpt>
<trkpt lat="39.678214000" lon="-0.338327000">
  <ele>164.600000</ele>
  <time>2012-03-10T07:59:05Z</time>
  <sat>8</sat>
</trkpt>
<trkpt lat="39.678209000" lon="-0.338291000">
  <ele>164.300000</ele>
  <time>2012-03-10T07:59:06Z</time>
  <sat>8</sat>
</trkpt>
<trkpt lat="39.678190000" lon="-0.338234000">
  <ele>163.600000</ele>
  <time>2012-03-10T07:59:08Z</time>
  <sat>8</sat>
</trkpt>
<trkpt lat="39.678105000" lon="-0.338003000">
  <ele>161.300000</ele>
  <time>2012-03-10T07:59:16Z</time>
  <sat>9</sat>
</trkpt>
<trkpt lat="39.678080000" lon="-0.337921000">
  <ele>161.100000</ele>
  <time>2012-03-10T07:59:19Z</time>
  <sat>9</sat>
</trkpt>
<trkpt lat="39.678099000" lon="-0.337904000">
  <ele>161.000000</ele>
  <time>2012-03-10T07:59:20Z</time>
  <sat>9</sat>
</trkpt>
<trkpt lat="39.678167000" lon="-0.337869000">
  <ele>159.500000</ele>
  <time>2012-03-10T07:59:23Z</time>
  <sat>9</sat>
</trkpt>
<trkpt lat="39.678314000" lon="-0.337777000">
  <ele>158.300000</ele>
  <time>2012-03-10T07:59:30Z</time>
  <sat>9</sat>
</trkpt>
<trkpt lat="39.678339000" lon="-0.337764000">
  <ele>157.800000</ele>
  <time>2012-03-10T07:59:31Z</time>
  <sat>9</sat>
</trkpt>
<trkpt lat="39.678364000" lon="-0.337747000">
  <ele>157.100000</ele>
  <time>2012-03-10T07:59:32Z</time>
  <sat>9</sat>
</trkpt>
<trkpt lat="39.678382000" lon="-0.337731000">
  <ele>156.800000</ele>
  <time>2012-03-10T07:59:33Z</time>
  <sat>9</sat>
</trkpt>
<trkpt lat="39.678394000" lon="-0.337707000">
  <ele>156.300000</ele>
  <time>2012-03-10T07:59:34Z</time>
  <sat>8</sat>
</trkpt>
<trkpt lat="39.678406000" lon="-0.337677000">
  <ele>155.600000</ele>
  <time>2012-03-10T07:59:35Z</time>
  <sat>8</sat>
</trkpt>
<trkpt lat="39.678441000" lon="-0.337589000">
  <ele>153.500000</ele>
  <time>2012-03-10T07:59:38Z</time>
  <sat>9</sat>
</trkpt>
<trkpt lat="39.678454000" lon="-0.337570000">
  <ele>152.600000</ele>
  <time>2012-03-10T07:59:39Z</time>
  <sat>9</sat>
</trkpt>
<trkpt lat="39.678518000" lon="-0.337496000">
  <ele>152.600000</ele>
  <time>2012-03-10T07:59:43Z</time>
  <sat>9</sat>
</trkpt>
<trkpt lat="39.678529000" lon="-0.337489000">
  <ele>152.600000</ele>
  <time>2012-03-10T07:59:44Z</time>
  <sat>9</sat>
</trkpt>
<trkpt lat="39.678582000" lon="-0.337450000">
  <ele>151.800000</ele>
  <time>2012-03-10T07:59:48Z</time>
  <sat>9</sat>
</trkpt>
<trkpt lat="39.678593000" lon="-0.337429000">
  <ele>151.300000</ele>
  <time>2012-03-10T07:59:49Z</time>
  <sat>9</sat>
</trkpt>
<trkpt lat="39.678675000" lon="-0.337261000">
  <ele>148.300000</ele>
  <time>2012-03-10T07:59:56Z</time>
  <sat>9</sat>
</trkpt>
<trkpt lat="39.678683000" lon="-0.337226000">
  <ele>148.600000</ele>
  <time>2012-03-10T07:59:57Z</time>
  <sat>9</sat>
</trkpt>
<trkpt lat="39.678741000" lon="-0.337018000">
  <ele>145.100000</ele>
  <time>2012-03-10T08:00:03Z</time>
  <sat>8</sat>
</trkpt>
<trkpt lat="39.678799000" lon="-0.336847000">
  <ele>142.600000</ele>
  <time>2012-03-10T08:00:09Z</time>
  <sat>9</sat>
</trkpt>
<trkpt lat="39.678817000" lon="-0.336818000">
  <ele>142.300000</ele>
  <time>2012-03-10T08:00:10Z</time>
  <sat>9</sat>
</trkpt>
<trkpt lat="39.678842000" lon="-0.336802000">
  <ele>141.500000</ele>
  <time>2012-03-10T08:00:11Z</time>
  <sat>9</sat>
</trkpt>
<trkpt lat="39.678863000" lon="-0.336784000">
  <ele>141.000000</ele>
  <time>2012-03-10T08:00:12Z</time>
  <sat>9</sat>
</trkpt>
<trkpt lat="39.678885000" lon="-0.336773000">
  <ele>140.600000</ele>
  <time>2012-03-10T08:00:13Z</time>
  <sat>9</sat>
</trkpt>
<trkpt lat="39.678963000" lon="-0.336720000">
  <ele>139.800000</ele>
  <time>2012-03-10T08:00:16Z</time>
  <sat>9</sat>
</trkpt>
<trkpt lat="39.678980000" lon="-0.336691000">
  <ele>139.300000</ele>
  <time>2012-03-10T08:00:17Z</time>
  <sat>9</sat>
</trkpt>
<trkpt lat="39.679003000" lon="-0.336665000">
  <ele>139.300000</ele>
  <time>2012-03-10T08:00:18Z</time>
  <sat>9</sat>
</trkpt>
<trkpt lat="39.679373000" lon="-0.336228000">
  <ele>135.300000</ele>
  <time>2012-03-10T08:00:30Z</time>
  <sat>9</sat>
</trkpt>
<trkpt lat="39.679381000" lon="-0.336213000">
  <ele>135.000000</ele>
  <time>2012-03-10T08:00:31Z</time>
  <sat>9</sat>
</trkpt>
<trkpt lat="39.679413000" lon="-0.336156000">
  <ele>133.800000</ele>
  <time>2012-03-10T08:00:42Z</time>
  <sat>9</sat>
</trkpt>
<trkpt lat="39.679407000" lon="-0.336139000">
  <ele>133.600000</ele>
  <time>2012-03-10T08:00:43Z</time>
  <sat>9</sat>
</trkpt>
<trkpt lat="39.679390000" lon="-0.336131000">
  <ele>133.600000</ele>
  <time>2012-03-10T08:00:44Z</time>
  <sat>9</sat>
</trkpt>
<trkpt lat="39.679355000" lon="-0.336132000">
  <ele>133.600000</ele>
  <time>2012-03-10T08:00:45Z</time>
  <sat>9</sat>
</trkpt>
<trkpt lat="39.679313000" lon="-0.336115000">
  <ele>133.100000</ele>
  <time>2012-03-10T08:00:47Z</time>
  <sat>9</sat>
</trkpt>
<trkpt lat="39.679292000" lon="-0.336107000">
  <ele>133.100000</ele>
  <time>2012-03-10T08:00:48Z</time>
  <sat>9</sat>
</trkpt>
<trkpt lat="39.679269000" lon="-0.336103000">
  <ele>132.600000</ele>
  <time>2012-03-10T08:00:49Z</time>
  <sat>9</sat>
</trkpt>
<trkpt lat="39.679257000" lon="-0.336106000">
  <ele>132.500000</ele>
  <time>2012-03-10T08:00:50Z</time>
  <sat>9</sat>
</trkpt>
<trkpt lat="39.679244000" lon="-0.336104000">
  <ele>132.500000</ele>
  <time>2012-03-10T08:00:51Z</time>
  <sat>9</sat>
</trkpt>
<trkpt lat="39.679217000" lon="-0.336068000">
  <ele>132.000000</ele>
  <time>2012-03-10T08:00:53Z</time>
  <sat>9</sat>
</trkpt>
<trkpt lat="39.679207000" lon="-0.336051000">
  <ele>131.600000</ele>
  <time>2012-03-10T08:00:54Z</time>
  <sat>9</sat>
</trkpt>
<trkpt lat="39.679164000" lon="-0.335921000">
  <ele>133.800000</ele>
  <time>2012-03-10T08:01:00Z</time>
  <sat>9</sat>
</trkpt>
<trkpt lat="39.679153000" lon="-0.335893000">
  <ele>134.300000</ele>
  <time>2012-03-10T08:01:01Z</time>
  <sat>9</sat>
</trkpt>
<trkpt lat="39.679150000" lon="-0.335864000">
  <ele>133.600000</ele>
  <time>2012-03-10T08:01:02Z</time>
  <sat>9</sat>
</trkpt>
<trkpt lat="39.679146000" lon="-0.335835000">
  <ele>133.000000</ele>
  <time>2012-03-10T08:01:03Z</time>
  <sat>9</sat>
</trkpt>
<trkpt lat="39.679152000" lon="-0.335811000">
  <ele>132.800000</ele>
  <time>2012-03-10T08:01:04Z</time>
  <sat>9</sat>
</trkpt>
<trkpt lat="39.679163000" lon="-0.335674000">
  <ele>133.100000</ele>
  <time>2012-03-10T08:01:08Z</time>
  <sat>9</sat>
</trkpt>
<trkpt lat="39.679155000" lon="-0.335469000">
  <ele>133.100000</ele>
  <time>2012-03-10T08:01:13Z</time>
  <sat>9</sat>
</trkpt>
<trkpt lat="39.679146000" lon="-0.335425000">
  <ele>132.600000</ele>
  <time>2012-03-10T08:01:14Z</time>
  <sat>9</sat>
</trkpt>
<trkpt lat="39.679128000" lon="-0.335382000">
  <ele>132.100000</ele>
  <time>2012-03-10T08:01:15Z</time>
  <sat>9</sat>
</trkpt>
<trkpt lat="39.679072000" lon="-0.335268000">
  <ele>130.300000</ele>
  <time>2012-03-10T08:01:18Z</time>
  <sat>9</sat>
</trkpt>
<trkpt lat="39.679037000" lon="-0.335201000">
  <ele>128.800000</ele>
  <time>2012-03-10T08:01:20Z</time>
  <sat>9</sat>
</trkpt>
<trkpt lat="39.679019000" lon="-0.335170000">
  <ele>127.900000</ele>
  <time>2012-03-10T08:01:21Z</time>
  <sat>9</sat>
</trkpt>
<trkpt lat="39.679001000" lon="-0.335144000">
  <ele>127.000000</ele>
  <time>2012-03-10T08:01:22Z</time>
  <sat>9</sat>
</trkpt>
<trkpt lat="39.678963000" lon="-0.335098000">
  <ele>126.500000</ele>
  <time>2012-03-10T08:01:24Z</time>
  <sat>8</sat>
</trkpt>
<trkpt lat="39.678949000" lon="-0.335090000">
  <ele>126.300000</ele>
  <time>2012-03-10T08:01:25Z</time>
  <sat>8</sat>
</trkpt>
<trkpt lat="39.678843000" lon="-0.335039000">
  <ele>123.900000</ele>
  <time>2012-03-10T08:01:31Z</time>
  <sat>9</sat>
</trkpt>
<trkpt lat="39.678837000" lon="-0.335014000">
  <ele>123.500000</ele>
  <time>2012-03-10T08:01:32Z</time>
  <sat>9</sat>
</trkpt>
<trkpt lat="39.678847000" lon="-0.334957000">
  <ele>123.300000</ele>
  <time>2012-03-10T08:01:33Z</time>
  <sat>9</sat>
</trkpt>
<trkpt lat="39.678847000" lon="-0.334920000">
  <ele>122.800000</ele>
  <time>2012-03-10T08:01:34Z</time>
  <sat>9</sat>
</trkpt>
<trkpt lat="39.678839000" lon="-0.334885000">
  <ele>122.100000</ele>
  <time>2012-03-10T08:01:35Z</time>
  <sat>9</sat>
</trkpt>
<trkpt lat="39.678815000" lon="-0.334825000">
  <ele>121.000000</ele>
  <time>2012-03-10T08:01:37Z</time>
  <sat>9</sat>
</trkpt>
<trkpt lat="39.678775000" lon="-0.334705000">
  <ele>118.800000</ele>
  <time>2012-03-10T08:01:40Z</time>
  <sat>9</sat>
</trkpt>
<trkpt lat="39.678766000" lon="-0.334669000">
  <ele>117.500000</ele>
  <time>2012-03-10T08:01:41Z</time>
  <sat>9</sat>
</trkpt>
<trkpt lat="39.678761000" lon="-0.334632000">
  <ele>117.000000</ele>
  <time>2012-03-10T08:01:42Z</time>
  <sat>9</sat>
</trkpt>
<trkpt lat="39.678773000" lon="-0.334589000">
  <ele>117.000000</ele>
  <time>2012-03-10T08:01:43Z</time>
  <sat>9</sat>
</trkpt>
<trkpt lat="39.678817000" lon="-0.334558000">
  <ele>116.900000</ele>
  <time>2012-03-10T08:01:45Z</time>
  <sat>9</sat>
</trkpt>
<trkpt lat="39.678841000" lon="-0.334541000">
  <ele>117.100000</ele>
  <time>2012-03-10T08:01:46Z</time>
  <sat>9</sat>
</trkpt>
<trkpt lat="39.678963000" lon="-0.334430000">
  <ele>118.600000</ele>
  <time>2012-03-10T08:02:05Z</time>
  <sat>8</sat>
</trkpt>
<trkpt lat="39.679002000" lon="-0.334389000">
  <ele>119.000000</ele>
  <time>2012-03-10T08:02:09Z</time>
  <sat>8</sat>
</trkpt>
<trkpt lat="39.679011000" lon="-0.334371000">
  <ele>118.500000</ele>
  <time>2012-03-10T08:02:10Z</time>
  <sat>9</sat>
</trkpt>
<trkpt lat="39.679025000" lon="-0.334352000">
  <ele>118.800000</ele>
  <time>2012-03-10T08:02:11Z</time>
  <sat>9</sat>
</trkpt>
<trkpt lat="39.679145000" lon="-0.334207000">
  <ele>118.100000</ele>
  <time>2012-03-10T08:02:19Z</time>
  <sat>9</sat>
</trkpt>
<trkpt lat="39.679176000" lon="-0.334179000">
  <ele>117.800000</ele>
  <time>2012-03-10T08:02:21Z</time>
  <sat>9</sat>
</trkpt>
<trkpt lat="39.679243000" lon="-0.334116000">
  <ele>118.600000</ele>
  <time>2012-03-10T08:02:25Z</time>
  <sat>9</sat>
</trkpt>
<trkpt lat="39.679265000" lon="-0.334093000">
  <ele>118.800000</ele>
  <time>2012-03-10T08:02:26Z</time>
  <sat>9</sat>
</trkpt>
<trkpt lat="39.679290000" lon="-0.334077000">
  <ele>119.100000</ele>
  <time>2012-03-10T08:02:27Z</time>
  <sat>9</sat>
</trkpt>
<trkpt lat="39.679683000" lon="-0.333804000">
  <ele>120.000000</ele>
  <time>2012-03-10T08:02:42Z</time>
  <sat>9</sat>
</trkpt>
<trkpt lat="39.679707000" lon="-0.333796000">
  <ele>120.000000</ele>
  <time>2012-03-10T08:02:43Z</time>
  <sat>9</sat>
</trkpt>
<trkpt lat="39.679767000" lon="-0.333787000">
  <ele>120.000000</ele>
  <time>2012-03-10T08:02:46Z</time>
  <sat>9</sat>
</trkpt>
<trkpt lat="39.679792000" lon="-0.333792000">
  <ele>120.000000</ele>
  <time>2012-03-10T08:02:47Z</time>
  <sat>9</sat>
</trkpt>
<trkpt lat="39.679817000" lon="-0.333793000">
  <ele>120.100000</ele>
  <time>2012-03-10T08:02:48Z</time>
  <sat>8</sat>
</trkpt>
<trkpt lat="39.679845000" lon="-0.333786000">
  <ele>120.000000</ele>
  <time>2012-03-10T08:02:49Z</time>
  <sat>8</sat>
</trkpt>
<trkpt lat="39.679874000" lon="-0.333783000">
  <ele>120.300000</ele>
  <time>2012-03-10T08:02:50Z</time>
  <sat>8</sat>
</trkpt>
<trkpt lat="39.680062000" lon="-0.333764000">
  <ele>120.600000</ele>
  <time>2012-03-10T08:02:56Z</time>
  <sat>8</sat>
</trkpt>
<trkpt lat="39.680182000" lon="-0.333748000">
  <ele>120.400000</ele>
  <time>2012-03-10T08:03:00Z</time>
  <sat>7</sat>
</trkpt>
<trkpt lat="39.680371000" lon="-0.333721000">
  <ele>120.100000</ele>
  <time>2012-03-10T08:03:06Z</time>
  <sat>8</sat>
</trkpt>
<trkpt lat="39.681144000" lon="-0.333603000">
  <ele>121.500000</ele>
  <time>2012-03-10T08:03:27Z</time>
  <sat>8</sat>
</trkpt>
<trkpt lat="39.681181000" lon="-0.333608000">
  <ele>121.500000</ele>
  <time>2012-03-10T08:03:28Z</time>
  <sat>8</sat>
</trkpt>
<trkpt lat="39.681251000" lon="-0.333610000">
  <ele>121.600000</ele>
  <time>2012-03-10T08:03:30Z</time>
  <sat>8</sat>
</trkpt>
<trkpt lat="39.681285000" lon="-0.333610000">
  <ele>121.600000</ele>
  <time>2012-03-10T08:03:31Z</time>
  <sat>8</sat>
</trkpt>
<trkpt lat="39.681320000" lon="-0.333610000">
  <ele>121.900000</ele>
  <time>2012-03-10T08:03:32Z</time>
  <sat>8</sat>
</trkpt>
<trkpt lat="39.681389000" lon="-0.333612000">
  <ele>122.300000</ele>
  <time>2012-03-10T08:03:34Z</time>
  <sat>8</sat>
</trkpt>
<trkpt lat="39.681456000" lon="-0.333610000">
  <ele>122.500000</ele>
  <time>2012-03-10T08:03:36Z</time>
  <sat>8</sat>
</trkpt>
<trkpt lat="39.681489000" lon="-0.333612000">
  <ele>122.600000</ele>
  <time>2012-03-10T08:03:37Z</time>
  <sat>8</sat>
</trkpt>
<trkpt lat="39.681556000" lon="-0.333617000">
  <ele>123.000000</ele>
  <time>2012-03-10T08:03:39Z</time>
  <sat>8</sat>
</trkpt>
<trkpt lat="39.681590000" lon="-0.333616000">
  <ele>123.000000</ele>
  <time>2012-03-10T08:03:40Z</time>
  <sat>8</sat>
</trkpt>
<trkpt lat="39.681792000" lon="-0.333618000">
  <ele>123.100000</ele>
  <time>2012-03-10T08:03:46Z</time>
  <sat>6</sat>
</trkpt>
<trkpt lat="39.681931000" lon="-0.333627000">
  <ele>123.400000</ele>
  <time>2012-03-10T08:03:50Z</time>
  <sat>6</sat>
</trkpt>
<trkpt lat="39.681966000" lon="-0.333626000">
  <ele>123.100000</ele>
  <time>2012-03-10T08:03:51Z</time>
  <sat>6</sat>
</trkpt>
<trkpt lat="39.682032000" lon="-0.333626000">
  <ele>123.300000</ele>
  <time>2012-03-10T08:03:53Z</time>
  <sat>6</sat>
</trkpt>
<trkpt lat="39.682065000" lon="-0.333625000">
  <ele>123.100000</ele>
  <time>2012-03-10T08:03:54Z</time>
  <sat>6</sat>
</trkpt>
<trkpt lat="39.682097000" lon="-0.333634000">
  <ele>123.000000</ele>
  <time>2012-03-10T08:03:55Z</time>
  <sat>7</sat>
</trkpt>
<trkpt lat="39.682189000" lon="-0.333643000">
  <ele>123.000000</ele>
  <time>2012-03-10T08:03:58Z</time>
  <sat>7</sat>
</trkpt>
<trkpt lat="39.682220000" lon="-0.333641000">
  <ele>123.500000</ele>
  <time>2012-03-10T08:03:59Z</time>
  <sat>8</sat>
</trkpt>
<trkpt lat="39.682320000" lon="-0.333606000">
  <ele>124.400000</ele>
  <time>2012-03-10T08:04:03Z</time>
  <sat>9</sat>
</trkpt>
<trkpt lat="39.682341000" lon="-0.333580000">
  <ele>124.000000</ele>
  <time>2012-03-10T08:04:04Z</time>
  <sat>9</sat>
</trkpt>
<trkpt lat="39.682358000" lon="-0.333547000">
  <ele>124.000000</ele>
  <time>2012-03-10T08:04:05Z</time>
  <sat>9</sat>
</trkpt>
<trkpt lat="39.682369000" lon="-0.333496000">
  <ele>123.100000</ele>
  <time>2012-03-10T08:04:06Z</time>
  <sat>9</sat>
</trkpt>
<trkpt lat="39.682434000" lon="-0.333218000">
  <ele>120.500000</ele>
  <time>2012-03-10T08:04:10Z</time>
  <sat>9</sat>
</trkpt>
<trkpt lat="39.683290000" lon="-0.329714000">
  <ele>95.900000</ele>
  <time>2012-03-10T08:04:35Z</time>
  <sat>8</sat>
</trkpt>
<trkpt lat="39.683359000" lon="-0.328537000">
  <ele>91.500000</ele>
  </trkpt>
<trkpt lat="39.684102000" lon="-0.328659000">
  <ele>90.500000</ele>
  <time>2010-11-20T08:03:56Z</time>
</trkpt>
<trkpt lat="39.684788000" lon="-0.328820000">
  <ele>91.100000</ele>
  <time>2012-03-15T08:05:31Z</time>
</trkpt>
<trkpt lat="39.684968000" lon="-0.329039000">
  <ele>91.900000</ele>
  <time>2012-03-10T06:44:00Z</time>
</trkpt>
<trkpt lat="39.685746000" lon="-0.330026000">
  <ele>99.900000</ele>
  <time>2012-03-10T08:05:51Z</time>
  <sat>8</sat>
</trkpt>
<trkpt lat="39.685798000" lon="-0.329982000">
  <ele>95.900000</ele>
  <time>2012-03-10T08:05:52Z</time>
  <sat>8</sat>
</trkpt>
<trkpt lat="39.685838000" lon="-0.330011000">
  <ele>95.000000</ele>
  <time>2012-03-10T08:05:53Z</time>
  <sat>8</sat>
</trkpt>
<trkpt lat="39.685908000" lon="-0.330143000">
  <ele>96.000000</ele>
  <time>2012-03-10T08:05:56Z</time>
  <sat>8</sat>
</trkpt>
<trkpt lat="39.685943000" lon="-0.330166000">
  <ele>94.500000</ele>
  <time>2012-03-10T08:05:57Z</time>
  <sat>8</sat>
</trkpt>
<trkpt lat="39.686008000" lon="-0.330208000">
  <ele>94.100000</ele>
  <time>2012-03-10T08:05:59Z</time>
  <sat>8</sat>
</trkpt>
<trkpt lat="39.688306000" lon="-0.331781000">
  <ele>94.800000</ele>
  <time>2012-03-10T08:07:01Z</time>
  <sat>7</sat>
</trkpt>
<trkpt lat="39.688350000" lon="-0.331801000">
  <ele>95.000000</ele>
  <time>2012-03-10T08:07:02Z</time>
  <sat>7</sat>
</trkpt>
<trkpt lat="39.688436000" lon="-0.331853000">
  <ele>94.800000</ele>
  <time>2012-03-10T08:07:04Z</time>
  <sat>7</sat>
</trkpt>
<trkpt lat="39.688474000" lon="-0.331876000">
  <ele>95.000000</ele>
  <time>2012-03-10T08:07:05Z</time>
  <sat>7</sat>
</trkpt>
<trkpt lat="39.690586000" lon="-0.333288000">
  <ele>97.000000</ele>
  <time>2012-03-10T08:08:00Z</time>
  <sat>9</sat>
</trkpt>
<trkpt lat="39.690605000" lon="-0.333319000">
  <ele>96.900000</ele>
  <time>2012-03-10T08:08:01Z</time>
  <sat>9</sat>
</trkpt>
<trkpt lat="39.690622000" lon="-0.333369000">
  <ele>97.500000</ele>
  <time>2012-03-10T08:08:03Z</time>
  <sat>9</sat>
</trkpt>
<trkpt lat="39.690617000" lon="-0.333395000">
  <ele>98.400000</ele>
  <time>2012-03-10T08:08:04Z</time>
  <sat>9</sat>
</trkpt>
<trkpt lat="39.690623000" lon="-0.333422000">
  <ele>99.000000</ele>
  <time>2012-03-10T08:08:05Z</time>
  <sat>9</sat>
</trkpt>
<trkpt lat="39.690617000" lon="-0.333445000">
  <ele>99.000000</ele>
  <time>2012-03-10T08:08:06Z</time>
  <sat>9</sat>
</trkpt>
<trkpt lat="39.690608000" lon="-0.333469000">
  <ele>99.000000</ele>
  <time>2012-03-10T08:08:07Z</time>
  <sat>9</sat>
</trkpt>
<trkpt lat="39.690595000" lon="-0.333486000">
  <ele>99.000000</ele>
  <time>2012-03-10T08:08:08Z</time>
  <sat>9</sat>
</trkpt>
<trkpt lat="39.690573000" lon="-0.333515000">
  <ele>99.500000</ele>
  <time>2012-03-10T08:08:10Z</time>
  <sat>8</sat>
</trkpt>
<trkpt lat="39.690570000" lon="-0.333531000">
  <ele>99.500000</ele>
  <time>2012-03-10T08:08:11Z</time>
  <sat>9</sat>
</trkpt>
<trkpt lat="39.690562000" lon="-0.333552000">
  <ele>99.500000</ele>
  <time>2012-03-10T08:08:13Z</time>
  <sat>9</sat>
</trkpt>
<trkpt lat="39.690557000" lon="-0.333559000">
  <ele>99.100000</ele>
  <time>2012-03-10T08:08:14Z</time>
  <sat>9</sat>
</trkpt>
<trkpt lat="39.690553000" lon="-0.333557000">
  <ele>98.800000</ele>
  <time>2012-03-10T08:08:15Z</time>
  <sat>9</sat>
</trkpt>
<trkpt lat="39.690549000" lon="-0.333554000">
  <ele>98.600000</ele>
  <time>2012-03-10T08:08:16Z</time>
  <sat>9</sat>
</trkpt>
<trkpt lat="39.690560000" lon="-0.333533000">
  <ele>98.100000</ele>
  <time>2012-03-10T08:08:17Z</time>
  <sat>9</sat>
</trkpt>
<trkpt lat="39.690573000" lon="-0.333492000">
  <ele>97.500000</ele>
  <time>2012-03-10T08:08:18Z</time>
  <sat>9</sat>
</trkpt>
<trkpt lat="39.690681000" lon="-0.333209000">
  <ele>96.800000</ele>
  <time>2012-03-10T08:08:25Z</time>
  <sat>9</sat>
</trkpt>
<trkpt lat="39.690835000" lon="-0.332994000">
  <ele>95.600000</ele>
  <time>2012-03-10T08:08:28Z</time>
  <sat>9</sat>
</trkpt>
<trkpt lat="39.690929000" lon="-0.332844000">
  <ele>94.900000</ele>
  <time>2012-03-10T08:08:30Z</time>
  <sat>9</sat>
</trkpt>
<trkpt lat="39.690977000" lon="-0.332785000">
  <ele>94.000000</ele>
  <time>2012-03-10T08:08:31Z</time>
  <sat>9</sat>
</trkpt>
<trkpt lat="39.691116000" lon="-0.332632000">
  <ele>93.600000</ele>
  <time>2012-03-10T08:08:34Z</time>
  <sat>9</sat>
</trkpt>
<trkpt lat="39.691171000" lon="-0.332613000">
  <ele>93.400000</ele>
  <time>2012-03-10T08:08:35Z</time>
  <sat>9</sat>
</trkpt>
<trkpt lat="39.691225000" lon="-0.332613000">
  <ele>93.300000</ele>
  <time>2012-03-10T08:08:36Z</time>
  <sat>9</sat>
</trkpt>
<trkpt lat="39.691270000" lon="-0.332634000">
  <ele>93.500000</ele>
  <time>2012-03-10T08:08:37Z</time>
  <sat>9</sat>
</trkpt>
<trkpt lat="39.691314000" lon="-0.332663000">
  <ele>93.500000</ele>
  <time>2012-03-10T08:08:38Z</time>
  <sat>9</sat>
</trkpt>
<trkpt lat="39.691348000" lon="-0.332699000">
  <ele>93.100000</ele>
  <time>2012-03-10T08:08:39Z</time>
  <sat>9</sat>
</trkpt>
<trkpt lat="39.691372000" lon="-0.332749000">
  <ele>93.900000</ele>
  <time>2012-03-10T08:08:40Z</time>
  <sat>9</sat>
</trkpt>
<trkpt lat="39.691425000" lon="-0.332900000">
  <ele>94.500000</ele>
  <time>2012-03-10T08:08:44Z</time>
  <sat>9</sat>
</trkpt>
<trkpt lat="39.691428000" lon="-0.332927000">
  <ele>94.500000</ele>
  <time>2012-03-10T08:08:45Z</time>
  <sat>9</sat>
</trkpt>
<trkpt lat="39.691451000" lon="-0.333024000">
  <ele>95.000000</ele>
  <time>2012-03-10T08:08:48Z</time>
  <sat>9</sat>
</trkpt>
<trkpt lat="39.691497000" lon="-0.333162000">
  <ele>94.600000</ele>
  <time>2012-03-10T08:08:52Z</time>
  <sat>8</sat>
</trkpt>
<trkpt lat="39.691517000" lon="-0.333193000">
  <ele>94.900000</ele>
  <time>2012-03-10T08:08:53Z</time>
  <sat>9</sat>
</trkpt>
<trkpt lat="39.691645000" lon="-0.333351000">
  <ele>95.100000</ele>
  <time>2012-03-10T08:08:59Z</time>
  <sat>6</sat>
</trkpt>
<trkpt lat="39.691671000" lon="-0.333370000">
  <ele>94.900000</ele>
  <time>2012-03-10T08:09:00Z</time>
  <sat>7</sat>
</trkpt>
<trkpt lat="39.692531000" lon="-0.334014000">
  <ele>96.300000</ele>
  <time>2012-03-10T08:09:31Z</time>
  <sat>8</sat>
</trkpt>
<trkpt lat="39.692548000" lon="-0.334045000">
  <ele>96.400000</ele>
  <time>2012-03-10T08:09:32Z</time>
  <sat>8</sat>
</trkpt>
<trkpt lat="39.692560000" lon="-0.334078000">
  <ele>96.500000</ele>
  <time>2012-03-10T08:09:33Z</time>
  <sat>8</sat>
</trkpt>
<trkpt lat="39.692562000" lon="-0.334109000">
  <ele>96.600000</ele>
  <time>2012-03-10T08:09:34Z</time>
  <sat>8</sat>
</trkpt>
<trkpt lat="39.692547000" lon="-0.334184000">
  <ele>96.800000</ele>
  <time>2012-03-10T08:09:36Z</time>
  <sat>9</sat>
</trkpt>
<trkpt lat="39.692508000" lon="-0.334304000">
  <ele>97.000000</ele>
  <time>2012-03-10T08:09:40Z</time>
  <sat>9</sat>
</trkpt>
<trkpt lat="39.692462000" lon="-0.334364000">
  <ele>96.900000</ele>
  <time>2012-03-10T08:09:43Z</time>
  <sat>9</sat>
</trkpt>
<trkpt lat="39.692444000" lon="-0.334403000">
  <ele>96.800000</ele>
  <time>2012-03-10T08:09:44Z</time>
  <sat>9</sat>
</trkpt>
<trkpt lat="39.692422000" lon="-0.334460000">
  <ele>98.100000</ele>
  <time>2012-03-10T08:09:45Z</time>
  <sat>9</sat>
</trkpt>
<trkpt lat="39.692423000" lon="-0.334499000">
  <ele>97.800000</ele>
  <time>2012-03-10T08:09:46Z</time>
  <sat>9</sat>
</trkpt>
<trkpt lat="39.692423000" lon="-0.334570000">
  <ele>97.800000</ele>
  <time>2012-03-10T08:09:48Z</time>
  <sat>8</sat>
</trkpt>
<trkpt lat="39.692428000" lon="-0.334601000">
  <ele>98.000000</ele>
  <time>2012-03-10T08:09:49Z</time>
  <sat>8</sat>
</trkpt>
<trkpt lat="39.692438000" lon="-0.334632000">
  <ele>98.600000</ele>
  <time>2012-03-10T08:09:50Z</time>
  <sat>8</sat>
</trkpt>
<trkpt lat="39.692460000" lon="-0.334678000">
  <ele>99.500000</ele>
  <time>2012-03-10T08:09:52Z</time>
  <sat>7</sat>
</trkpt>
<trkpt lat="39.692485000" lon="-0.334723000">
  <ele>99.500000</ele>
  <time>2012-03-10T08:09:54Z</time>
  <sat>7</sat>
</trkpt>
<trkpt lat="39.692542000" lon="-0.334814000">
  <ele>100.600000</ele>
  <time>2012-03-10T08:09:59Z</time>
  <sat>7</sat>
</trkpt>
<trkpt lat="39.692570000" lon="-0.334849000">
  <ele>100.900000</ele>
  <time>2012-03-10T08:10:01Z</time>
  <sat>7</sat>
</trkpt>
<trkpt lat="39.692783000" lon="-0.335150000">
  <ele>106.000000</ele>
  <time>2012-03-10T08:10:18Z</time>
  <sat>9</sat>
</trkpt>
<trkpt lat="39.692855000" lon="-0.335212000">
  <ele>106.000000</ele>
  <time>2012-03-10T08:10:23Z</time>
  <sat>9</sat>
</trkpt>
<trkpt lat="39.692870000" lon="-0.335223000">
  <ele>106.000000</ele>
  <time>2012-03-10T08:10:24Z</time>
  <sat>9</sat>
</trkpt>
<trkpt lat="39.692916000" lon="-0.335256000">
  <ele>105.900000</ele>
  <time>2012-03-10T08:10:27Z</time>
  <sat>9</sat>
</trkpt>
<trkpt lat="39.692927000" lon="-0.335274000">
  <ele>106.000000</ele>
  <time>2012-03-10T08:10:28Z</time>
  <sat>9</sat>
</trkpt>
<trkpt lat="39.692943000" lon="-0.335284000">
  <ele>106.300000</ele>
  <time>2012-03-10T08:10:29Z</time>
  <sat>6</sat>
</trkpt>
<trkpt lat="39.692956000" lon="-0.335304000">
  <ele>106.400000</ele>
  <time>2012-03-10T08:10:30Z</time>
  <sat>7</sat>
</trkpt>
<trkpt lat="39.692978000" lon="-0.335338000">
  <ele>106.600000</ele>
  <time>2012-03-10T08:10:32Z</time>
  <sat>7</sat>
</trkpt>
<trkpt lat="39.692991000" lon="-0.335354000">
  <ele>107.100000</ele>
  <time>2012-03-10T08:10:33Z</time>
  <sat>9</sat>
</trkpt>
<trkpt lat="39.693054000" lon="-0.335449000">
  <ele>107.000000</ele>
  <time>2012-03-10T08:10:38Z</time>
  <sat>9</sat>
</trkpt>
<trkpt lat="39.693070000" lon="-0.335464000">
  <ele>106.900000</ele>
  <time>2012-03-10T08:10:39Z</time>
  <sat>9</sat>
</trkpt>
<trkpt lat="39.693205000" lon="-0.335594000">
  <ele>106.000000</ele>
  <time>2012-03-10T08:10:44Z</time>
  <sat>7</sat>
</trkpt>
<trkpt lat="39.693237000" lon="-0.335636000">
  <ele>105.800000</ele>
  <time>2012-03-10T08:10:45Z</time>
  <sat>7</sat>
</trkpt>
<trkpt lat="39.693553000" lon="-0.336080000">
  <ele>102.900000</ele>
  <time>2012-03-10T08:10:56Z</time>
  <sat>7</sat>
</trkpt>
<trkpt lat="39.693656000" lon="-0.336263000">
  <ele>103.300000</ele>
  <time>2012-03-10T08:11:01Z</time>
  <sat>7</sat>
</trkpt>
<trkpt lat="39.693765000" lon="-0.336509000">
  <ele>103.000000</ele>
  <time>2012-03-10T08:11:06Z</time>
  <sat>8</sat>
</trkpt>
<trkpt lat="39.693814000" lon="-0.336645000">
  <ele>102.300000</ele>
  <time>2012-03-10T08:11:08Z</time>
  <sat>9</sat>
</trkpt>
<trkpt lat="39.693831000" lon="-0.336723000">
  <ele>102.100000</ele>
  <time>2012-03-10T08:11:09Z</time>
  <sat>9</sat>
</trkpt>
<trkpt lat="39.693836000" lon="-0.336794000">
  <ele>102.100000</ele>
  <time>2012-03-10T08:11:10Z</time>
  <sat>9</sat>
</trkpt>
<trkpt lat="39.693833000" lon="-0.336857000">
  <ele>102.400000</ele>
  <time>2012-03-10T08:11:11Z</time>
  <sat>9</sat>
</trkpt>
<trkpt lat="39.693820000" lon="-0.336896000">
  <ele>102.800000</ele>
  <time>2012-03-10T08:11:12Z</time>
  <sat>9</sat>
</trkpt>
<trkpt lat="39.693772000" lon="-0.336999000">
  <ele>105.100000</ele>
  <time>2012-03-10T08:11:16Z</time>
  <sat>9</sat>
</trkpt>
<trkpt lat="39.693760000" lon="-0.337013000">
  <ele>105.900000</ele>
  <time>2012-03-10T08:11:17Z</time>
  <sat>9</sat>
</trkpt>
<trkpt lat="39.693726000" lon="-0.337056000">
  <ele>107.000000</ele>
  <time>2012-03-10T08:11:20Z</time>
  <sat>9</sat>
</trkpt>
<trkpt lat="39.693717000" lon="-0.337068000">
  <ele>107.500000</ele>
  <time>2012-03-10T08:11:21Z</time>
  <sat>9</sat>
</trkpt>
<trkpt lat="39.693711000" lon="-0.337085000">
  <ele>107.800000</ele>
  <time>2012-03-10T08:11:22Z</time>
  <sat>9</sat>
</trkpt>
<trkpt lat="39.693689000" lon="-0.337146000">
  <ele>109.500000</ele>
  <time>2012-03-10T08:11:25Z</time>
  <sat>9</sat>
</trkpt>
<trkpt lat="39.693652000" lon="-0.337261000">
  <ele>112.400000</ele>
  <time>2012-03-10T08:11:31Z</time>
  <sat>8</sat>
</trkpt>
<trkpt lat="39.693634000" lon="-0.337297000">
  <ele>113.000000</ele>
  <time>2012-03-10T08:11:33Z</time>
  <sat>8</sat>
</trkpt>
<trkpt lat="39.693625000" lon="-0.337314000">
  <ele>113.500000</ele>
  <time>2012-03-10T08:11:34Z</time>
  <sat>8</sat>
</trkpt>
<trkpt lat="39.693571000" lon="-0.337404000">
  <ele>114.900000</ele>
  <time>2012-03-10T08:11:40Z</time>
  <sat>7</sat>
</trkpt>
<trkpt lat="39.693559000" lon="-0.337417000">
  <ele>115.000000</ele>
  <time>2012-03-10T08:11:41Z</time>
  <sat>7</sat>
</trkpt>
<trkpt lat="39.693491000" lon="-0.337484000">
  <ele>116.100000</ele>
  <time>2012-03-10T08:11:46Z</time>
  <sat>8</sat>
</trkpt>
<trkpt lat="39.693436000" lon="-0.337538000">
  <ele>117.500000</ele>
  <time>2012-03-10T08:11:50Z</time>
  <sat>9</sat>
</trkpt>
<trkpt lat="39.693426000" lon="-0.337554000">
  <ele>118.000000</ele>
  <time>2012-03-10T08:11:51Z</time>
  <sat>9</sat>
</trkpt>
<trkpt lat="39.693413000" lon="-0.337570000">
  <ele>118.500000</ele>
  <time>2012-03-10T08:11:52Z</time>
  <sat>9</sat>
</trkpt>
<trkpt lat="39.693352000" lon="-0.337671000">
  <ele>120.400000</ele>
  <time>2012-03-10T08:11:59Z</time>
  <sat>9</sat>
</trkpt>
<trkpt lat="39.693346000" lon="-0.337692000">
  <ele>120.500000</ele>
  <time>2012-03-10T08:12:00Z</time>
  <sat>9</sat>
</trkpt>
<trkpt lat="39.693338000" lon="-0.337733000">
  <ele>120.600000</ele>
  <time>2012-03-10T08:12:02Z</time>
  <sat>9</sat>
</trkpt>
<trkpt lat="39.693330000" lon="-0.337775000">
  <ele>121.100000</ele>
  <time>2012-03-10T08:12:04Z</time>
  <sat>9</sat>
</trkpt>
<trkpt lat="39.693271000" lon="-0.338148000">
  <ele>123.900000</ele>
  <time>2012-03-10T08:12:21Z</time>
  <sat>9</sat>
</trkpt>
<trkpt lat="39.693266000" lon="-0.338169000">
  <ele>124.000000</ele>
  <time>2012-03-10T08:12:22Z</time>
  <sat>9</sat>
</trkpt>
<trkpt lat="39.693261000" lon="-0.338212000">
  <ele>124.000000</ele>
  <time>2012-03-10T08:12:24Z</time>
  <sat>9</sat>
</trkpt>
<trkpt lat="39.693239000" lon="-0.338530000">
  <ele>126.000000</ele>
  <time>2012-03-10T08:12:38Z</time>
  <sat>9</sat>
</trkpt>
<trkpt lat="39.693232000" lon="-0.338557000">
  <ele>126.400000</ele>
  <time>2012-03-10T08:12:39Z</time>
  <sat>9</sat>
</trkpt>
<trkpt lat="39.693191000" lon="-0.338715000">
  <ele>127.000000</ele>
  <time>2012-03-10T08:12:46Z</time>
  <sat>9</sat>
</trkpt>
<trkpt lat="39.693148000" lon="-0.338905000">
  <ele>128.600000</ele>
  <time>2012-03-10T08:12:54Z</time>
  <sat>8</sat>
</trkpt>
<trkpt lat="39.693120000" lon="-0.339024000">
  <ele>130.100000</ele>
  <time>2012-03-10T08:12:59Z</time>
  <sat>9</sat>
</trkpt>
<trkpt lat="39.693111000" lon="-0.339046000">
  <ele>130.300000</ele>
  <time>2012-03-10T08:13:00Z</time>
  <sat>9</sat>
</trkpt>
<trkpt lat="39.693075000" lon="-0.339147000">
  <ele>131.500000</ele>
  <time>2012-03-10T08:13:05Z</time>
  <sat>10</sat>
</trkpt>
<trkpt lat="39.693067000" lon="-0.339164000">
  <ele>131.800000</ele>
  <time>2012-03-10T08:13:06Z</time>
  <sat>10</sat>
</trkpt>
<trkpt lat="39.693044000" lon="-0.339220000">
  <ele>133.000000</ele>
  <time>2012-03-10T08:13:09Z</time>
  <sat>10</sat>
</trkpt>
<trkpt lat="39.693039000" lon="-0.339239000">
  <ele>133.100000</ele>
  <time>2012-03-10T08:13:10Z</time>
  <sat>10</sat>
</trkpt>
<trkpt lat="39.693036000" lon="-0.339261000">
  <ele>133.100000</ele>
  <time>2012-03-10T08:13:11Z</time>
  <sat>10</sat>
</trkpt>
<trkpt lat="39.693027000" lon="-0.339354000">
  <ele>134.100000</ele>
  <time>2012-03-10T08:13:15Z</time>
  <sat>9</sat>
</trkpt>
<trkpt lat="39.692999000" lon="-0.339617000">
  <ele>133.800000</ele>
  <time>2012-03-10T08:13:25Z</time>
  <sat>10</sat>
</trkpt>
<trkpt lat="39.692991000" lon="-0.339641000">
  <ele>134.100000</ele>
  <time>2012-03-10T08:13:26Z</time>
  <sat>10</sat>
</trkpt>
<trkpt lat="39.692921000" lon="-0.339880000">
  <ele>136.500000</ele>
  <time>2012-03-10T08:13:35Z</time>
  <sat>9</sat>
</trkpt>
<trkpt lat="39.692918000" lon="-0.339908000">
  <ele>136.800000</ele>
  <time>2012-03-10T08:13:36Z</time>
  <sat>10</sat>
</trkpt>
<trkpt lat="39.692903000" lon="-0.340040000">
  <ele>138.500000</ele>
  <time>2012-03-10T08:13:41Z</time>
  <sat>10</sat>
</trkpt>
<trkpt lat="39.692897000" lon="-0.340061000">
  <ele>138.500000</ele>
  <time>2012-03-10T08:13:42Z</time>
  <sat>10</sat>
</trkpt>
<trkpt lat="39.692865000" lon="-0.340154000">
  <ele>139.800000</ele>
  <time>2012-03-10T08:13:46Z</time>
  <sat>10</sat>
</trkpt>
<trkpt lat="39.692838000" lon="-0.340210000">
  <ele>140.100000</ele>
  <time>2012-03-10T08:13:49Z</time>
  <sat>10</sat>
</trkpt>
<trkpt lat="39.692830000" lon="-0.340227000">
  <ele>140.300000</ele>
  <time>2012-03-10T08:13:50Z</time>
  <sat>10</sat>
</trkpt>
<trkpt lat="39.692801000" lon="-0.340280000">
  <ele>140.800000</ele>
  <time>2012-03-10T08:13:53Z</time>
  <sat>10</sat>
</trkpt>
<trkpt lat="39.692779000" lon="-0.340313000">
  <ele>141.100000</ele>
  <time>2012-03-10T08:13:55Z</time>
  <sat>10</sat>
</trkpt>
<trkpt lat="39.692766000" lon="-0.340326000">
  <ele>141.300000</ele>
  <time>2012-03-10T08:13:56Z</time>
  <sat>10</sat>
</trkpt>
<trkpt lat="39.692738000" lon="-0.340350000">
  <ele>141.500000</ele>
  <time>2012-03-10T08:13:58Z</time>
  <sat>10</sat>
</trkpt>
<trkpt lat="39.692723000" lon="-0.340359000">
  <ele>141.600000</ele>
  <time>2012-03-10T08:13:59Z</time>
  <sat>10</sat>
</trkpt>
<trkpt lat="39.692691000" lon="-0.340378000">
  <ele>142.100000</ele>
  <time>2012-03-10T08:14:01Z</time>
  <sat>10</sat>
</trkpt>
<trkpt lat="39.692674000" lon="-0.340383000">
  <ele>142.300000</ele>
  <time>2012-03-10T08:14:02Z</time>
  <sat>10</sat>
</trkpt>
<trkpt lat="39.692658000" lon="-0.340385000">
  <ele>142.600000</ele>
  <time>2012-03-10T08:14:03Z</time>
  <sat>10</sat>
</trkpt>
<trkpt lat="39.692610000" lon="-0.340391000">
  <ele>143.500000</ele>
  <time>2012-03-10T08:14:06Z</time>
  <sat>10</sat>
</trkpt>
<trkpt lat="39.692595000" lon="-0.340387000">
  <ele>144.100000</ele>
  <time>2012-03-10T08:14:07Z</time>
  <sat>10</sat>
</trkpt>
<trkpt lat="39.692536000" lon="-0.340373000">
  <ele>145.100000</ele>
  <time>2012-03-10T08:14:11Z</time>
  <sat>10</sat>
</trkpt>
<trkpt lat="39.692520000" lon="-0.340367000">
  <ele>145.300000</ele>
  <time>2012-03-10T08:14:12Z</time>
  <sat>9</sat>
</trkpt>
<trkpt lat="39.692491000" lon="-0.340348000">
  <ele>145.600000</ele>
  <time>2012-03-10T08:14:14Z</time>
  <sat>9</sat>
</trkpt>
<trkpt lat="39.692477000" lon="-0.340334000">
  <ele>145.800000</ele>
  <time>2012-03-10T08:14:15Z</time>
  <sat>9</sat>
</trkpt>
<trkpt lat="39.692463000" lon="-0.340326000">
  <ele>146.000000</ele>
  <time>2012-03-10T08:14:16Z</time>
  <sat>10</sat>
</trkpt>
<trkpt lat="39.692392000" lon="-0.340278000">
  <ele>147.300000</ele>
  <time>2012-03-10T08:14:21Z</time>
  <sat>10</sat>
</trkpt>
<trkpt lat="39.692379000" lon="-0.340266000">
  <ele>147.800000</ele>
  <time>2012-03-10T08:14:22Z</time>
  <sat>10</sat>
</trkpt>
<trkpt lat="39.692370000" lon="-0.340247000">
  <ele>148.000000</ele>
  <time>2012-03-10T08:14:23Z</time>
  <sat>10</sat>
</trkpt>
<trkpt lat="39.692361000" lon="-0.340233000">
  <ele>148.100000</ele>
  <time>2012-03-10T08:14:24Z</time>
  <sat>10</sat>
</trkpt>
<trkpt lat="39.692350000" lon="-0.340223000">
  <ele>148.300000</ele>
  <time>2012-03-10T08:14:25Z</time>
  <sat>10</sat>
</trkpt>
<trkpt lat="39.692339000" lon="-0.340211000">
  <ele>148.500000</ele>
  <time>2012-03-10T08:14:26Z</time>
  <sat>9</sat>
</trkpt>
<trkpt lat="39.692313000" lon="-0.340193000">
  <ele>148.800000</ele>
  <time>2012-03-10T08:14:28Z</time>
  <sat>10</sat>
</trkpt>
<trkpt lat="39.692283000" lon="-0.340182000">
  <ele>149.100000</ele>
  <time>2012-03-10T08:14:30Z</time>
  <sat>10</sat>
</trkpt>
<trkpt lat="39.692268000" lon="-0.340182000">
  <ele>149.800000</ele>
  <time>2012-03-10T08:14:31Z</time>
  <sat>10</sat>
</trkpt>
<trkpt lat="39.692183000" lon="-0.340174000">
  <ele>151.600000</ele>
  <time>2012-03-10T08:14:37Z</time>
  <sat>9</sat>
</trkpt>
<trkpt lat="39.692170000" lon="-0.340172000">
  <ele>151.800000</ele>
  <time>2012-03-10T08:14:38Z</time>
  <sat>9</sat>
</trkpt>
<trkpt lat="39.692144000" lon="-0.340170000">
  <ele>152.600000</ele>
  <time>2012-03-10T08:14:40Z</time>
  <sat>9</sat>
</trkpt>
<trkpt lat="39.692115000" lon="-0.340167000">
  <ele>153.600000</ele>
  <time>2012-03-10T08:14:42Z</time>
  <sat>9</sat>
</trkpt>
<trkpt lat="39.692098000" lon="-0.340163000">
  <ele>154.100000</ele>
  <time>2012-03-10T08:14:43Z</time>
  <sat>9</sat>
</trkpt>
<trkpt lat="39.692034000" lon="-0.340187000">
  <ele>155.300000</ele>
  <time>2012-03-10T08:14:47Z</time>
  <sat>9</sat>
</trkpt>
<trkpt lat="39.692018000" lon="-0.340197000">
  <ele>155.800000</ele>
  <time>2012-03-10T08:14:48Z</time>
  <sat>9</sat>
</trkpt>
<trkpt lat="39.692004000" lon="-0.340204000">
  <ele>156.100000</ele>
  <time>2012-03-10T08:14:49Z</time>
  <sat>9</sat>
</trkpt>
<trkpt lat="39.691993000" lon="-0.340201000">
  <ele>156.100000</ele>
  <time>2012-03-10T08:14:50Z</time>
  <sat>9</sat>
</trkpt>
<trkpt lat="39.691958000" lon="-0.340202000">
  <ele>157.500000</ele>
  <time>2012-03-10T08:14:52Z</time>
  <sat>9</sat>
</trkpt>
<trkpt lat="39.691895000" lon="-0.340202000">
  <ele>157.800000</ele>
  <time>2012-03-10T08:14:56Z</time>
  <sat>9</sat>
</trkpt>
<trkpt lat="39.691885000" lon="-0.340197000">
  <ele>157.800000</ele>
  <time>2012-03-10T08:14:57Z</time>
  <sat>9</sat>
</trkpt>
<trkpt lat="39.691812000" lon="-0.340155000">
  <ele>158.300000</ele>
  <time>2012-03-10T08:15:02Z</time>
  <sat>9</sat>
</trkpt>
<trkpt lat="39.691729000" lon="-0.340113000">
  <ele>159.800000</ele>
  <time>2012-03-10T08:15:08Z</time>
  <sat>10</sat>
</trkpt>
<trkpt lat="39.691714000" lon="-0.340119000">
  <ele>160.100000</ele>
  <time>2012-03-10T08:15:09Z</time>
  <sat>10</sat>
</trkpt>
<trkpt lat="39.691703000" lon="-0.340117000">
  <ele>160.300000</ele>
  <time>2012-03-10T08:15:10Z</time>
  <sat>10</sat>
</trkpt>
<trkpt lat="39.691678000" lon="-0.340114000">
  <ele>160.600000</ele>
  <time>2012-03-10T08:15:12Z</time>
  <sat>10</sat>
</trkpt>
<trkpt lat="39.691664000" lon="-0.340111000">
  <ele>160.100000</ele>
  <time>2012-03-10T08:15:13Z</time>
  <sat>10</sat>
</trkpt>
<trkpt lat="39.691649000" lon="-0.340112000">
  <ele>160.300000</ele>
  <time>2012-03-10T08:15:14Z</time>
  <sat>10</sat>
</trkpt>
<trkpt lat="39.691636000" lon="-0.340112000">
  <ele>160.800000</ele>
  <time>2012-03-10T08:15:15Z</time>
  <sat>10</sat>
</trkpt>
<trkpt lat="39.691615000" lon="-0.340117000">
  <ele>160.800000</ele>
  <time>2012-03-10T08:15:17Z</time>
  <sat>10</sat>
</trkpt>
<trkpt lat="39.691603000" lon="-0.340122000">
  <ele>161.100000</ele>
  <time>2012-03-10T08:15:18Z</time>
  <sat>10</sat>
</trkpt>
<trkpt lat="39.691581000" lon="-0.340131000">
  <ele>161.300000</ele>
  <time>2012-03-10T08:15:20Z</time>
  <sat>10</sat>
</trkpt>
<trkpt lat="39.691571000" lon="-0.340138000">
  <ele>161.300000</ele>
  <time>2012-03-10T08:15:21Z</time>
  <sat>10</sat>
</trkpt>
<trkpt lat="39.691439000" lon="-0.340203000">
  <ele>163.500000</ele>
  <time>2012-03-10T08:15:31Z</time>
  <sat>10</sat>
</trkpt>
<trkpt lat="39.691425000" lon="-0.340210000">
  <ele>163.800000</ele>
  <time>2012-03-10T08:15:32Z</time>
  <sat>10</sat>
</trkpt>
<trkpt lat="39.691412000" lon="-0.340223000">
  <ele>163.800000</ele>
  <time>2012-03-10T08:15:33Z</time>
  <sat>10</sat>
</trkpt>
<trkpt lat="39.691387000" lon="-0.340254000">
  <ele>164.300000</ele>
  <time>2012-03-10T08:15:35Z</time>
  <sat>10</sat>
</trkpt>
<trkpt lat="39.691374000" lon="-0.340266000">
  <ele>164.500000</ele>
  <time>2012-03-10T08:15:36Z</time>
  <sat>10</sat>
</trkpt>
<trkpt lat="39.691356000" lon="-0.340276000">
  <ele>164.600000</ele>
  <time>2012-03-10T08:15:37Z</time>
  <sat>10</sat>
</trkpt>
<trkpt lat="39.691339000" lon="-0.340284000">
  <ele>164.800000</ele>
  <time>2012-03-10T08:15:38Z</time>
  <sat>10</sat>
</trkpt>
<trkpt lat="39.691100000" lon="-0.340373000">
  <ele>167.100000</ele>
  <time>2012-03-10T08:15:52Z</time>
  <sat>10</sat>
</trkpt>
<trkpt lat="39.691083000" lon="-0.340371000">
  <ele>167.300000</ele>
  <time>2012-03-10T08:15:53Z</time>
  <sat>10</sat>
</trkpt>
<trkpt lat="39.691052000" lon="-0.340372000">
  <ele>168.100000</ele>
  <time>2012-03-10T08:15:55Z</time>
  <sat>10</sat>
</trkpt>
<trkpt lat="39.691037000" lon="-0.340378000">
  <ele>168.300000</ele>
  <time>2012-03-10T08:15:56Z</time>
  <sat>9</sat>
</trkpt>
<trkpt lat="39.690931000" lon="-0.340419000">
  <ele>169.800000</ele>
  <time>2012-03-10T08:16:03Z</time>
  <sat>7</sat>
</trkpt>
<trkpt lat="39.690915000" lon="-0.340421000">
  <ele>170.100000</ele>
  <time>2012-03-10T08:16:04Z</time>
  <sat>7</sat>
</trkpt>
<trkpt lat="39.690899000" lon="-0.340425000">
  <ele>170.600000</ele>
  <time>2012-03-10T08:16:05Z</time>
  <sat>8</sat>
</trkpt>
<trkpt lat="39.690871000" lon="-0.340435000">
  <ele>171.600000</ele>
  <time>2012-03-10T08:16:07Z</time>
  <sat>8</sat>
</trkpt>
<trkpt lat="39.690810000" lon="-0.340456000">
  <ele>173.100000</ele>
  <time>2012-03-10T08:16:11Z</time>
  <sat>9</sat>
</trkpt>
<trkpt lat="39.690792000" lon="-0.340456000">
  <ele>173.600000</ele>
  <time>2012-03-10T08:16:12Z</time>
  <sat>9</sat>
</trkpt>
<trkpt lat="39.690778000" lon="-0.340460000">
  <ele>174.100000</ele>
  <time>2012-03-10T08:16:13Z</time>
  <sat>9</sat>
</trkpt>
<trkpt lat="39.690764000" lon="-0.340464000">
  <ele>174.600000</ele>
  <time>2012-03-10T08:16:14Z</time>
  <sat>10</sat>
</trkpt>
<trkpt lat="39.690750000" lon="-0.340463000">
  <ele>174.800000</ele>
  <time>2012-03-10T08:16:15Z</time>
  <sat>10</sat>
</trkpt>
<trkpt lat="39.690734000" lon="-0.340466000">
  <ele>175.000000</ele>
  <time>2012-03-10T08:16:16Z</time>
  <sat>10</sat>
</trkpt>
<trkpt lat="39.690721000" lon="-0.340474000">
  <ele>175.300000</ele>
  <time>2012-03-10T08:16:17Z</time>
  <sat>10</sat>
</trkpt>
<trkpt lat="39.690707000" lon="-0.340480000">
  <ele>175.500000</ele>
  <time>2012-03-10T08:16:18Z</time>
  <sat>10</sat>
</trkpt>
<trkpt lat="39.690693000" lon="-0.340482000">
  <ele>176.000000</ele>
  <time>2012-03-10T08:16:19Z</time>
  <sat>10</sat>
</trkpt>
<trkpt lat="39.690650000" lon="-0.340489000">
  <ele>176.600000</ele>
  <time>2012-03-10T08:16:22Z</time>
  <sat>10</sat>
</trkpt>
<trkpt lat="39.690635000" lon="-0.340488000">
  <ele>176.800000</ele>
  <time>2012-03-10T08:16:23Z</time>
  <sat>10</sat>
</trkpt>
<trkpt lat="39.690588000" lon="-0.340492000">
  <ele>177.800000</ele>
  <time>2012-03-10T08:16:26Z</time>
  <sat>8</sat>
</trkpt>
<trkpt lat="39.690576000" lon="-0.340497000">
  <ele>177.800000</ele>
  <time>2012-03-10T08:16:27Z</time>
  <sat>8</sat>
</trkpt>
<trkpt lat="39.690552000" lon="-0.340516000">
  <ele>178.300000</ele>
  <time>2012-03-10T08:16:29Z</time>
  <sat>8</sat>
</trkpt>
<trkpt lat="39.690540000" lon="-0.340528000">
  <ele>179.100000</ele>
  <time>2012-03-10T08:16:30Z</time>
  <sat>8</sat>
</trkpt>
<trkpt lat="39.690528000" lon="-0.340546000">
  <ele>179.800000</ele>
  <time>2012-03-10T08:16:31Z</time>
  <sat>9</sat>
</trkpt>
<trkpt lat="39.690491000" lon="-0.340615000">
  <ele>180.500000</ele>
  <time>2012-03-10T08:16:35Z</time>
  <sat>9</sat>
</trkpt>
<trkpt lat="39.690484000" lon="-0.340637000">
  <ele>180.600000</ele>
  <time>2012-03-10T08:16:36Z</time>
  <sat>9</sat>
</trkpt>
<trkpt lat="39.690480000" lon="-0.340659000">
  <ele>181.000000</ele>
  <time>2012-03-10T08:16:37Z</time>
  <sat>9</sat>
</trkpt>
<trkpt lat="39.690465000" lon="-0.340727000">
  <ele>181.800000</ele>
  <time>2012-03-10T08:16:40Z</time>
  <sat>9</sat>
</trkpt>
<trkpt lat="39.690456000" lon="-0.340746000">
  <ele>181.800000</ele>
  <time>2012-03-10T08:16:41Z</time>
  <sat>9</sat>
</trkpt>
<trkpt lat="39.690450000" lon="-0.340768000">
  <ele>181.600000</ele>
  <time>2012-03-10T08:16:42Z</time>
  <sat>9</sat>
</trkpt>
<trkpt lat="39.690413000" lon="-0.340910000">
  <ele>181.600000</ele>
  <time>2012-03-10T08:16:48Z</time>
  <sat>9</sat>
</trkpt>
<trkpt lat="39.690403000" lon="-0.340935000">
  <ele>181.600000</ele>
  <time>2012-03-10T08:16:49Z</time>
  <sat>9</sat>
</trkpt>
<trkpt lat="39.690380000" lon="-0.340983000">
  <ele>182.300000</ele>
  <time>2012-03-10T08:16:51Z</time>
  <sat>9</sat>
</trkpt>
<trkpt lat="39.690317000" lon="-0.341098000">
  <ele>182.600000</ele>
  <time>2012-03-10T08:16:56Z</time>
  <sat>9</sat>
</trkpt>
<trkpt lat="39.690304000" lon="-0.341119000">
  <ele>182.800000</ele>
  <time>2012-03-10T08:16:57Z</time>
  <sat>9</sat>
</trkpt>
<trkpt lat="39.690197000" lon="-0.341318000">
  <ele>182.600000</ele>
  <time>2012-03-10T08:17:06Z</time>
  <sat>9</sat>
</trkpt>
<trkpt lat="39.690132000" lon="-0.341386000">
  <ele>182.600000</ele>
  <time>2012-03-10T08:17:10Z</time>
  <sat>10</sat>
</trkpt>
<trkpt lat="39.690114000" lon="-0.341399000">
  <ele>182.800000</ele>
  <time>2012-03-10T08:17:11Z</time>
  <sat>10</sat>
</trkpt>
<trkpt lat="39.690077000" lon="-0.341423000">
  <ele>183.100000</ele>
  <time>2012-03-10T08:17:13Z</time>
  <sat>10</sat>
</trkpt>
<trkpt lat="39.689976000" lon="-0.341486000">
  <ele>183.800000</ele>
  <time>2012-03-10T08:17:18Z</time>
  <sat>9</sat>
</trkpt>
<trkpt lat="39.689899000" lon="-0.341523000">
  <ele>184.800000</ele>
  <time>2012-03-10T08:17:22Z</time>
  <sat>10</sat>
</trkpt>
<trkpt lat="39.689861000" lon="-0.341547000">
  <ele>185.600000</ele>
  <time>2012-03-10T08:17:24Z</time>
  <sat>10</sat>
</trkpt>
<trkpt lat="39.689844000" lon="-0.341564000">
  <ele>185.800000</ele>
  <time>2012-03-10T08:17:25Z</time>
  <sat>9</sat>
</trkpt>
<trkpt lat="39.689830000" lon="-0.341583000">
  <ele>186.000000</ele>
  <time>2012-03-10T08:17:26Z</time>
  <sat>9</sat>
</trkpt>
<trkpt lat="39.689773000" lon="-0.341658000">
  <ele>186.600000</ele>
  <time>2012-03-10T08:17:30Z</time>
  <sat>9</sat>
</trkpt>
<trkpt lat="39.689757000" lon="-0.341674000">
  <ele>187.000000</ele>
  <time>2012-03-10T08:17:31Z</time>
  <sat>9</sat>
</trkpt>
<trkpt lat="39.689714000" lon="-0.341729000">
  <ele>188.100000</ele>
  <time>2012-03-10T08:17:34Z</time>
  <sat>9</sat>
</trkpt>
<trkpt lat="39.689706000" lon="-0.341748000">
  <ele>188.100000</ele>
  <time>2012-03-10T08:17:35Z</time>
  <sat>9</sat>
</trkpt>
<trkpt lat="39.689687000" lon="-0.341790000">
  <ele>188.800000</ele>
  <time>2012-03-10T08:17:37Z</time>
  <sat>9</sat>
</trkpt>
<trkpt lat="39.689676000" lon="-0.341808000">
  <ele>189.300000</ele>
  <time>2012-03-10T08:17:38Z</time>
  <sat>9</sat>
</trkpt>
<trkpt lat="39.689664000" lon="-0.341824000">
  <ele>189.600000</ele>
  <time>2012-03-10T08:17:39Z</time>
  <sat>9</sat>
</trkpt>
<trkpt lat="39.689649000" lon="-0.341837000">
  <ele>189.600000</ele>
  <time>2012-03-10T08:17:40Z</time>
  <sat>10</sat>
</trkpt>
<trkpt lat="39.689578000" lon="-0.341895000">
  <ele>189.800000</ele>
  <time>2012-03-10T08:17:45Z</time>
  <sat>9</sat>
</trkpt>
<trkpt lat="39.689510000" lon="-0.341968000">
  <ele>190.600000</ele>
  <time>2012-03-10T08:17:50Z</time>
  <sat>8</sat>
</trkpt>
<trkpt lat="39.689499000" lon="-0.341985000">
  <ele>190.600000</ele>
  <time>2012-03-10T08:17:51Z</time>
  <sat>9</sat>
</trkpt>
<trkpt lat="39.689467000" lon="-0.342045000">
  <ele>191.300000</ele>
  <time>2012-03-10T08:17:54Z</time>
  <sat>9</sat>
</trkpt>
<trkpt lat="39.689434000" lon="-0.342131000">
  <ele>191.500000</ele>
  <time>2012-03-10T08:17:58Z</time>
  <sat>9</sat>
</trkpt>
<trkpt lat="39.689429000" lon="-0.342155000">
  <ele>191.500000</ele>
  <time>2012-03-10T08:17:59Z</time>
  <sat>9</sat>
</trkpt>
<trkpt lat="39.689409000" lon="-0.342226000">
  <ele>192.000000</ele>
  <time>2012-03-10T08:18:02Z</time>
  <sat>10</sat>
</trkpt>
<trkpt lat="39.689358000" lon="-0.342372000">
  <ele>193.600000</ele>
  <time>2012-03-10T08:18:09Z</time>
  <sat>10</sat>
</trkpt>
<trkpt lat="39.689349000" lon="-0.342392000">
  <ele>193.800000</ele>
  <time>2012-03-10T08:18:10Z</time>
  <sat>10</sat>
</trkpt>
<trkpt lat="39.689343000" lon="-0.342413000">
  <ele>194.100000</ele>
  <time>2012-03-10T08:18:11Z</time>
  <sat>9</sat>
</trkpt>
<trkpt lat="39.689328000" lon="-0.342455000">
  <ele>194.100000</ele>
  <time>2012-03-10T08:18:13Z</time>
  <sat>9</sat>
</trkpt>
<trkpt lat="39.689274000" lon="-0.342633000">
  <ele>193.500000</ele>
  <time>2012-03-10T08:18:21Z</time>
  <sat>10</sat>
</trkpt>
<trkpt lat="39.689239000" lon="-0.342835000">
  <ele>195.100000</ele>
  <time>2012-03-10T08:18:28Z</time>
  <sat>10</sat>
</trkpt>
<trkpt lat="39.689241000" lon="-0.342865000">
  <ele>195.300000</ele>
  <time>2012-03-10T08:18:29Z</time>
  <sat>10</sat>
</trkpt>
<trkpt lat="39.689255000" lon="-0.342989000">
  <ele>195.800000</ele>
  <time>2012-03-10T08:18:33Z</time>
  <sat>10</sat>
</trkpt>
<trkpt lat="39.689264000" lon="-0.343019000">
  <ele>195.800000</ele>
  <time>2012-03-10T08:18:34Z</time>
  <sat>10</sat>
</trkpt>
<trkpt lat="39.689282000" lon="-0.343080000">
  <ele>195.600000</ele>
  <time>2012-03-10T08:18:36Z</time>
  <sat>10</sat>
</trkpt>
<trkpt lat="39.689292000" lon="-0.343146000">
  <ele>195.800000</ele>
  <time>2012-03-10T08:18:38Z</time>
  <sat>10</sat>
</trkpt>
<trkpt lat="39.689300000" lon="-0.343244000">
  <ele>196.300000</ele>
  <time>2012-03-10T08:18:41Z</time>
  <sat>10</sat>
</trkpt>
<trkpt lat="39.689297000" lon="-0.343310000">
  <ele>196.500000</ele>
  <time>2012-03-10T08:18:43Z</time>
  <sat>10</sat>
</trkpt>
<trkpt lat="39.689291000" lon="-0.343379000">
  <ele>196.600000</ele>
  <time>2012-03-10T08:18:45Z</time>
  <sat>10</sat>
</trkpt>
<trkpt lat="39.689253000" lon="-0.343596000">
  <ele>197.600000</ele>
  <time>2012-03-10T08:18:52Z</time>
  <sat>10</sat>
</trkpt>
<trkpt lat="39.689235000" lon="-0.343713000">
  <ele>198.300000</ele>
  <time>2012-03-10T08:18:56Z</time>
  <sat>9</sat>
</trkpt>
<trkpt lat="39.689212000" lon="-0.343870000">
  <ele>198.300000</ele>
  <time>2012-03-10T08:19:01Z</time>
  <sat>9</sat>
</trkpt>
<trkpt lat="39.689207000" lon="-0.343902000">
  <ele>198.300000</ele>
  <time>2012-03-10T08:19:02Z</time>
  <sat>8</sat>
</trkpt>
<trkpt lat="39.689136000" lon="-0.344320000">
  <ele>200.600000</ele>
  <time>2012-03-10T08:19:16Z</time>
  <sat>8</sat>
</trkpt>
<trkpt lat="39.689070000" lon="-0.344531000">
  <ele>203.800000</ele>
  <time>2012-03-10T08:19:24Z</time>
  <sat>10</sat>
</trkpt>
<trkpt lat="39.689052000" lon="-0.344594000">
  <ele>205.100000</ele>
  <time>2012-03-10T08:19:27Z</time>
  <sat>10</sat>
</trkpt>
<trkpt lat="39.689045000" lon="-0.344615000">
  <ele>205.100000</ele>
  <time>2012-03-10T08:19:28Z</time>
  <sat>10</sat>
</trkpt>
<trkpt lat="39.689033000" lon="-0.344632000">
  <ele>205.300000</ele>
  <time>2012-03-10T08:19:29Z</time>
  <sat>8</sat>
</trkpt>
<trkpt lat="39.689008000" lon="-0.344675000">
  <ele>205.300000</ele>
  <time>2012-03-10T08:19:32Z</time>
  <sat>7</sat>
</trkpt>
<trkpt lat="39.689002000" lon="-0.344696000">
  <ele>205.300000</ele>
  <time>2012-03-10T08:19:33Z</time>
  <sat>7</sat>
</trkpt>
<trkpt lat="39.688996000" lon="-0.344720000">
  <ele>205.300000</ele>
  <time>2012-03-10T08:19:34Z</time>
  <sat>7</sat>
</trkpt>
<trkpt lat="39.688987000" lon="-0.344737000">
  <ele>205.500000</ele>
  <time>2012-03-10T08:19:35Z</time>
  <sat>8</sat>
</trkpt>
<trkpt lat="39.688963000" lon="-0.344749000">
  <ele>205.100000</ele>
  <time>2012-03-10T08:19:36Z</time>
  <sat>7</sat>
</trkpt>
<trkpt lat="39.688922000" lon="-0.344757000">
  <ele>206.300000</ele>
  <time>2012-03-10T08:19:37Z</time>
  <sat>9</sat>
</trkpt>
<trkpt lat="39.688761000" lon="-0.344745000">
  <ele>204.800000</ele>
  <time>2012-03-10T08:19:40Z</time>
  <sat>9</sat>
</trkpt>
<trkpt lat="39.688535000" lon="-0.344698000">
  <ele>203.600000</ele>
  <time>2012-03-10T08:19:44Z</time>
  <sat>9</sat>
</trkpt>
<trkpt lat="39.688478000" lon="-0.344672000">
  <ele>203.100000</ele>
  <time>2012-03-10T08:19:45Z</time>
  <sat>9</sat>
</trkpt>
<trkpt lat="39.688238000" lon="-0.344563000">
  <ele>202.300000</ele>
  <time>2012-03-10T08:19:49Z</time>
  <sat>9</sat>
</trkpt>
<trkpt lat="39.688185000" lon="-0.344523000">
  <ele>202.300000</ele>
  <time>2012-03-10T08:19:50Z</time>
  <sat>9</sat>
</trkpt>
<trkpt lat="39.688082000" lon="-0.344480000">
  <ele>202.800000</ele>
  <time>2012-03-10T08:19:52Z</time>
  <sat>8</sat>
</trkpt>
<trkpt lat="39.688026000" lon="-0.344469000">
  <ele>202.600000</ele>
  <time>2012-03-10T08:19:53Z</time>
  <sat>8</sat>
</trkpt>
<trkpt lat="39.687918000" lon="-0.344493000">
  <ele>203.000000</ele>
  <time>2012-03-10T08:19:55Z</time>
  <sat>8</sat>
</trkpt>
<trkpt lat="39.687871000" lon="-0.344508000">
  <ele>202.800000</ele>
  <time>2012-03-10T08:19:56Z</time>
  <sat>8</sat>
</trkpt>
<trkpt lat="39.687829000" lon="-0.344539000">
  <ele>203.100000</ele>
  <time>2012-03-10T08:19:57Z</time>
  <sat>8</sat>
</trkpt>
<trkpt lat="39.687769000" lon="-0.344596000">
  <ele>202.600000</ele>
  <time>2012-03-10T08:19:59Z</time>
  <sat>8</sat>
</trkpt>
<trkpt lat="39.687629000" lon="-0.344730000">
  <ele>201.100000</ele>
  <time>2012-03-10T08:20:03Z</time>
  <sat>8</sat>
</trkpt>
<trkpt lat="39.687586000" lon="-0.344761000">
  <ele>201.000000</ele>
  <time>2012-03-10T08:20:04Z</time>
  <sat>8</sat>
</trkpt>
<trkpt lat="39.687515000" lon="-0.344898000">
  <ele>199.300000</ele>
  <time>2012-03-10T08:20:07Z</time>
  <sat>8</sat>
</trkpt>
<trkpt lat="39.687505000" lon="-0.344951000">
  <ele>200.800000</ele>
  <time>2012-03-10T08:20:08Z</time>
  <sat>8</sat>
</trkpt>
<trkpt lat="39.687491000" lon="-0.344993000">
  <ele>201.300000</ele>
  <time>2012-03-10T08:20:09Z</time>
  <sat>8</sat>
</trkpt>
<trkpt lat="39.687452000" lon="-0.345089000">
  <ele>202.600000</ele>
  <time>2012-03-10T08:20:12Z</time>
  <sat>8</sat>
</trkpt>
<trkpt lat="39.687438000" lon="-0.345111000">
  <ele>202.800000</ele>
  <time>2012-03-10T08:20:13Z</time>
  <sat>8</sat>
</trkpt>
<trkpt lat="39.687417000" lon="-0.345126000">
  <ele>202.600000</ele>
  <time>2012-03-10T08:20:14Z</time>
  <sat>8</sat>
</trkpt>
<trkpt lat="39.687385000" lon="-0.345155000">
  <ele>202.600000</ele>
  <time>2012-03-10T08:20:16Z</time>
  <sat>7</sat>
</trkpt>
<trkpt lat="39.687369000" lon="-0.345176000">
  <ele>203.800000</ele>
  <time>2012-03-10T08:20:17Z</time>
  <sat>9</sat>
</trkpt>
<trkpt lat="39.687343000" lon="-0.345213000">
  <ele>204.300000</ele>
  <time>2012-03-10T08:20:19Z</time>
  <sat>9</sat>
</trkpt>
<trkpt lat="39.687319000" lon="-0.345271000">
  <ele>204.300000</ele>
  <time>2012-03-10T08:20:21Z</time>
  <sat>9</sat>
</trkpt>
<trkpt lat="39.687282000" lon="-0.345364000">
  <ele>203.800000</ele>
  <time>2012-03-10T08:20:25Z</time>
  <sat>9</sat>
</trkpt>
<trkpt lat="39.687222000" lon="-0.345497000">
  <ele>203.300000</ele>
  <time>2012-03-10T08:20:29Z</time>
  <sat>9</sat>
</trkpt>
<trkpt lat="39.687187000" lon="-0.345618000">
  <ele>202.800000</ele>
  <time>2012-03-10T08:20:32Z</time>
  <sat>8</sat>
</trkpt>
<trkpt lat="39.687202000" lon="-0.345691000">
  <ele>203.000000</ele>
  <time>2012-03-10T08:20:33Z</time>
  <sat>8</sat>
</trkpt>
<trkpt lat="39.687229000" lon="-0.345862000">
  <ele>203.600000</ele>
  <time>2012-03-10T08:20:35Z</time>
  <sat>8</sat>
</trkpt>
<trkpt lat="39.687232000" lon="-0.345937000">
  <ele>203.600000</ele>
  <time>2012-03-10T08:20:36Z</time>
  <sat>8</sat>
</trkpt>
<trkpt lat="39.687243000" lon="-0.346136000">
  <ele>203.000000</ele>
  <time>2012-03-10T08:20:39Z</time>
  <sat>8</sat>
</trkpt>
<trkpt lat="39.687257000" lon="-0.346195000">
  <ele>202.500000</ele>
  <time>2012-03-10T08:20:40Z</time>
  <sat>8</sat>
</trkpt>
<trkpt lat="39.687283000" lon="-0.346244000">
  <ele>202.300000</ele>
  <time>2012-03-10T08:20:41Z</time>
  <sat>8</sat>
</trkpt>
<trkpt lat="39.687342000" lon="-0.346271000">
  <ele>200.500000</ele>
  <time>2012-03-10T08:20:42Z</time>
  <sat>9</sat>
</trkpt>
<trkpt lat="39.687391000" lon="-0.346306000">
  <ele>200.600000</ele>
  <time>2012-03-10T08:20:43Z</time>
  <sat>8</sat>
</trkpt>
<trkpt lat="39.687593000" lon="-0.346396000">
  <ele>199.600000</ele>
  <time>2012-03-10T08:20:48Z</time>
  <sat>9</sat>
</trkpt>
<trkpt lat="39.687623000" lon="-0.346447000">
  <ele>199.100000</ele>
  <time>2012-03-10T08:20:49Z</time>
  <sat>9</sat>
</trkpt>
<trkpt lat="39.687647000" lon="-0.346489000">
  <ele>197.300000</ele>
  <time>2012-03-10T08:20:50Z</time>
  <sat>9</sat>
</trkpt>
<trkpt lat="39.687672000" lon="-0.346531000">
  <ele>196.600000</ele>
  <time>2012-03-10T08:20:51Z</time>
  <sat>9</sat>
</trkpt>
<trkpt lat="39.687736000" lon="-0.346706000">
  <ele>195.600000</ele>
  <time>2012-03-10T08:20:55Z</time>
  <sat>9</sat>
</trkpt>
<trkpt lat="39.687737000" lon="-0.346745000">
  <ele>195.500000</ele>
  <time>2012-03-10T08:20:56Z</time>
  <sat>9</sat>
</trkpt>
<trkpt lat="39.687780000" lon="-0.347397000">
  <ele>187.500000</ele>
  <time>2012-03-10T08:21:05Z</time>
  <sat>9</sat>
</trkpt>
<trkpt lat="39.687801000" lon="-0.347467000">
  <ele>186.100000</ele>
  <time>2012-03-10T08:21:06Z</time>
  <sat>9</sat>
</trkpt>
<trkpt lat="39.687837000" lon="-0.347534000">
  <ele>185.500000</ele>
  <time>2012-03-10T08:21:07Z</time>
  <sat>9</sat>
</trkpt>
<trkpt lat="39.688051000" lon="-0.347834000">
  <ele>183.800000</ele>
  <time>2012-03-10T08:21:12Z</time>
  <sat>8</sat>
</trkpt>
<trkpt lat="39.688218000" lon="-0.348077000">
  <ele>184.500000</ele>
  <time>2012-03-10T08:21:16Z</time>
  <sat>9</sat>
</trkpt>
<trkpt lat="39.688246000" lon="-0.348148000">
  <ele>183.800000</ele>
  <time>2012-03-10T08:21:17Z</time>
  <sat>9</sat>
</trkpt>
<trkpt lat="39.688263000" lon="-0.348313000">
  <ele>183.600000</ele>
  <time>2012-03-10T08:21:19Z</time>
  <sat>9</sat>
</trkpt>
<trkpt lat="39.688266000" lon="-0.348402000">
  <ele>183.100000</ele>
  <time>2012-03-10T08:21:20Z</time>
  <sat>9</sat>
</trkpt>
<trkpt lat="39.688240000" lon="-0.348475000">
  <ele>182.600000</ele>
  <time>2012-03-10T08:21:21Z</time>
  <sat>9</sat>
</trkpt>
<trkpt lat="39.688162000" lon="-0.348771000">
  <ele>178.500000</ele>
  <time>2012-03-10T08:21:25Z</time>
  <sat>9</sat>
</trkpt>
<trkpt lat="39.688176000" lon="-0.348820000">
  <ele>178.000000</ele>
  <time>2012-03-10T08:21:26Z</time>
  <sat>9</sat>
</trkpt>
<trkpt lat="39.688245000" lon="-0.348985000">
  <ele>174.300000</ele>
  <time>2012-03-10T08:21:29Z</time>
  <sat>8</sat>
</trkpt>
<trkpt lat="39.688371000" lon="-0.349263000">
  <ele>171.800000</ele>
  <time>2012-03-10T08:21:33Z</time>
  <sat>8</sat>
</trkpt>
<trkpt lat="39.688389000" lon="-0.349331000">
  <ele>171.000000</ele>
  <time>2012-03-10T08:21:34Z</time>
  <sat>8</sat>
</trkpt>
<trkpt lat="39.688468000" lon="-0.349525000">
  <ele>169.500000</ele>
  <time>2012-03-10T08:21:37Z</time>
  <sat>8</sat>
</trkpt>
<trkpt lat="39.688525000" lon="-0.349683000">
  <ele>166.800000</ele>
  <time>2012-03-10T08:21:39Z</time>
  <sat>8</sat>
</trkpt>
<trkpt lat="39.688567000" lon="-0.349872000">
  <ele>165.300000</ele>
  <time>2012-03-10T08:21:41Z</time>
  <sat>8</sat>
</trkpt>
<trkpt lat="39.688577000" lon="-0.349972000">
  <ele>165.300000</ele>
  <time>2012-03-10T08:21:42Z</time>
  <sat>8</sat>
</trkpt>
<trkpt lat="39.688612000" lon="-0.350465000">
  <ele>163.300000</ele>
  <time>2012-03-10T08:21:47Z</time>
  <sat>8</sat>
</trkpt>
<trkpt lat="39.688610000" lon="-0.350558000">
  <ele>163.100000</ele>
  <time>2012-03-10T08:21:48Z</time>
  <sat>8</sat>
</trkpt>
<trkpt lat="39.688559000" lon="-0.350860000">
  <ele>163.500000</ele>
  <time>2012-03-10T08:21:51Z</time>
  <sat>8</sat>
</trkpt>
<trkpt lat="39.688510000" lon="-0.351278000">
  <ele>161.500000</ele>
  <time>2012-03-10T08:21:56Z</time>
  <sat>7</sat>
</trkpt>
<trkpt lat="39.688526000" lon="-0.351343000">
  <ele>160.100000</ele>
  <time>2012-03-10T08:21:57Z</time>
  <sat>7</sat>
</trkpt>
<trkpt lat="39.688580000" lon="-0.351444000">
  <ele>159.100000</ele>
  <time>2012-03-10T08:21:59Z</time>
  <sat>7</sat>
</trkpt>
<trkpt lat="39.688909000" lon="-0.351897000">
  <ele>155.600000</ele>
  <time>2012-03-10T08:22:08Z</time>
  <sat>9</sat>
</trkpt>
<trkpt lat="39.688935000" lon="-0.351913000">
  <ele>155.000000</ele>
  <time>2012-03-10T08:22:09Z</time>
  <sat>9</sat>
</trkpt>
<trkpt lat="39.689004000" lon="-0.351917000">
  <ele>155.800000</ele>
  <time>2012-03-10T08:22:11Z</time>
  <sat>8</sat>
</trkpt>
<trkpt lat="39.689042000" lon="-0.351913000">
  <ele>155.300000</ele>
  <time>2012-03-10T08:22:12Z</time>
  <sat>8</sat>
</trkpt>
<trkpt lat="39.689096000" lon="-0.351919000">
  <ele>153.100000</ele>
  <time>2012-03-10T08:22:13Z</time>
  <sat>8</sat>
</trkpt>
<trkpt lat="39.689375000" lon="-0.351898000">
  <ele>149.600000</ele>
  <time>2012-03-10T08:22:20Z</time>
  <sat>9</sat>
</trkpt>
<trkpt lat="39.689407000" lon="-0.351913000">
  <ele>149.300000</ele>
  <time>2012-03-10T08:22:21Z</time>
  <sat>8</sat>
</trkpt>
<trkpt lat="39.689435000" lon="-0.351932000">
  <ele>149.300000</ele>
  <time>2012-03-10T08:22:22Z</time>
  <sat>8</sat>
</trkpt>
<trkpt lat="39.689527000" lon="-0.351928000">
  <ele>148.800000</ele>
  <time>2012-03-10T08:22:24Z</time>
  <sat>7</sat>
</trkpt>
<trkpt lat="39.689573000" lon="-0.351923000">
  <ele>147.800000</ele>
  <time>2012-03-10T08:22:25Z</time>
  <sat>7</sat>
</trkpt>
<trkpt lat="39.689612000" lon="-0.351905000">
  <ele>147.000000</ele>
  <time>2012-03-10T08:22:26Z</time>
  <sat>7</sat>
</trkpt>
<trkpt lat="39.689639000" lon="-0.351885000">
  <ele>146.800000</ele>
  <time>2012-03-10T08:22:27Z</time>
  <sat>7</sat>
</trkpt>
<trkpt lat="39.689666000" lon="-0.351857000">
  <ele>147.000000</ele>
  <time>2012-03-10T08:22:29Z</time>
  <sat>9</sat>
</trkpt>
<trkpt lat="39.689684000" lon="-0.351837000">
  <ele>146.500000</ele>
  <time>2012-03-10T08:22:30Z</time>
  <sat>9</sat>
</trkpt>
<trkpt lat="39.689712000" lon="-0.351798000">
  <ele>145.100000</ele>
  <time>2012-03-10T08:22:32Z</time>
  <sat>9</sat>
</trkpt>
<trkpt lat="39.689831000" lon="-0.351627000">
  <ele>145.300000</ele>
  <time>2012-03-10T08:22:41Z</time>
  <sat>7</sat>
</trkpt>
<trkpt lat="39.689848000" lon="-0.351608000">
  <ele>145.300000</ele>
  <time>2012-03-10T08:22:42Z</time>
  <sat>7</sat>
</trkpt>
<trkpt lat="39.689901000" lon="-0.351542000">
  <ele>145.600000</ele>
  <time>2012-03-10T08:22:46Z</time>
  <sat>7</sat>
</trkpt>
<trkpt lat="39.689915000" lon="-0.351524000">
  <ele>146.100000</ele>
  <time>2012-03-10T08:22:47Z</time>
  <sat>7</sat>
</trkpt>
<trkpt lat="39.689955000" lon="-0.351479000">
  <ele>147.300000</ele>
  <time>2012-03-10T08:22:50Z</time>
  <sat>9</sat>
</trkpt>
<trkpt lat="39.690038000" lon="-0.351368000">
  <ele>149.300000</ele>
  <time>2012-03-10T08:22:58Z</time>
  <sat>7</sat>
</trkpt>
<trkpt lat="39.690060000" lon="-0.351328000">
  <ele>149.800000</ele>
  <time>2012-03-10T08:23:01Z</time>
  <sat>7</sat>
</trkpt>
<trkpt lat="39.690113000" lon="-0.351235000">
  <ele>149.500000</ele>
  <time>2012-03-10T08:23:07Z</time>
  <sat>9</sat>
</trkpt>
<trkpt lat="39.690124000" lon="-0.351207000">
  <ele>149.800000</ele>
  <time>2012-03-10T08:23:08Z</time>
  <sat>9</sat>
</trkpt>
<trkpt lat="39.690161000" lon="-0.351103000">
  <ele>150.600000</ele>
  <time>2012-03-10T08:23:12Z</time>
  <sat>9</sat>
</trkpt>
<trkpt lat="39.690174000" lon="-0.351077000">
  <ele>150.600000</ele>
  <time>2012-03-10T08:23:13Z</time>
  <sat>9</sat>
</trkpt>
<trkpt lat="39.690188000" lon="-0.351055000">
  <ele>150.300000</ele>
  <time>2012-03-10T08:23:14Z</time>
  <sat>9</sat>
</trkpt>
<trkpt lat="39.690200000" lon="-0.351029000">
  <ele>149.600000</ele>
  <time>2012-03-10T08:23:15Z</time>
  <sat>9</sat>
</trkpt>
<trkpt lat="39.690233000" lon="-0.350961000">
  <ele>150.100000</ele>
  <time>2012-03-10T08:23:19Z</time>
  <sat>9</sat>
</trkpt>
<trkpt lat="39.690273000" lon="-0.350933000">
  <ele>149.600000</ele>
  <time>2012-03-10T08:23:22Z</time>
  <sat>9</sat>
</trkpt>
<trkpt lat="39.690287000" lon="-0.350918000">
  <ele>150.000000</ele>
  <time>2012-03-10T08:23:23Z</time>
  <sat>9</sat>
</trkpt>
<trkpt lat="39.690298000" lon="-0.350906000">
  <ele>150.300000</ele>
  <time>2012-03-10T08:23:24Z</time>
  <sat>7</sat>
</trkpt>
<trkpt lat="39.690310000" lon="-0.350888000">
  <ele>150.600000</ele>
  <time>2012-03-10T08:23:25Z</time>
  <sat>7</sat>
</trkpt>
<trkpt lat="39.690385000" lon="-0.350820000">
  <ele>151.500000</ele>
  <time>2012-03-10T08:23:30Z</time>
  <sat>9</sat>
</trkpt>
<trkpt lat="39.690413000" lon="-0.350790000">
  <ele>152.000000</ele>
  <time>2012-03-10T08:23:32Z</time>
  <sat>9</sat>
</trkpt>
<trkpt lat="39.690423000" lon="-0.350773000">
  <ele>152.100000</ele>
  <time>2012-03-10T08:23:33Z</time>
  <sat>9</sat>
</trkpt>
<trkpt lat="39.690448000" lon="-0.350731000">
  <ele>151.800000</ele>
  <time>2012-03-10T08:23:36Z</time>
  <sat>9</sat>
</trkpt>
<trkpt lat="39.690535000" lon="-0.350616000">
  <ele>152.500000</ele>
  <time>2012-03-10T08:23:42Z</time>
  <sat>9</sat>
</trkpt>
<trkpt lat="39.690568000" lon="-0.350599000">
  <ele>152.600000</ele>
  <time>2012-03-10T08:23:43Z</time>
  <sat>9</sat>
</trkpt>
<trkpt lat="39.690606000" lon="-0.350599000">
  <ele>152.600000</ele>
  <time>2012-03-10T08:23:44Z</time>
  <sat>9</sat>
</trkpt>
<trkpt lat="39.690643000" lon="-0.350581000">
  <ele>153.100000</ele>
  <time>2012-03-10T08:23:45Z</time>
  <sat>9</sat>
</trkpt>
<trkpt lat="39.690680000" lon="-0.350576000">
  <ele>152.800000</ele>
  <time>2012-03-10T08:23:46Z</time>
  <sat>8</sat>
</trkpt>
<trkpt lat="39.690702000" lon="-0.350555000">
  <ele>153.000000</ele>
  <time>2012-03-10T08:23:47Z</time>
  <sat>9</sat>
</trkpt>
<trkpt lat="39.690740000" lon="-0.350532000">
  <ele>153.300000</ele>
  <time>2012-03-10T08:23:48Z</time>
  <sat>9</sat>
</trkpt>
<trkpt lat="39.690770000" lon="-0.350488000">
  <ele>152.600000</ele>
  <time>2012-03-10T08:23:50Z</time>
  <sat>9</sat>
</trkpt>
<trkpt lat="39.690790000" lon="-0.350468000">
  <ele>152.300000</ele>
  <time>2012-03-10T08:23:51Z</time>
  <sat>9</sat>
</trkpt>
<trkpt lat="39.690853000" lon="-0.350429000">
  <ele>153.100000</ele>
  <time>2012-03-10T08:23:54Z</time>
  <sat>8</sat>
</trkpt>
<trkpt lat="39.691084000" lon="-0.350241000">
  <ele>149.100000</ele>
  <time>2012-03-10T08:24:03Z</time>
  <sat>9</sat>
</trkpt>
<trkpt lat="39.691123000" lon="-0.350230000">
  <ele>148.100000</ele>
  <time>2012-03-10T08:24:04Z</time>
  <sat>9</sat>
</trkpt>
<trkpt lat="39.691305000" lon="-0.350152000">
  <ele>144.000000</ele>
  <time>2012-03-10T08:24:11Z</time>
  <sat>8</sat>
</trkpt>
<trkpt lat="39.691338000" lon="-0.350160000">
  <ele>143.300000</ele>
  <time>2012-03-10T08:24:12Z</time>
  <sat>8</sat>
</trkpt>
<trkpt lat="39.691371000" lon="-0.350158000">
  <ele>142.600000</ele>
  <time>2012-03-10T08:24:13Z</time>
  <sat>8</sat>
</trkpt>
<trkpt lat="39.691400000" lon="-0.350144000">
  <ele>142.800000</ele>
  <time>2012-03-10T08:24:14Z</time>
  <sat>8</sat>
</trkpt>
<trkpt lat="39.691526000" lon="-0.350043000">
  <ele>141.800000</ele>
  <time>2012-03-10T08:24:18Z</time>
  <sat>8</sat>
</trkpt>
<trkpt lat="39.691556000" lon="-0.349995000">
  <ele>142.100000</ele>
  <time>2012-03-10T08:24:19Z</time>
  <sat>8</sat>
</trkpt>
<trkpt lat="39.691588000" lon="-0.349954000">
  <ele>142.000000</ele>
  <time>2012-03-10T08:24:20Z</time>
  <sat>7</sat>
</trkpt>
<trkpt lat="39.691808000" lon="-0.349684000">
  <ele>139.800000</ele>
  <time>2012-03-10T08:24:28Z</time>
  <sat>9</sat>
</trkpt>
<trkpt lat="39.691887000" lon="-0.349648000">
  <ele>139.100000</ele>
  <time>2012-03-10T08:24:30Z</time>
  <sat>9</sat>
</trkpt>
<trkpt lat="39.692175000" lon="-0.349573000">
  <ele>139.300000</ele>
  <time>2012-03-10T08:24:35Z</time>
  <sat>9</sat>
</trkpt>
<trkpt lat="39.692516000" lon="-0.349448000">
  <ele>134.300000</ele>
  <time>2012-03-10T08:24:40Z</time>
  <sat>8</sat>
</trkpt>
<trkpt lat="39.692541000" lon="-0.349391000">
  <ele>134.100000</ele>
  <time>2012-03-10T08:24:41Z</time>
  <sat>8</sat>
</trkpt>
<trkpt lat="39.692569000" lon="-0.349336000">
  <ele>134.100000</ele>
  <time>2012-03-10T08:24:42Z</time>
  <sat>8</sat>
</trkpt>
<trkpt lat="39.692630000" lon="-0.349213000">
  <ele>131.600000</ele>
  <time>2012-03-10T08:24:45Z</time>
  <sat>9</sat>
</trkpt>
<trkpt lat="39.692650000" lon="-0.349188000">
  <ele>131.000000</ele>
  <time>2012-03-10T08:24:46Z</time>
  <sat>9</sat>
</trkpt>
<trkpt lat="39.692674000" lon="-0.349164000">
  <ele>130.800000</ele>
  <time>2012-03-10T08:24:47Z</time>
  <sat>9</sat>
</trkpt>
<trkpt lat="39.692706000" lon="-0.349153000">
  <ele>130.600000</ele>
  <time>2012-03-10T08:24:48Z</time>
  <sat>9</sat>
</trkpt>
<trkpt lat="39.692742000" lon="-0.349172000">
  <ele>129.600000</ele>
  <time>2012-03-10T08:24:49Z</time>
  <sat>9</sat>
</trkpt>
<trkpt lat="39.692775000" lon="-0.349184000">
  <ele>129.600000</ele>
  <time>2012-03-10T08:24:50Z</time>
  <sat>9</sat>
</trkpt>
<trkpt lat="39.692933000" lon="-0.349279000">
  <ele>130.300000</ele>
  <time>2012-03-10T08:24:55Z</time>
  <sat>10</sat>
</trkpt>
<trkpt lat="39.692993000" lon="-0.349346000">
  <ele>129.800000</ele>
  <time>2012-03-10T08:24:57Z</time>
  <sat>10</sat>
</trkpt>
<trkpt lat="39.693113000" lon="-0.349461000">
  <ele>128.800000</ele>
  <time>2012-03-10T08:25:00Z</time>
  <sat>10</sat>
</trkpt>
<trkpt lat="39.693197000" lon="-0.349519000">
  <ele>129.300000</ele>
  <time>2012-03-10T08:25:02Z</time>
  <sat>10</sat>
</trkpt>
<trkpt lat="39.693304000" lon="-0.349552000">
  <ele>127.300000</ele>
  <time>2012-03-10T08:25:05Z</time>
  <sat>8</sat>
</trkpt>
<trkpt lat="39.693352000" lon="-0.349540000">
  <ele>128.000000</ele>
  <time>2012-03-10T08:25:07Z</time>
  <sat>9</sat>
</trkpt>
<trkpt lat="39.693381000" lon="-0.349527000">
  <ele>127.500000</ele>
  <time>2012-03-10T08:25:08Z</time>
  <sat>9</sat>
</trkpt>
<trkpt lat="39.693390000" lon="-0.349500000">
  <ele>127.500000</ele>
  <time>2012-03-10T08:25:09Z</time>
  <sat>8</sat>
</trkpt>
<trkpt lat="39.693398000" lon="-0.349485000">
  <ele>127.800000</ele>
  <time>2012-03-10T08:25:10Z</time>
  <sat>8</sat>
</trkpt>
<trkpt lat="39.693408000" lon="-0.349468000">
  <ele>128.100000</ele>
  <time>2012-03-10T08:25:11Z</time>
  <sat>8</sat>
</trkpt>
<trkpt lat="39.693412000" lon="-0.349445000">
  <ele>127.800000</ele>
  <time>2012-03-10T08:25:12Z</time>
  <sat>7</sat>
</trkpt>
<trkpt lat="39.693413000" lon="-0.349423000">
  <ele>127.500000</ele>
  <time>2012-03-10T08:25:13Z</time>
  <sat>7</sat>
</trkpt>
<trkpt lat="39.693419000" lon="-0.349376000">
  <ele>125.100000</ele>
  <time>2012-03-10T08:25:14Z</time>
  <sat>7</sat>
</trkpt>
<trkpt lat="39.693425000" lon="-0.349349000">
  <ele>125.300000</ele>
  <time>2012-03-10T08:25:15Z</time>
  <sat>7</sat>
</trkpt>
<trkpt lat="39.693426000" lon="-0.349289000">
  <ele>125.500000</ele>
  <time>2012-03-10T08:25:17Z</time>
  <sat>8</sat>
</trkpt>
<trkpt lat="39.693418000" lon="-0.349225000">
  <ele>125.800000</ele>
  <time>2012-03-10T08:25:19Z</time>
  <sat>8</sat>
</trkpt>
<trkpt lat="39.693407000" lon="-0.349192000">
  <ele>125.400000</ele>
  <time>2012-03-10T08:25:20Z</time>
  <sat>8</sat>
</trkpt>
<trkpt lat="39.693391000" lon="-0.349162000">
  <ele>125.300000</ele>
  <time>2012-03-10T08:25:21Z</time>
  <sat>8</sat>
</trkpt>
<trkpt lat="39.693370000" lon="-0.349096000">
  <ele>124.800000</ele>
  <time>2012-03-10T08:25:23Z</time>
  <sat>8</sat>
</trkpt>
<trkpt lat="39.693370000" lon="-0.349047000">
  <ele>123.400000</ele>
  <time>2012-03-10T08:25:24Z</time>
  <sat>8</sat>
</trkpt>
<trkpt lat="39.693365000" lon="-0.349003000">
  <ele>122.800000</ele>
  <time>2012-03-10T08:25:25Z</time>
  <sat>8</sat>
</trkpt>
<trkpt lat="39.693361000" lon="-0.348886000">
  <ele>122.800000</ele>
  <time>2012-03-10T08:25:28Z</time>
  <sat>8</sat>
</trkpt>
<trkpt lat="39.693354000" lon="-0.348790000">
  <ele>122.500000</ele>
  <time>2012-03-10T08:25:31Z</time>
  <sat>7</sat>
</trkpt>
<trkpt lat="39.693346000" lon="-0.348761000">
  <ele>122.500000</ele>
  <time>2012-03-10T08:25:32Z</time>
  <sat>7</sat>
</trkpt>
<trkpt lat="39.693338000" lon="-0.348726000">
  <ele>122.300000</ele>
  <time>2012-03-10T08:25:33Z</time>
  <sat>7</sat>
</trkpt>
<trkpt lat="39.693333000" lon="-0.348690000">
  <ele>122.400000</ele>
  <time>2012-03-10T08:25:34Z</time>
  <sat>7</sat>
</trkpt>
<trkpt lat="39.693333000" lon="-0.348653000">
  <ele>122.000000</ele>
  <time>2012-03-10T08:25:35Z</time>
  <sat>7</sat>
</trkpt>
<trkpt lat="39.693332000" lon="-0.348577000">
  <ele>120.500000</ele>
  <time>2012-03-10T08:25:37Z</time>
  <sat>9</sat>
</trkpt>
<trkpt lat="39.693326000" lon="-0.348541000">
  <ele>120.500000</ele>
  <time>2012-03-10T08:25:38Z</time>
  <sat>9</sat>
</trkpt>
<trkpt lat="39.693284000" lon="-0.348432000">
  <ele>119.900000</ele>
  <time>2012-03-10T08:25:42Z</time>
  <sat>9</sat>
</trkpt>
<trkpt lat="39.693269000" lon="-0.348409000">
  <ele>120.100000</ele>
  <time>2012-03-10T08:25:43Z</time>
  <sat>8</sat>
</trkpt>
<trkpt lat="39.693257000" lon="-0.348382000">
  <ele>120.600000</ele>
  <time>2012-03-10T08:25:44Z</time>
  <sat>8</sat>
</trkpt>
<trkpt lat="39.693247000" lon="-0.348357000">
  <ele>121.100000</ele>
  <time>2012-03-10T08:25:45Z</time>
  <sat>7</sat>
</trkpt>
<trkpt lat="39.693241000" lon="-0.348321000">
  <ele>120.600000</ele>
  <time>2012-03-10T08:25:46Z</time>
  <sat>8</sat>
</trkpt>
<trkpt lat="39.693180000" lon="-0.348013000">
  <ele>118.400000</ele>
  <time>2012-03-10T08:25:55Z</time>
  <sat>9</sat>
</trkpt>
<trkpt lat="39.693160000" lon="-0.347988000">
  <ele>118.500000</ele>
  <time>2012-03-10T08:25:56Z</time>
  <sat>9</sat>
</trkpt>
<trkpt lat="39.693119000" lon="-0.347943000">
  <ele>119.000000</ele>
  <time>2012-03-10T08:25:58Z</time>
  <sat>8</sat>
</trkpt>
<trkpt lat="39.693055000" lon="-0.347885000">
  <ele>119.400000</ele>
  <time>2012-03-10T08:26:01Z</time>
  <sat>8</sat>
</trkpt>
<trkpt lat="39.693037000" lon="-0.347855000">
  <ele>119.500000</ele>
  <time>2012-03-10T08:26:02Z</time>
  <sat>7</sat>
</trkpt>
<trkpt lat="39.692776000" lon="-0.347358000">
  <ele>120.100000</ele>
  <time>2012-03-10T08:26:18Z</time>
  <sat>10</sat>
</trkpt>
<trkpt lat="39.692777000" lon="-0.347340000">
  <ele>119.300000</ele>
  <time>2012-03-10T08:26:19Z</time>
  <sat>10</sat>
</trkpt>
<trkpt lat="39.692792000" lon="-0.347267000">
  <ele>118.500000</ele>
  <time>2012-03-10T08:26:22Z</time>
  <sat>10</sat>
</trkpt>
<trkpt lat="39.692813000" lon="-0.347156000">
  <ele>117.500000</ele>
  <time>2012-03-10T08:26:26Z</time>
  <sat>10</sat>
</trkpt>
<trkpt lat="39.692813000" lon="-0.347135000">
  <ele>117.300000</ele>
  <time>2012-03-10T08:26:27Z</time>
  <sat>10</sat>
</trkpt>
<trkpt lat="39.692818000" lon="-0.346857000">
  <ele>115.800000</ele>
  <time>2012-03-10T08:26:36Z</time>
  <sat>5</sat>
</trkpt>
<trkpt lat="39.692823000" lon="-0.346828000">
  <ele>115.600000</ele>
  <time>2012-03-10T08:26:37Z</time>
  <sat>5</sat>
</trkpt>
<trkpt lat="39.692822000" lon="-0.346765000">
  <ele>116.400000</ele>
  <time>2012-03-10T08:26:39Z</time>
  <sat>8</sat>
</trkpt>
<trkpt lat="39.692808000" lon="-0.346649000">
  <ele>116.000000</ele>
  <time>2012-03-10T08:26:42Z</time>
  <sat>8</sat>
</trkpt>
<trkpt lat="39.692774000" lon="-0.346479000">
  <ele>116.800000</ele>
  <time>2012-03-10T08:26:47Z</time>
  <sat>8</sat>
</trkpt>
<trkpt lat="39.692765000" lon="-0.346455000">
  <ele>116.900000</ele>
  <time>2012-03-10T08:26:48Z</time>
  <sat>8</sat>
</trkpt>
<trkpt lat="39.692763000" lon="-0.346427000">
  <ele>117.000000</ele>
  <time>2012-03-10T08:26:49Z</time>
  <sat>9</sat>
</trkpt>
<trkpt lat="39.692775000" lon="-0.346268000">
  <ele>116.300000</ele>
  <time>2012-03-10T08:26:55Z</time>
  <sat>10</sat>
</trkpt>
<trkpt lat="39.692785000" lon="-0.346234000">
  <ele>115.600000</ele>
  <time>2012-03-10T08:26:56Z</time>
  <sat>10</sat>
</trkpt>
<trkpt lat="39.692831000" lon="-0.346020000">
  <ele>116.400000</ele>
  <time>2012-03-10T08:27:01Z</time>
  <sat>10</sat>
</trkpt>
<trkpt lat="39.692835000" lon="-0.345968000">
  <ele>116.500000</ele>
  <time>2012-03-10T08:27:02Z</time>
  <sat>10</sat>
</trkpt>
<trkpt lat="39.692830000" lon="-0.345918000">
  <ele>116.500000</ele>
  <time>2012-03-10T08:27:03Z</time>
  <sat>10</sat>
</trkpt>
<trkpt lat="39.692831000" lon="-0.345704000">
  <ele>117.500000</ele>
  <time>2012-03-10T08:27:08Z</time>
  <sat>9</sat>
</trkpt>
<trkpt lat="39.692841000" lon="-0.345660000">
  <ele>118.000000</ele>
  <time>2012-03-10T08:27:09Z</time>
  <sat>9</sat>
</trkpt>
<trkpt lat="39.692883000" lon="-0.345457000">
  <ele>118.900000</ele>
  <time>2012-03-10T08:27:14Z</time>
  <sat>7</sat>
</trkpt>
<trkpt lat="39.692900000" lon="-0.345413000">
  <ele>119.900000</ele>
  <time>2012-03-10T08:27:15Z</time>
  <sat>8</sat>
</trkpt>
<trkpt lat="39.692896000" lon="-0.345370000">
  <ele>119.800000</ele>
  <time>2012-03-10T08:27:16Z</time>
  <sat>10</sat>
</trkpt>
<trkpt lat="39.692880000" lon="-0.345050000">
  <ele>122.500000</ele>
  <time>2012-03-10T08:27:24Z</time>
  <sat>10</sat>
</trkpt>
<trkpt lat="39.692882000" lon="-0.344993000">
  <ele>123.400000</ele>
  <time>2012-03-10T08:27:25Z</time>
  <sat>10</sat>
</trkpt>
<trkpt lat="39.692908000" lon="-0.344760000">
  <ele>123.600000</ele>
  <time>2012-03-10T08:27:31Z</time>
  <sat>6</sat>
</trkpt>
<trkpt lat="39.692923000" lon="-0.344731000">
  <ele>124.000000</ele>
  <time>2012-03-10T08:27:32Z</time>
  <sat>6</sat>
</trkpt>
<trkpt lat="39.692945000" lon="-0.344690000">
  <ele>124.400000</ele>
  <time>2012-03-10T08:27:33Z</time>
  <sat>6</sat>
</trkpt>
<trkpt lat="39.692958000" lon="-0.344648000">
  <ele>123.500000</ele>
  <time>2012-03-10T08:27:34Z</time>
  <sat>6</sat>
</trkpt>
<trkpt lat="39.692991000" lon="-0.344499000">
  <ele>124.000000</ele>
  <time>2012-03-10T08:27:38Z</time>
  <sat>7</sat>
</trkpt>
<trkpt lat="39.692992000" lon="-0.344399000">
  <ele>123.400000</ele>
  <time>2012-03-10T08:27:41Z</time>
  <sat>7</sat>
</trkpt>
<trkpt lat="39.692993000" lon="-0.344362000">
  <ele>123.800000</ele>
  <time>2012-03-10T08:27:42Z</time>
  <sat>7</sat>
</trkpt>
<trkpt lat="39.692998000" lon="-0.344329000">
  <ele>124.000000</ele>
  <time>2012-03-10T08:27:43Z</time>
  <sat>7</sat>
</trkpt>
<trkpt lat="39.692996000" lon="-0.344295000">
  <ele>124.000000</ele>
  <time>2012-03-10T08:27:44Z</time>
  <sat>7</sat>
</trkpt>
<trkpt lat="39.692998000" lon="-0.344261000">
  <ele>124.300000</ele>
  <time>2012-03-10T08:27:45Z</time>
  <sat>7</sat>
</trkpt>
<trkpt lat="39.693003000" lon="-0.344234000">
  <ele>125.000000</ele>
  <time>2012-03-10T08:27:46Z</time>
  <sat>8</sat>
</trkpt>
<trkpt lat="39.693016000" lon="-0.344207000">
  <ele>124.900000</ele>
  <time>2012-03-10T08:27:47Z</time>
  <sat>8</sat>
</trkpt>
<trkpt lat="39.693028000" lon="-0.344186000">
  <ele>125.000000</ele>
  <time>2012-03-10T08:27:48Z</time>
  <sat>8</sat>
</trkpt>
<trkpt lat="39.693045000" lon="-0.344164000">
  <ele>124.900000</ele>
  <time>2012-03-10T08:27:49Z</time>
  <sat>8</sat>
</trkpt>
<trkpt lat="39.693114000" lon="-0.344128000">
  <ele>124.000000</ele>
  <time>2012-03-10T08:27:51Z</time>
  <sat>8</sat>
</trkpt>
<trkpt lat="39.693168000" lon="-0.344125000">
  <ele>123.900000</ele>
  <time>2012-03-10T08:27:52Z</time>
  <sat>8</sat>
</trkpt>
<trkpt lat="39.693241000" lon="-0.344138000">
  <ele>123.500000</ele>
  <time>2012-03-10T08:27:53Z</time>
  <sat>8</sat>
</trkpt>
<trkpt lat="39.693367000" lon="-0.344165000">
  <ele>123.400000</ele>
  <time>2012-03-10T08:27:55Z</time>
  <sat>8</sat>
</trkpt>
<trkpt lat="39.693410000" lon="-0.344203000">
  <ele>123.900000</ele>
  <time>2012-03-10T08:27:56Z</time>
  <sat>8</sat>
</trkpt>
<trkpt lat="39.693595000" lon="-0.344374000">
  <ele>124.300000</ele>
  <time>2012-03-10T08:28:01Z</time>
  <sat>8</sat>
</trkpt>
<trkpt lat="39.693622000" lon="-0.344428000">
  <ele>123.500000</ele>
  <time>2012-03-10T08:28:02Z</time>
  <sat>8</sat>
</trkpt>
<trkpt lat="39.693842000" lon="-0.344830000">
  <ele>122.800000</ele>
  <time>2012-03-10T08:28:09Z</time>
  <sat>8</sat>
</trkpt>
<trkpt lat="39.693889000" lon="-0.344894000">
  <ele>122.400000</ele>
  <time>2012-03-10T08:28:10Z</time>
  <sat>8</sat>
</trkpt>
<trkpt lat="39.694067000" lon="-0.345030000">
  <ele>121.100000</ele>
  <time>2012-03-10T08:28:13Z</time>
  <sat>8</sat>
</trkpt>
<trkpt lat="39.694340000" lon="-0.345142000">
  <ele>120.600000</ele>
  <time>2012-03-10T08:28:17Z</time>
  <sat>8</sat>
</trkpt>
<trkpt lat="39.694404000" lon="-0.345140000">
  <ele>120.400000</ele>
  <time>2012-03-10T08:28:18Z</time>
  <sat>8</sat>
</trkpt>
<trkpt lat="39.694459000" lon="-0.345125000">
  <ele>120.600000</ele>
  <time>2012-03-10T08:28:19Z</time>
  <sat>8</sat>
</trkpt>
<trkpt lat="39.694632000" lon="-0.345050000">
  <ele>121.000000</ele>
  <time>2012-03-10T08:28:23Z</time>
  <sat>7</sat>
</trkpt>
<trkpt lat="39.694668000" lon="-0.344999000">
  <ele>121.600000</ele>
  <time>2012-03-10T08:28:24Z</time>
  <sat>7</sat>
</trkpt>
<trkpt lat="39.694708000" lon="-0.344964000">
  <ele>122.300000</ele>
  <time>2012-03-10T08:28:25Z</time>
  <sat>7</sat>
</trkpt>
<trkpt lat="39.694738000" lon="-0.344922000">
  <ele>122.400000</ele>
  <time>2012-03-10T08:28:26Z</time>
  <sat>6</sat>
</trkpt>
<trkpt lat="39.694996000" lon="-0.344498000">
  <ele>120.100000</ele>
  <time>2012-03-10T08:28:36Z</time>
  <sat>9</sat>
</trkpt>
<trkpt lat="39.695026000" lon="-0.344465000">
  <ele>120.100000</ele>
  <time>2012-03-10T08:28:37Z</time>
  <sat>9</sat>
</trkpt>
<trkpt lat="39.695061000" lon="-0.344440000">
  <ele>120.000000</ele>
  <time>2012-03-10T08:28:38Z</time>
  <sat>9</sat>
</trkpt>
<trkpt lat="39.695098000" lon="-0.344427000">
  <ele>119.800000</ele>
  <time>2012-03-10T08:28:39Z</time>
  <sat>9</sat>
</trkpt>
<trkpt lat="39.695138000" lon="-0.344419000">
  <ele>119.300000</ele>
  <time>2012-03-10T08:28:40Z</time>
  <sat>7</sat>
</trkpt>
<trkpt lat="39.695174000" lon="-0.344416000">
  <ele>119.000000</ele>
  <time>2012-03-10T08:28:41Z</time>
  <sat>7</sat>
</trkpt>
<trkpt lat="39.695208000" lon="-0.344418000">
  <ele>118.900000</ele>
  <time>2012-03-10T08:28:42Z</time>
  <sat>7</sat>
</trkpt>
<trkpt lat="39.695225000" lon="-0.344437000">
  <ele>118.600000</ele>
  <time>2012-03-10T08:28:43Z</time>
  <sat>8</sat>
</trkpt>
<trkpt lat="39.695225000" lon="-0.344474000">
  <ele>118.400000</ele>
  <time>2012-03-10T08:28:44Z</time>
  <sat>9</sat>
</trkpt>
<trkpt lat="39.695230000" lon="-0.344528000">
  <ele>118.000000</ele>
  <time>2012-03-10T08:28:45Z</time>
  <sat>9</sat>
</trkpt>
<trkpt lat="39.695237000" lon="-0.344579000">
  <ele>117.100000</ele>
  <time>2012-03-10T08:28:46Z</time>
  <sat>9</sat>
</trkpt>
<trkpt lat="39.695331000" lon="-0.345077000">
  <ele>115.300000</ele>
  <time>2012-03-10T08:28:55Z</time>
  <sat>8</sat>
</trkpt>
<trkpt lat="39.695364000" lon="-0.345183000">
  <ele>114.500000</ele>
  <time>2012-03-10T08:28:57Z</time>
  <sat>8</sat>
</trkpt>
<trkpt lat="39.695417000" lon="-0.345340000">
  <ele>114.400000</ele>
  <time>2012-03-10T08:29:00Z</time>
  <sat>8</sat>
</trkpt>
<trkpt lat="39.695439000" lon="-0.345379000">
  <ele>113.900000</ele>
  <time>2012-03-10T08:29:01Z</time>
  <sat>8</sat>
</trkpt>
<trkpt lat="39.695453000" lon="-0.345412000">
  <ele>113.600000</ele>
  <time>2012-03-10T08:29:02Z</time>
  <sat>8</sat>
</trkpt>
<trkpt lat="39.695497000" lon="-0.345509000">
  <ele>114.100000</ele>
  <time>2012-03-10T08:29:05Z</time>
  <sat>8</sat>
</trkpt>
<trkpt lat="39.695534000" lon="-0.345600000">
  <ele>113.900000</ele>
  <time>2012-03-10T08:29:13Z</time>
  <sat>9</sat>
</trkpt>
<trkpt lat="39.695551000" lon="-0.345640000">
  <ele>114.300000</ele>
  <time>2012-03-10T08:29:15Z</time>
  <sat>9</sat>
</trkpt>
<trkpt lat="39.695568000" lon="-0.345658000">
  <ele>114.300000</ele>
  <time>2012-03-10T08:29:16Z</time>
  <sat>8</sat>
</trkpt>
<trkpt lat="39.695619000" lon="-0.345730000">
  <ele>114.000000</ele>
  <time>2012-03-10T08:29:19Z</time>
  <sat>7</sat>
</trkpt>
<trkpt lat="39.695696000" lon="-0.345856000">
  <ele>113.400000</ele>
  <time>2012-03-10T08:29:23Z</time>
  <sat>7</sat>
</trkpt>
<trkpt lat="39.695863000" lon="-0.346070000">
  <ele>113.800000</ele>
  <time>2012-03-10T08:29:30Z</time>
  <sat>7</sat>
</trkpt>
<trkpt lat="39.695899000" lon="-0.346063000">
  <ele>113.800000</ele>
  <time>2012-03-10T08:29:31Z</time>
  <sat>7</sat>
</trkpt>
<trkpt lat="39.695931000" lon="-0.346060000">
  <ele>114.000000</ele>
  <time>2012-03-10T08:29:32Z</time>
  <sat>7</sat>
</trkpt>
<trkpt lat="39.696019000" lon="-0.345979000">
  <ele>114.900000</ele>
  <time>2012-03-10T08:29:34Z</time>
  <sat>7</sat>
</trkpt>
<trkpt lat="39.696775000" lon="-0.345229000">
  <ele>112.400000</ele>
  <time>2012-03-10T08:29:53Z</time>
  <sat>10</sat>
</trkpt>
<trkpt lat="39.696812000" lon="-0.345202000">
  <ele>112.600000</ele>
  <time>2012-03-10T08:29:54Z</time>
  <sat>10</sat>
</trkpt>
<trkpt lat="39.696853000" lon="-0.345191000">
  <ele>112.800000</ele>
  <time>2012-03-10T08:29:55Z</time>
  <sat>10</sat>
</trkpt>
<trkpt lat="39.696892000" lon="-0.345205000">
  <ele>112.100000</ele>
  <time>2012-03-10T08:29:56Z</time>
  <sat>10</sat>
</trkpt>
<trkpt lat="39.696930000" lon="-0.345212000">
  <ele>111.900000</ele>
  <time>2012-03-10T08:29:57Z</time>
  <sat>10</sat>
</trkpt>
<trkpt lat="39.696964000" lon="-0.345297000">
  <ele>111.400000</ele>
  <time>2012-03-10T08:29:59Z</time>
  <sat>10</sat>
</trkpt>
<trkpt lat="39.696983000" lon="-0.345324000">
  <ele>111.500000</ele>
  <time>2012-03-10T08:30:00Z</time>
  <sat>10</sat>
</trkpt>
<trkpt lat="39.697004000" lon="-0.345355000">
  <ele>111.500000</ele>
  <time>2012-03-10T08:30:01Z</time>
  <sat>10</sat>
</trkpt>
<trkpt lat="39.697025000" lon="-0.345383000">
  <ele>111.800000</ele>
  <time>2012-03-10T08:30:02Z</time>
  <sat>10</sat>
</trkpt>
<trkpt lat="39.697050000" lon="-0.345406000">
  <ele>111.800000</ele>
  <time>2012-03-10T08:30:03Z</time>
  <sat>10</sat>
</trkpt>
<trkpt lat="39.697138000" lon="-0.345470000">
  <ele>111.900000</ele>
  <time>2012-03-10T08:30:06Z</time>
  <sat>10</sat>
</trkpt>
<trkpt lat="39.697172000" lon="-0.345488000">
  <ele>111.800000</ele>
  <time>2012-03-10T08:30:07Z</time>
  <sat>10</sat>
</trkpt>
<trkpt lat="39.697244000" lon="-0.345508000">
  <ele>112.500000</ele>
  <time>2012-03-10T08:30:09Z</time>
  <sat>9</sat>
</trkpt>
<trkpt lat="39.697308000" lon="-0.345511000">
  <ele>113.100000</ele>
  <time>2012-03-10T08:30:11Z</time>
  <sat>9</sat>
</trkpt>
<trkpt lat="39.697340000" lon="-0.345503000">
  <ele>113.500000</ele>
  <time>2012-03-10T08:30:12Z</time>
  <sat>9</sat>
</trkpt>
<trkpt lat="39.697373000" lon="-0.345478000">
  <ele>113.500000</ele>
  <time>2012-03-10T08:30:13Z</time>
  <sat>10</sat>
</trkpt>
<trkpt lat="39.697920000" lon="-0.345025000">
  <ele>113.900000</ele>
  <time>2012-03-10T08:30:28Z</time>
  <sat>9</sat>
</trkpt>
<trkpt lat="39.697960000" lon="-0.345006000">
  <ele>113.800000</ele>
  <time>2012-03-10T08:30:29Z</time>
  <sat>9</sat>
</trkpt>
<trkpt lat="39.698006000" lon="-0.344993000">
  <ele>113.600000</ele>
  <time>2012-03-10T08:30:30Z</time>
  <sat>10</sat>
</trkpt>
<trkpt lat="39.698139000" lon="-0.344960000">
  <ele>113.500000</ele>
  <time>2012-03-10T08:30:33Z</time>
  <sat>10</sat>
</trkpt>
<trkpt lat="39.698185000" lon="-0.344954000">
  <ele>113.500000</ele>
  <time>2012-03-10T08:30:34Z</time>
  <sat>10</sat>
</trkpt>
<trkpt lat="39.698480000" lon="-0.344870000">
  <ele>113.100000</ele>
  <time>2012-03-10T08:30:41Z</time>
  <sat>10</sat>
</trkpt>
<trkpt lat="39.698778000" lon="-0.344745000">
  <ele>112.100000</ele>
  <time>2012-03-10T08:30:48Z</time>
  <sat>9</sat>
</trkpt>
<trkpt lat="39.698822000" lon="-0.344736000">
  <ele>111.900000</ele>
  <time>2012-03-10T08:30:49Z</time>
  <sat>10</sat>
</trkpt>
<trkpt lat="39.698868000" lon="-0.344731000">
  <ele>111.500000</ele>
  <time>2012-03-10T08:30:50Z</time>
  <sat>10</sat>
</trkpt>
<trkpt lat="39.698914000" lon="-0.344731000">
  <ele>111.400000</ele>
  <time>2012-03-10T08:30:51Z</time>
  <sat>10</sat>
</trkpt>
<trkpt lat="39.698962000" lon="-0.344741000">
  <ele>111.400000</ele>
  <time>2012-03-10T08:30:52Z</time>
  <sat>10</sat>
</trkpt>
<trkpt lat="39.699007000" lon="-0.344754000">
  <ele>111.000000</ele>
  <time>2012-03-10T08:30:53Z</time>
  <sat>10</sat>
</trkpt>
<trkpt lat="39.699050000" lon="-0.344775000">
  <ele>111.000000</ele>
  <time>2012-03-10T08:30:54Z</time>
  <sat>9</sat>
</trkpt>
<trkpt lat="39.699089000" lon="-0.344799000">
  <ele>111.000000</ele>
  <time>2012-03-10T08:30:55Z</time>
  <sat>9</sat>
</trkpt>
<trkpt lat="39.699127000" lon="-0.344829000">
  <ele>110.800000</ele>
  <time>2012-03-10T08:30:56Z</time>
  <sat>9</sat>
</trkpt>
<trkpt lat="39.699596000" lon="-0.345234000">
  <ele>112.300000</ele>
  <time>2012-03-10T08:31:10Z</time>
  <sat>10</sat>
</trkpt>
<trkpt lat="39.699623000" lon="-0.345269000">
  <ele>112.500000</ele>
  <time>2012-03-10T08:31:11Z</time>
  <sat>10</sat>
</trkpt>
<trkpt lat="39.699648000" lon="-0.345309000">
  <ele>112.800000</ele>
  <time>2012-03-10T08:31:12Z</time>
  <sat>10</sat>
</trkpt>
<trkpt lat="39.699672000" lon="-0.345351000">
  <ele>112.500000</ele>
  <time>2012-03-10T08:31:13Z</time>
  <sat>10</sat>
</trkpt>
<trkpt lat="39.699693000" lon="-0.345398000">
  <ele>112.600000</ele>
  <time>2012-03-10T08:31:14Z</time>
  <sat>10</sat>
</trkpt>
<trkpt lat="39.699701000" lon="-0.345449000">
  <ele>112.100000</ele>
  <time>2012-03-10T08:31:15Z</time>
  <sat>10</sat>
</trkpt>
<trkpt lat="39.699738000" lon="-0.345642000">
  <ele>111.300000</ele>
  <time>2012-03-10T08:31:19Z</time>
  <sat>10</sat>
</trkpt>
<trkpt lat="39.699763000" lon="-0.345684000">
  <ele>111.300000</ele>
  <time>2012-03-10T08:31:20Z</time>
  <sat>10</sat>
</trkpt>
<trkpt lat="39.700103000" lon="-0.346221000">
  <ele>115.000000</ele>
  <time>2012-03-10T08:31:34Z</time>
  <sat>10</sat>
</trkpt>
<trkpt lat="39.700125000" lon="-0.346254000">
  <ele>114.500000</ele>
  <time>2012-03-10T08:31:35Z</time>
  <sat>10</sat>
</trkpt>
<trkpt lat="39.700227000" lon="-0.346430000">
  <ele>114.000000</ele>
  <time>2012-03-10T08:31:40Z</time>
  <sat>9</sat>
</trkpt>
<trkpt lat="39.700242000" lon="-0.346464000">
  <ele>115.000000</ele>
  <time>2012-03-10T08:31:41Z</time>
  <sat>9</sat>
</trkpt>
<trkpt lat="39.700254000" lon="-0.346504000">
  <ele>115.900000</ele>
  <time>2012-03-10T08:31:42Z</time>
  <sat>9</sat>
</trkpt>
<trkpt lat="39.700428000" lon="-0.347101000">
  <ele>118.500000</ele>
  <time>2012-03-10T08:31:58Z</time>
  <sat>8</sat>
</trkpt>
<trkpt lat="39.700433000" lon="-0.347140000">
  <ele>118.600000</ele>
  <time>2012-03-10T08:31:59Z</time>
  <sat>8</sat>
</trkpt>
<trkpt lat="39.700488000" lon="-0.347444000">
  <ele>121.100000</ele>
  <time>2012-03-10T08:32:08Z</time>
  <sat>10</sat>
</trkpt>
<trkpt lat="39.700534000" lon="-0.347609000">
  <ele>121.500000</ele>
  <time>2012-03-10T08:32:13Z</time>
  <sat>11</sat>
</trkpt>
<trkpt lat="39.700602000" lon="-0.347838000">
  <ele>123.500000</ele>
  <time>2012-03-10T08:32:19Z</time>
  <sat>8</sat>
</trkpt>
<trkpt lat="39.700832000" lon="-0.348649000">
  <ele>129.100000</ele>
  <time>2012-03-10T08:32:42Z</time>
  <sat>10</sat>
</trkpt>
<trkpt lat="39.700846000" lon="-0.348677000">
  <ele>129.100000</ele>
  <time>2012-03-10T08:32:43Z</time>
  <sat>10</sat>
</trkpt>
<trkpt lat="39.700873000" lon="-0.348756000">
  <ele>128.800000</ele>
  <time>2012-03-10T08:32:46Z</time>
  <sat>10</sat>
</trkpt>
<trkpt lat="39.700877000" lon="-0.348787000">
  <ele>128.800000</ele>
  <time>2012-03-10T08:32:47Z</time>
  <sat>10</sat>
</trkpt>
<trkpt lat="39.700919000" lon="-0.349144000">
  <ele>128.600000</ele>
  <time>2012-03-10T08:32:58Z</time>
  <sat>10</sat>
</trkpt>
<trkpt lat="39.700924000" lon="-0.349205000">
  <ele>128.600000</ele>
  <time>2012-03-10T08:33:00Z</time>
  <sat>10</sat>
</trkpt>
<trkpt lat="39.700923000" lon="-0.349272000">
  <ele>129.100000</ele>
  <time>2012-03-10T08:33:02Z</time>
  <sat>9</sat>
</trkpt>
<trkpt lat="39.700921000" lon="-0.349336000">
  <ele>129.300000</ele>
  <time>2012-03-10T08:33:04Z</time>
  <sat>8</sat>
</trkpt>
<trkpt lat="39.700928000" lon="-0.349401000">
  <ele>129.300000</ele>
  <time>2012-03-10T08:33:06Z</time>
  <sat>7</sat>
</trkpt>
<trkpt lat="39.700941000" lon="-0.349590000">
  <ele>128.100000</ele>
  <time>2012-03-10T08:33:12Z</time>
  <sat>8</sat>
</trkpt>
<trkpt lat="39.700947000" lon="-0.349625000">
  <ele>127.800000</ele>
  <time>2012-03-10T08:33:13Z</time>
  <sat>9</sat>
</trkpt>
<trkpt lat="39.700951000" lon="-0.349661000">
  <ele>127.400000</ele>
  <time>2012-03-10T08:33:14Z</time>
  <sat>9</sat>
</trkpt>
<trkpt lat="39.700946000" lon="-0.349691000">
  <ele>127.300000</ele>
  <time>2012-03-10T08:33:15Z</time>
  <sat>9</sat>
</trkpt>
<trkpt lat="39.700952000" lon="-0.349769000">
  <ele>127.900000</ele>
  <time>2012-03-10T08:33:17Z</time>
  <sat>8</sat>
</trkpt>
<trkpt lat="39.700953000" lon="-0.349808000">
  <ele>128.100000</ele>
  <time>2012-03-10T08:33:18Z</time>
  <sat>8</sat>
</trkpt>
<trkpt lat="39.700952000" lon="-0.349845000">
  <ele>128.000000</ele>
  <time>2012-03-10T08:33:19Z</time>
  <sat>8</sat>
</trkpt>
<trkpt lat="39.700944000" lon="-0.349920000">
  <ele>127.800000</ele>
  <time>2012-03-10T08:33:21Z</time>
  <sat>7</sat>
</trkpt>
<trkpt lat="39.700929000" lon="-0.349991000">
  <ele>128.300000</ele>
  <time>2012-03-10T08:33:23Z</time>
  <sat>7</sat>
</trkpt>
<trkpt lat="39.700919000" lon="-0.350028000">
  <ele>128.500000</ele>
  <time>2012-03-10T08:33:24Z</time>
  <sat>7</sat>
</trkpt>
<trkpt lat="39.700865000" lon="-0.350193000">
  <ele>128.100000</ele>
  <time>2012-03-10T08:33:29Z</time>
  <sat>7</sat>
</trkpt>
<trkpt lat="39.700857000" lon="-0.350198000">
  <ele>127.900000</ele>
  <time>2012-03-10T08:33:30Z</time>
  <sat>7</sat>
</trkpt>
<trkpt lat="39.700836000" lon="-0.350214000">
  <ele>129.500000</ele>
  <time>2012-03-10T08:33:31Z</time>
  <sat>7</sat>
</trkpt>
<trkpt lat="39.700818000" lon="-0.350227000">
  <ele>130.100000</ele>
  <time>2012-03-10T08:33:32Z</time>
  <sat>7</sat>
</trkpt>
<trkpt lat="39.700804000" lon="-0.350242000">
  <ele>130.300000</ele>
  <time>2012-03-10T08:33:33Z</time>
  <sat>7</sat>
</trkpt>
<trkpt lat="39.700763000" lon="-0.350294000">
  <ele>132.000000</ele>
  <time>2012-03-10T08:33:36Z</time>
  <sat>7</sat>
</trkpt>
<trkpt lat="39.700752000" lon="-0.350312000">
  <ele>132.500000</ele>
  <time>2012-03-10T08:33:37Z</time>
  <sat>7</sat>
</trkpt>
<trkpt lat="39.700745000" lon="-0.350332000">
  <ele>132.800000</ele>
  <time>2012-03-10T08:33:38Z</time>
  <sat>7</sat>
</trkpt>
<trkpt lat="39.700743000" lon="-0.350352000">
  <ele>133.100000</ele>
  <time>2012-03-10T08:33:39Z</time>
  <sat>7</sat>
</trkpt>
<trkpt lat="39.700731000" lon="-0.350451000">
  <ele>135.100000</ele>
  <time>2012-03-10T08:33:43Z</time>
  <sat>7</sat>
</trkpt>
<trkpt lat="39.700727000" lon="-0.350482000">
  <ele>135.600000</ele>
  <time>2012-03-10T08:33:44Z</time>
  <sat>7</sat>
</trkpt>
<trkpt lat="39.700658000" lon="-0.350868000">
  <ele>137.600000</ele>
  <time>2012-03-10T08:33:56Z</time>
  <sat>8</sat>
</trkpt>
<trkpt lat="39.700631000" lon="-0.350964000">
  <ele>136.600000</ele>
  <time>2012-03-10T08:34:00Z</time>
  <sat>8</sat>
</trkpt>
<trkpt lat="39.700622000" lon="-0.350992000">
  <ele>136.800000</ele>
  <time>2012-03-10T08:34:01Z</time>
  <sat>8</sat>
</trkpt>
<trkpt lat="39.700614000" lon="-0.351028000">
  <ele>136.600000</ele>
  <time>2012-03-10T08:34:02Z</time>
  <sat>8</sat>
</trkpt>
<trkpt lat="39.700567000" lon="-0.351286000">
  <ele>137.000000</ele>
  <time>2012-03-10T08:34:10Z</time>
  <sat>8</sat>
</trkpt>
<trkpt lat="39.700570000" lon="-0.351312000">
  <ele>136.800000</ele>
  <time>2012-03-10T08:34:11Z</time>
  <sat>8</sat>
</trkpt>
<trkpt lat="39.700577000" lon="-0.351450000">
  <ele>136.300000</ele>
  <time>2012-03-10T08:34:15Z</time>
  <sat>8</sat>
</trkpt>
<trkpt lat="39.700564000" lon="-0.351495000">
  <ele>136.500000</ele>
  <time>2012-03-10T08:34:16Z</time>
  <sat>9</sat>
</trkpt>
<trkpt lat="39.700537000" lon="-0.351717000">
  <ele>137.000000</ele>
  <time>2012-03-10T08:34:22Z</time>
  <sat>9</sat>
</trkpt>
<trkpt lat="39.700555000" lon="-0.351784000">
  <ele>137.000000</ele>
  <time>2012-03-10T08:34:24Z</time>
  <sat>9</sat>
</trkpt>
<trkpt lat="39.700558000" lon="-0.351822000">
  <ele>137.300000</ele>
  <time>2012-03-10T08:34:25Z</time>
  <sat>9</sat>
</trkpt>
<trkpt lat="39.700577000" lon="-0.351970000">
  <ele>139.100000</ele>
  <time>2012-03-10T08:34:29Z</time>
  <sat>9</sat>
</trkpt>
<trkpt lat="39.700601000" lon="-0.352030000">
  <ele>139.100000</ele>
  <time>2012-03-10T08:34:31Z</time>
  <sat>9</sat>
</trkpt>
<trkpt lat="39.700608000" lon="-0.352060000">
  <ele>139.500000</ele>
  <time>2012-03-10T08:34:32Z</time>
  <sat>9</sat>
</trkpt>
<trkpt lat="39.700623000" lon="-0.352137000">
  <ele>140.500000</ele>
  <time>2012-03-10T08:34:34Z</time>
  <sat>9</sat>
</trkpt>
<trkpt lat="39.700621000" lon="-0.352167000">
  <ele>140.500000</ele>
  <time>2012-03-10T08:34:35Z</time>
  <sat>9</sat>
</trkpt>
<trkpt lat="39.700629000" lon="-0.352206000">
  <ele>139.600000</ele>
  <time>2012-03-10T08:34:36Z</time>
  <sat>9</sat>
</trkpt>
<trkpt lat="39.700619000" lon="-0.352233000">
  <ele>139.600000</ele>
  <time>2012-03-10T08:34:37Z</time>
  <sat>9</sat>
</trkpt>
<trkpt lat="39.700606000" lon="-0.352337000">
  <ele>140.800000</ele>
  <time>2012-03-10T08:34:41Z</time>
  <sat>7</sat>
</trkpt>
<trkpt lat="39.700604000" lon="-0.352370000">
  <ele>141.600000</ele>
  <time>2012-03-10T08:34:42Z</time>
  <sat>7</sat>
</trkpt>
<trkpt lat="39.700605000" lon="-0.352465000">
  <ele>143.600000</ele>
  <time>2012-03-10T08:34:45Z</time>
  <sat>7</sat>
</trkpt>
<trkpt lat="39.700603000" lon="-0.352498000">
  <ele>144.500000</ele>
  <time>2012-03-10T08:34:46Z</time>
  <sat>7</sat>
</trkpt>
<trkpt lat="39.700602000" lon="-0.352567000">
  <ele>145.100000</ele>
  <time>2012-03-10T08:34:48Z</time>
  <sat>7</sat>
</trkpt>
<trkpt lat="39.700600000" lon="-0.352603000">
  <ele>145.600000</ele>
  <time>2012-03-10T08:34:49Z</time>
  <sat>7</sat>
</trkpt>
<trkpt lat="39.700598000" lon="-0.352765000">
  <ele>148.500000</ele>
  <time>2012-03-10T08:34:54Z</time>
  <sat>9</sat>
</trkpt>
<trkpt lat="39.700602000" lon="-0.352790000">
  <ele>149.100000</ele>
  <time>2012-03-10T08:34:55Z</time>
  <sat>9</sat>
</trkpt>
<trkpt lat="39.700657000" lon="-0.353145000">
  <ele>152.800000</ele>
  <time>2012-03-10T08:35:08Z</time>
  <sat>9</sat>
</trkpt>
<trkpt lat="39.700692000" lon="-0.353370000">
  <ele>155.100000</ele>
  <time>2012-03-10T08:35:15Z</time>
  <sat>7</sat>
</trkpt>
<trkpt lat="39.700689000" lon="-0.353397000">
  <ele>155.100000</ele>
  <time>2012-03-10T08:35:16Z</time>
  <sat>6</sat>
</trkpt>
<trkpt lat="39.700691000" lon="-0.353473000">
  <ele>155.100000</ele>
  <time>2012-03-10T08:35:18Z</time>
  <sat>7</sat>
</trkpt>
<trkpt lat="39.700696000" lon="-0.353518000">
  <ele>154.800000</ele>
  <time>2012-03-10T08:35:19Z</time>
  <sat>7</sat>
</trkpt>
<trkpt lat="39.700694000" lon="-0.353555000">
  <ele>154.600000</ele>
  <time>2012-03-10T08:35:20Z</time>
  <sat>9</sat>
</trkpt>
<trkpt lat="39.700686000" lon="-0.353582000">
  <ele>154.100000</ele>
  <time>2012-03-10T08:35:21Z</time>
  <sat>9</sat>
</trkpt>
<trkpt lat="39.700678000" lon="-0.353608000">
  <ele>153.800000</ele>
  <time>2012-03-10T08:35:22Z</time>
  <sat>9</sat>
</trkpt>
<trkpt lat="39.700662000" lon="-0.353690000">
  <ele>152.600000</ele>
  <time>2012-03-10T08:35:25Z</time>
  <sat>9</sat>
</trkpt>
<trkpt lat="39.700658000" lon="-0.353718000">
  <ele>152.600000</ele>
  <time>2012-03-10T08:35:26Z</time>
  <sat>9</sat>
</trkpt>
<trkpt lat="39.700654000" lon="-0.353749000">
  <ele>152.300000</ele>
  <time>2012-03-10T08:35:27Z</time>
  <sat>6</sat>
</trkpt>
<trkpt lat="39.700644000" lon="-0.353777000">
  <ele>152.300000</ele>
  <time>2012-03-10T08:35:28Z</time>
  <sat>6</sat>
</trkpt>
<trkpt lat="39.700571000" lon="-0.354047000">
  <ele>153.100000</ele>
  <time>2012-03-10T08:35:37Z</time>
  <sat>9</sat>
</trkpt>
<trkpt lat="39.700574000" lon="-0.354099000">
  <ele>153.100000</ele>
  <time>2012-03-10T08:35:38Z</time>
  <sat>9</sat>
</trkpt>
<trkpt lat="39.700595000" lon="-0.354152000">
  <ele>153.000000</ele>
  <time>2012-03-10T08:35:39Z</time>
  <sat>9</sat>
</trkpt>
<trkpt lat="39.700617000" lon="-0.354204000">
  <ele>152.100000</ele>
  <time>2012-03-10T08:35:40Z</time>
  <sat>9</sat>
</trkpt>
<trkpt lat="39.700685000" lon="-0.354370000">
  <ele>151.600000</ele>
  <time>2012-03-10T08:35:44Z</time>
  <sat>6</sat>
</trkpt>
<trkpt lat="39.700733000" lon="-0.354492000">
  <ele>154.100000</ele>
  <time>2012-03-10T08:35:53Z</time>
  <sat>9</sat>
</trkpt>
<trkpt lat="39.700736000" lon="-0.354510000">
  <ele>154.300000</ele>
  <time>2012-03-10T08:35:54Z</time>
  <sat>9</sat>
</trkpt>
<trkpt lat="39.700732000" lon="-0.354531000">
  <ele>154.300000</ele>
  <time>2012-03-10T08:35:55Z</time>
  <sat>9</sat>
</trkpt>
<trkpt lat="39.700730000" lon="-0.354542000">
  <ele>154.500000</ele>
  <time>2012-03-10T08:35:56Z</time>
  <sat>9</sat>
</trkpt>
<trkpt lat="39.700742000" lon="-0.354551000">
  <ele>154.800000</ele>
  <time>2012-03-10T08:35:57Z</time>
  <sat>9</sat>
</trkpt>
<trkpt lat="39.700759000" lon="-0.354554000">
  <ele>155.100000</ele>
  <time>2012-03-10T08:35:58Z</time>
  <sat>9</sat>
</trkpt>
<trkpt lat="39.700753000" lon="-0.354544000">
  <ele>156.100000</ele>
  <time>2012-03-10T08:35:59Z</time>
  <sat>9</sat>
</trkpt>
<trkpt lat="39.700750000" lon="-0.354538000">
  <ele>156.100000</ele>
  <time>2012-03-10T08:36:00Z</time>
  <sat>9</sat>
</trkpt>
<trkpt lat="39.700737000" lon="-0.354542000">
  <ele>156.600000</ele>
  <time>2012-03-10T08:36:01Z</time>
  <sat>9</sat>
</trkpt>
<trkpt lat="39.700733000" lon="-0.354544000">
  <ele>156.600000</ele>
  <time>2012-03-10T08:36:02Z</time>
  <sat>9</sat>
</trkpt>
<trkpt lat="39.700731000" lon="-0.354543000">
  <ele>156.600000</ele>
  <time>2012-03-10T08:36:03Z</time>
  <sat>9</sat>
</trkpt>
<trkpt lat="39.700731000" lon="-0.354543000">
  <ele>156.600000</ele>
  <time>2012-03-10T08:36:04Z</time>
  <sat>9</sat>
</trkpt>
<trkpt lat="39.700730000" lon="-0.354568000">
  <ele>155.800000</ele>
  <time>2012-03-10T08:36:05Z</time>
  <sat>9</sat>
</trkpt>
<trkpt lat="39.700721000" lon="-0.354585000">
  <ele>156.100000</ele>
  <time>2012-03-10T08:36:06Z</time>
  <sat>9</sat>
</trkpt>
<trkpt lat="39.700715000" lon="-0.354593000">
  <ele>155.800000</ele>
  <time>2012-03-10T08:36:07Z</time>
  <sat>9</sat>
</trkpt>
<trkpt lat="39.700713000" lon="-0.354598000">
  <ele>155.300000</ele>
  <time>2012-03-10T08:36:08Z</time>
  <sat>9</sat>
</trkpt>
<trkpt lat="39.700714000" lon="-0.354621000">
  <ele>156.000000</ele>
  <time>2012-03-10T08:36:09Z</time>
  <sat>9</sat>
</trkpt>
<trkpt lat="39.700706000" lon="-0.354625000">
  <ele>158.500000</ele>
  <time>2012-03-10T08:36:10Z</time>
  <sat>9</sat>
</trkpt>
<trkpt lat="39.700702000" lon="-0.354625000">
  <ele>159.100000</ele>
  <time>2012-03-10T08:36:11Z</time>
  <sat>9</sat>
</trkpt>
<trkpt lat="39.700702000" lon="-0.354628000">
  <ele>160.100000</ele>
  <time>2012-03-10T08:36:12Z</time>
  <sat>9</sat>
</trkpt>
<trkpt lat="39.700698000" lon="-0.354639000">
  <ele>160.800000</ele>
  <time>2012-03-10T08:36:13Z</time>
  <sat>9</sat>
</trkpt>
<trkpt lat="39.700693000" lon="-0.354642000">
  <ele>161.300000</ele>
  <time>2012-03-10T08:36:14Z</time>
  <sat>9</sat>
</trkpt>
<trkpt lat="39.700689000" lon="-0.354646000">
  <ele>161.600000</ele>
  <time>2012-03-10T08:36:15Z</time>
  <sat>9</sat>
</trkpt>
<trkpt lat="39.700646000" lon="-0.354695000">
  <ele>160.600000</ele>
  <time>2012-03-10T08:36:28Z</time>
  <sat>9</sat>
</trkpt>
<trkpt lat="39.700635000" lon="-0.354724000">
  <ele>159.800000</ele>
  <time>2012-03-10T08:36:29Z</time>
  <sat>9</sat>
</trkpt>
<trkpt lat="39.700635000" lon="-0.354734000">
  <ele>159.600000</ele>
  <time>2012-03-10T08:36:30Z</time>
  <sat>9</sat>
</trkpt>
<trkpt lat="39.700632000" lon="-0.354743000">
  <ele>159.800000</ele>
  <time>2012-03-10T08:36:31Z</time>
  <sat>7</sat>
</trkpt>
<trkpt lat="39.700593000" lon="-0.354798000">
  <ele>158.800000</ele>
  <time>2012-03-10T08:36:34Z</time>
  <sat>7</sat>
</trkpt>
<trkpt lat="39.700537000" lon="-0.354824000">
  <ele>158.000000</ele>
  <time>2012-03-10T08:36:37Z</time>
  <sat>6</sat>
</trkpt>
<trkpt lat="39.700502000" lon="-0.354883000">
  <ele>157.300000</ele>
  <time>2012-03-10T08:36:40Z</time>
  <sat>6</sat>
</trkpt>
<trkpt lat="39.700478000" lon="-0.354899000">
  <ele>157.500000</ele>
  <time>2012-03-10T08:36:41Z</time>
  <sat>6</sat>
</trkpt>
<trkpt lat="39.700466000" lon="-0.354907000">
  <ele>158.000000</ele>
  <time>2012-03-10T08:36:42Z</time>
  <sat>6</sat>
</trkpt>
<trkpt lat="39.700458000" lon="-0.354925000">
  <ele>158.300000</ele>
  <time>2012-03-10T08:36:43Z</time>
  <sat>6</sat>
</trkpt>
<trkpt lat="39.700449000" lon="-0.354940000">
  <ele>158.600000</ele>
  <time>2012-03-10T08:36:44Z</time>
  <sat>6</sat>
</trkpt>
<trkpt lat="39.700439000" lon="-0.354950000">
  <ele>158.300000</ele>
  <time>2012-03-10T08:36:45Z</time>
  <sat>6</sat>
</trkpt>
<trkpt lat="39.700430000" lon="-0.354959000">
  <ele>157.800000</ele>
  <time>2012-03-10T08:36:46Z</time>
  <sat>6</sat>
</trkpt>
<trkpt lat="39.700419000" lon="-0.354972000">
  <ele>157.600000</ele>
  <time>2012-03-10T08:36:47Z</time>
  <sat>6</sat>
</trkpt>
<trkpt lat="39.700315000" lon="-0.355112000">
  <ele>158.500000</ele>
  <time>2012-03-10T08:36:57Z</time>
  <sat>9</sat>
</trkpt>
<trkpt lat="39.700316000" lon="-0.355142000">
  <ele>158.500000</ele>
  <time>2012-03-10T08:36:58Z</time>
  <sat>9</sat>
</trkpt>
<trkpt lat="39.700316000" lon="-0.355167000">
  <ele>158.300000</ele>
  <time>2012-03-10T08:36:59Z</time>
  <sat>9</sat>
</trkpt>
<trkpt lat="39.700307000" lon="-0.355195000">
  <ele>158.500000</ele>
  <time>2012-03-10T08:37:00Z</time>
  <sat>9</sat>
</trkpt>
<trkpt lat="39.700297000" lon="-0.355221000">
  <ele>158.600000</ele>
  <time>2012-03-10T08:37:01Z</time>
  <sat>9</sat>
</trkpt>
<trkpt lat="39.700265000" lon="-0.355308000">
  <ele>159.600000</ele>
  <time>2012-03-10T08:37:06Z</time>
  <sat>9</sat>
</trkpt>
<trkpt lat="39.700250000" lon="-0.355320000">
  <ele>159.800000</ele>
  <time>2012-03-10T08:37:08Z</time>
  <sat>8</sat>
</trkpt>
<trkpt lat="39.700239000" lon="-0.355320000">
  <ele>159.800000</ele>
  <time>2012-03-10T08:37:09Z</time>
  <sat>5</sat>
</trkpt>
<trkpt lat="39.700226000" lon="-0.355319000">
  <ele>159.800000</ele>
  <time>2012-03-10T08:37:10Z</time>
  <sat>5</sat>
</trkpt>
<trkpt lat="39.700214000" lon="-0.355340000">
  <ele>160.100000</ele>
  <time>2012-03-10T08:37:11Z</time>
  <sat>5</sat>
</trkpt>
<trkpt lat="39.700198000" lon="-0.355329000">
  <ele>161.300000</ele>
  <time>2012-03-10T08:37:12Z</time>
  <sat>5</sat>
</trkpt>
<trkpt lat="39.700182000" lon="-0.355342000">
  <ele>162.600000</ele>
  <time>2012-03-10T08:37:13Z</time>
  <sat>9</sat>
</trkpt>
<trkpt lat="39.700169000" lon="-0.355344000">
  <ele>163.500000</ele>
  <time>2012-03-10T08:37:14Z</time>
  <sat>9</sat>
</trkpt>
<trkpt lat="39.700142000" lon="-0.355365000">
  <ele>163.100000</ele>
  <time>2012-03-10T08:37:16Z</time>
  <sat>9</sat>
</trkpt>
<trkpt lat="39.700072000" lon="-0.355428000">
  <ele>163.800000</ele>
  <time>2012-03-10T08:37:20Z</time>
  <sat>9</sat>
</trkpt>
<trkpt lat="39.700064000" lon="-0.355447000">
  <ele>163.600000</ele>
  <time>2012-03-10T08:37:21Z</time>
  <sat>9</sat>
</trkpt>
<trkpt lat="39.700063000" lon="-0.355469000">
  <ele>162.600000</ele>
  <time>2012-03-10T08:37:22Z</time>
  <sat>8</sat>
</trkpt>
<trkpt lat="39.700064000" lon="-0.355486000">
  <ele>162.100000</ele>
  <time>2012-03-10T08:37:23Z</time>
  <sat>8</sat>
</trkpt>
<trkpt lat="39.700067000" lon="-0.355498000">
  <ele>162.100000</ele>
  <time>2012-03-10T08:37:24Z</time>
  <sat>8</sat>
</trkpt>
<trkpt lat="39.700068000" lon="-0.355494000">
  <ele>162.100000</ele>
  <time>2012-03-10T08:37:25Z</time>
  <sat>9</sat>
</trkpt>
<trkpt lat="39.700068000" lon="-0.355494000">
  <ele>162.100000</ele>
  <time>2012-03-10T08:37:26Z</time>
  <sat>9</sat>
</trkpt>
<trkpt lat="39.700071000" lon="-0.355503000">
  <ele>162.300000</ele>
  <time>2012-03-10T08:37:27Z</time>
  <sat>9</sat>
</trkpt>
<trkpt lat="39.700073000" lon="-0.355503000">
  <ele>162.500000</ele>
  <time>2012-03-10T08:37:28Z</time>
  <sat>9</sat>
</trkpt>
<trkpt lat="39.700062000" lon="-0.355495000">
  <ele>162.800000</ele>
  <time>2012-03-10T08:37:29Z</time>
  <sat>9</sat>
</trkpt>
<trkpt lat="39.700062000" lon="-0.355494000">
  <ele>162.800000</ele>
  <time>2012-03-10T08:37:30Z</time>
  <sat>9</sat>
</trkpt>
<trkpt lat="39.700063000" lon="-0.355495000">
  <ele>163.000000</ele>
  <time>2012-03-10T08:37:31Z</time>
  <sat>9</sat>
</trkpt>
<trkpt lat="39.700066000" lon="-0.355498000">
  <ele>163.000000</ele>
  <time>2012-03-10T08:37:32Z</time>
  <sat>8</sat>
</trkpt>
<trkpt lat="39.700072000" lon="-0.355500000">
  <ele>163.100000</ele>
  <time>2012-03-10T08:37:33Z</time>
  <sat>8</sat>
</trkpt>
<trkpt lat="39.700074000" lon="-0.355501000">
  <ele>163.100000</ele>
  <time>2012-03-10T08:37:34Z</time>
  <sat>8</sat>
</trkpt>
<trkpt lat="39.700073000" lon="-0.355499000">
  <ele>163.300000</ele>
  <time>2012-03-10T08:37:35Z</time>
  <sat>9</sat>
</trkpt>
<trkpt lat="39.700068000" lon="-0.355497000">
  <ele>163.600000</ele>
  <time>2012-03-10T08:37:36Z</time>
  <sat>9</sat>
</trkpt>
<trkpt lat="39.700068000" lon="-0.355498000">
  <ele>163.600000</ele>
  <time>2012-03-10T08:37:37Z</time>
  <sat>9</sat>
</trkpt>
<trkpt lat="39.700069000" lon="-0.355499000">
  <ele>163.600000</ele>
  <time>2012-03-10T08:37:38Z</time>
  <sat>9</sat>
</trkpt>
<trkpt lat="39.700069000" lon="-0.355499000">
  <ele>163.600000</ele>
  <time>2012-03-10T08:37:39Z</time>
  <sat>9</sat>
</trkpt>
<trkpt lat="39.700064000" lon="-0.355504000">
  <ele>163.300000</ele>
  <time>2012-03-10T08:37:40Z</time>
  <sat>9</sat>
</trkpt>
<trkpt lat="39.700056000" lon="-0.355517000">
  <ele>162.800000</ele>
  <time>2012-03-10T08:37:41Z</time>
  <sat>9</sat>
</trkpt>
<trkpt lat="39.700052000" lon="-0.355523000">
  <ele>162.300000</ele>
  <time>2012-03-10T08:37:42Z</time>
  <sat>8</sat>
</trkpt>
<trkpt lat="39.700050000" lon="-0.355527000">
  <ele>161.500000</ele>
  <time>2012-03-10T08:37:43Z</time>
  <sat>8</sat>
</trkpt>
<trkpt lat="39.700047000" lon="-0.355537000">
  <ele>161.100000</ele>
  <time>2012-03-10T08:37:44Z</time>
  <sat>7</sat>
</trkpt>
<trkpt lat="39.700054000" lon="-0.355547000">
  <ele>160.500000</ele>
  <time>2012-03-10T08:37:45Z</time>
  <sat>6</sat>
</trkpt>
<trkpt lat="39.700054000" lon="-0.355551000">
  <ele>160.600000</ele>
  <time>2012-03-10T08:37:46Z</time>
  <sat>6</sat>
</trkpt>
<trkpt lat="39.700050000" lon="-0.355563000">
  <ele>160.300000</ele>
  <time>2012-03-10T08:37:47Z</time>
  <sat>6</sat>
</trkpt>
<trkpt lat="39.700045000" lon="-0.355575000">
  <ele>161.100000</ele>
  <time>2012-03-10T08:37:48Z</time>
  <sat>6</sat>
</trkpt>
<trkpt lat="39.700042000" lon="-0.355586000">
  <ele>162.100000</ele>
  <time>2012-03-10T08:37:49Z</time>
  <sat>6</sat>
</trkpt>
<trkpt lat="39.700042000" lon="-0.355591000">
  <ele>162.800000</ele>
  <time>2012-03-10T08:37:50Z</time>
  <sat>6</sat>
</trkpt>
<trkpt lat="39.700044000" lon="-0.355589000">
  <ele>162.300000</ele>
  <time>2012-03-10T08:37:51Z</time>
  <sat>5</sat>
</trkpt>
<trkpt lat="39.700045000" lon="-0.355587000">
  <ele>162.500000</ele>
  <time>2012-03-10T08:37:52Z</time>
  <sat>5</sat>
</trkpt>
<trkpt lat="39.700045000" lon="-0.355587000">
  <ele>162.300000</ele>
  <time>2012-03-10T08:37:53Z</time>
  <sat>5</sat>
</trkpt>
<trkpt lat="39.700045000" lon="-0.355590000">
  <ele>162.300000</ele>
  <time>2012-03-10T08:37:54Z</time>
  <sat>5</sat>
</trkpt>
<trkpt lat="39.700043000" lon="-0.355590000">
  <ele>162.100000</ele>
  <time>2012-03-10T08:37:55Z</time>
  <sat>6</sat>
</trkpt>
<trkpt lat="39.700043000" lon="-0.355588000">
  <ele>162.100000</ele>
  <time>2012-03-10T08:37:56Z</time>
  <sat>6</sat>
</trkpt>
<trkpt lat="39.700041000" lon="-0.355587000">
  <ele>161.800000</ele>
  <time>2012-03-10T08:37:57Z</time>
  <sat>6</sat>
</trkpt>
<trkpt lat="39.700041000" lon="-0.355587000">
  <ele>161.800000</ele>
  <time>2012-03-10T08:37:58Z</time>
  <sat>6</sat>
</trkpt>
<trkpt lat="39.700036000" lon="-0.355598000">
  <ele>161.600000</ele>
  <time>2012-03-10T08:37:59Z</time>
  <sat>6</sat>
</trkpt>
<trkpt lat="39.700029000" lon="-0.355612000">
  <ele>161.600000</ele>
  <time>2012-03-10T08:38:00Z</time>
  <sat>6</sat>
</trkpt>
<trkpt lat="39.700003000" lon="-0.355675000">
  <ele>162.000000</ele>
  <time>2012-03-10T08:38:04Z</time>
  <sat>6</sat>
</trkpt>
<trkpt lat="39.699988000" lon="-0.355707000">
  <ele>162.300000</ele>
  <time>2012-03-10T08:38:06Z</time>
  <sat>6</sat>
</trkpt>
<trkpt lat="39.699985000" lon="-0.355727000">
  <ele>162.300000</ele>
  <time>2012-03-10T08:38:07Z</time>
  <sat>6</sat>
</trkpt>
<trkpt lat="39.699978000" lon="-0.355769000">
  <ele>162.600000</ele>
  <time>2012-03-10T08:38:09Z</time>
  <sat>6</sat>
</trkpt>
<trkpt lat="39.699971000" lon="-0.355797000">
  <ele>163.100000</ele>
  <time>2012-03-10T08:38:11Z</time>
  <sat>6</sat>
</trkpt>
<trkpt lat="39.699957000" lon="-0.355869000">
  <ele>165.100000</ele>
  <time>2012-03-10T08:38:15Z</time>
  <sat>6</sat>
</trkpt>
<trkpt lat="39.699946000" lon="-0.355909000">
  <ele>166.100000</ele>
  <time>2012-03-10T08:38:17Z</time>
  <sat>6</sat>
</trkpt>
<trkpt lat="39.699932000" lon="-0.355960000">
  <ele>167.000000</ele>
  <time>2012-03-10T08:38:20Z</time>
  <sat>6</sat>
</trkpt>
<trkpt lat="39.699926000" lon="-0.355974000">
  <ele>167.100000</ele>
  <time>2012-03-10T08:38:21Z</time>
  <sat>6</sat>
</trkpt>
<trkpt lat="39.699925000" lon="-0.355997000">
  <ele>167.600000</ele>
  <time>2012-03-10T08:38:22Z</time>
  <sat>6</sat>
</trkpt>
<trkpt lat="39.699932000" lon="-0.356079000">
  <ele>168.800000</ele>
  <time>2012-03-10T08:38:26Z</time>
  <sat>6</sat>
</trkpt>
<trkpt lat="39.699940000" lon="-0.356087000">
  <ele>170.300000</ele>
  <time>2012-03-10T08:38:27Z</time>
  <sat>6</sat>
</trkpt>
<trkpt lat="39.699946000" lon="-0.356104000">
  <ele>171.100000</ele>
  <time>2012-03-10T08:38:28Z</time>
  <sat>7</sat>
</trkpt>
<trkpt lat="39.699962000" lon="-0.356145000">
  <ele>171.600000</ele>
  <time>2012-03-10T08:38:30Z</time>
  <sat>7</sat>
</trkpt>
<trkpt lat="39.699974000" lon="-0.356161000">
  <ele>171.300000</ele>
  <time>2012-03-10T08:38:31Z</time>
  <sat>7</sat>
</trkpt>
<trkpt lat="39.700053000" lon="-0.356243000">
  <ele>171.800000</ele>
  <time>2012-03-10T08:38:36Z</time>
  <sat>7</sat>
</trkpt>
<trkpt lat="39.700069000" lon="-0.356255000">
  <ele>171.800000</ele>
  <time>2012-03-10T08:38:37Z</time>
  <sat>7</sat>
</trkpt>
<trkpt lat="39.700125000" lon="-0.356278000">
  <ele>171.600000</ele>
  <time>2012-03-10T08:38:40Z</time>
  <sat>8</sat>
</trkpt>
<trkpt lat="39.700156000" lon="-0.356261000">
  <ele>171.800000</ele>
  <time>2012-03-10T08:38:41Z</time>
  <sat>9</sat>
</trkpt>
<trkpt lat="39.700334000" lon="-0.356147000">
  <ele>173.500000</ele>
  <time>2012-03-10T08:38:47Z</time>
  <sat>8</sat>
</trkpt>
<trkpt lat="39.700368000" lon="-0.356142000">
  <ele>172.300000</ele>
  <time>2012-03-10T08:38:48Z</time>
  <sat>7</sat>
</trkpt>
<trkpt lat="39.700422000" lon="-0.356124000">
  <ele>172.000000</ele>
  <time>2012-03-10T08:38:50Z</time>
  <sat>7</sat>
</trkpt>
<trkpt lat="39.700433000" lon="-0.356087000">
  <ele>171.300000</ele>
  <time>2012-03-10T08:38:51Z</time>
  <sat>9</sat>
</trkpt>
<trkpt lat="39.700447000" lon="-0.356060000">
  <ele>170.800000</ele>
  <time>2012-03-10T08:38:52Z</time>
  <sat>9</sat>
</trkpt>
<trkpt lat="39.700459000" lon="-0.356043000">
  <ele>171.300000</ele>
  <time>2012-03-10T08:38:53Z</time>
  <sat>9</sat>
</trkpt>
<trkpt lat="39.700474000" lon="-0.356032000">
  <ele>171.600000</ele>
  <time>2012-03-10T08:38:54Z</time>
  <sat>9</sat>
</trkpt>
<trkpt lat="39.700510000" lon="-0.356026000">
  <ele>170.600000</ele>
  <time>2012-03-10T08:38:56Z</time>
  <sat>9</sat>
</trkpt>
<trkpt lat="39.700633000" lon="-0.356005000">
  <ele>169.100000</ele>
  <time>2012-03-10T08:39:01Z</time>
  <sat>9</sat>
</trkpt>
<trkpt lat="39.700661000" lon="-0.356005000">
  <ele>169.600000</ele>
  <time>2012-03-10T08:39:02Z</time>
  <sat>9</sat>
</trkpt>
<trkpt lat="39.700768000" lon="-0.356019000">
  <ele>169.300000</ele>
  <time>2012-03-10T08:39:06Z</time>
  <sat>6</sat>
</trkpt>
<trkpt lat="39.700798000" lon="-0.356051000">
  <ele>170.300000</ele>
  <time>2012-03-10T08:39:08Z</time>
  <sat>9</sat>
</trkpt>
<trkpt lat="39.700846000" lon="-0.356072000">
  <ele>170.000000</ele>
  <time>2012-03-10T08:39:10Z</time>
  <sat>9</sat>
</trkpt>
<trkpt lat="39.700875000" lon="-0.356080000">
  <ele>169.300000</ele>
  <time>2012-03-10T08:39:11Z</time>
  <sat>9</sat>
</trkpt>
<trkpt lat="39.700914000" lon="-0.356104000">
  <ele>170.300000</ele>
  <time>2012-03-10T08:39:13Z</time>
  <sat>9</sat>
</trkpt>
<trkpt lat="39.701010000" lon="-0.356154000">
  <ele>171.300000</ele>
  <time>2012-03-10T08:39:18Z</time>
  <sat>9</sat>
</trkpt>
<trkpt lat="39.701031000" lon="-0.356163000">
  <ele>171.800000</ele>
  <time>2012-03-10T08:39:19Z</time>
  <sat>9</sat>
</trkpt>
<trkpt lat="39.701069000" lon="-0.356167000">
  <ele>172.300000</ele>
  <time>2012-03-10T08:39:21Z</time>
  <sat>9</sat>
</trkpt>
<trkpt lat="39.701120000" lon="-0.356210000">
  <ele>173.800000</ele>
  <time>2012-03-10T08:39:26Z</time>
  <sat>8</sat>
</trkpt>
<trkpt lat="39.701121000" lon="-0.356228000">
  <ele>174.300000</ele>
  <time>2012-03-10T08:39:27Z</time>
  <sat>8</sat>
</trkpt>
<trkpt lat="39.701136000" lon="-0.356234000">
  <ele>173.600000</ele>
  <time>2012-03-10T08:39:28Z</time>
  <sat>8</sat>
</trkpt>
<trkpt lat="39.701143000" lon="-0.356257000">
  <ele>173.600000</ele>
  <time>2012-03-10T08:39:29Z</time>
  <sat>8</sat>
</trkpt>
<trkpt lat="39.701154000" lon="-0.356274000">
  <ele>174.300000</ele>
  <time>2012-03-10T08:39:30Z</time>
  <sat>8</sat>
</trkpt>
<trkpt lat="39.701179000" lon="-0.356305000">
  <ele>174.100000</ele>
  <time>2012-03-10T08:39:32Z</time>
  <sat>8</sat>
</trkpt>
<trkpt lat="39.701191000" lon="-0.356319000">
  <ele>174.100000</ele>
  <time>2012-03-10T08:39:33Z</time>
  <sat>8</sat>
</trkpt>
<trkpt lat="39.701203000" lon="-0.356318000">
  <ele>175.100000</ele>
  <time>2012-03-10T08:39:34Z</time>
  <sat>8</sat>
</trkpt>
<trkpt lat="39.701215000" lon="-0.356316000">
  <ele>175.500000</ele>
  <time>2012-03-10T08:39:35Z</time>
  <sat>8</sat>
</trkpt>
<trkpt lat="39.701228000" lon="-0.356314000">
  <ele>175.600000</ele>
  <time>2012-03-10T08:39:36Z</time>
  <sat>8</sat>
</trkpt>
<trkpt lat="39.701270000" lon="-0.356306000">
  <ele>176.600000</ele>
  <time>2012-03-10T08:39:39Z</time>
  <sat>8</sat>
</trkpt>
<trkpt lat="39.701285000" lon="-0.356311000">
  <ele>177.100000</ele>
  <time>2012-03-10T08:39:40Z</time>
  <sat>8</sat>
</trkpt>
<trkpt lat="39.701383000" lon="-0.356307000">
  <ele>177.300000</ele>
  <time>2012-03-10T08:40:01Z</time>
  <sat>9</sat>
</trkpt>
<trkpt lat="39.701393000" lon="-0.356296000">
  <ele>177.100000</ele>
  <time>2012-03-10T08:40:02Z</time>
  <sat>9</sat>
</trkpt>
<trkpt lat="39.701405000" lon="-0.356281000">
  <ele>177.100000</ele>
  <time>2012-03-10T08:40:03Z</time>
  <sat>9</sat>
</trkpt>
<trkpt lat="39.701435000" lon="-0.356244000">
  <ele>176.500000</ele>
  <time>2012-03-10T08:40:05Z</time>
  <sat>9</sat>
</trkpt>
<trkpt lat="39.701448000" lon="-0.356228000">
  <ele>177.100000</ele>
  <time>2012-03-10T08:40:06Z</time>
  <sat>9</sat>
</trkpt>
<trkpt lat="39.701457000" lon="-0.356211000">
  <ele>177.500000</ele>
  <time>2012-03-10T08:40:07Z</time>
  <sat>9</sat>
</trkpt>
<trkpt lat="39.701468000" lon="-0.356182000">
  <ele>177.300000</ele>
  <time>2012-03-10T08:40:08Z</time>
  <sat>9</sat>
</trkpt>
<trkpt lat="39.701504000" lon="-0.356089000">
  <ele>174.300000</ele>
  <time>2012-03-10T08:40:11Z</time>
  <sat>8</sat>
</trkpt>
<trkpt lat="39.701504000" lon="-0.356053000">
  <ele>173.500000</ele>
  <time>2012-03-10T08:40:12Z</time>
  <sat>8</sat>
</trkpt>
<trkpt lat="39.701508000" lon="-0.356016000">
  <ele>171.600000</ele>
  <time>2012-03-10T08:40:13Z</time>
  <sat>8</sat>
</trkpt>
<trkpt lat="39.701511000" lon="-0.355989000">
  <ele>170.300000</ele>
  <time>2012-03-10T08:40:14Z</time>
  <sat>8</sat>
</trkpt>
<trkpt lat="39.701512000" lon="-0.355964000">
  <ele>170.300000</ele>
  <time>2012-03-10T08:40:15Z</time>
  <sat>8</sat>
</trkpt>
<trkpt lat="39.701509000" lon="-0.355894000">
  <ele>169.600000</ele>
  <time>2012-03-10T08:40:18Z</time>
  <sat>8</sat>
</trkpt>
<trkpt lat="39.701496000" lon="-0.355857000">
  <ele>168.300000</ele>
  <time>2012-03-10T08:40:19Z</time>
  <sat>8</sat>
</trkpt>
<trkpt lat="39.701472000" lon="-0.355785000">
  <ele>167.500000</ele>
  <time>2012-03-10T08:40:22Z</time>
  <sat>8</sat>
</trkpt>
<trkpt lat="39.701455000" lon="-0.355769000">
  <ele>166.600000</ele>
  <time>2012-03-10T08:40:23Z</time>
  <sat>8</sat>
</trkpt>
<trkpt lat="39.701412000" lon="-0.355718000">
  <ele>164.800000</ele>
  <time>2012-03-10T08:40:26Z</time>
  <sat>8</sat>
</trkpt>
<trkpt lat="39.701399000" lon="-0.355679000">
  <ele>164.600000</ele>
  <time>2012-03-10T08:40:27Z</time>
  <sat>8</sat>
</trkpt>
<trkpt lat="39.701386000" lon="-0.355621000">
  <ele>164.600000</ele>
  <time>2012-03-10T08:40:29Z</time>
  <sat>8</sat>
</trkpt>
<trkpt lat="39.701236000" lon="-0.355251000">
  <ele>167.300000</ele>
  <time>2012-03-10T08:40:39Z</time>
  <sat>8</sat>
</trkpt>
<trkpt lat="39.701184000" lon="-0.355112000">
  <ele>166.500000</ele>
  <time>2012-03-10T08:40:42Z</time>
  <sat>7</sat>
</trkpt>
<trkpt lat="39.701179000" lon="-0.355049000">
  <ele>164.100000</ele>
  <time>2012-03-10T08:40:43Z</time>
  <sat>8</sat>
</trkpt>
<trkpt lat="39.701133000" lon="-0.354802000">
  <ele>164.300000</ele>
  <time>2012-03-10T08:40:48Z</time>
  <sat>9</sat>
</trkpt>
<trkpt lat="39.701123000" lon="-0.354772000">
  <ele>164.600000</ele>
  <time>2012-03-10T08:40:49Z</time>
  <sat>9</sat>
</trkpt>
<trkpt lat="39.701051000" lon="-0.354413000">
  <ele>158.800000</ele>
  <time>2012-03-10T08:40:55Z</time>
  <sat>9</sat>
</trkpt>
<trkpt lat="39.701046000" lon="-0.354334000">
  <ele>158.600000</ele>
  <time>2012-03-10T08:40:56Z</time>
  <sat>9</sat>
</trkpt>
<trkpt lat="39.701057000" lon="-0.354261000">
  <ele>158.600000</ele>
  <time>2012-03-10T08:40:57Z</time>
  <sat>9</sat>
</trkpt>
<trkpt lat="39.701085000" lon="-0.354206000">
  <ele>158.300000</ele>
  <time>2012-03-10T08:40:58Z</time>
  <sat>9</sat>
</trkpt>
<trkpt lat="39.701140000" lon="-0.354112000">
  <ele>158.600000</ele>
  <time>2012-03-10T08:41:00Z</time>
  <sat>9</sat>
</trkpt>
<trkpt lat="39.701171000" lon="-0.354077000">
  <ele>158.100000</ele>
  <time>2012-03-10T08:41:01Z</time>
  <sat>9</sat>
</trkpt>
<trkpt lat="39.701324000" lon="-0.353927000">
  <ele>157.100000</ele>
  <time>2012-03-10T08:41:06Z</time>
  <sat>7</sat>
</trkpt>
<trkpt lat="39.701346000" lon="-0.353888000">
  <ele>157.100000</ele>
  <time>2012-03-10T08:41:07Z</time>
  <sat>7</sat>
</trkpt>
<trkpt lat="39.701719000" lon="-0.353300000">
  <ele>155.100000</ele>
  <time>2012-03-10T08:41:19Z</time>
  <sat>8</sat>
</trkpt>
<trkpt lat="39.701762000" lon="-0.353264000">
  <ele>154.500000</ele>
  <time>2012-03-10T08:41:20Z</time>
  <sat>8</sat>
</trkpt>
<trkpt lat="39.701844000" lon="-0.353165000">
  <ele>152.300000</ele>
  <time>2012-03-10T08:41:22Z</time>
  <sat>9</sat>
</trkpt>
<trkpt lat="39.701885000" lon="-0.353102000">
  <ele>151.300000</ele>
  <time>2012-03-10T08:41:23Z</time>
  <sat>9</sat>
</trkpt>
<trkpt lat="39.702053000" lon="-0.352784000">
  <ele>147.500000</ele>
  <time>2012-03-10T08:41:27Z</time>
  <sat>7</sat>
</trkpt>
<trkpt lat="39.702874000" lon="-0.351227000">
  <ele>131.600000</ele>
  <time>2012-03-10T08:41:43Z</time>
  <sat>8</sat>
</trkpt>
<trkpt lat="39.702922000" lon="-0.351182000">
  <ele>131.100000</ele>
  <time>2012-03-10T08:41:44Z</time>
  <sat>8</sat>
</trkpt>
<trkpt lat="39.703036000" lon="-0.351047000">
  <ele>130.800000</ele>
  <time>2012-03-10T08:41:47Z</time>
  <sat>8</sat>
</trkpt>
<trkpt lat="39.703053000" lon="-0.350977000">
  <ele>130.800000</ele>
  <time>2012-03-10T08:41:48Z</time>
  <sat>9</sat>
</trkpt>
<trkpt lat="39.703242000" lon="-0.350279000">
  <ele>125.800000</ele>
  <time>2012-03-10T08:41:59Z</time>
  <sat>9</sat>
</trkpt>
<trkpt lat="39.703267000" lon="-0.350214000">
  <ele>125.600000</ele>
  <time>2012-03-10T08:42:00Z</time>
  <sat>10</sat>
</trkpt>
<trkpt lat="39.703304000" lon="-0.350151000">
  <ele>124.600000</ele>
  <time>2012-03-10T08:42:01Z</time>
  <sat>10</sat>
</trkpt>
<trkpt lat="39.703352000" lon="-0.350090000">
  <ele>124.500000</ele>
  <time>2012-03-10T08:42:02Z</time>
  <sat>10</sat>
</trkpt>
<trkpt lat="39.703412000" lon="-0.350050000">
  <ele>124.500000</ele>
  <time>2012-03-10T08:42:03Z</time>
  <sat>10</sat>
</trkpt>
<trkpt lat="39.703650000" lon="-0.349883000">
  <ele>125.600000</ele>
  <time>2012-03-10T08:42:07Z</time>
  <sat>10</sat>
</trkpt>
<trkpt lat="39.703703000" lon="-0.349832000">
  <ele>125.500000</ele>
  <time>2012-03-10T08:42:08Z</time>
  <sat>10</sat>
</trkpt>
<trkpt lat="39.703822000" lon="-0.349745000">
  <ele>125.300000</ele>
  <time>2012-03-10T08:42:10Z</time>
  <sat>10</sat>
</trkpt>
<trkpt lat="39.703891000" lon="-0.349725000">
  <ele>125.000000</ele>
  <time>2012-03-10T08:42:11Z</time>
  <sat>10</sat>
</trkpt>
<trkpt lat="39.704481000" lon="-0.349529000">
  <ele>120.500000</ele>
  <time>2012-03-10T08:42:20Z</time>
  <sat>10</sat>
</trkpt>
<trkpt lat="39.704527000" lon="-0.349528000">
  <ele>121.000000</ele>
  <time>2012-03-10T08:42:21Z</time>
  <sat>10</sat>
</trkpt>
<trkpt lat="39.704575000" lon="-0.349532000">
  <ele>120.400000</ele>
  <time>2012-03-10T08:42:22Z</time>
  <sat>10</sat>
</trkpt>
<trkpt lat="39.704742000" lon="-0.349560000">
  <ele>118.800000</ele>
  <time>2012-03-10T08:42:25Z</time>
  <sat>10</sat>
</trkpt>
<trkpt lat="39.704802000" lon="-0.349576000">
  <ele>118.500000</ele>
  <time>2012-03-10T08:42:26Z</time>
  <sat>10</sat>
</trkpt>
<trkpt lat="39.704926000" lon="-0.349597000">
  <ele>118.100000</ele>
  <time>2012-03-10T08:42:29Z</time>
  <sat>10</sat>
</trkpt>
<trkpt lat="39.704952000" lon="-0.349580000">
  <ele>118.000000</ele>
  <time>2012-03-10T08:42:30Z</time>
  <sat>10</sat>
</trkpt>
<trkpt lat="39.704978000" lon="-0.349561000">
  <ele>118.000000</ele>
  <time>2012-03-10T08:42:31Z</time>
  <sat>10</sat>
</trkpt>
<trkpt lat="39.705110000" lon="-0.349306000">
  <ele>116.500000</ele>
  <time>2012-03-10T08:42:35Z</time>
  <sat>10</sat>
</trkpt>
<trkpt lat="39.705098000" lon="-0.349141000">
  <ele>116.100000</ele>
  <time>2012-03-10T08:42:36Z</time>
  <sat>8</sat>
</trkpt>
<trkpt lat="39.705115000" lon="-0.349158000">
  <ele>115.500000</ele>
  <time>2012-03-10T08:42:37Z</time>
  <sat>9</sat>
</trkpt>
<trkpt lat="39.705141000" lon="-0.349137000">
  <ele>114.900000</ele>
  <time>2012-03-10T08:42:38Z</time>
  <sat>9</sat>
</trkpt>
<trkpt lat="39.705167000" lon="-0.349115000">
  <ele>113.800000</ele>
  <time>2012-03-10T08:42:39Z</time>
  <sat>9</sat>
</trkpt>
<trkpt lat="39.705206000" lon="-0.349110000">
  <ele>114.300000</ele>
  <time>2012-03-10T08:42:40Z</time>
  <sat>9</sat>
</trkpt>
<trkpt lat="39.705253000" lon="-0.349116000">
  <ele>113.900000</ele>
  <time>2012-03-10T08:42:41Z</time>
  <sat>10</sat>
</trkpt>
<trkpt lat="39.705286000" lon="-0.349144000">
  <ele>113.500000</ele>
  <time>2012-03-10T08:42:42Z</time>
  <sat>10</sat>
</trkpt>
<trkpt lat="39.705326000" lon="-0.349167000">
  <ele>113.400000</ele>
  <time>2012-03-10T08:42:43Z</time>
  <sat>10</sat>
</trkpt>
<trkpt lat="39.706736000" lon="-0.349757000">
  <ele>115.500000</ele>
  <time>2012-03-10T08:43:16Z</time>
  <sat>9</sat>
</trkpt>
<trkpt lat="39.706787000" lon="-0.349772000">
  <ele>115.600000</ele>
  <time>2012-03-10T08:43:17Z</time>
  <sat>9</sat>
</trkpt>
<trkpt lat="39.707826000" lon="-0.350073000">
  <ele>112.500000</ele>
  <time>2012-03-10T08:43:35Z</time>
  <sat>9</sat>
</trkpt>
<trkpt lat="39.707887000" lon="-0.350101000">
  <ele>112.800000</ele>
  <time>2012-03-10T08:43:36Z</time>
  <sat>9</sat>
</trkpt>
<trkpt lat="39.708624000" lon="-0.350512000">
  <ele>114.500000</ele>
  <time>2012-03-10T08:43:50Z</time>
  <sat>9</sat>
</trkpt>
<trkpt lat="39.708756000" lon="-0.350607000">
  <ele>115.900000</ele>
  <time>2012-03-10T08:43:53Z</time>
  <sat>9</sat>
</trkpt>
<trkpt lat="39.709470000" lon="-0.351147000">
  <ele>119.000000</ele>
  <time>2012-03-10T08:44:11Z</time>
  <sat>8</sat>
</trkpt>
<trkpt lat="39.709639000" lon="-0.351251000">
  <ele>119.300000</ele>
  <time>2012-03-10T08:44:16Z</time>
  <sat>8</sat>
</trkpt>
<trkpt lat="39.709678000" lon="-0.351266000">
  <ele>119.500000</ele>
  <time>2012-03-10T08:44:17Z</time>
  <sat>8</sat>
</trkpt>
<trkpt lat="39.709715000" lon="-0.351272000">
  <ele>119.600000</ele>
  <time>2012-03-10T08:44:18Z</time>
  <sat>8</sat>
</trkpt>
<trkpt lat="39.709747000" lon="-0.351256000">
  <ele>119.900000</ele>
  <time>2012-03-10T08:44:19Z</time>
  <sat>9</sat>
</trkpt>
<trkpt lat="39.709779000" lon="-0.351219000">
  <ele>119.800000</ele>
  <time>2012-03-10T08:44:20Z</time>
  <sat>9</sat>
</trkpt>
<trkpt lat="39.709830000" lon="-0.351136000">
  <ele>120.100000</ele>
  <time>2012-03-10T08:44:22Z</time>
  <sat>8</sat>
</trkpt>
<trkpt lat="39.709849000" lon="-0.351107000">
  <ele>119.600000</ele>
  <time>2012-03-10T08:44:23Z</time>
  <sat>8</sat>
</trkpt>
<trkpt lat="39.709867000" lon="-0.351082000">
  <ele>119.100000</ele>
  <time>2012-03-10T08:44:24Z</time>
  <sat>8</sat>
</trkpt>
<trkpt lat="39.709886000" lon="-0.351066000">
  <ele>118.800000</ele>
  <time>2012-03-10T08:44:25Z</time>
  <sat>9</sat>
</trkpt>
<trkpt lat="39.709910000" lon="-0.351070000">
  <ele>119.000000</ele>
  <time>2012-03-10T08:44:26Z</time>
  <sat>8</sat>
</trkpt>
<trkpt lat="39.709954000" lon="-0.351088000">
  <ele>119.000000</ele>
  <time>2012-03-10T08:44:28Z</time>
  <sat>8</sat>
</trkpt>
<trkpt lat="39.709971000" lon="-0.351107000">
  <ele>119.000000</ele>
  <time>2012-03-10T08:44:29Z</time>
  <sat>9</sat>
</trkpt>
<trkpt lat="39.710004000" lon="-0.351171000">
  <ele>119.000000</ele>
  <time>2012-03-10T08:44:31Z</time>
  <sat>8</sat>
</trkpt>
<trkpt lat="39.710047000" lon="-0.351309000">
  <ele>121.000000</ele>
  <time>2012-03-10T08:44:34Z</time>
  <sat>8</sat>
</trkpt>
<trkpt lat="39.710261000" lon="-0.351815000">
  <ele>120.900000</ele>
  <time>2012-03-10T08:44:45Z</time>
  <sat>9</sat>
</trkpt>
<trkpt lat="39.710298000" lon="-0.351851000">
  <ele>120.900000</ele>
  <time>2012-03-10T08:44:46Z</time>
  <sat>9</sat>
</trkpt>
<trkpt lat="39.710377000" lon="-0.351902000">
  <ele>120.400000</ele>
  <time>2012-03-10T08:44:48Z</time>
  <sat>9</sat>
</trkpt>
<trkpt lat="39.710759000" lon="-0.352198000">
  <ele>121.300000</ele>
  <time>2012-03-10T08:44:58Z</time>
  <sat>9</sat>
</trkpt>
<trkpt lat="39.711404000" lon="-0.352732000">
  <ele>123.100000</ele>
  <time>2012-03-10T08:45:16Z</time>
  <sat>8</sat>
</trkpt>
<trkpt lat="39.711440000" lon="-0.352770000">
  <ele>123.300000</ele>
  <time>2012-03-10T08:45:17Z</time>
  <sat>8</sat>
</trkpt>
<trkpt lat="39.711783000" lon="-0.353196000">
  <ele>124.300000</ele>
  <time>2012-03-10T08:45:28Z</time>
  <sat>9</sat>
</trkpt>
<trkpt lat="39.711813000" lon="-0.353243000">
  <ele>124.600000</ele>
  <time>2012-03-10T08:45:29Z</time>
  <sat>9</sat>
</trkpt>
<trkpt lat="39.711950000" lon="-0.353430000">
  <ele>126.600000</ele>
  <time>2012-03-10T08:45:34Z</time>
  <sat>10</sat>
</trkpt>
<trkpt lat="39.712511000" lon="-0.354425000">
  <ele>129.000000</ele>
  <time>2012-03-10T08:45:57Z</time>
  <sat>9</sat>
</trkpt>
<trkpt lat="39.712532000" lon="-0.354475000">
  <ele>129.000000</ele>
  <time>2012-03-10T08:45:58Z</time>
  <sat>9</sat>
</trkpt>
<trkpt lat="39.712615000" lon="-0.354704000">
  <ele>129.100000</ele>
  <time>2012-03-10T08:46:03Z</time>
  <sat>10</sat>
</trkpt>
<trkpt lat="39.712886000" lon="-0.355533000">
  <ele>131.000000</ele>
  <time>2012-03-10T08:46:20Z</time>
  <sat>9</sat>
</trkpt>
<trkpt lat="39.712896000" lon="-0.355583000">
  <ele>131.100000</ele>
  <time>2012-03-10T08:46:21Z</time>
  <sat>9</sat>
</trkpt>
<trkpt lat="39.713064000" lon="-0.356292000">
  <ele>130.100000</ele>
  <time>2012-03-10T08:46:34Z</time>
  <sat>9</sat>
</trkpt>
<trkpt lat="39.713063000" lon="-0.356339000">
  <ele>130.000000</ele>
  <time>2012-03-10T08:46:35Z</time>
  <sat>10</sat>
</trkpt>
<trkpt lat="39.713051000" lon="-0.356432000">
  <ele>129.500000</ele>
  <time>2012-03-10T08:46:37Z</time>
  <sat>10</sat>
</trkpt>
<trkpt lat="39.713032000" lon="-0.356476000">
  <ele>129.100000</ele>
  <time>2012-03-10T08:46:38Z</time>
  <sat>10</sat>
</trkpt>
<trkpt lat="39.713010000" lon="-0.356514000">
  <ele>129.000000</ele>
  <time>2012-03-10T08:46:39Z</time>
  <sat>10</sat>
</trkpt>
<trkpt lat="39.712960000" lon="-0.356578000">
  <ele>127.900000</ele>
  <time>2012-03-10T08:46:41Z</time>
  <sat>8</sat>
</trkpt>
<trkpt lat="39.712936000" lon="-0.356602000">
  <ele>127.500000</ele>
  <time>2012-03-10T08:46:42Z</time>
  <sat>10</sat>
</trkpt>
<trkpt lat="39.712860000" lon="-0.356661000">
  <ele>127.000000</ele>
  <time>2012-03-10T08:46:45Z</time>
  <sat>10</sat>
</trkpt>
<trkpt lat="39.712665000" lon="-0.356825000">
  <ele>125.000000</ele>
  <time>2012-03-10T08:46:50Z</time>
  <sat>9</sat>
</trkpt>
<trkpt lat="39.712632000" lon="-0.356882000">
  <ele>124.500000</ele>
  <time>2012-03-10T08:46:51Z</time>
  <sat>9</sat>
</trkpt>
<trkpt lat="39.712404000" lon="-0.357333000">
  <ele>120.500000</ele>
  <time>2012-03-10T08:46:58Z</time>
  <sat>9</sat>
</trkpt>
<trkpt lat="39.712381000" lon="-0.357396000">
  <ele>120.000000</ele>
  <time>2012-03-10T08:46:59Z</time>
  <sat>9</sat>
</trkpt>
<trkpt lat="39.712334000" lon="-0.357553000">
  <ele>118.500000</ele>
  <time>2012-03-10T08:47:02Z</time>
  <sat>6</sat>
</trkpt>
<trkpt lat="39.712320000" lon="-0.357647000">
  <ele>116.500000</ele>
  <time>2012-03-10T08:47:04Z</time>
  <sat>7</sat>
</trkpt>
<trkpt lat="39.712258000" lon="-0.357831000">
  <ele>115.100000</ele>
  <time>2012-03-10T08:47:10Z</time>
  <sat>8</sat>
</trkpt>
<trkpt lat="39.712237000" lon="-0.357841000">
  <ele>114.900000</ele>
  <time>2012-03-10T08:47:11Z</time>
  <sat>8</sat>
</trkpt>
<trkpt lat="39.712216000" lon="-0.357850000">
  <ele>115.000000</ele>
  <time>2012-03-10T08:47:12Z</time>
  <sat>8</sat>
</trkpt>
<trkpt lat="39.712194000" lon="-0.357864000">
  <ele>115.300000</ele>
  <time>2012-03-10T08:47:13Z</time>
  <sat>8</sat>
</trkpt>
<trkpt lat="39.712176000" lon="-0.357881000">
  <ele>115.400000</ele>
  <time>2012-03-10T08:47:14Z</time>
  <sat>8</sat>
</trkpt>
<trkpt lat="39.712148000" lon="-0.357909000">
  <ele>116.500000</ele>
  <time>2012-03-10T08:47:16Z</time>
  <sat>7</sat>
</trkpt>
<trkpt lat="39.711990000" lon="-0.358097000">
  <ele>117.400000</ele>
  <time>2012-03-10T08:47:28Z</time>
  <sat>7</sat>
</trkpt>
<trkpt lat="39.711981000" lon="-0.358116000">
  <ele>117.300000</ele>
  <time>2012-03-10T08:47:29Z</time>
  <sat>7</sat>
</trkpt>
<trkpt lat="39.711972000" lon="-0.358132000">
  <ele>117.500000</ele>
  <time>2012-03-10T08:47:30Z</time>
  <sat>7</sat>
</trkpt>
<trkpt lat="39.711960000" lon="-0.358145000">
  <ele>117.500000</ele>
  <time>2012-03-10T08:47:31Z</time>
  <sat>7</sat>
</trkpt>
<trkpt lat="39.711938000" lon="-0.358158000">
  <ele>117.600000</ele>
  <time>2012-03-10T08:47:32Z</time>
  <sat>7</sat>
</trkpt>
<trkpt lat="39.711921000" lon="-0.358177000">
  <ele>117.600000</ele>
  <time>2012-03-10T08:47:33Z</time>
  <sat>7</sat>
</trkpt>
<trkpt lat="39.711856000" lon="-0.358243000">
  <ele>117.900000</ele>
  <time>2012-03-10T08:47:37Z</time>
  <sat>7</sat>
</trkpt>
<trkpt lat="39.711837000" lon="-0.358256000">
  <ele>118.000000</ele>
  <time>2012-03-10T08:47:38Z</time>
  <sat>7</sat>
</trkpt>
<trkpt lat="39.711732000" lon="-0.358384000">
  <ele>118.100000</ele>
  <time>2012-03-10T08:47:44Z</time>
  <sat>7</sat>
</trkpt>
<trkpt lat="39.711718000" lon="-0.358411000">
  <ele>118.000000</ele>
  <time>2012-03-10T08:47:45Z</time>
  <sat>7</sat>
</trkpt>
<trkpt lat="39.711506000" lon="-0.358847000">
  <ele>117.300000</ele>
  <time>2012-03-10T08:48:00Z</time>
  <sat>7</sat>
</trkpt>
<trkpt lat="39.711448000" lon="-0.359012000">
  <ele>117.100000</ele>
  <time>2012-03-10T08:48:05Z</time>
  <sat>7</sat>
</trkpt>
<trkpt lat="39.711404000" lon="-0.359147000">
  <ele>117.300000</ele>
  <time>2012-03-10T08:48:09Z</time>
  <sat>7</sat>
</trkpt>
<trkpt lat="39.711398000" lon="-0.359181000">
  <ele>117.300000</ele>
  <time>2012-03-10T08:48:10Z</time>
  <sat>7</sat>
</trkpt>
<trkpt lat="39.711371000" lon="-0.359414000">
  <ele>117.800000</ele>
  <time>2012-03-10T08:48:18Z</time>
  <sat>7</sat>
</trkpt>
<trkpt lat="39.711370000" lon="-0.359432000">
  <ele>118.500000</ele>
  <time>2012-03-10T08:48:19Z</time>
  <sat>7</sat>
</trkpt>
<trkpt lat="39.711374000" lon="-0.359453000">
  <ele>118.900000</ele>
  <time>2012-03-10T08:48:20Z</time>
  <sat>7</sat>
</trkpt>
<trkpt lat="39.711393000" lon="-0.359520000">
  <ele>118.300000</ele>
  <time>2012-03-10T08:48:23Z</time>
  <sat>7</sat>
</trkpt>
<trkpt lat="39.711408000" lon="-0.359565000">
  <ele>118.300000</ele>
  <time>2012-03-10T08:48:25Z</time>
  <sat>7</sat>
</trkpt>
<trkpt lat="39.711417000" lon="-0.359584000">
  <ele>118.500000</ele>
  <time>2012-03-10T08:48:26Z</time>
  <sat>7</sat>
</trkpt>
<trkpt lat="39.711434000" lon="-0.359605000">
  <ele>118.500000</ele>
  <time>2012-03-10T08:48:27Z</time>
  <sat>7</sat>
</trkpt>
<trkpt lat="39.711483000" lon="-0.359671000">
  <ele>118.900000</ele>
  <time>2012-03-10T08:48:30Z</time>
  <sat>7</sat>
</trkpt>
<trkpt lat="39.711501000" lon="-0.359691000">
  <ele>119.000000</ele>
  <time>2012-03-10T08:48:31Z</time>
  <sat>7</sat>
</trkpt>
<trkpt lat="39.711521000" lon="-0.359708000">
  <ele>119.000000</ele>
  <time>2012-03-10T08:48:32Z</time>
  <sat>7</sat>
</trkpt>
<trkpt lat="39.711546000" lon="-0.359726000">
  <ele>119.000000</ele>
  <time>2012-03-10T08:48:33Z</time>
  <sat>7</sat>
</trkpt>
<trkpt lat="39.711566000" lon="-0.359739000">
  <ele>118.800000</ele>
  <time>2012-03-10T08:48:34Z</time>
  <sat>7</sat>
</trkpt>
<trkpt lat="39.711610000" lon="-0.359769000">
  <ele>118.000000</ele>
  <time>2012-03-10T08:48:36Z</time>
  <sat>7</sat>
</trkpt>
<trkpt lat="39.711633000" lon="-0.359778000">
  <ele>118.000000</ele>
  <time>2012-03-10T08:48:37Z</time>
  <sat>7</sat>
</trkpt>
<trkpt lat="39.711718000" lon="-0.359841000">
  <ele>118.000000</ele>
  <time>2012-03-10T08:48:41Z</time>
  <sat>7</sat>
</trkpt>
<trkpt lat="39.711739000" lon="-0.359858000">
  <ele>118.000000</ele>
  <time>2012-03-10T08:48:42Z</time>
  <sat>7</sat>
</trkpt>
<trkpt lat="39.711844000" lon="-0.359903000">
  <ele>118.500000</ele>
  <time>2012-03-10T08:48:46Z</time>
  <sat>7</sat>
</trkpt>
<trkpt lat="39.711863000" lon="-0.359913000">
  <ele>118.300000</ele>
  <time>2012-03-10T08:48:47Z</time>
  <sat>7</sat>
</trkpt>
<trkpt lat="39.711914000" lon="-0.359948000">
  <ele>118.400000</ele>
  <time>2012-03-10T08:48:50Z</time>
  <sat>7</sat>
</trkpt>
<trkpt lat="39.711945000" lon="-0.359977000">
  <ele>119.500000</ele>
  <time>2012-03-10T08:48:52Z</time>
  <sat>7</sat>
</trkpt>
<trkpt lat="39.711994000" lon="-0.360029000">
  <ele>121.300000</ele>
  <time>2012-03-10T08:48:56Z</time>
  <sat>7</sat>
</trkpt>
<trkpt lat="39.712070000" lon="-0.360101000">
  <ele>121.100000</ele>
  <time>2012-03-10T08:49:00Z</time>
  <sat>8</sat>
</trkpt>
<trkpt lat="39.712091000" lon="-0.360112000">
  <ele>120.800000</ele>
  <time>2012-03-10T08:49:01Z</time>
  <sat>8</sat>
</trkpt>
<trkpt lat="39.712161000" lon="-0.360163000">
  <ele>120.900000</ele>
  <time>2012-03-10T08:49:04Z</time>
  <sat>8</sat>
</trkpt>
<trkpt lat="39.712282000" lon="-0.360264000">
  <ele>122.400000</ele>
  <time>2012-03-10T08:49:09Z</time>
  <sat>8</sat>
</trkpt>
<trkpt lat="39.712426000" lon="-0.360353000">
  <ele>123.100000</ele>
  <time>2012-03-10T08:49:15Z</time>
  <sat>8</sat>
</trkpt>
<trkpt lat="39.712482000" lon="-0.360410000">
  <ele>123.500000</ele>
  <time>2012-03-10T08:49:18Z</time>
  <sat>8</sat>
</trkpt>
<trkpt lat="39.712493000" lon="-0.360432000">
  <ele>123.400000</ele>
  <time>2012-03-10T08:49:19Z</time>
  <sat>8</sat>
</trkpt>
<trkpt lat="39.712525000" lon="-0.360483000">
  <ele>124.100000</ele>
  <time>2012-03-10T08:49:22Z</time>
  <sat>8</sat>
</trkpt>
<trkpt lat="39.712548000" lon="-0.360511000">
  <ele>125.300000</ele>
  <time>2012-03-10T08:49:24Z</time>
  <sat>8</sat>
</trkpt>
<trkpt lat="39.712624000" lon="-0.360584000">
  <ele>126.000000</ele>
  <time>2012-03-10T08:49:30Z</time>
  <sat>7</sat>
</trkpt>
<trkpt lat="39.712649000" lon="-0.360608000">
  <ele>126.500000</ele>
  <time>2012-03-10T08:49:32Z</time>
  <sat>8</sat>
</trkpt>
<trkpt lat="39.712660000" lon="-0.360623000">
  <ele>126.500000</ele>
  <time>2012-03-10T08:49:33Z</time>
  <sat>8</sat>
</trkpt>
<trkpt lat="39.712686000" lon="-0.360657000">
  <ele>127.500000</ele>
  <time>2012-03-10T08:49:35Z</time>
  <sat>8</sat>
</trkpt>
<trkpt lat="39.712697000" lon="-0.360675000">
  <ele>128.600000</ele>
  <time>2012-03-10T08:49:36Z</time>
  <sat>8</sat>
</trkpt>
<trkpt lat="39.712722000" lon="-0.360703000">
  <ele>129.300000</ele>
  <time>2012-03-10T08:49:38Z</time>
  <sat>8</sat>
</trkpt>
<trkpt lat="39.712820000" lon="-0.360826000">
  <ele>130.100000</ele>
  <time>2012-03-10T08:49:46Z</time>
  <sat>7</sat>
</trkpt>
<trkpt lat="39.712831000" lon="-0.360841000">
  <ele>130.000000</ele>
  <time>2012-03-10T08:49:47Z</time>
  <sat>7</sat>
</trkpt>
<trkpt lat="39.712835000" lon="-0.360857000">
  <ele>129.800000</ele>
  <time>2012-03-10T08:49:48Z</time>
  <sat>7</sat>
</trkpt>
<trkpt lat="39.712843000" lon="-0.360871000">
  <ele>129.600000</ele>
  <time>2012-03-10T08:49:49Z</time>
  <sat>6</sat>
</trkpt>
<trkpt lat="39.712845000" lon="-0.360887000">
  <ele>129.800000</ele>
  <time>2012-03-10T08:49:50Z</time>
  <sat>6</sat>
</trkpt>
<trkpt lat="39.712842000" lon="-0.360885000">
  <ele>129.600000</ele>
  <time>2012-03-10T08:49:51Z</time>
  <sat>6</sat>
</trkpt>
<trkpt lat="39.712844000" lon="-0.360888000">
  <ele>129.600000</ele>
  <time>2012-03-10T08:49:52Z</time>
  <sat>6</sat>
</trkpt>
<trkpt lat="39.712837000" lon="-0.360902000">
  <ele>129.600000</ele>
  <time>2012-03-10T08:49:54Z</time>
  <sat>6</sat>
</trkpt>
<trkpt lat="39.712824000" lon="-0.360936000">
  <ele>129.600000</ele>
  <time>2012-03-10T08:49:55Z</time>
  <sat>6</sat>
</trkpt>
<trkpt lat="39.712831000" lon="-0.360965000">
  <ele>129.800000</ele>
  <time>2012-03-10T08:49:56Z</time>
  <sat>6</sat>
</trkpt>
<trkpt lat="39.712830000" lon="-0.360990000">
  <ele>129.800000</ele>
  <time>2012-03-10T08:49:57Z</time>
  <sat>6</sat>
</trkpt>
<trkpt lat="39.712841000" lon="-0.361087000">
  <ele>129.100000</ele>
  <time>2012-03-10T08:50:00Z</time>
  <sat>7</sat>
</trkpt>
<trkpt lat="39.712845000" lon="-0.361114000">
  <ele>128.600000</ele>
  <time>2012-03-10T08:50:01Z</time>
  <sat>7</sat>
</trkpt>
<trkpt lat="39.712836000" lon="-0.361134000">
  <ele>129.100000</ele>
  <time>2012-03-10T08:50:02Z</time>
  <sat>7</sat>
</trkpt>
<trkpt lat="39.712831000" lon="-0.361160000">
  <ele>130.000000</ele>
  <time>2012-03-10T08:50:03Z</time>
  <sat>7</sat>
</trkpt>
<trkpt lat="39.712792000" lon="-0.361415000">
  <ele>132.500000</ele>
  <time>2012-03-10T08:50:16Z</time>
  <sat>7</sat>
</trkpt>
<trkpt lat="39.712796000" lon="-0.361432000">
  <ele>132.100000</ele>
  <time>2012-03-10T08:50:17Z</time>
  <sat>7</sat>
</trkpt>
<trkpt lat="39.712799000" lon="-0.361451000">
  <ele>131.600000</ele>
  <time>2012-03-10T08:50:18Z</time>
  <sat>8</sat>
</trkpt>
<trkpt lat="39.712838000" lon="-0.361688000">
  <ele>132.300000</ele>
  <time>2012-03-10T08:50:30Z</time>
  <sat>8</sat>
</trkpt>
<trkpt lat="39.712824000" lon="-0.361703000">
  <ele>132.800000</ele>
  <time>2012-03-10T08:50:31Z</time>
  <sat>8</sat>
</trkpt>
<trkpt lat="39.712815000" lon="-0.361720000">
  <ele>133.300000</ele>
  <time>2012-03-10T08:50:32Z</time>
  <sat>8</sat>
</trkpt>
<trkpt lat="39.712809000" lon="-0.361735000">
  <ele>133.600000</ele>
  <time>2012-03-10T08:50:33Z</time>
  <sat>8</sat>
</trkpt>
<trkpt lat="39.712793000" lon="-0.361802000">
  <ele>134.100000</ele>
  <time>2012-03-10T08:50:36Z</time>
  <sat>8</sat>
</trkpt>
<trkpt lat="39.712784000" lon="-0.361819000">
  <ele>134.300000</ele>
  <time>2012-03-10T08:50:37Z</time>
  <sat>8</sat>
</trkpt>
<trkpt lat="39.712774000" lon="-0.361833000">
  <ele>134.600000</ele>
  <time>2012-03-10T08:50:38Z</time>
  <sat>8</sat>
</trkpt>
<trkpt lat="39.712743000" lon="-0.361874000">
  <ele>135.800000</ele>
  <time>2012-03-10T08:50:41Z</time>
  <sat>8</sat>
</trkpt>
<trkpt lat="39.712730000" lon="-0.361886000">
  <ele>135.800000</ele>
  <time>2012-03-10T08:50:42Z</time>
  <sat>8</sat>
</trkpt>
<trkpt lat="39.712716000" lon="-0.361897000">
  <ele>136.000000</ele>
  <time>2012-03-10T08:50:43Z</time>
  <sat>8</sat>
</trkpt>
<trkpt lat="39.712700000" lon="-0.361905000">
  <ele>136.300000</ele>
  <time>2012-03-10T08:50:44Z</time>
  <sat>8</sat>
</trkpt>
<trkpt lat="39.712666000" lon="-0.361913000">
  <ele>137.000000</ele>
  <time>2012-03-10T08:50:46Z</time>
  <sat>8</sat>
</trkpt>
<trkpt lat="39.712543000" lon="-0.361954000">
  <ele>138.000000</ele>
  <time>2012-03-10T08:50:53Z</time>
  <sat>7</sat>
</trkpt>
<trkpt lat="39.712529000" lon="-0.361968000">
  <ele>138.100000</ele>
  <time>2012-03-10T08:50:54Z</time>
  <sat>7</sat>
</trkpt>
<trkpt lat="39.712509000" lon="-0.361992000">
  <ele>139.100000</ele>
  <time>2012-03-10T08:50:56Z</time>
  <sat>7</sat>
</trkpt>
<trkpt lat="39.712505000" lon="-0.362007000">
  <ele>139.300000</ele>
  <time>2012-03-10T08:50:57Z</time>
  <sat>7</sat>
</trkpt>
<trkpt lat="39.712507000" lon="-0.362036000">
  <ele>139.600000</ele>
  <time>2012-03-10T08:50:59Z</time>
  <sat>7</sat>
</trkpt>
<trkpt lat="39.712515000" lon="-0.362055000">
  <ele>139.600000</ele>
  <time>2012-03-10T08:51:00Z</time>
  <sat>7</sat>
</trkpt>
<trkpt lat="39.712536000" lon="-0.362067000">
  <ele>139.300000</ele>
  <time>2012-03-10T08:51:01Z</time>
  <sat>7</sat>
</trkpt>
<trkpt lat="39.712549000" lon="-0.362077000">
  <ele>139.300000</ele>
  <time>2012-03-10T08:51:02Z</time>
  <sat>7</sat>
</trkpt>
<trkpt lat="39.712561000" lon="-0.362091000">
  <ele>139.300000</ele>
  <time>2012-03-10T08:51:03Z</time>
  <sat>7</sat>
</trkpt>
<trkpt lat="39.712959000" lon="-0.362529000">
  <ele>142.100000</ele>
  <time>2012-03-10T08:51:23Z</time>
  <sat>8</sat>
</trkpt>
<trkpt lat="39.712977000" lon="-0.362555000">
  <ele>142.500000</ele>
  <time>2012-03-10T08:51:24Z</time>
  <sat>8</sat>
</trkpt>
<trkpt lat="39.713027000" lon="-0.362632000">
  <ele>143.100000</ele>
  <time>2012-03-10T08:51:27Z</time>
  <sat>8</sat>
</trkpt>
<trkpt lat="39.713057000" lon="-0.362688000">
  <ele>143.100000</ele>
  <time>2012-03-10T08:51:29Z</time>
  <sat>8</sat>
</trkpt>
<trkpt lat="39.713069000" lon="-0.362713000">
  <ele>143.600000</ele>
  <time>2012-03-10T08:51:30Z</time>
  <sat>8</sat>
</trkpt>
<trkpt lat="39.713185000" lon="-0.363031000">
  <ele>143.000000</ele>
  <time>2012-03-10T08:51:41Z</time>
  <sat>8</sat>
</trkpt>
<trkpt lat="39.713237000" lon="-0.363192000">
  <ele>144.500000</ele>
  <time>2012-03-10T08:51:47Z</time>
  <sat>8</sat>
</trkpt>
<trkpt lat="39.713293000" lon="-0.363334000">
  <ele>145.500000</ele>
  <time>2012-03-10T08:51:52Z</time>
  <sat>8</sat>
</trkpt>
<trkpt lat="39.713367000" lon="-0.363486000">
  <ele>146.800000</ele>
  <time>2012-03-10T08:51:58Z</time>
  <sat>8</sat>
</trkpt>
<trkpt lat="39.713382000" lon="-0.363510000">
  <ele>146.600000</ele>
  <time>2012-03-10T08:51:59Z</time>
  <sat>8</sat>
</trkpt>
<trkpt lat="39.713617000" lon="-0.363898000">
  <ele>148.000000</ele>
  <time>2012-03-10T08:52:15Z</time>
  <sat>8</sat>
</trkpt>
<trkpt lat="39.713635000" lon="-0.363919000">
  <ele>147.800000</ele>
  <time>2012-03-10T08:52:16Z</time>
  <sat>8</sat>
</trkpt>
<trkpt lat="39.713674000" lon="-0.363986000">
  <ele>148.100000</ele>
  <time>2012-03-10T08:52:19Z</time>
  <sat>8</sat>
</trkpt>
<trkpt lat="39.713686000" lon="-0.364015000">
  <ele>148.500000</ele>
  <time>2012-03-10T08:52:20Z</time>
  <sat>8</sat>
</trkpt>
<trkpt lat="39.713692000" lon="-0.364036000">
  <ele>148.600000</ele>
  <time>2012-03-10T08:52:21Z</time>
  <sat>8</sat>
</trkpt>
<trkpt lat="39.713692000" lon="-0.364062000">
  <ele>148.600000</ele>
  <time>2012-03-10T08:52:22Z</time>
  <sat>8</sat>
</trkpt>
<trkpt lat="39.713687000" lon="-0.364087000">
  <ele>148.800000</ele>
  <time>2012-03-10T08:52:23Z</time>
  <sat>8</sat>
</trkpt>
<trkpt lat="39.713679000" lon="-0.364109000">
  <ele>148.800000</ele>
  <time>2012-03-10T08:52:24Z</time>
  <sat>8</sat>
</trkpt>
<trkpt lat="39.713666000" lon="-0.364124000">
  <ele>149.300000</ele>
  <time>2012-03-10T08:52:25Z</time>
  <sat>8</sat>
</trkpt>
<trkpt lat="39.713652000" lon="-0.364135000">
  <ele>149.500000</ele>
  <time>2012-03-10T08:52:26Z</time>
  <sat>8</sat>
</trkpt>
<trkpt lat="39.713635000" lon="-0.364140000">
  <ele>149.800000</ele>
  <time>2012-03-10T08:52:27Z</time>
  <sat>8</sat>
</trkpt>
<trkpt lat="39.713603000" lon="-0.364143000">
  <ele>150.500000</ele>
  <time>2012-03-10T08:52:29Z</time>
  <sat>8</sat>
</trkpt>
<trkpt lat="39.713571000" lon="-0.364144000">
  <ele>150.800000</ele>
  <time>2012-03-10T08:52:31Z</time>
  <sat>7</sat>
</trkpt>
<trkpt lat="39.713509000" lon="-0.364143000">
  <ele>151.600000</ele>
  <time>2012-03-10T08:52:35Z</time>
  <sat>7</sat>
</trkpt>
<trkpt lat="39.713362000" lon="-0.364147000">
  <ele>154.100000</ele>
  <time>2012-03-10T08:52:44Z</time>
  <sat>7</sat>
</trkpt>
<trkpt lat="39.713345000" lon="-0.364141000">
  <ele>154.600000</ele>
  <time>2012-03-10T08:52:45Z</time>
  <sat>7</sat>
</trkpt>
<trkpt lat="39.713329000" lon="-0.364140000">
  <ele>154.600000</ele>
  <time>2012-03-10T08:52:46Z</time>
  <sat>7</sat>
</trkpt>
<trkpt lat="39.713312000" lon="-0.364137000">
  <ele>154.800000</ele>
  <time>2012-03-10T08:52:47Z</time>
  <sat>7</sat>
</trkpt>
<trkpt lat="39.713295000" lon="-0.364135000">
  <ele>155.000000</ele>
  <time>2012-03-10T08:52:48Z</time>
  <sat>7</sat>
</trkpt>
<trkpt lat="39.713278000" lon="-0.364128000">
  <ele>155.300000</ele>
  <time>2012-03-10T08:52:49Z</time>
  <sat>7</sat>
</trkpt>
<trkpt lat="39.713229000" lon="-0.364104000">
  <ele>155.300000</ele>
  <time>2012-03-10T08:52:52Z</time>
  <sat>7</sat>
</trkpt>
<trkpt lat="39.713212000" lon="-0.364094000">
  <ele>155.600000</ele>
  <time>2012-03-10T08:52:53Z</time>
  <sat>7</sat>
</trkpt>
<trkpt lat="39.713196000" lon="-0.364084000">
  <ele>156.100000</ele>
  <time>2012-03-10T08:52:54Z</time>
  <sat>7</sat>
</trkpt>
<trkpt lat="39.712989000" lon="-0.363926000">
  <ele>157.600000</ele>
  <time>2012-03-10T08:53:07Z</time>
  <sat>7</sat>
</trkpt>
<trkpt lat="39.712975000" lon="-0.363916000">
  <ele>158.100000</ele>
  <time>2012-03-10T08:53:08Z</time>
  <sat>7</sat>
</trkpt>
<trkpt lat="39.712864000" lon="-0.363817000">
  <ele>161.000000</ele>
  <time>2012-03-10T08:53:15Z</time>
  <sat>7</sat>
</trkpt>
<trkpt lat="39.712829000" lon="-0.363801000">
  <ele>162.000000</ele>
  <time>2012-03-10T08:53:17Z</time>
  <sat>7</sat>
</trkpt>
<trkpt lat="39.712741000" lon="-0.363783000">
  <ele>162.600000</ele>
  <time>2012-03-10T08:53:22Z</time>
  <sat>7</sat>
</trkpt>
<trkpt lat="39.712612000" lon="-0.363737000">
  <ele>164.300000</ele>
  <time>2012-03-10T08:53:30Z</time>
  <sat>7</sat>
</trkpt>
<trkpt lat="39.712588000" lon="-0.363735000">
  <ele>163.800000</ele>
  <time>2012-03-10T08:53:31Z</time>
  <sat>7</sat>
</trkpt>
<trkpt lat="39.712539000" lon="-0.363734000">
  <ele>163.500000</ele>
  <time>2012-03-10T08:53:33Z</time>
  <sat>7</sat>
</trkpt>
<trkpt lat="39.712365000" lon="-0.363738000">
  <ele>164.300000</ele>
  <time>2012-03-10T08:53:43Z</time>
  <sat>7</sat>
</trkpt>
<trkpt lat="39.712330000" lon="-0.363742000">
  <ele>164.800000</ele>
  <time>2012-03-10T08:53:45Z</time>
  <sat>7</sat>
</trkpt>
<trkpt lat="39.712285000" lon="-0.363752000">
  <ele>164.800000</ele>
  <time>2012-03-10T08:53:48Z</time>
  <sat>7</sat>
</trkpt>
<trkpt lat="39.712270000" lon="-0.363759000">
  <ele>164.600000</ele>
  <time>2012-03-10T08:53:49Z</time>
  <sat>7</sat>
</trkpt>
<trkpt lat="39.712257000" lon="-0.363759000">
  <ele>164.800000</ele>
  <time>2012-03-10T08:53:50Z</time>
  <sat>7</sat>
</trkpt>
<trkpt lat="39.712240000" lon="-0.363761000">
  <ele>165.300000</ele>
  <time>2012-03-10T08:53:51Z</time>
  <sat>7</sat>
</trkpt>
<trkpt lat="39.712208000" lon="-0.363773000">
  <ele>165.500000</ele>
  <time>2012-03-10T08:53:53Z</time>
  <sat>7</sat>
</trkpt>
<trkpt lat="39.712196000" lon="-0.363785000">
  <ele>165.600000</ele>
  <time>2012-03-10T08:53:54Z</time>
  <sat>7</sat>
</trkpt>
<trkpt lat="39.712180000" lon="-0.363794000">
  <ele>166.100000</ele>
  <time>2012-03-10T08:53:55Z</time>
  <sat>7</sat>
</trkpt>
<trkpt lat="39.712155000" lon="-0.363808000">
  <ele>166.300000</ele>
  <time>2012-03-10T08:53:57Z</time>
  <sat>7</sat>
</trkpt>
<trkpt lat="39.712128000" lon="-0.363826000">
  <ele>166.600000</ele>
  <time>2012-03-10T08:53:59Z</time>
  <sat>7</sat>
</trkpt>
<trkpt lat="39.712119000" lon="-0.363842000">
  <ele>166.800000</ele>
  <time>2012-03-10T08:54:00Z</time>
  <sat>7</sat>
</trkpt>
<trkpt lat="39.712110000" lon="-0.363855000">
  <ele>167.100000</ele>
  <time>2012-03-10T08:54:01Z</time>
  <sat>7</sat>
</trkpt>
<trkpt lat="39.712089000" lon="-0.363876000">
  <ele>167.500000</ele>
  <time>2012-03-10T08:54:03Z</time>
  <sat>7</sat>
</trkpt>
<trkpt lat="39.712067000" lon="-0.363902000">
  <ele>168.000000</ele>
  <time>2012-03-10T08:54:05Z</time>
  <sat>7</sat>
</trkpt>
<trkpt lat="39.712060000" lon="-0.363916000">
  <ele>168.300000</ele>
  <time>2012-03-10T08:54:06Z</time>
  <sat>7</sat>
</trkpt>
<trkpt lat="39.711911000" lon="-0.364190000">
  <ele>171.800000</ele>
  <time>2012-03-10T08:54:24Z</time>
  <sat>7</sat>
</trkpt>
<trkpt lat="39.711899000" lon="-0.364204000">
  <ele>172.600000</ele>
  <time>2012-03-10T08:54:25Z</time>
  <sat>7</sat>
</trkpt>
<trkpt lat="39.711876000" lon="-0.364254000">
  <ele>172.800000</ele>
  <time>2012-03-10T08:54:28Z</time>
  <sat>7</sat>
</trkpt>
<trkpt lat="39.711852000" lon="-0.364301000">
  <ele>173.600000</ele>
  <time>2012-03-10T08:54:31Z</time>
  <sat>7</sat>
</trkpt>
<trkpt lat="39.711839000" lon="-0.364331000">
  <ele>174.100000</ele>
  <time>2012-03-10T08:54:33Z</time>
  <sat>7</sat>
</trkpt>
<trkpt lat="39.711812000" lon="-0.364401000">
  <ele>174.800000</ele>
  <time>2012-03-10T08:54:37Z</time>
  <sat>7</sat>
</trkpt>
<trkpt lat="39.711776000" lon="-0.364484000">
  <ele>176.000000</ele>
  <time>2012-03-10T08:54:42Z</time>
  <sat>7</sat>
</trkpt>
<trkpt lat="39.711746000" lon="-0.364570000">
  <ele>177.800000</ele>
  <time>2012-03-10T08:54:47Z</time>
  <sat>7</sat>
</trkpt>
<trkpt lat="39.711743000" lon="-0.364587000">
  <ele>178.100000</ele>
  <time>2012-03-10T08:54:48Z</time>
  <sat>7</sat>
</trkpt>
<trkpt lat="39.711730000" lon="-0.364640000">
  <ele>179.100000</ele>
  <time>2012-03-10T08:54:51Z</time>
  <sat>7</sat>
</trkpt>
<trkpt lat="39.711700000" lon="-0.364732000">
  <ele>181.600000</ele>
  <time>2012-03-10T08:54:56Z</time>
  <sat>7</sat>
</trkpt>
<trkpt lat="39.711629000" lon="-0.364968000">
  <ele>185.800000</ele>
  <time>2012-03-10T08:55:10Z</time>
  <sat>7</sat>
</trkpt>
<trkpt lat="39.711604000" lon="-0.365052000">
  <ele>187.600000</ele>
  <time>2012-03-10T08:55:15Z</time>
  <sat>7</sat>
</trkpt>
<trkpt lat="39.711591000" lon="-0.365099000">
  <ele>188.600000</ele>
  <time>2012-03-10T08:55:18Z</time>
  <sat>7</sat>
</trkpt>
<trkpt lat="39.711584000" lon="-0.365113000">
  <ele>189.000000</ele>
  <time>2012-03-10T08:55:19Z</time>
  <sat>7</sat>
</trkpt>
<trkpt lat="39.711570000" lon="-0.365143000">
  <ele>189.600000</ele>
  <time>2012-03-10T08:55:21Z</time>
  <sat>7</sat>
</trkpt>
<trkpt lat="39.711565000" lon="-0.365163000">
  <ele>190.100000</ele>
  <time>2012-03-10T08:55:22Z</time>
  <sat>7</sat>
</trkpt>
<trkpt lat="39.711558000" lon="-0.365199000">
  <ele>190.300000</ele>
  <time>2012-03-10T08:55:24Z</time>
  <sat>7</sat>
</trkpt>
<trkpt lat="39.711553000" lon="-0.365217000">
  <ele>190.300000</ele>
  <time>2012-03-10T08:55:25Z</time>
  <sat>7</sat>
</trkpt>
<trkpt lat="39.711548000" lon="-0.365234000">
  <ele>190.800000</ele>
  <time>2012-03-10T08:55:26Z</time>
  <sat>7</sat>
</trkpt>
<trkpt lat="39.711523000" lon="-0.365354000">
  <ele>192.100000</ele>
  <time>2012-03-10T08:55:33Z</time>
  <sat>7</sat>
</trkpt>
<trkpt lat="39.711512000" lon="-0.365403000">
  <ele>192.800000</ele>
  <time>2012-03-10T08:55:36Z</time>
  <sat>7</sat>
</trkpt>
<trkpt lat="39.711508000" lon="-0.365437000">
  <ele>193.100000</ele>
  <time>2012-03-10T08:55:38Z</time>
  <sat>7</sat>
</trkpt>
<trkpt lat="39.711500000" lon="-0.365488000">
  <ele>194.100000</ele>
  <time>2012-03-10T08:55:41Z</time>
  <sat>7</sat>
</trkpt>
<trkpt lat="39.711493000" lon="-0.365541000">
  <ele>194.800000</ele>
  <time>2012-03-10T08:55:44Z</time>
  <sat>7</sat>
</trkpt>
<trkpt lat="39.711490000" lon="-0.365560000">
  <ele>195.100000</ele>
  <time>2012-03-10T08:55:45Z</time>
  <sat>7</sat>
</trkpt>
<trkpt lat="39.711485000" lon="-0.365576000">
  <ele>195.300000</ele>
  <time>2012-03-10T08:55:46Z</time>
  <sat>7</sat>
</trkpt>
<trkpt lat="39.711470000" lon="-0.365658000">
  <ele>196.600000</ele>
  <time>2012-03-10T08:55:51Z</time>
  <sat>7</sat>
</trkpt>
<trkpt lat="39.711472000" lon="-0.365673000">
  <ele>196.800000</ele>
  <time>2012-03-10T08:55:52Z</time>
  <sat>7</sat>
</trkpt>
<trkpt lat="39.711472000" lon="-0.365690000">
  <ele>197.300000</ele>
  <time>2012-03-10T08:55:53Z</time>
  <sat>7</sat>
</trkpt>
<trkpt lat="39.711472000" lon="-0.365708000">
  <ele>197.600000</ele>
  <time>2012-03-10T08:55:54Z</time>
  <sat>7</sat>
</trkpt>
<trkpt lat="39.711470000" lon="-0.365724000">
  <ele>197.600000</ele>
  <time>2012-03-10T08:55:55Z</time>
  <sat>7</sat>
</trkpt>
<trkpt lat="39.711459000" lon="-0.365813000">
  <ele>198.600000</ele>
  <time>2012-03-10T08:56:00Z</time>
  <sat>7</sat>
</trkpt>
<trkpt lat="39.711454000" lon="-0.365863000">
  <ele>199.500000</ele>
  <time>2012-03-10T08:56:03Z</time>
  <sat>7</sat>
</trkpt>
<trkpt lat="39.711449000" lon="-0.365880000">
  <ele>199.600000</ele>
  <time>2012-03-10T08:56:04Z</time>
  <sat>7</sat>
</trkpt>
<trkpt lat="39.711413000" lon="-0.366032000">
  <ele>200.300000</ele>
  <time>2012-03-10T08:56:13Z</time>
  <sat>7</sat>
</trkpt>
<trkpt lat="39.711411000" lon="-0.366050000">
  <ele>200.300000</ele>
  <time>2012-03-10T08:56:14Z</time>
  <sat>7</sat>
</trkpt>
<trkpt lat="39.711405000" lon="-0.366124000">
  <ele>201.000000</ele>
  <time>2012-03-10T08:56:18Z</time>
  <sat>7</sat>
</trkpt>
<trkpt lat="39.711392000" lon="-0.366272000">
  <ele>201.800000</ele>
  <time>2012-03-10T08:56:26Z</time>
  <sat>7</sat>
</trkpt>
<trkpt lat="39.711395000" lon="-0.366288000">
  <ele>202.000000</ele>
  <time>2012-03-10T08:56:27Z</time>
  <sat>7</sat>
</trkpt>
<trkpt lat="39.711402000" lon="-0.366301000">
  <ele>202.100000</ele>
  <time>2012-03-10T08:56:28Z</time>
  <sat>7</sat>
</trkpt>
<trkpt lat="39.711412000" lon="-0.366313000">
  <ele>202.300000</ele>
  <time>2012-03-10T08:56:29Z</time>
  <sat>7</sat>
</trkpt>
<trkpt lat="39.711424000" lon="-0.366324000">
  <ele>202.100000</ele>
  <time>2012-03-10T08:56:30Z</time>
  <sat>7</sat>
</trkpt>
<trkpt lat="39.711438000" lon="-0.366323000">
  <ele>202.300000</ele>
  <time>2012-03-10T08:56:31Z</time>
  <sat>7</sat>
</trkpt>
<trkpt lat="39.711464000" lon="-0.366318000">
  <ele>203.300000</ele>
  <time>2012-03-10T08:56:33Z</time>
  <sat>7</sat>
</trkpt>
<trkpt lat="39.711475000" lon="-0.366307000">
  <ele>203.500000</ele>
  <time>2012-03-10T08:56:34Z</time>
  <sat>7</sat>
</trkpt>
<trkpt lat="39.711484000" lon="-0.366296000">
  <ele>204.000000</ele>
  <time>2012-03-10T08:56:35Z</time>
  <sat>7</sat>
</trkpt>
<trkpt lat="39.711489000" lon="-0.366279000">
  <ele>204.000000</ele>
  <time>2012-03-10T08:56:36Z</time>
  <sat>7</sat>
</trkpt>
<trkpt lat="39.711495000" lon="-0.366259000">
  <ele>204.100000</ele>
  <time>2012-03-10T08:56:37Z</time>
  <sat>7</sat>
</trkpt>
<trkpt lat="39.711503000" lon="-0.366241000">
  <ele>204.300000</ele>
  <time>2012-03-10T08:56:38Z</time>
  <sat>7</sat>
</trkpt>
<trkpt lat="39.711526000" lon="-0.366192000">
  <ele>204.800000</ele>
  <time>2012-03-10T08:56:41Z</time>
  <sat>7</sat>
</trkpt>
<trkpt lat="39.711533000" lon="-0.366173000">
  <ele>205.100000</ele>
  <time>2012-03-10T08:56:42Z</time>
  <sat>7</sat>
</trkpt>
<trkpt lat="39.711539000" lon="-0.366155000">
  <ele>205.600000</ele>
  <time>2012-03-10T08:56:43Z</time>
  <sat>7</sat>
</trkpt>
<trkpt lat="39.711550000" lon="-0.366140000">
  <ele>206.100000</ele>
  <time>2012-03-10T08:56:44Z</time>
  <sat>7</sat>
</trkpt>
<trkpt lat="39.711554000" lon="-0.366124000">
  <ele>206.300000</ele>
  <time>2012-03-10T08:56:45Z</time>
  <sat>7</sat>
</trkpt>
<trkpt lat="39.711564000" lon="-0.366107000">
  <ele>206.300000</ele>
  <time>2012-03-10T08:56:46Z</time>
  <sat>7</sat>
</trkpt>
<trkpt lat="39.711577000" lon="-0.366094000">
  <ele>206.300000</ele>
  <time>2012-03-10T08:56:47Z</time>
  <sat>7</sat>
</trkpt>
<trkpt lat="39.711588000" lon="-0.366089000">
  <ele>206.300000</ele>
  <time>2012-03-10T08:56:48Z</time>
  <sat>7</sat>
</trkpt>
<trkpt lat="39.711600000" lon="-0.366111000">
  <ele>206.600000</ele>
  <time>2012-03-10T08:56:49Z</time>
  <sat>7</sat>
</trkpt>
<trkpt lat="39.711617000" lon="-0.366148000">
  <ele>207.500000</ele>
  <time>2012-03-10T08:56:51Z</time>
  <sat>7</sat>
</trkpt>
<trkpt lat="39.711618000" lon="-0.366168000">
  <ele>208.100000</ele>
  <time>2012-03-10T08:56:52Z</time>
  <sat>7</sat>
</trkpt>
<trkpt lat="39.711613000" lon="-0.366189000">
  <ele>208.800000</ele>
  <time>2012-03-10T08:56:53Z</time>
  <sat>7</sat>
</trkpt>
<trkpt lat="39.711612000" lon="-0.366206000">
  <ele>209.600000</ele>
  <time>2012-03-10T08:56:54Z</time>
  <sat>7</sat>
</trkpt>
<trkpt lat="39.711610000" lon="-0.366222000">
  <ele>210.300000</ele>
  <time>2012-03-10T08:56:55Z</time>
  <sat>7</sat>
</trkpt>
<trkpt lat="39.711612000" lon="-0.366334000">
  <ele>210.800000</ele>
  <time>2012-03-10T08:57:02Z</time>
  <sat>7</sat>
</trkpt>
<trkpt lat="39.711615000" lon="-0.366351000">
  <ele>211.000000</ele>
  <time>2012-03-10T08:57:03Z</time>
  <sat>7</sat>
</trkpt>
<trkpt lat="39.711621000" lon="-0.366436000">
  <ele>211.100000</ele>
  <time>2012-03-10T08:57:07Z</time>
  <sat>7</sat>
</trkpt>
<trkpt lat="39.711624000" lon="-0.366470000">
  <ele>211.100000</ele>
  <time>2012-03-10T08:57:09Z</time>
  <sat>7</sat>
</trkpt>
<trkpt lat="39.711624000" lon="-0.366486000">
  <ele>211.800000</ele>
  <time>2012-03-10T08:57:10Z</time>
  <sat>7</sat>
</trkpt>
<trkpt lat="39.711621000" lon="-0.366542000">
  <ele>212.600000</ele>
  <time>2012-03-10T08:57:13Z</time>
  <sat>7</sat>
</trkpt>
<trkpt lat="39.711621000" lon="-0.366611000">
  <ele>213.500000</ele>
  <time>2012-03-10T08:57:17Z</time>
  <sat>7</sat>
</trkpt>
<trkpt lat="39.711621000" lon="-0.366644000">
  <ele>214.100000</ele>
  <time>2012-03-10T08:57:19Z</time>
  <sat>7</sat>
</trkpt>
<trkpt lat="39.711623000" lon="-0.366750000">
  <ele>215.800000</ele>
  <time>2012-03-10T08:57:25Z</time>
  <sat>7</sat>
</trkpt>
<trkpt lat="39.711617000" lon="-0.366768000">
  <ele>216.100000</ele>
  <time>2012-03-10T08:57:26Z</time>
  <sat>7</sat>
</trkpt>
<trkpt lat="39.711610000" lon="-0.366803000">
  <ele>216.500000</ele>
  <time>2012-03-10T08:57:28Z</time>
  <sat>7</sat>
</trkpt>
<trkpt lat="39.711608000" lon="-0.366818000">
  <ele>216.600000</ele>
  <time>2012-03-10T08:57:29Z</time>
  <sat>7</sat>
</trkpt>
<trkpt lat="39.711606000" lon="-0.366837000">
  <ele>217.000000</ele>
  <time>2012-03-10T08:57:30Z</time>
  <sat>7</sat>
</trkpt>
<trkpt lat="39.711610000" lon="-0.366856000">
  <ele>217.100000</ele>
  <time>2012-03-10T08:57:31Z</time>
  <sat>7</sat>
</trkpt>
<trkpt lat="39.711611000" lon="-0.366873000">
  <ele>217.500000</ele>
  <time>2012-03-10T08:57:32Z</time>
  <sat>7</sat>
</trkpt>
<trkpt lat="39.711606000" lon="-0.366891000">
  <ele>217.800000</ele>
  <time>2012-03-10T08:57:33Z</time>
  <sat>7</sat>
</trkpt>
<trkpt lat="39.711597000" lon="-0.366925000">
  <ele>218.600000</ele>
  <time>2012-03-10T08:57:35Z</time>
  <sat>7</sat>
</trkpt>
<trkpt lat="39.711597000" lon="-0.366943000">
  <ele>219.000000</ele>
  <time>2012-03-10T08:57:36Z</time>
  <sat>7</sat>
</trkpt>
<trkpt lat="39.711604000" lon="-0.367000000">
  <ele>219.800000</ele>
  <time>2012-03-10T08:57:39Z</time>
  <sat>7</sat>
</trkpt>
<trkpt lat="39.711603000" lon="-0.367016000">
  <ele>220.000000</ele>
  <time>2012-03-10T08:57:40Z</time>
  <sat>7</sat>
</trkpt>
<trkpt lat="39.711606000" lon="-0.367070000">
  <ele>221.300000</ele>
  <time>2012-03-10T08:57:43Z</time>
  <sat>7</sat>
</trkpt>
<trkpt lat="39.711606000" lon="-0.367088000">
  <ele>221.300000</ele>
  <time>2012-03-10T08:57:44Z</time>
  <sat>7</sat>
</trkpt>
<trkpt lat="39.711607000" lon="-0.367109000">
  <ele>221.300000</ele>
  <time>2012-03-10T08:57:45Z</time>
  <sat>7</sat>
</trkpt>
<trkpt lat="39.711610000" lon="-0.367263000">
  <ele>222.300000</ele>
  <time>2012-03-10T08:57:53Z</time>
  <sat>7</sat>
</trkpt>
<trkpt lat="39.711605000" lon="-0.367283000">
  <ele>222.600000</ele>
  <time>2012-03-10T08:57:54Z</time>
  <sat>7</sat>
</trkpt>
<trkpt lat="39.711604000" lon="-0.367303000">
  <ele>222.800000</ele>
  <time>2012-03-10T08:57:55Z</time>
  <sat>7</sat>
</trkpt>
<trkpt lat="39.711609000" lon="-0.367323000">
  <ele>223.300000</ele>
  <time>2012-03-10T08:57:56Z</time>
  <sat>7</sat>
</trkpt>
<trkpt lat="39.711613000" lon="-0.367342000">
  <ele>223.500000</ele>
  <time>2012-03-10T08:57:57Z</time>
  <sat>7</sat>
</trkpt>
<trkpt lat="39.711610000" lon="-0.367364000">
  <ele>223.800000</ele>
  <time>2012-03-10T08:57:58Z</time>
  <sat>7</sat>
</trkpt>
<trkpt lat="39.711605000" lon="-0.367422000">
  <ele>224.100000</ele>
  <time>2012-03-10T08:58:01Z</time>
  <sat>7</sat>
</trkpt>
<trkpt lat="39.711607000" lon="-0.367445000">
  <ele>223.800000</ele>
  <time>2012-03-10T08:58:02Z</time>
  <sat>7</sat>
</trkpt>
<trkpt lat="39.711604000" lon="-0.367481000">
  <ele>223.800000</ele>
  <time>2012-03-10T08:58:04Z</time>
  <sat>7</sat>
</trkpt>
<trkpt lat="39.711604000" lon="-0.367542000">
  <ele>224.600000</ele>
  <time>2012-03-10T08:58:07Z</time>
  <sat>7</sat>
</trkpt>
<trkpt lat="39.711607000" lon="-0.367560000">
  <ele>225.000000</ele>
  <time>2012-03-10T08:58:08Z</time>
  <sat>7</sat>
</trkpt>
<trkpt lat="39.711613000" lon="-0.367619000">
  <ele>226.600000</ele>
  <time>2012-03-10T08:58:11Z</time>
  <sat>7</sat>
</trkpt>
<trkpt lat="39.711610000" lon="-0.367720000">
  <ele>228.100000</ele>
  <time>2012-03-10T08:58:16Z</time>
  <sat>7</sat>
</trkpt>
<trkpt lat="39.711617000" lon="-0.367788000">
  <ele>228.300000</ele>
  <time>2012-03-10T08:58:19Z</time>
  <sat>7</sat>
</trkpt>
<trkpt lat="39.711646000" lon="-0.367904000">
  <ele>228.800000</ele>
  <time>2012-03-10T08:58:23Z</time>
  <sat>7</sat>
</trkpt>
<trkpt lat="39.711659000" lon="-0.367949000">
  <ele>228.600000</ele>
  <time>2012-03-10T08:58:25Z</time>
  <sat>7</sat>
</trkpt>
<trkpt lat="39.711684000" lon="-0.368041000">
  <ele>227.300000</ele>
  <time>2012-03-10T08:58:28Z</time>
  <sat>7</sat>
</trkpt>
<trkpt lat="39.711692000" lon="-0.368086000">
  <ele>226.800000</ele>
  <time>2012-03-10T08:58:29Z</time>
  <sat>7</sat>
</trkpt>
<trkpt lat="39.711691000" lon="-0.368145000">
  <ele>226.100000</ele>
  <time>2012-03-10T08:58:30Z</time>
  <sat>7</sat>
</trkpt>
<trkpt lat="39.711689000" lon="-0.368196000">
  <ele>226.300000</ele>
  <time>2012-03-10T08:58:31Z</time>
  <sat>7</sat>
</trkpt>
<trkpt lat="39.711662000" lon="-0.368318000">
  <ele>226.000000</ele>
  <time>2012-03-10T08:58:34Z</time>
  <sat>7</sat>
</trkpt>
<trkpt lat="39.711648000" lon="-0.368337000">
  <ele>226.000000</ele>
  <time>2012-03-10T08:58:35Z</time>
  <sat>7</sat>
</trkpt>
<trkpt lat="39.711639000" lon="-0.368383000">
  <ele>226.000000</ele>
  <time>2012-03-10T08:58:36Z</time>
  <sat>7</sat>
</trkpt>
<trkpt lat="39.711642000" lon="-0.368430000">
  <ele>226.300000</ele>
  <time>2012-03-10T08:58:37Z</time>
  <sat>7</sat>
</trkpt>
<trkpt lat="39.711678000" lon="-0.368483000">
  <ele>227.600000</ele>
  <time>2012-03-10T08:58:40Z</time>
  <sat>7</sat>
</trkpt>
<trkpt lat="39.711692000" lon="-0.368500000">
  <ele>227.800000</ele>
  <time>2012-03-10T08:58:41Z</time>
  <sat>7</sat>
</trkpt>
<trkpt lat="39.711711000" lon="-0.368512000">
  <ele>227.800000</ele>
  <time>2012-03-10T08:58:42Z</time>
  <sat>7</sat>
</trkpt>
<trkpt lat="39.711805000" lon="-0.368589000">
  <ele>228.100000</ele>
  <time>2012-03-10T08:58:47Z</time>
  <sat>6</sat>
</trkpt>
<trkpt lat="39.711820000" lon="-0.368630000">
  <ele>227.600000</ele>
  <time>2012-03-10T08:58:49Z</time>
  <sat>7</sat>
</trkpt>
<trkpt lat="39.711826000" lon="-0.368646000">
  <ele>227.300000</ele>
  <time>2012-03-10T08:58:50Z</time>
  <sat>7</sat>
</trkpt>
<trkpt lat="39.711838000" lon="-0.368659000">
  <ele>226.600000</ele>
  <time>2012-03-10T08:58:51Z</time>
  <sat>7</sat>
</trkpt>
<trkpt lat="39.711851000" lon="-0.368680000">
  <ele>226.300000</ele>
  <time>2012-03-10T08:58:52Z</time>
  <sat>7</sat>
</trkpt>
<trkpt lat="39.711863000" lon="-0.368710000">
  <ele>226.000000</ele>
  <time>2012-03-10T08:58:53Z</time>
  <sat>7</sat>
</trkpt>
<trkpt lat="39.711944000" lon="-0.368853000">
  <ele>224.000000</ele>
  <time>2012-03-10T08:58:57Z</time>
  <sat>7</sat>
</trkpt>
<trkpt lat="39.711986000" lon="-0.368892000">
  <ele>223.300000</ele>
  <time>2012-03-10T08:58:58Z</time>
  <sat>7</sat>
</trkpt>
<trkpt lat="39.712342000" lon="-0.369201000">
  <ele>223.300000</ele>
  <time>2012-03-10T08:59:05Z</time>
  <sat>7</sat>
</trkpt>
<trkpt lat="39.712382000" lon="-0.369266000">
  <ele>222.500000</ele>
  <time>2012-03-10T08:59:06Z</time>
  <sat>7</sat>
</trkpt>
<trkpt lat="39.712646000" lon="-0.369644000">
  <ele>218.800000</ele>
  <time>2012-03-10T08:59:12Z</time>
  <sat>7</sat>
</trkpt>
<trkpt lat="39.712731000" lon="-0.369729000">
  <ele>218.600000</ele>
  <time>2012-03-10T08:59:14Z</time>
  <sat>7</sat>
</trkpt>
<trkpt lat="39.712886000" lon="-0.369865000">
  <ele>219.100000</ele>
  <time>2012-03-10T08:59:17Z</time>
  <sat>7</sat>
</trkpt>
<trkpt lat="39.712926000" lon="-0.369922000">
  <ele>218.600000</ele>
  <time>2012-03-10T08:59:18Z</time>
  <sat>7</sat>
</trkpt>
<trkpt lat="39.713138000" lon="-0.370123000">
  <ele>217.500000</ele>
  <time>2012-03-10T08:59:24Z</time>
  <sat>7</sat>
</trkpt>
<trkpt lat="39.713240000" lon="-0.370172000">
  <ele>218.800000</ele>
  <time>2012-03-10T08:59:28Z</time>
  <sat>7</sat>
</trkpt>
<trkpt lat="39.713462000" lon="-0.370260000">
  <ele>208.600000</ele>
  <time>2012-03-10T08:59:38Z</time>
  <sat>7</sat>
</trkpt>
<trkpt lat="39.713452000" lon="-0.370278000">
  <ele>208.100000</ele>
  <time>2012-03-10T08:59:39Z</time>
  <sat>7</sat>
</trkpt>
<trkpt lat="39.713456000" lon="-0.370288000">
  <ele>207.300000</ele>
  <time>2012-03-10T08:59:40Z</time>
  <sat>7</sat>
</trkpt>
<trkpt lat="39.713455000" lon="-0.370302000">
  <ele>207.300000</ele>
  <time>2012-03-10T08:59:41Z</time>
  <sat>7</sat>
</trkpt>
<trkpt lat="39.713427000" lon="-0.370284000">
  <ele>203.600000</ele>
  <time>2012-03-10T08:59:45Z</time>
  <sat>7</sat>
</trkpt>
<trkpt lat="39.713414000" lon="-0.370272000">
  <ele>202.800000</ele>
  <time>2012-03-10T08:59:46Z</time>
  <sat>7</sat>
</trkpt>
<trkpt lat="39.713398000" lon="-0.370265000">
  <ele>202.100000</ele>
  <time>2012-03-10T08:59:47Z</time>
  <sat>7</sat>
</trkpt>
<trkpt lat="39.713375000" lon="-0.370278000">
  <ele>201.800000</ele>
  <time>2012-03-10T08:59:48Z</time>
  <sat>7</sat>
</trkpt>
<trkpt lat="39.713355000" lon="-0.370291000">
  <ele>201.100000</ele>
  <time>2012-03-10T08:59:49Z</time>
  <sat>7</sat>
</trkpt>
<trkpt lat="39.713337000" lon="-0.370308000">
  <ele>201.300000</ele>
  <time>2012-03-10T08:59:50Z</time>
  <sat>7</sat>
</trkpt>
<trkpt lat="39.713322000" lon="-0.370325000">
  <ele>201.600000</ele>
  <time>2012-03-10T08:59:51Z</time>
  <sat>7</sat>
</trkpt>
<trkpt lat="39.713310000" lon="-0.370342000">
  <ele>201.600000</ele>
  <time>2012-03-10T08:59:52Z</time>
  <sat>7</sat>
</trkpt>
<trkpt lat="39.713301000" lon="-0.370358000">
  <ele>201.600000</ele>
  <time>2012-03-10T08:59:53Z</time>
  <sat>7</sat>
</trkpt>
<trkpt lat="39.713293000" lon="-0.370376000">
  <ele>201.100000</ele>
  <time>2012-03-10T08:59:54Z</time>
  <sat>7</sat>
</trkpt>
<trkpt lat="39.713288000" lon="-0.370396000">
  <ele>200.800000</ele>
  <time>2012-03-10T08:59:55Z</time>
  <sat>7</sat>
</trkpt>
<trkpt lat="39.713291000" lon="-0.370424000">
  <ele>200.800000</ele>
  <time>2012-03-10T08:59:56Z</time>
  <sat>7</sat>
</trkpt>
<trkpt lat="39.713307000" lon="-0.370500000">
  <ele>200.300000</ele>
  <time>2012-03-10T08:59:58Z</time>
  <sat>7</sat>
</trkpt>
<trkpt lat="39.713349000" lon="-0.370559000">
  <ele>198.600000</ele>
  <time>2012-03-10T08:59:59Z</time>
  <sat>7</sat>
</trkpt>
<trkpt lat="39.713427000" lon="-0.370679000">
  <ele>196.100000</ele>
  <time>2012-03-10T09:00:02Z</time>
  <sat>7</sat>
</trkpt>
<trkpt lat="39.713445000" lon="-0.370731000">
  <ele>195.600000</ele>
  <time>2012-03-10T09:00:03Z</time>
  <sat>7</sat>
</trkpt>
<trkpt lat="39.713451000" lon="-0.370782000">
  <ele>194.600000</ele>
  <time>2012-03-10T09:00:04Z</time>
  <sat>7</sat>
</trkpt>
<trkpt lat="39.713513000" lon="-0.371037000">
  <ele>190.600000</ele>
  <time>2012-03-10T09:00:09Z</time>
  <sat>8</sat>
</trkpt>
<trkpt lat="39.713554000" lon="-0.371084000">
  <ele>189.300000</ele>
  <time>2012-03-10T09:00:11Z</time>
  <sat>8</sat>
</trkpt>
<trkpt lat="39.713575000" lon="-0.371096000">
  <ele>189.000000</ele>
  <time>2012-03-10T09:00:12Z</time>
  <sat>8</sat>
</trkpt>
<trkpt lat="39.713597000" lon="-0.371092000">
  <ele>189.300000</ele>
  <time>2012-03-10T09:00:13Z</time>
  <sat>8</sat>
</trkpt>
<trkpt lat="39.713673000" lon="-0.371001000">
  <ele>188.800000</ele>
  <time>2012-03-10T09:00:15Z</time>
  <sat>8</sat>
</trkpt>
<trkpt lat="39.713717000" lon="-0.370958000">
  <ele>188.600000</ele>
  <time>2012-03-10T09:00:16Z</time>
  <sat>8</sat>
</trkpt>
<trkpt lat="39.713757000" lon="-0.370916000">
  <ele>188.600000</ele>
  <time>2012-03-10T09:00:17Z</time>
  <sat>8</sat>
</trkpt>
<trkpt lat="39.713807000" lon="-0.370896000">
  <ele>188.600000</ele>
  <time>2012-03-10T09:00:18Z</time>
  <sat>8</sat>
</trkpt>
<trkpt lat="39.713851000" lon="-0.370903000">
  <ele>188.500000</ele>
  <time>2012-03-10T09:00:19Z</time>
  <sat>8</sat>
</trkpt>
<trkpt lat="39.713950000" lon="-0.370922000">
  <ele>188.300000</ele>
  <time>2012-03-10T09:00:21Z</time>
  <sat>8</sat>
</trkpt>
<trkpt lat="39.713996000" lon="-0.370959000">
  <ele>187.000000</ele>
  <time>2012-03-10T09:00:22Z</time>
  <sat>8</sat>
</trkpt>
<trkpt lat="39.714222000" lon="-0.371180000">
  <ele>185.300000</ele>
  <time>2012-03-10T09:00:26Z</time>
  <sat>8</sat>
</trkpt>
<trkpt lat="39.714559000" lon="-0.371473000">
  <ele>181.100000</ele>
  <time>2012-03-10T09:00:32Z</time>
  <sat>8</sat>
</trkpt>
<trkpt lat="39.714623000" lon="-0.371477000">
  <ele>180.600000</ele>
  <time>2012-03-10T09:00:33Z</time>
  <sat>8</sat>
</trkpt>
<trkpt lat="39.714688000" lon="-0.371458000">
  <ele>180.500000</ele>
  <time>2012-03-10T09:00:34Z</time>
  <sat>8</sat>
</trkpt>
<trkpt lat="39.714915000" lon="-0.371407000">
  <ele>179.100000</ele>
  <time>2012-03-10T09:00:38Z</time>
  <sat>8</sat>
</trkpt>
<trkpt lat="39.714963000" lon="-0.371404000">
  <ele>178.800000</ele>
  <time>2012-03-10T09:00:39Z</time>
  <sat>8</sat>
</trkpt>
<trkpt lat="39.715010000" lon="-0.371411000">
  <ele>179.100000</ele>
  <time>2012-03-10T09:00:40Z</time>
  <sat>8</sat>
</trkpt>
<trkpt lat="39.715151000" lon="-0.371440000">
  <ele>178.600000</ele>
  <time>2012-03-10T09:00:43Z</time>
  <sat>7</sat>
</trkpt>
<trkpt lat="39.715201000" lon="-0.371472000">
  <ele>178.600000</ele>
  <time>2012-03-10T09:00:44Z</time>
  <sat>7</sat>
</trkpt>
<trkpt lat="39.715420000" lon="-0.371553000">
  <ele>178.500000</ele>
  <time>2012-03-10T09:00:48Z</time>
  <sat>8</sat>
</trkpt>
<trkpt lat="39.715480000" lon="-0.371553000">
  <ele>177.800000</ele>
  <time>2012-03-10T09:00:49Z</time>
  <sat>8</sat>
</trkpt>
<trkpt lat="39.715536000" lon="-0.371530000">
  <ele>177.500000</ele>
  <time>2012-03-10T09:00:50Z</time>
  <sat>8</sat>
</trkpt>
<trkpt lat="39.715705000" lon="-0.371429000">
  <ele>176.100000</ele>
  <time>2012-03-10T09:00:53Z</time>
  <sat>8</sat>
</trkpt>
<trkpt lat="39.715819000" lon="-0.371391000">
  <ele>175.100000</ele>
  <time>2012-03-10T09:00:55Z</time>
  <sat>8</sat>
</trkpt>
<trkpt lat="39.715983000" lon="-0.371315000">
  <ele>173.600000</ele>
  <time>2012-03-10T09:00:58Z</time>
  <sat>8</sat>
</trkpt>
<trkpt lat="39.716020000" lon="-0.371259000">
  <ele>173.800000</ele>
  <time>2012-03-10T09:00:59Z</time>
  <sat>8</sat>
</trkpt>
<trkpt lat="39.716169000" lon="-0.371004000">
  <ele>172.100000</ele>
  <time>2012-03-10T09:01:04Z</time>
  <sat>8</sat>
</trkpt>
<trkpt lat="39.716340000" lon="-0.370677000">
  <ele>168.800000</ele>
  <time>2012-03-10T09:01:11Z</time>
  <sat>8</sat>
</trkpt>
<trkpt lat="39.716358000" lon="-0.370625000">
  <ele>168.600000</ele>
  <time>2012-03-10T09:01:12Z</time>
  <sat>8</sat>
</trkpt>
<trkpt lat="39.716420000" lon="-0.370493000">
  <ele>168.100000</ele>
  <time>2012-03-10T09:01:15Z</time>
  <sat>8</sat>
</trkpt>
<trkpt lat="39.716456000" lon="-0.370393000">
  <ele>167.500000</ele>
  <time>2012-03-10T09:01:17Z</time>
  <sat>8</sat>
</trkpt>
<trkpt lat="39.716493000" lon="-0.370220000">
  <ele>167.100000</ele>
  <time>2012-03-10T09:01:21Z</time>
  <sat>8</sat>
</trkpt>
<trkpt lat="39.716519000" lon="-0.370076000">
  <ele>167.100000</ele>
  <time>2012-03-10T09:01:24Z</time>
  <sat>8</sat>
</trkpt>
<trkpt lat="39.716518000" lon="-0.370023000">
  <ele>167.100000</ele>
  <time>2012-03-10T09:01:25Z</time>
  <sat>8</sat>
</trkpt>
<trkpt lat="39.716488000" lon="-0.369556000">
  <ele>167.800000</ele>
  <time>2012-03-10T09:01:34Z</time>
  <sat>8</sat>
</trkpt>
<trkpt lat="39.716474000" lon="-0.369500000">
  <ele>167.800000</ele>
  <time>2012-03-10T09:01:35Z</time>
  <sat>8</sat>
</trkpt>
<trkpt lat="39.716462000" lon="-0.369432000">
  <ele>167.500000</ele>
  <time>2012-03-10T09:01:36Z</time>
  <sat>8</sat>
</trkpt>
<trkpt lat="39.716462000" lon="-0.369364000">
  <ele>166.600000</ele>
  <time>2012-03-10T09:01:37Z</time>
  <sat>8</sat>
</trkpt>
<trkpt lat="39.716466000" lon="-0.369285000">
  <ele>165.600000</ele>
  <time>2012-03-10T09:01:38Z</time>
  <sat>8</sat>
</trkpt>
<trkpt lat="39.716475000" lon="-0.369199000">
  <ele>165.100000</ele>
  <time>2012-03-10T09:01:39Z</time>
  <sat>8</sat>
</trkpt>
<trkpt lat="39.716494000" lon="-0.369113000">
  <ele>164.500000</ele>
  <time>2012-03-10T09:01:40Z</time>
  <sat>8</sat>
</trkpt>
<trkpt lat="39.716520000" lon="-0.369025000">
  <ele>163.600000</ele>
  <time>2012-03-10T09:01:41Z</time>
  <sat>8</sat>
</trkpt>
<trkpt lat="39.716653000" lon="-0.368654000">
  <ele>161.000000</ele>
  <time>2012-03-10T09:01:45Z</time>
  <sat>8</sat>
</trkpt>
<trkpt lat="39.716704000" lon="-0.368560000">
  <ele>159.800000</ele>
  <time>2012-03-10T09:01:46Z</time>
  <sat>8</sat>
</trkpt>
<trkpt lat="39.716875000" lon="-0.368285000">
  <ele>158.100000</ele>
  <time>2012-03-10T09:01:49Z</time>
  <sat>8</sat>
</trkpt>
<trkpt lat="39.717013000" lon="-0.368035000">
  <ele>156.800000</ele>
  <time>2012-03-10T09:01:52Z</time>
  <sat>8</sat>
</trkpt>
<trkpt lat="39.717029000" lon="-0.367952000">
  <ele>155.800000</ele>
  <time>2012-03-10T09:01:53Z</time>
  <sat>8</sat>
</trkpt>
<trkpt lat="39.717028000" lon="-0.367863000">
  <ele>155.600000</ele>
  <time>2012-03-10T09:01:54Z</time>
  <sat>8</sat>
</trkpt>
<trkpt lat="39.717016000" lon="-0.367776000">
  <ele>155.300000</ele>
  <time>2012-03-10T09:01:55Z</time>
  <sat>8</sat>
</trkpt>
<trkpt lat="39.716955000" lon="-0.367516000">
  <ele>154.600000</ele>
  <time>2012-03-10T09:01:58Z</time>
  <sat>8</sat>
</trkpt>
<trkpt lat="39.716860000" lon="-0.367276000">
  <ele>154.800000</ele>
  <time>2012-03-10T09:02:01Z</time>
  <sat>8</sat>
</trkpt>
<trkpt lat="39.716815000" lon="-0.367213000">
  <ele>154.800000</ele>
  <time>2012-03-10T09:02:02Z</time>
  <sat>8</sat>
</trkpt>
<trkpt lat="39.716761000" lon="-0.367167000">
  <ele>155.000000</ele>
  <time>2012-03-10T09:02:03Z</time>
  <sat>8</sat>
</trkpt>
<trkpt lat="39.716458000" lon="-0.366967000">
  <ele>153.800000</ele>
  <time>2012-03-10T09:02:08Z</time>
  <sat>8</sat>
</trkpt>
<trkpt lat="39.716323000" lon="-0.366903000">
  <ele>152.800000</ele>
  <time>2012-03-10T09:02:10Z</time>
  <sat>8</sat>
</trkpt>
<trkpt lat="39.716256000" lon="-0.366884000">
  <ele>152.300000</ele>
  <time>2012-03-10T09:02:11Z</time>
  <sat>8</sat>
</trkpt>
<trkpt lat="39.716190000" lon="-0.366865000">
  <ele>152.300000</ele>
  <time>2012-03-10T09:02:12Z</time>
  <sat>8</sat>
</trkpt>
<trkpt lat="39.716130000" lon="-0.366834000">
  <ele>152.100000</ele>
  <time>2012-03-10T09:02:13Z</time>
  <sat>8</sat>
</trkpt>
<trkpt lat="39.716073000" lon="-0.366796000">
  <ele>152.000000</ele>
  <time>2012-03-10T09:02:14Z</time>
  <sat>8</sat>
</trkpt>
<trkpt lat="39.715844000" lon="-0.366616000">
  <ele>152.300000</ele>
  <time>2012-03-10T09:02:19Z</time>
  <sat>8</sat>
</trkpt>
<trkpt lat="39.715778000" lon="-0.366547000">
  <ele>152.300000</ele>
  <time>2012-03-10T09:02:21Z</time>
  <sat>8</sat>
</trkpt>
<trkpt lat="39.715729000" lon="-0.366482000">
  <ele>151.600000</ele>
  <time>2012-03-10T09:02:23Z</time>
  <sat>8</sat>
</trkpt>
<trkpt lat="39.715711000" lon="-0.366446000">
  <ele>152.000000</ele>
  <time>2012-03-10T09:02:24Z</time>
  <sat>8</sat>
</trkpt>
<trkpt lat="39.715711000" lon="-0.366411000">
  <ele>152.100000</ele>
  <time>2012-03-10T09:02:25Z</time>
  <sat>8</sat>
</trkpt>
<trkpt lat="39.715721000" lon="-0.366374000">
  <ele>151.300000</ele>
  <time>2012-03-10T09:02:26Z</time>
  <sat>8</sat>
</trkpt>
<trkpt lat="39.715739000" lon="-0.366334000">
  <ele>151.500000</ele>
  <time>2012-03-10T09:02:27Z</time>
  <sat>8</sat>
</trkpt>
<trkpt lat="39.716018000" lon="-0.365824000">
  <ele>149.100000</ele>
  <time>2012-03-10T09:02:37Z</time>
  <sat>8</sat>
</trkpt>
<trkpt lat="39.716074000" lon="-0.365715000">
  <ele>148.800000</ele>
  <time>2012-03-10T09:02:39Z</time>
  <sat>8</sat>
</trkpt>
<trkpt lat="39.716094000" lon="-0.365647000">
  <ele>148.600000</ele>
  <time>2012-03-10T09:02:40Z</time>
  <sat>8</sat>
</trkpt>
<trkpt lat="39.716105000" lon="-0.365576000">
  <ele>148.300000</ele>
  <time>2012-03-10T09:02:41Z</time>
  <sat>8</sat>
</trkpt>
<trkpt lat="39.716111000" lon="-0.365506000">
  <ele>148.000000</ele>
  <time>2012-03-10T09:02:42Z</time>
  <sat>8</sat>
</trkpt>
<trkpt lat="39.716112000" lon="-0.364964000">
  <ele>145.600000</ele>
  <time>2012-03-10T09:02:49Z</time>
  <sat>8</sat>
</trkpt>
<trkpt lat="39.716098000" lon="-0.364881000">
  <ele>145.300000</ele>
  <time>2012-03-10T09:02:50Z</time>
  <sat>8</sat>
</trkpt>
<trkpt lat="39.716078000" lon="-0.364694000">
  <ele>144.300000</ele>
  <time>2012-03-10T09:02:52Z</time>
  <sat>8</sat>
</trkpt>
<trkpt lat="39.716055000" lon="-0.364146000">
  <ele>141.300000</ele>
  <time>2012-03-10T09:02:57Z</time>
  <sat>8</sat>
</trkpt>
<trkpt lat="39.716060000" lon="-0.364029000">
  <ele>140.600000</ele>
  <time>2012-03-10T09:02:58Z</time>
  <sat>8</sat>
</trkpt>
<trkpt lat="39.716122000" lon="-0.362810000">
  <ele>136.600000</ele>
  <time>2012-03-10T09:03:09Z</time>
  <sat>8</sat>
</trkpt>
<trkpt lat="39.716073000" lon="-0.362760000">
  <ele>136.500000</ele>
  <time>2012-03-10T09:03:10Z</time>
  <sat>8</sat>
</trkpt>
<trkpt lat="39.715923000" lon="-0.362728000">
  <ele>136.800000</ele>
  <time>2012-03-10T09:03:12Z</time>
  <sat>8</sat>
</trkpt>
<trkpt lat="39.715857000" lon="-0.362704000">
  <ele>137.100000</ele>
  <time>2012-03-10T09:03:13Z</time>
  <sat>8</sat>
</trkpt>
<trkpt lat="39.715795000" lon="-0.362673000">
  <ele>137.300000</ele>
  <time>2012-03-10T09:03:14Z</time>
  <sat>8</sat>
</trkpt>
<trkpt lat="39.715481000" lon="-0.362526000">
  <ele>137.300000</ele>
  <time>2012-03-10T09:03:20Z</time>
  <sat>8</sat>
</trkpt>
<trkpt lat="39.715431000" lon="-0.362513000">
  <ele>136.800000</ele>
  <time>2012-03-10T09:03:21Z</time>
  <sat>8</sat>
</trkpt>
<trkpt lat="39.715238000" lon="-0.362494000">
  <ele>134.600000</ele>
  <time>2012-03-10T09:03:24Z</time>
  <sat>8</sat>
</trkpt>
<trkpt lat="39.715165000" lon="-0.362505000">
  <ele>134.000000</ele>
  <time>2012-03-10T09:03:25Z</time>
  <sat>8</sat>
</trkpt>
<trkpt lat="39.714955000" lon="-0.362530000">
  <ele>132.000000</ele>
  <time>2012-03-10T09:03:29Z</time>
  <sat>8</sat>
</trkpt>
<trkpt lat="39.714920000" lon="-0.362500000">
  <ele>131.600000</ele>
  <time>2012-03-10T09:03:30Z</time>
  <sat>8</sat>
</trkpt>
<trkpt lat="39.714894000" lon="-0.362449000">
  <ele>131.300000</ele>
  <time>2012-03-10T09:03:31Z</time>
  <sat>8</sat>
</trkpt>
<trkpt lat="39.714886000" lon="-0.362365000">
  <ele>131.600000</ele>
  <time>2012-03-10T09:03:32Z</time>
  <sat>8</sat>
</trkpt>
<trkpt lat="39.714923000" lon="-0.362165000">
  <ele>130.800000</ele>
  <time>2012-03-10T09:03:34Z</time>
  <sat>8</sat>
</trkpt>
<trkpt lat="39.714984000" lon="-0.362081000">
  <ele>130.500000</ele>
  <time>2012-03-10T09:03:35Z</time>
  <sat>8</sat>
</trkpt>
<trkpt lat="39.715028000" lon="-0.361992000">
  <ele>130.100000</ele>
  <time>2012-03-10T09:03:36Z</time>
  <sat>8</sat>
</trkpt>
<trkpt lat="39.715052000" lon="-0.361890000">
  <ele>129.600000</ele>
  <time>2012-03-10T09:03:37Z</time>
  <sat>8</sat>
</trkpt>
<trkpt lat="39.715062000" lon="-0.361770000">
  <ele>129.300000</ele>
  <time>2012-03-10T09:03:38Z</time>
  <sat>8</sat>
</trkpt>
<trkpt lat="39.715053000" lon="-0.361672000">
  <ele>130.000000</ele>
  <time>2012-03-10T09:03:39Z</time>
  <sat>8</sat>
</trkpt>
<trkpt lat="39.714970000" lon="-0.361552000">
  <ele>130.800000</ele>
  <time>2012-03-10T09:03:41Z</time>
  <sat>8</sat>
</trkpt>
<trkpt lat="39.714926000" lon="-0.361520000">
  <ele>130.600000</ele>
  <time>2012-03-10T09:03:42Z</time>
  <sat>8</sat>
</trkpt>
<trkpt lat="39.714888000" lon="-0.361491000">
  <ele>130.600000</ele>
  <time>2012-03-10T09:03:43Z</time>
  <sat>8</sat>
</trkpt>
<trkpt lat="39.714780000" lon="-0.361413000">
  <ele>132.100000</ele>
  <time>2012-03-10T09:03:46Z</time>
  <sat>8</sat>
</trkpt>
<trkpt lat="39.714749000" lon="-0.361378000">
  <ele>132.300000</ele>
  <time>2012-03-10T09:03:47Z</time>
  <sat>8</sat>
</trkpt>
<trkpt lat="39.714706000" lon="-0.361321000">
  <ele>133.800000</ele>
  <time>2012-03-10T09:03:49Z</time>
  <sat>8</sat>
</trkpt>
<trkpt lat="39.714680000" lon="-0.361283000">
  <ele>133.800000</ele>
  <time>2012-03-10T09:03:50Z</time>
  <sat>8</sat>
</trkpt>
<trkpt lat="39.714667000" lon="-0.361241000">
  <ele>134.100000</ele>
  <time>2012-03-10T09:03:51Z</time>
  <sat>8</sat>
</trkpt>
<trkpt lat="39.714650000" lon="-0.361141000">
  <ele>133.500000</ele>
  <time>2012-03-10T09:03:53Z</time>
  <sat>8</sat>
</trkpt>
<trkpt lat="39.714651000" lon="-0.361077000">
  <ele>132.000000</ele>
  <time>2012-03-10T09:03:54Z</time>
  <sat>8</sat>
</trkpt>
<trkpt lat="39.714655000" lon="-0.359912000">
  <ele>132.300000</ele>
  <time>2012-03-10T09:04:17Z</time>
  <sat>8</sat>
</trkpt>
<trkpt lat="39.714666000" lon="-0.359850000">
  <ele>132.300000</ele>
  <time>2012-03-10T09:04:18Z</time>
  <sat>8</sat>
</trkpt>
<trkpt lat="39.714797000" lon="-0.359082000">
  <ele>130.800000</ele>
  <time>2012-03-10T09:04:30Z</time>
  <sat>8</sat>
</trkpt>
<trkpt lat="39.714896000" lon="-0.358481000">
  <ele>129.600000</ele>
  <time>2012-03-10T09:04:39Z</time>
  <sat>8</sat>
</trkpt>
<trkpt lat="39.714892000" lon="-0.358406000">
  <ele>129.500000</ele>
  <time>2012-03-10T09:04:40Z</time>
  <sat>8</sat>
</trkpt>
<trkpt lat="39.714868000" lon="-0.358175000">
  <ele>128.800000</ele>
  <time>2012-03-10T09:04:43Z</time>
  <sat>8</sat>
</trkpt>
<trkpt lat="39.714852000" lon="-0.358100000">
  <ele>128.600000</ele>
  <time>2012-03-10T09:04:44Z</time>
  <sat>8</sat>
</trkpt>
<trkpt lat="39.714678000" lon="-0.356661000">
  <ele>122.600000</ele>
  <time>2012-03-10T09:05:01Z</time>
  <sat>9</sat>
</trkpt>
<trkpt lat="39.714725000" lon="-0.356644000">
  <ele>122.500000</ele>
  <time>2012-03-10T09:05:02Z</time>
  <sat>9</sat>
</trkpt>
<trkpt lat="39.714828000" lon="-0.356601000">
  <ele>123.000000</ele>
  <time>2012-03-10T09:05:04Z</time>
  <sat>9</sat>
</trkpt>
<trkpt lat="39.714873000" lon="-0.356560000">
  <ele>123.000000</ele>
  <time>2012-03-10T09:05:05Z</time>
  <sat>9</sat>
</trkpt>
<trkpt lat="39.714915000" lon="-0.356502000">
  <ele>123.000000</ele>
  <time>2012-03-10T09:05:06Z</time>
  <sat>9</sat>
</trkpt>
<trkpt lat="39.714915000" lon="-0.356367000">
  <ele>123.300000</ele>
  <time>2012-03-10T09:05:08Z</time>
  <sat>9</sat>
</trkpt>
<trkpt lat="39.714901000" lon="-0.356298000">
  <ele>123.400000</ele>
  <time>2012-03-10T09:05:09Z</time>
  <sat>9</sat>
</trkpt>
<trkpt lat="39.714819000" lon="-0.356071000">
  <ele>123.000000</ele>
  <time>2012-03-10T09:05:12Z</time>
  <sat>9</sat>
</trkpt>
<trkpt lat="39.714667000" lon="-0.355577000">
  <ele>119.800000</ele>
  <time>2012-03-10T09:05:20Z</time>
  <sat>8</sat>
</trkpt>
<trkpt lat="39.714652000" lon="-0.355515000">
  <ele>119.500000</ele>
  <time>2012-03-10T09:05:21Z</time>
  <sat>8</sat>
</trkpt>
<trkpt lat="39.714313000" lon="-0.354182000">
  <ele>114.800000</ele>
  <time>2012-03-10T09:05:38Z</time>
  <sat>8</sat>
</trkpt>
<trkpt lat="39.714300000" lon="-0.354112000">
  <ele>114.500000</ele>
  <time>2012-03-10T09:05:39Z</time>
  <sat>8</sat>
</trkpt>
<trkpt lat="39.714211000" lon="-0.353615000">
  <ele>115.600000</ele>
  <time>2012-03-10T09:05:46Z</time>
  <sat>8</sat>
</trkpt>
<trkpt lat="39.714205000" lon="-0.353545000">
  <ele>115.500000</ele>
  <time>2012-03-10T09:05:47Z</time>
  <sat>8</sat>
</trkpt>
<trkpt lat="39.714106000" lon="-0.352526000">
  <ele>118.500000</ele>
  <time>2012-03-10T09:06:06Z</time>
  <sat>8</sat>
</trkpt>
<trkpt lat="39.714113000" lon="-0.352479000">
  <ele>118.400000</ele>
  <time>2012-03-10T09:06:07Z</time>
  <sat>8</sat>
</trkpt>
<trkpt lat="39.714124000" lon="-0.352334000">
  <ele>118.000000</ele>
  <time>2012-03-10T09:06:10Z</time>
  <sat>8</sat>
</trkpt>
<trkpt lat="39.714121000" lon="-0.352177000">
  <ele>118.100000</ele>
  <time>2012-03-10T09:06:13Z</time>
  <sat>8</sat>
</trkpt>
<trkpt lat="39.714085000" lon="-0.351364000">
  <ele>118.000000</ele>
  <time>2012-03-10T09:06:28Z</time>
  <sat>8</sat>
</trkpt>
<trkpt lat="39.714106000" lon="-0.351328000">
  <ele>118.000000</ele>
  <time>2012-03-10T09:06:29Z</time>
  <sat>8</sat>
</trkpt>
<trkpt lat="39.714139000" lon="-0.351320000">
  <ele>118.000000</ele>
  <time>2012-03-10T09:06:30Z</time>
  <sat>8</sat>
</trkpt>
<trkpt lat="39.714166000" lon="-0.351306000">
  <ele>118.100000</ele>
  <time>2012-03-10T09:06:31Z</time>
  <sat>8</sat>
</trkpt>
<trkpt lat="39.714279000" lon="-0.351262000">
  <ele>118.800000</ele>
  <time>2012-03-10T09:06:35Z</time>
  <sat>8</sat>
</trkpt>
<trkpt lat="39.714307000" lon="-0.351249000">
  <ele>118.800000</ele>
  <time>2012-03-10T09:06:36Z</time>
  <sat>8</sat>
</trkpt>
<trkpt lat="39.714342000" lon="-0.351229000">
  <ele>118.500000</ele>
  <time>2012-03-10T09:06:37Z</time>
  <sat>8</sat>
</trkpt>
<trkpt lat="39.714672000" lon="-0.350999000">
  <ele>116.500000</ele>
  <time>2012-03-10T09:06:47Z</time>
  <sat>8</sat>
</trkpt>
<trkpt lat="39.714679000" lon="-0.350967000">
  <ele>117.100000</ele>
  <time>2012-03-10T09:06:48Z</time>
  <sat>8</sat>
</trkpt>
<trkpt lat="39.714666000" lon="-0.350928000">
  <ele>117.300000</ele>
  <time>2012-03-10T09:06:49Z</time>
  <sat>8</sat>
</trkpt>
<trkpt lat="39.714658000" lon="-0.350887000">
  <ele>117.100000</ele>
  <time>2012-03-10T09:06:50Z</time>
  <sat>8</sat>
</trkpt>
<trkpt lat="39.714640000" lon="-0.350822000">
  <ele>118.300000</ele>
  <time>2012-03-10T09:06:52Z</time>
  <sat>8</sat>
</trkpt>
<trkpt lat="39.714642000" lon="-0.350810000">
  <ele>119.000000</ele>
  <time>2012-03-10T09:06:53Z</time>
  <sat>8</sat>
</trkpt>
<trkpt lat="39.714660000" lon="-0.350805000">
  <ele>118.000000</ele>
  <time>2012-03-10T09:06:54Z</time>
  <sat>8</sat>
</trkpt>
<trkpt lat="39.714656000" lon="-0.350805000">
  <ele>118.600000</ele>
  <time>2012-03-10T09:06:55Z</time>
  <sat>8</sat>
</trkpt>
<trkpt lat="39.714656000" lon="-0.350805000">
  <ele>118.600000</ele>
  <time>2012-03-10T09:06:56Z</time>
  <sat>8</sat>
</trkpt>
<trkpt lat="39.714656000" lon="-0.350803000">
  <ele>118.900000</ele>
  <time>2012-03-10T09:06:57Z</time>
  <sat>8</sat>
</trkpt>
<trkpt lat="39.714655000" lon="-0.350802000">
  <ele>119.000000</ele>
  <time>2012-03-10T09:06:58Z</time>
  <sat>8</sat>
</trkpt>
<trkpt lat="39.714656000" lon="-0.350801000">
  <ele>119.300000</ele>
  <time>2012-03-10T09:06:59Z</time>
  <sat>8</sat>
</trkpt>
<trkpt lat="39.714655000" lon="-0.350801000">
  <ele>119.400000</ele>
  <time>2012-03-10T09:07:00Z</time>
  <sat>8</sat>
</trkpt>
<trkpt lat="39.714656000" lon="-0.350800000">
  <ele>119.500000</ele>
  <time>2012-03-10T09:07:01Z</time>
  <sat>8</sat>
</trkpt>
<trkpt lat="39.714652000" lon="-0.350795000">
  <ele>120.400000</ele>
  <time>2012-03-10T09:07:51Z</time>
  <sat>8</sat>
</trkpt>
<trkpt lat="39.714652000" lon="-0.350795000">
  <ele>120.400000</ele>
  <time>2012-03-10T09:07:51Z</time>
  <sat>8</sat>
</trkpt>
</trkseg>
</trk>
</gpx>
